<?xml version="1.0" encoding="UTF-8" standalone="no" ?>
<gpx xmlns="http://www.topografix.com/GPX/1/1" xmlns:xsi="http://www.w3.org/2001/XMLSchema-instance" xsi:schemaLocation="http://www.topografix.com/GPX/1/1 http://www.topografix.com/GPX/1/1/gpx.xsd" version="1.1" creator="VisuGPX - https://www.visugpx.com">
  <metadata>
    <name>Parcours 15 rouge  La Ronde des Puys - Puy Mary Espace Trail</name>
  </metadata>
  <trk>
    <name><![CDATA[Parcours 15 rouge  La Ronde des Puys - Puy Mary Espace Trail]]></name>
    <trkseg>
      <trkpt lat="45.06845" lon="2.65686">
        <ele>923</ele>
        <time>2000-01-01T00:33:15.000Z</time>
      </trkpt>
      <trkpt lat="45.06857" lon="2.65704">
        <ele>923.8</ele>
        <time>2000-01-01T00:33:25.000Z</time>
      </trkpt>
      <trkpt lat="45.0687" lon="2.65717">
        <ele>923</ele>
        <time>2000-01-01T00:33:35.000Z</time>
      </trkpt>
      <trkpt lat="45.06888" lon="2.65732">
        <ele>923</ele>
        <time>2000-01-01T00:33:45.000Z</time>
      </trkpt>
      <trkpt lat="45.06903" lon="2.65746">
        <ele>924.1</ele>
        <time>2000-01-01T00:33:55.000Z</time>
      </trkpt>
      <trkpt lat="45.06916" lon="2.65758">
        <ele>923</ele>
        <time>2000-01-01T00:34:05.000Z</time>
      </trkpt>
      <trkpt lat="45.06929" lon="2.65768">
        <ele>923.6</ele>
        <time>2000-01-01T00:34:15.000Z</time>
      </trkpt>
      <trkpt lat="45.06941" lon="2.65776">
        <ele>923</ele>
        <time>2000-01-01T00:34:25.000Z</time>
      </trkpt>
      <trkpt lat="45.06955" lon="2.65774">
        <ele>922.5</ele>
        <time>2000-01-01T00:34:35.000Z</time>
      </trkpt>
      <trkpt lat="45.06968" lon="2.65766">
        <ele>922</ele>
        <time>2000-01-01T00:34:45.000Z</time>
      </trkpt>
      <trkpt lat="45.06976" lon="2.65756">
        <ele>921.9</ele>
        <time>2000-01-01T00:34:55.000Z</time>
      </trkpt>
      <trkpt lat="45.06985" lon="2.65745">
        <ele>922.5</ele>
        <time>2000-01-01T00:35:05.000Z</time>
      </trkpt>
      <trkpt lat="45.06992" lon="2.65735">
        <ele>921.9</ele>
        <time>2000-01-01T00:35:15.000Z</time>
      </trkpt>
      <trkpt lat="45.06999" lon="2.65732">
        <ele>922.6</ele>
        <time>2000-01-01T00:35:25.000Z</time>
      </trkpt>
      <trkpt lat="45.07001" lon="2.65732">
        <ele>922.7</ele>
        <time>2000-01-01T00:35:35.000Z</time>
      </trkpt>
      <trkpt lat="45.07001" lon="2.65725">
        <ele>923</ele>
        <time>2000-01-01T00:35:45.000Z</time>
      </trkpt>
      <trkpt lat="45.07" lon="2.65719">
        <ele>923</ele>
        <time>2000-01-01T00:35:55.000Z</time>
      </trkpt>
      <trkpt lat="45.06996" lon="2.65712">
        <ele>922.5</ele>
        <time>2000-01-01T00:36:05.000Z</time>
      </trkpt>
      <trkpt lat="45.06994" lon="2.65705">
        <ele>922.4</ele>
        <time>2000-01-01T00:36:15.000Z</time>
      </trkpt>
      <trkpt lat="45.06994" lon="2.65705">
        <ele>922.4</ele>
        <time>2000-01-01T00:36:25.000Z</time>
      </trkpt>
      <trkpt lat="45.07008" lon="2.6569">
        <ele>923</ele>
        <time>2000-01-01T00:36:35.000Z</time>
      </trkpt>
      <trkpt lat="45.07008" lon="2.6569">
        <ele>923.4</ele>
        <time>2000-01-01T00:36:45.000Z</time>
      </trkpt>
      <trkpt lat="45.07024" lon="2.65675">
        <ele>925.1</ele>
        <time>2000-01-01T00:36:55.000Z</time>
      </trkpt>
      <trkpt lat="45.07042" lon="2.65655">
        <ele>928</ele>
        <time>2000-01-01T00:37:05.000Z</time>
      </trkpt>
      <trkpt lat="45.07043" lon="2.65653">
        <ele>933.5</ele>
        <time>2000-01-01T00:37:15.000Z</time>
      </trkpt>
      <trkpt lat="45.07043" lon="2.65649">
        <ele>934.1</ele>
        <time>2000-01-01T00:37:25.000Z</time>
      </trkpt>
      <trkpt lat="45.07044" lon="2.65644">
        <ele>935.2</ele>
        <time>2000-01-01T00:37:35.000Z</time>
      </trkpt>
      <trkpt lat="45.07043" lon="2.65641">
        <ele>935.3</ele>
        <time>2000-01-01T00:37:45.000Z</time>
      </trkpt>
      <trkpt lat="45.07042" lon="2.65637">
        <ele>935.4</ele>
        <time>2000-01-01T00:37:55.000Z</time>
      </trkpt>
      <trkpt lat="45.07041" lon="2.65634">
        <ele>935.5</ele>
        <time>2000-01-01T00:38:05.000Z</time>
      </trkpt>
      <trkpt lat="45.07035" lon="2.65629">
        <ele>930</ele>
        <time>2000-01-01T00:38:15.000Z</time>
      </trkpt>
      <trkpt lat="45.0702" lon="2.65618">
        <ele>934.2</ele>
        <time>2000-01-01T00:38:25.000Z</time>
      </trkpt>
      <trkpt lat="45.07014" lon="2.65613">
        <ele>935</ele>
        <time>2000-01-01T00:38:35.000Z</time>
      </trkpt>
      <trkpt lat="45.07009" lon="2.65603">
        <ele>936.2</ele>
        <time>2000-01-01T00:38:45.000Z</time>
      </trkpt>
      <trkpt lat="45.07004" lon="2.65591">
        <ele>938.6</ele>
        <time>2000-01-01T00:38:55.000Z</time>
      </trkpt>
      <trkpt lat="45.07" lon="2.65579">
        <ele>940</ele>
        <time>2000-01-01T00:39:05.000Z</time>
      </trkpt>
      <trkpt lat="45.07005" lon="2.65575">
        <ele>942</ele>
        <time>2000-01-01T00:39:15.000Z</time>
      </trkpt>
      <trkpt lat="45.07012" lon="2.65566">
        <ele>944.4</ele>
        <time>2000-01-01T00:39:25.000Z</time>
      </trkpt>
      <trkpt lat="45.07016" lon="2.6556">
        <ele>944</ele>
        <time>2000-01-01T00:39:35.000Z</time>
      </trkpt>
      <trkpt lat="45.07018" lon="2.65559">
        <ele>946.2</ele>
        <time>2000-01-01T00:39:45.000Z</time>
      </trkpt>
      <trkpt lat="45.0702" lon="2.6556">
        <ele>946.4</ele>
        <time>2000-01-01T00:39:55.000Z</time>
      </trkpt>
      <trkpt lat="45.07022" lon="2.65563">
        <ele>946.3</ele>
        <time>2000-01-01T00:40:05.000Z</time>
      </trkpt>
      <trkpt lat="45.07028" lon="2.65574">
        <ele>946</ele>
        <time>2000-01-01T00:40:15.000Z</time>
      </trkpt>
      <trkpt lat="45.07032" lon="2.65574">
        <ele>946</ele>
        <time>2000-01-01T00:40:25.000Z</time>
      </trkpt>
      <trkpt lat="45.07035" lon="2.65573">
        <ele>947.2</ele>
        <time>2000-01-01T00:40:35.000Z</time>
      </trkpt>
      <trkpt lat="45.07037" lon="2.65571">
        <ele>947.9</ele>
        <time>2000-01-01T00:40:45.000Z</time>
      </trkpt>
      <trkpt lat="45.07043" lon="2.65577">
        <ele>947.5</ele>
        <time>2000-01-01T00:40:55.000Z</time>
      </trkpt>
      <trkpt lat="45.07054" lon="2.65578">
        <ele>947</ele>
        <time>2000-01-01T00:41:05.000Z</time>
      </trkpt>
      <trkpt lat="45.0707" lon="2.65582">
        <ele>949.4</ele>
        <time>2000-01-01T00:41:15.000Z</time>
      </trkpt>
      <trkpt lat="45.07079" lon="2.65587">
        <ele>949</ele>
        <time>2000-01-01T00:41:25.000Z</time>
      </trkpt>
      <trkpt lat="45.07085" lon="2.65597">
        <ele>952.9</ele>
        <time>2000-01-01T00:41:35.000Z</time>
      </trkpt>
      <trkpt lat="45.07087" lon="2.65625">
        <ele>954</ele>
        <time>2000-01-01T00:41:45.000Z</time>
      </trkpt>
      <trkpt lat="45.07093" lon="2.65639">
        <ele>957.2</ele>
        <time>2000-01-01T00:41:55.000Z</time>
      </trkpt>
      <trkpt lat="45.07101" lon="2.6565">
        <ele>958</ele>
        <time>2000-01-01T00:42:05.000Z</time>
      </trkpt>
      <trkpt lat="45.07117" lon="2.65659">
        <ele>958.8</ele>
        <time>2000-01-01T00:42:15.000Z</time>
      </trkpt>
      <trkpt lat="45.07141" lon="2.65664">
        <ele>963</ele>
        <time>2000-01-01T00:42:25.000Z</time>
      </trkpt>
      <trkpt lat="45.0716" lon="2.65674">
        <ele>969</ele>
        <time>2000-01-01T00:42:35.000Z</time>
      </trkpt>
      <trkpt lat="45.07174" lon="2.65686">
        <ele>972.3</ele>
        <time>2000-01-01T00:42:45.000Z</time>
      </trkpt>
      <trkpt lat="45.07189" lon="2.65695">
        <ele>976</ele>
        <time>2000-01-01T00:42:55.000Z</time>
      </trkpt>
      <trkpt lat="45.07205" lon="2.65701">
        <ele>978.6</ele>
        <time>2000-01-01T00:43:05.000Z</time>
      </trkpt>
      <trkpt lat="45.07211" lon="2.65702">
        <ele>980</ele>
        <time>2000-01-01T00:43:15.000Z</time>
      </trkpt>
      <trkpt lat="45.07218" lon="2.65702">
        <ele>981.2</ele>
        <time>2000-01-01T00:43:25.000Z</time>
      </trkpt>
      <trkpt lat="45.07224" lon="2.65701">
        <ele>982.6</ele>
        <time>2000-01-01T00:43:35.000Z</time>
      </trkpt>
      <trkpt lat="45.0723" lon="2.65698">
        <ele>983</ele>
        <time>2000-01-01T00:43:45.000Z</time>
      </trkpt>
      <trkpt lat="45.07243" lon="2.6569">
        <ele>986.4</ele>
        <time>2000-01-01T00:43:55.000Z</time>
      </trkpt>
      <trkpt lat="45.07254" lon="2.65682">
        <ele>987</ele>
        <time>2000-01-01T00:44:05.000Z</time>
      </trkpt>
      <trkpt lat="45.07262" lon="2.6568">
        <ele>991</ele>
        <time>2000-01-01T00:44:15.000Z</time>
      </trkpt>
      <trkpt lat="45.07264" lon="2.65679">
        <ele>991.4</ele>
        <time>2000-01-01T00:44:25.000Z</time>
      </trkpt>
      <trkpt lat="45.07266" lon="2.65678">
        <ele>991.8</ele>
        <time>2000-01-01T00:44:35.000Z</time>
      </trkpt>
      <trkpt lat="45.0727" lon="2.65675">
        <ele>992.4</ele>
        <time>2000-01-01T00:44:45.000Z</time>
      </trkpt>
      <trkpt lat="45.07276" lon="2.65669">
        <ele>991</ele>
        <time>2000-01-01T00:44:55.000Z</time>
      </trkpt>
      <trkpt lat="45.07282" lon="2.65662">
        <ele>995.7</ele>
        <time>2000-01-01T00:45:05.000Z</time>
      </trkpt>
      <trkpt lat="45.0729" lon="2.6565">
        <ele>998</ele>
        <time>2000-01-01T00:45:15.000Z</time>
      </trkpt>
      <trkpt lat="45.073" lon="2.65631">
        <ele>1004.3</ele>
        <time>2000-01-01T00:45:25.000Z</time>
      </trkpt>
      <trkpt lat="45.07301" lon="2.65626">
        <ele>1003</ele>
        <time>2000-01-01T00:45:35.000Z</time>
      </trkpt>
      <trkpt lat="45.073" lon="2.65623">
        <ele>1006</ele>
        <time>2000-01-01T00:45:45.000Z</time>
      </trkpt>
      <trkpt lat="45.07295" lon="2.6562">
        <ele>1006.3</ele>
        <time>2000-01-01T00:45:55.000Z</time>
      </trkpt>
      <trkpt lat="45.07288" lon="2.65618">
        <ele>1006.2</ele>
        <time>2000-01-01T00:46:05.000Z</time>
      </trkpt>
      <trkpt lat="45.07281" lon="2.65613">
        <ele>1005</ele>
        <time>2000-01-01T00:46:15.000Z</time>
      </trkpt>
      <trkpt lat="45.0727" lon="2.65603">
        <ele>1010.2</ele>
        <time>2000-01-01T00:46:25.000Z</time>
      </trkpt>
      <trkpt lat="45.07258" lon="2.6559">
        <ele>1013</ele>
        <time>2000-01-01T00:46:35.000Z</time>
      </trkpt>
      <trkpt lat="45.07248" lon="2.65576">
        <ele>1017.5</ele>
        <time>2000-01-01T00:46:45.000Z</time>
      </trkpt>
      <trkpt lat="45.07247" lon="2.65577">
        <ele>1016.9</ele>
        <time>2000-01-01T00:46:55.000Z</time>
      </trkpt>
      <trkpt lat="45.07247" lon="2.65577">
        <ele>1016.9</ele>
        <time>2000-01-01T00:47:05.000Z</time>
      </trkpt>
      <trkpt lat="45.07248" lon="2.65576">
        <ele>1017.5</ele>
        <time>2000-01-01T00:47:15.000Z</time>
      </trkpt>
      <trkpt lat="45.07247" lon="2.65575">
        <ele>1017.4</ele>
        <time>2000-01-01T00:47:25.000Z</time>
      </trkpt>
      <trkpt lat="45.07258" lon="2.65569">
        <ele>1021</ele>
        <time>2000-01-01T00:47:35.000Z</time>
      </trkpt>
      <trkpt lat="45.07264" lon="2.65565">
        <ele>1023.3</ele>
        <time>2000-01-01T00:47:45.000Z</time>
      </trkpt>
      <trkpt lat="45.0727" lon="2.65558">
        <ele>1026.7</ele>
        <time>2000-01-01T00:47:55.000Z</time>
      </trkpt>
      <trkpt lat="45.07277" lon="2.65548">
        <ele>1030</ele>
        <time>2000-01-01T00:48:05.000Z</time>
      </trkpt>
      <trkpt lat="45.07286" lon="2.65534">
        <ele>1035.6</ele>
        <time>2000-01-01T00:48:15.000Z</time>
      </trkpt>
      <trkpt lat="45.07293" lon="2.6552">
        <ele>1039</ele>
        <time>2000-01-01T00:48:25.000Z</time>
      </trkpt>
      <trkpt lat="45.073" lon="2.65511">
        <ele>1041.5</ele>
        <time>2000-01-01T00:48:35.000Z</time>
      </trkpt>
      <trkpt lat="45.07306" lon="2.65503">
        <ele>1044.8</ele>
        <time>2000-01-01T00:48:45.000Z</time>
      </trkpt>
      <trkpt lat="45.07311" lon="2.65499">
        <ele>1046</ele>
        <time>2000-01-01T00:48:55.000Z</time>
      </trkpt>
      <trkpt lat="45.07311" lon="2.65497">
        <ele>1046.5</ele>
        <time>2000-01-01T00:49:05.000Z</time>
      </trkpt>
      <trkpt lat="45.07311" lon="2.65496">
        <ele>1046.8</ele>
        <time>2000-01-01T00:49:15.000Z</time>
      </trkpt>
      <trkpt lat="45.0731" lon="2.65491">
        <ele>1047.9</ele>
        <time>2000-01-01T00:49:25.000Z</time>
      </trkpt>
      <trkpt lat="45.07307" lon="2.65482">
        <ele>1049.9</ele>
        <time>2000-01-01T00:49:35.000Z</time>
      </trkpt>
      <trkpt lat="45.07303" lon="2.65476">
        <ele>1050</ele>
        <time>2000-01-01T00:49:45.000Z</time>
      </trkpt>
      <trkpt lat="45.07298" lon="2.65468">
        <ele>1050.8</ele>
        <time>2000-01-01T00:49:55.000Z</time>
      </trkpt>
      <trkpt lat="45.0729" lon="2.65449">
        <ele>1051</ele>
        <time>2000-01-01T00:50:05.000Z</time>
      </trkpt>
      <trkpt lat="45.07291" lon="2.6543">
        <ele>1054.7</ele>
        <time>2000-01-01T00:50:15.000Z</time>
      </trkpt>
      <trkpt lat="45.07293" lon="2.65411">
        <ele>1057</ele>
        <time>2000-01-01T00:50:25.000Z</time>
      </trkpt>
      <trkpt lat="45.07294" lon="2.6541">
        <ele>1059.5</ele>
        <time>2000-01-01T00:50:35.000Z</time>
      </trkpt>
      <trkpt lat="45.07295" lon="2.65406">
        <ele>1060.7</ele>
        <time>2000-01-01T00:50:45.000Z</time>
      </trkpt>
      <trkpt lat="45.07295" lon="2.654">
        <ele>1061.6</ele>
        <time>2000-01-01T00:50:55.000Z</time>
      </trkpt>
      <trkpt lat="45.07293" lon="2.6539">
        <ele>1062.4</ele>
        <time>2000-01-01T00:51:05.000Z</time>
      </trkpt>
      <trkpt lat="45.07288" lon="2.65374">
        <ele>1063</ele>
        <time>2000-01-01T00:51:15.000Z</time>
      </trkpt>
      <trkpt lat="45.0729" lon="2.65373">
        <ele>1066.3</ele>
        <time>2000-01-01T00:51:25.000Z</time>
      </trkpt>
      <trkpt lat="45.0729" lon="2.65373">
        <ele>1066.3</ele>
        <time>2000-01-01T00:51:35.000Z</time>
      </trkpt>
      <trkpt lat="45.07288" lon="2.65374">
        <ele>1065.3</ele>
        <time>2000-01-01T00:51:45.000Z</time>
      </trkpt>
      <trkpt lat="45.07288" lon="2.65374">
        <ele>1065.3</ele>
        <time>2000-01-01T00:51:55.000Z</time>
      </trkpt>
      <trkpt lat="45.07282" lon="2.65359">
        <ele>1069.1</ele>
        <time>2000-01-01T00:52:05.000Z</time>
      </trkpt>
      <trkpt lat="45.07274" lon="2.65349">
        <ele>1071</ele>
        <time>2000-01-01T00:52:15.000Z</time>
      </trkpt>
      <trkpt lat="45.07264" lon="2.6534">
        <ele>1073.8</ele>
        <time>2000-01-01T00:52:25.000Z</time>
      </trkpt>
      <trkpt lat="45.07261" lon="2.65332">
        <ele>1076.2</ele>
        <time>2000-01-01T00:52:35.000Z</time>
      </trkpt>
      <trkpt lat="45.07258" lon="2.65324">
        <ele>1077</ele>
        <time>2000-01-01T00:52:45.000Z</time>
      </trkpt>
      <trkpt lat="45.07253" lon="2.65317">
        <ele>1078.7</ele>
        <time>2000-01-01T00:52:55.000Z</time>
      </trkpt>
      <trkpt lat="45.07253" lon="2.65314">
        <ele>1079.6</ele>
        <time>2000-01-01T00:53:05.000Z</time>
      </trkpt>
      <trkpt lat="45.07253" lon="2.6531">
        <ele>1080.8</ele>
        <time>2000-01-01T00:53:15.000Z</time>
      </trkpt>
      <trkpt lat="45.07255" lon="2.65304">
        <ele>1082.9</ele>
        <time>2000-01-01T00:53:25.000Z</time>
      </trkpt>
      <trkpt lat="45.07258" lon="2.65294">
        <ele>1084</ele>
        <time>2000-01-01T00:53:35.000Z</time>
      </trkpt>
      <trkpt lat="45.07262" lon="2.65286">
        <ele>1084.7</ele>
        <time>2000-01-01T00:53:45.000Z</time>
      </trkpt>
      <trkpt lat="45.07267" lon="2.65277">
        <ele>1086</ele>
        <time>2000-01-01T00:53:55.000Z</time>
      </trkpt>
      <trkpt lat="45.0728" lon="2.6526">
        <ele>1087</ele>
        <time>2000-01-01T00:54:05.000Z</time>
      </trkpt>
      <trkpt lat="45.07292" lon="2.65246">
        <ele>1089.5</ele>
        <time>2000-01-01T00:54:15.000Z</time>
      </trkpt>
      <trkpt lat="45.07303" lon="2.65231">
        <ele>1090</ele>
        <time>2000-01-01T00:54:25.000Z</time>
      </trkpt>
      <trkpt lat="45.07311" lon="2.65225">
        <ele>1091.3</ele>
        <time>2000-01-01T00:54:35.000Z</time>
      </trkpt>
      <trkpt lat="45.07314" lon="2.65224">
        <ele>1091</ele>
        <time>2000-01-01T00:54:45.000Z</time>
      </trkpt>
      <trkpt lat="45.07322" lon="2.65226">
        <ele>1092</ele>
        <time>2000-01-01T00:54:55.000Z</time>
      </trkpt>
      <trkpt lat="45.07333" lon="2.65232">
        <ele>1093.2</ele>
        <time>2000-01-01T00:55:05.000Z</time>
      </trkpt>
      <trkpt lat="45.07342" lon="2.65238">
        <ele>1094</ele>
        <time>2000-01-01T00:55:15.000Z</time>
      </trkpt>
      <trkpt lat="45.0735" lon="2.65246">
        <ele>1094.3</ele>
        <time>2000-01-01T00:55:25.000Z</time>
      </trkpt>
      <trkpt lat="45.07354" lon="2.6525">
        <ele>1094.5</ele>
        <time>2000-01-01T00:55:35.000Z</time>
      </trkpt>
      <trkpt lat="45.07358" lon="2.65254">
        <ele>1094</ele>
        <time>2000-01-01T00:55:45.000Z</time>
      </trkpt>
      <trkpt lat="45.07363" lon="2.65258">
        <ele>1095.9</ele>
        <time>2000-01-01T00:55:55.000Z</time>
      </trkpt>
      <trkpt lat="45.07372" lon="2.65263">
        <ele>1096.8</ele>
        <time>2000-01-01T00:56:05.000Z</time>
      </trkpt>
      <trkpt lat="45.07383" lon="2.65273">
        <ele>1099</ele>
        <time>2000-01-01T00:56:15.000Z</time>
      </trkpt>
      <trkpt lat="45.07396" lon="2.65288">
        <ele>1102.3</ele>
        <time>2000-01-01T00:56:25.000Z</time>
      </trkpt>
      <trkpt lat="45.07408" lon="2.65308">
        <ele>1106</ele>
        <time>2000-01-01T00:56:35.000Z</time>
      </trkpt>
      <trkpt lat="45.07412" lon="2.65318">
        <ele>1106</ele>
        <time>2000-01-01T00:56:45.000Z</time>
      </trkpt>
      <trkpt lat="45.07415" lon="2.65324">
        <ele>1106.5</ele>
        <time>2000-01-01T00:56:55.000Z</time>
      </trkpt>
      <trkpt lat="45.07417" lon="2.6533">
        <ele>1107.3</ele>
        <time>2000-01-01T00:57:05.000Z</time>
      </trkpt>
      <trkpt lat="45.07422" lon="2.65338">
        <ele>1109</ele>
        <time>2000-01-01T00:57:15.000Z</time>
      </trkpt>
      <trkpt lat="45.07427" lon="2.65343">
        <ele>1106.5</ele>
        <time>2000-01-01T00:57:25.000Z</time>
      </trkpt>
      <trkpt lat="45.07435" lon="2.65349">
        <ele>1107</ele>
        <time>2000-01-01T00:57:35.000Z</time>
      </trkpt>
      <trkpt lat="45.07445" lon="2.65356">
        <ele>1109</ele>
        <time>2000-01-01T00:57:45.000Z</time>
      </trkpt>
      <trkpt lat="45.07461" lon="2.65365">
        <ele>1110.3</ele>
        <time>2000-01-01T00:57:55.000Z</time>
      </trkpt>
      <trkpt lat="45.07475" lon="2.65372">
        <ele>1110</ele>
        <time>2000-01-01T00:58:05.000Z</time>
      </trkpt>
      <trkpt lat="45.07484" lon="2.65375">
        <ele>1111.8</ele>
        <time>2000-01-01T00:58:15.000Z</time>
      </trkpt>
      <trkpt lat="45.07492" lon="2.65379">
        <ele>1112.9</ele>
        <time>2000-01-01T00:58:25.000Z</time>
      </trkpt>
      <trkpt lat="45.07498" lon="2.65383">
        <ele>1112</ele>
        <time>2000-01-01T00:58:35.000Z</time>
      </trkpt>
      <trkpt lat="45.07509" lon="2.65391">
        <ele>1117.1</ele>
        <time>2000-01-01T00:58:45.000Z</time>
      </trkpt>
      <trkpt lat="45.07517" lon="2.65396">
        <ele>1115</ele>
        <time>2000-01-01T00:58:55.000Z</time>
      </trkpt>
      <trkpt lat="45.07522" lon="2.654">
        <ele>1118.9</ele>
        <time>2000-01-01T00:59:05.000Z</time>
      </trkpt>
      <trkpt lat="45.07522" lon="2.65403">
        <ele>1119.2</ele>
        <time>2000-01-01T00:59:15.000Z</time>
      </trkpt>
      <trkpt lat="45.07521" lon="2.65404">
        <ele>1119</ele>
        <time>2000-01-01T00:59:25.000Z</time>
      </trkpt>
      <trkpt lat="45.07521" lon="2.65406">
        <ele>1119.2</ele>
        <time>2000-01-01T00:59:35.000Z</time>
      </trkpt>
      <trkpt lat="45.07523" lon="2.65407">
        <ele>1119.9</ele>
        <time>2000-01-01T00:59:45.000Z</time>
      </trkpt>
      <trkpt lat="45.07526" lon="2.6541">
        <ele>1121.2</ele>
        <time>2000-01-01T00:59:55.000Z</time>
      </trkpt>
      <trkpt lat="45.07533" lon="2.65415">
        <ele>1118</ele>
        <time>2000-01-01T01:00:05.000Z</time>
      </trkpt>
      <trkpt lat="45.07534" lon="2.65412">
        <ele>1123.7</ele>
        <time>2000-01-01T01:00:15.000Z</time>
      </trkpt>
      <trkpt lat="45.07534" lon="2.65412">
        <ele>1123.7</ele>
        <time>2000-01-01T01:00:25.000Z</time>
      </trkpt>
      <trkpt lat="45.07533" lon="2.65415">
        <ele>1124</ele>
        <time>2000-01-01T01:00:35.000Z</time>
      </trkpt>
      <trkpt lat="45.07542" lon="2.6542">
        <ele>1126.5</ele>
        <time>2000-01-01T01:00:45.000Z</time>
      </trkpt>
      <trkpt lat="45.07549" lon="2.65426">
        <ele>1124</ele>
        <time>2000-01-01T01:00:55.000Z</time>
      </trkpt>
      <trkpt lat="45.07552" lon="2.65428">
        <ele>1129.9</ele>
        <time>2000-01-01T01:01:05.000Z</time>
      </trkpt>
      <trkpt lat="45.07558" lon="2.65429">
        <ele>1132.2</ele>
        <time>2000-01-01T01:01:15.000Z</time>
      </trkpt>
      <trkpt lat="45.07567" lon="2.6543">
        <ele>1135.7</ele>
        <time>2000-01-01T01:01:25.000Z</time>
      </trkpt>
      <trkpt lat="45.07576" lon="2.65429">
        <ele>1130</ele>
        <time>2000-01-01T01:01:35.000Z</time>
      </trkpt>
      <trkpt lat="45.07579" lon="2.65428">
        <ele>1139.7</ele>
        <time>2000-01-01T01:01:45.000Z</time>
      </trkpt>
      <trkpt lat="45.07581" lon="2.65428">
        <ele>1140.4</ele>
        <time>2000-01-01T01:01:55.000Z</time>
      </trkpt>
      <trkpt lat="45.07585" lon="2.65426">
        <ele>1141.1</ele>
        <time>2000-01-01T01:02:05.000Z</time>
      </trkpt>
      <trkpt lat="45.0759" lon="2.65424">
        <ele>1141.7</ele>
        <time>2000-01-01T01:02:15.000Z</time>
      </trkpt>
      <trkpt lat="45.076" lon="2.65422">
        <ele>1138</ele>
        <time>2000-01-01T01:02:25.000Z</time>
      </trkpt>
      <trkpt lat="45.07608" lon="2.65422">
        <ele>1145.6</ele>
        <time>2000-01-01T01:02:35.000Z</time>
      </trkpt>
      <trkpt lat="45.07612" lon="2.65424">
        <ele>1147</ele>
        <time>2000-01-01T01:02:45.000Z</time>
      </trkpt>
      <trkpt lat="45.07614" lon="2.65428">
        <ele>1148.4</ele>
        <time>2000-01-01T01:02:55.000Z</time>
      </trkpt>
      <trkpt lat="45.07617" lon="2.65431">
        <ele>1149.6</ele>
        <time>2000-01-01T01:03:05.000Z</time>
      </trkpt>
      <trkpt lat="45.07621" lon="2.65433">
        <ele>1143</ele>
        <time>2000-01-01T01:03:15.000Z</time>
      </trkpt>
      <trkpt lat="45.07636" lon="2.65437">
        <ele>1153.5</ele>
        <time>2000-01-01T01:03:25.000Z</time>
      </trkpt>
      <trkpt lat="45.07643" lon="2.65439">
        <ele>1149</ele>
        <time>2000-01-01T01:03:35.000Z</time>
      </trkpt>
      <trkpt lat="45.07654" lon="2.65438">
        <ele>1155.3</ele>
        <time>2000-01-01T01:03:45.000Z</time>
      </trkpt>
      <trkpt lat="45.07665" lon="2.65435">
        <ele>1154</ele>
        <time>2000-01-01T01:03:55.000Z</time>
      </trkpt>
      <trkpt lat="45.07676" lon="2.65433">
        <ele>1156.9</ele>
        <time>2000-01-01T01:04:05.000Z</time>
      </trkpt>
      <trkpt lat="45.07678" lon="2.65432">
        <ele>1157.2</ele>
        <time>2000-01-01T01:04:15.000Z</time>
      </trkpt>
      <trkpt lat="45.07684" lon="2.65431">
        <ele>1158</ele>
        <time>2000-01-01T01:04:25.000Z</time>
      </trkpt>
      <trkpt lat="45.07699" lon="2.65427">
        <ele>1156</ele>
        <time>2000-01-01T01:04:35.000Z</time>
      </trkpt>
      <trkpt lat="45.07708" lon="2.65424">
        <ele>1163</ele>
        <time>2000-01-01T01:04:45.000Z</time>
      </trkpt>
      <trkpt lat="45.07716" lon="2.6542">
        <ele>1165.2</ele>
        <time>2000-01-01T01:04:55.000Z</time>
      </trkpt>
      <trkpt lat="45.07728" lon="2.65417">
        <ele>1160</ele>
        <time>2000-01-01T01:05:05.000Z</time>
      </trkpt>
      <trkpt lat="45.07734" lon="2.65416">
        <ele>1169.6</ele>
        <time>2000-01-01T01:05:15.000Z</time>
      </trkpt>
      <trkpt lat="45.07744" lon="2.65416">
        <ele>1171.7</ele>
        <time>2000-01-01T01:05:25.000Z</time>
      </trkpt>
      <trkpt lat="45.07752" lon="2.65413">
        <ele>1167</ele>
        <time>2000-01-01T01:05:35.000Z</time>
      </trkpt>
      <trkpt lat="45.0776" lon="2.65411">
        <ele>1174.4</ele>
        <time>2000-01-01T01:05:45.000Z</time>
      </trkpt>
      <trkpt lat="45.0777" lon="2.6541">
        <ele>1175.6</ele>
        <time>2000-01-01T01:05:55.000Z</time>
      </trkpt>
      <trkpt lat="45.07788" lon="2.65407">
        <ele>1173</ele>
        <time>2000-01-01T01:06:05.000Z</time>
      </trkpt>
      <trkpt lat="45.07805" lon="2.65403">
        <ele>1178</ele>
        <time>2000-01-01T01:06:15.000Z</time>
      </trkpt>
      <trkpt lat="45.07815" lon="2.65402">
        <ele>1176</ele>
        <time>2000-01-01T01:06:25.000Z</time>
      </trkpt>
      <trkpt lat="45.07821" lon="2.65406">
        <ele>1180.4</ele>
        <time>2000-01-01T01:06:35.000Z</time>
      </trkpt>
      <trkpt lat="45.07827" lon="2.65413">
        <ele>1180.6</ele>
        <time>2000-01-01T01:06:45.000Z</time>
      </trkpt>
      <trkpt lat="45.07835" lon="2.65418">
        <ele>1178</ele>
        <time>2000-01-01T01:06:55.000Z</time>
      </trkpt>
      <trkpt lat="45.07842" lon="2.65418">
        <ele>1182.8</ele>
        <time>2000-01-01T01:07:05.000Z</time>
      </trkpt>
      <trkpt lat="45.0785" lon="2.65419">
        <ele>1184.5</ele>
        <time>2000-01-01T01:07:15.000Z</time>
      </trkpt>
      <trkpt lat="45.07855" lon="2.65418">
        <ele>1181</ele>
        <time>2000-01-01T01:07:25.000Z</time>
      </trkpt>
      <trkpt lat="45.0786" lon="2.65416">
        <ele>1186.9</ele>
        <time>2000-01-01T01:07:35.000Z</time>
      </trkpt>
      <trkpt lat="45.07869" lon="2.6541">
        <ele>1191.4</ele>
        <time>2000-01-01T01:07:45.000Z</time>
      </trkpt>
      <trkpt lat="45.0787" lon="2.65395">
        <ele>1185</ele>
        <time>2000-01-01T01:07:55.000Z</time>
      </trkpt>
      <trkpt lat="45.07857" lon="2.65369">
        <ele>1193</ele>
        <time>2000-01-01T01:08:05.000Z</time>
      </trkpt>
      <trkpt lat="45.07855" lon="2.65341">
        <ele>1198</ele>
        <time>2000-01-01T01:08:15.000Z</time>
      </trkpt>
      <trkpt lat="45.07864" lon="2.65315">
        <ele>1205</ele>
        <time>2000-01-01T01:08:25.000Z</time>
      </trkpt>
      <trkpt lat="45.07875" lon="2.65333">
        <ele>1215.5</ele>
        <time>2000-01-01T01:08:35.000Z</time>
      </trkpt>
      <trkpt lat="45.07886" lon="2.65347">
        <ele>1211</ele>
        <time>2000-01-01T01:08:45.000Z</time>
      </trkpt>
      <trkpt lat="45.07894" lon="2.6535">
        <ele>1220.2</ele>
        <time>2000-01-01T01:08:55.000Z</time>
      </trkpt>
      <trkpt lat="45.07905" lon="2.65369">
        <ele>1217</ele>
        <time>2000-01-01T01:09:05.000Z</time>
      </trkpt>
      <trkpt lat="45.07913" lon="2.65368">
        <ele>1224.6</ele>
        <time>2000-01-01T01:09:15.000Z</time>
      </trkpt>
      <trkpt lat="45.07919" lon="2.65371">
        <ele>1225.4</ele>
        <time>2000-01-01T01:09:25.000Z</time>
      </trkpt>
      <trkpt lat="45.07926" lon="2.6537">
        <ele>1221</ele>
        <time>2000-01-01T01:09:35.000Z</time>
      </trkpt>
      <trkpt lat="45.07934" lon="2.65354">
        <ele>1229.6</ele>
        <time>2000-01-01T01:09:45.000Z</time>
      </trkpt>
      <trkpt lat="45.07937" lon="2.65315">
        <ele>1229</ele>
        <time>2000-01-01T01:09:55.000Z</time>
      </trkpt>
      <trkpt lat="45.0794" lon="2.65294">
        <ele>1243</ele>
        <time>2000-01-01T01:10:05.000Z</time>
      </trkpt>
      <trkpt lat="45.07946" lon="2.65275">
        <ele>1240</ele>
        <time>2000-01-01T01:10:15.000Z</time>
      </trkpt>
      <trkpt lat="45.07947" lon="2.65255">
        <ele>1251.6</ele>
        <time>2000-01-01T01:10:25.000Z</time>
      </trkpt>
      <trkpt lat="45.07952" lon="2.65243">
        <ele>1248</ele>
        <time>2000-01-01T01:10:35.000Z</time>
      </trkpt>
      <trkpt lat="45.07957" lon="2.65232">
        <ele>1253.9</ele>
        <time>2000-01-01T01:10:45.000Z</time>
      </trkpt>
      <trkpt lat="45.07966" lon="2.65215">
        <ele>1254</ele>
        <time>2000-01-01T01:10:55.000Z</time>
      </trkpt>
      <trkpt lat="45.07971" lon="2.652">
        <ele>1259.8</ele>
        <time>2000-01-01T01:11:05.000Z</time>
      </trkpt>
      <trkpt lat="45.07978" lon="2.65179">
        <ele>1258</ele>
        <time>2000-01-01T01:11:15.000Z</time>
      </trkpt>
      <trkpt lat="45.07989" lon="2.65166">
        <ele>1266.3</ele>
        <time>2000-01-01T01:11:25.000Z</time>
      </trkpt>
      <trkpt lat="45.08007" lon="2.65143">
        <ele>1263</ele>
        <time>2000-01-01T01:11:35.000Z</time>
      </trkpt>
      <trkpt lat="45.08014" lon="2.65118">
        <ele>1272</ele>
        <time>2000-01-01T01:11:45.000Z</time>
      </trkpt>
      <trkpt lat="45.08024" lon="2.65095">
        <ele>1283.2</ele>
        <time>2000-01-01T01:11:55.000Z</time>
      </trkpt>
      <trkpt lat="45.08042" lon="2.65089">
        <ele>1277</ele>
        <time>2000-01-01T01:12:05.000Z</time>
      </trkpt>
      <trkpt lat="45.08051" lon="2.65082">
        <ele>1293.7</ele>
        <time>2000-01-01T01:12:15.000Z</time>
      </trkpt>
      <trkpt lat="45.08061" lon="2.65076">
        <ele>1289</ele>
        <time>2000-01-01T01:12:25.000Z</time>
      </trkpt>
      <trkpt lat="45.08072" lon="2.65074">
        <ele>1298.5</ele>
        <time>2000-01-01T01:12:35.000Z</time>
      </trkpt>
      <trkpt lat="45.08078" lon="2.65067">
        <ele>1297</ele>
        <time>2000-01-01T01:12:45.000Z</time>
      </trkpt>
      <trkpt lat="45.08083" lon="2.65053">
        <ele>1306.5</ele>
        <time>2000-01-01T01:12:55.000Z</time>
      </trkpt>
      <trkpt lat="45.0809" lon="2.65018">
        <ele>1303</ele>
        <time>2000-01-01T01:13:05.000Z</time>
      </trkpt>
      <trkpt lat="45.08089" lon="2.64962">
        <ele>1316</ele>
        <time>2000-01-01T01:13:15.000Z</time>
      </trkpt>
      <trkpt lat="45.08082" lon="2.64927">
        <ele>1328</ele>
        <time>2000-01-01T01:13:25.000Z</time>
      </trkpt>
      <trkpt lat="45.08073" lon="2.64886">
        <ele>1342</ele>
        <time>2000-01-01T01:13:35.000Z</time>
      </trkpt>
      <trkpt lat="45.08061" lon="2.64869">
        <ele>1349.4</ele>
        <time>2000-01-01T01:13:45.000Z</time>
      </trkpt>
      <trkpt lat="45.08052" lon="2.64844">
        <ele>1343.5</ele>
        <time>2000-01-01T01:13:55.000Z</time>
      </trkpt>
      <trkpt lat="45.08067" lon="2.64833">
        <ele>1354.8</ele>
        <time>2000-01-01T01:14:05.000Z</time>
      </trkpt>
      <trkpt lat="45.08075" lon="2.64841">
        <ele>1345</ele>
        <time>2000-01-01T01:14:15.000Z</time>
      </trkpt>
      <trkpt lat="45.08096" lon="2.64836">
        <ele>1360</ele>
        <time>2000-01-01T01:14:25.000Z</time>
      </trkpt>
      <trkpt lat="45.08116" lon="2.64829">
        <ele>1373</ele>
        <time>2000-01-01T01:14:35.000Z</time>
      </trkpt>
      <trkpt lat="45.0812" lon="2.64811">
        <ele>1388.7</ele>
        <time>2000-01-01T01:14:45.000Z</time>
      </trkpt>
      <trkpt lat="45.0812" lon="2.64795">
        <ele>1385</ele>
        <time>2000-01-01T01:14:55.000Z</time>
      </trkpt>
      <trkpt lat="45.08125" lon="2.64776">
        <ele>1392.6</ele>
        <time>2000-01-01T01:15:05.000Z</time>
      </trkpt>
      <trkpt lat="45.08135" lon="2.64756">
        <ele>1390</ele>
        <time>2000-01-01T01:15:15.000Z</time>
      </trkpt>
      <trkpt lat="45.08142" lon="2.64743">
        <ele>1405.8</ele>
        <time>2000-01-01T01:15:25.000Z</time>
      </trkpt>
      <trkpt lat="45.08147" lon="2.64747">
        <ele>1408.8</ele>
        <time>2000-01-01T01:15:35.000Z</time>
      </trkpt>
      <trkpt lat="45.08158" lon="2.64765">
        <ele>1399</ele>
        <time>2000-01-01T01:15:45.000Z</time>
      </trkpt>
      <trkpt lat="45.08167" lon="2.6478">
        <ele>1419.8</ele>
        <time>2000-01-01T01:15:55.000Z</time>
      </trkpt>
      <trkpt lat="45.0818" lon="2.64791">
        <ele>1416</ele>
        <time>2000-01-01T01:16:05.000Z</time>
      </trkpt>
      <trkpt lat="45.08195" lon="2.64802">
        <ele>1425.3</ele>
        <time>2000-01-01T01:16:15.000Z</time>
      </trkpt>
      <trkpt lat="45.08208" lon="2.64807">
        <ele>1423</ele>
        <time>2000-01-01T01:16:25.000Z</time>
      </trkpt>
      <trkpt lat="45.08221" lon="2.64808">
        <ele>1431.5</ele>
        <time>2000-01-01T01:16:35.000Z</time>
      </trkpt>
      <trkpt lat="45.08231" lon="2.64807">
        <ele>1427</ele>
        <time>2000-01-01T01:16:45.000Z</time>
      </trkpt>
      <trkpt lat="45.08242" lon="2.64803">
        <ele>1433</ele>
        <time>2000-01-01T01:16:55.000Z</time>
      </trkpt>
      <trkpt lat="45.08249" lon="2.648">
        <ele>1434.4</ele>
        <time>2000-01-01T01:17:05.000Z</time>
      </trkpt>
      <trkpt lat="45.08255" lon="2.64794">
        <ele>1433</ele>
        <time>2000-01-01T01:17:15.000Z</time>
      </trkpt>
      <trkpt lat="45.08263" lon="2.64789">
        <ele>1437.8</ele>
        <time>2000-01-01T01:17:25.000Z</time>
      </trkpt>
      <trkpt lat="45.08272" lon="2.64784">
        <ele>1438.2</ele>
        <time>2000-01-01T01:17:35.000Z</time>
      </trkpt>
      <trkpt lat="45.08279" lon="2.64777">
        <ele>1437</ele>
        <time>2000-01-01T01:17:45.000Z</time>
      </trkpt>
      <trkpt lat="45.08287" lon="2.6477">
        <ele>1440.3</ele>
        <time>2000-01-01T01:17:55.000Z</time>
      </trkpt>
      <trkpt lat="45.08293" lon="2.64761">
        <ele>1442</ele>
        <time>2000-01-01T01:18:05.000Z</time>
      </trkpt>
      <trkpt lat="45.08297" lon="2.64754">
        <ele>1439</ele>
        <time>2000-01-01T01:18:15.000Z</time>
      </trkpt>
      <trkpt lat="45.08301" lon="2.64747">
        <ele>1444.6</ele>
        <time>2000-01-01T01:18:25.000Z</time>
      </trkpt>
      <trkpt lat="45.08304" lon="2.64737">
        <ele>1447.4</ele>
        <time>2000-01-01T01:18:35.000Z</time>
      </trkpt>
      <trkpt lat="45.08306" lon="2.64732">
        <ele>1448.5</ele>
        <time>2000-01-01T01:18:45.000Z</time>
      </trkpt>
      <trkpt lat="45.08311" lon="2.64728">
        <ele>1443</ele>
        <time>2000-01-01T01:18:55.000Z</time>
      </trkpt>
      <trkpt lat="45.08314" lon="2.64721">
        <ele>1448.9</ele>
        <time>2000-01-01T01:19:05.000Z</time>
      </trkpt>
      <trkpt lat="45.08317" lon="2.64714">
        <ele>1449.8</ele>
        <time>2000-01-01T01:19:15.000Z</time>
      </trkpt>
      <trkpt lat="45.08318" lon="2.64707">
        <ele>1451.9</ele>
        <time>2000-01-01T01:19:25.000Z</time>
      </trkpt>
      <trkpt lat="45.0832" lon="2.647">
        <ele>1447</ele>
        <time>2000-01-01T01:19:35.000Z</time>
      </trkpt>
      <trkpt lat="45.08322" lon="2.64693">
        <ele>1455.5</ele>
        <time>2000-01-01T01:19:45.000Z</time>
      </trkpt>
      <trkpt lat="45.08328" lon="2.64687">
        <ele>1455.6</ele>
        <time>2000-01-01T01:19:55.000Z</time>
      </trkpt>
      <trkpt lat="45.08335" lon="2.64683">
        <ele>1451</ele>
        <time>2000-01-01T01:20:05.000Z</time>
      </trkpt>
      <trkpt lat="45.08342" lon="2.6468">
        <ele>1456.1</ele>
        <time>2000-01-01T01:20:15.000Z</time>
      </trkpt>
      <trkpt lat="45.08349" lon="2.64676">
        <ele>1457.5</ele>
        <time>2000-01-01T01:20:25.000Z</time>
      </trkpt>
      <trkpt lat="45.08357" lon="2.64673">
        <ele>1454</ele>
        <time>2000-01-01T01:20:35.000Z</time>
      </trkpt>
      <trkpt lat="45.08364" lon="2.64674">
        <ele>1458.4</ele>
        <time>2000-01-01T01:20:45.000Z</time>
      </trkpt>
      <trkpt lat="45.0837" lon="2.64679">
        <ele>1457.9</ele>
        <time>2000-01-01T01:20:55.000Z</time>
      </trkpt>
      <trkpt lat="45.08378" lon="2.64685">
        <ele>1456</ele>
        <time>2000-01-01T01:21:05.000Z</time>
      </trkpt>
      <trkpt lat="45.08384" lon="2.64688">
        <ele>1458.2</ele>
        <time>2000-01-01T01:21:15.000Z</time>
      </trkpt>
      <trkpt lat="45.08387" lon="2.64686">
        <ele>1460.1</ele>
        <time>2000-01-01T01:21:25.000Z</time>
      </trkpt>
      <trkpt lat="45.08382" lon="2.64681">
        <ele>1460.7</ele>
        <time>2000-01-01T01:21:35.000Z</time>
      </trkpt>
      <trkpt lat="45.08378" lon="2.64675">
        <ele>1457</ele>
        <time>2000-01-01T01:21:45.000Z</time>
      </trkpt>
      <trkpt lat="45.08371" lon="2.64671">
        <ele>1461.9</ele>
        <time>2000-01-01T01:21:55.000Z</time>
      </trkpt>
      <trkpt lat="45.08366" lon="2.64663">
        <ele>1464.2</ele>
        <time>2000-01-01T01:22:05.000Z</time>
      </trkpt>
      <trkpt lat="45.0836" lon="2.64658">
        <ele>1461</ele>
        <time>2000-01-01T01:22:15.000Z</time>
      </trkpt>
      <trkpt lat="45.08352" lon="2.64655">
        <ele>1467.9</ele>
        <time>2000-01-01T01:22:25.000Z</time>
      </trkpt>
      <trkpt lat="45.08345" lon="2.64655">
        <ele>1468.8</ele>
        <time>2000-01-01T01:22:35.000Z</time>
      </trkpt>
      <trkpt lat="45.0834" lon="2.64657">
        <ele>1465</ele>
        <time>2000-01-01T01:22:45.000Z</time>
      </trkpt>
      <trkpt lat="45.0834" lon="2.64656">
        <ele>1468.8</ele>
        <time>2000-01-01T01:22:55.000Z</time>
      </trkpt>
      <trkpt lat="45.08332" lon="2.64656">
        <ele>1469.9</ele>
        <time>2000-01-01T01:23:05.000Z</time>
      </trkpt>
      <trkpt lat="45.08332" lon="2.64656">
        <ele>1469.9</ele>
        <time>2000-01-01T01:23:15.000Z</time>
      </trkpt>
      <trkpt lat="45.08325" lon="2.64653">
        <ele>1473.3</ele>
        <time>2000-01-01T01:23:25.000Z</time>
      </trkpt>
      <trkpt lat="45.08325" lon="2.64653">
        <ele>1473.3</ele>
        <time>2000-01-01T01:23:35.000Z</time>
      </trkpt>
      <trkpt lat="45.08335" lon="2.64648">
        <ele>1467</ele>
        <time>2000-01-01T01:23:45.000Z</time>
      </trkpt>
      <trkpt lat="45.08335" lon="2.64648">
        <ele>1474.2</ele>
        <time>2000-01-01T01:23:55.000Z</time>
      </trkpt>
      <trkpt lat="45.08344" lon="2.64643">
        <ele>1475.7</ele>
        <time>2000-01-01T01:24:05.000Z</time>
      </trkpt>
      <trkpt lat="45.08352" lon="2.64637">
        <ele>1477.9</ele>
        <time>2000-01-01T01:24:15.000Z</time>
      </trkpt>
      <trkpt lat="45.08352" lon="2.64637">
        <ele>1477.9</ele>
        <time>2000-01-01T01:24:25.000Z</time>
      </trkpt>
      <trkpt lat="45.08358" lon="2.64631">
        <ele>1472</ele>
        <time>2000-01-01T01:24:35.000Z</time>
      </trkpt>
      <trkpt lat="45.08358" lon="2.64631">
        <ele>1480.8</ele>
        <time>2000-01-01T01:24:45.000Z</time>
      </trkpt>
      <trkpt lat="45.08368" lon="2.6463">
        <ele>1482.3</ele>
        <time>2000-01-01T01:24:55.000Z</time>
      </trkpt>
      <trkpt lat="45.08368" lon="2.6463">
        <ele>1482.3</ele>
        <time>2000-01-01T01:25:05.000Z</time>
      </trkpt>
      <trkpt lat="45.08377" lon="2.64627">
        <ele>1478</ele>
        <time>2000-01-01T01:25:15.000Z</time>
      </trkpt>
      <trkpt lat="45.08384" lon="2.64628">
        <ele>1486.9</ele>
        <time>2000-01-01T01:25:25.000Z</time>
      </trkpt>
      <trkpt lat="45.08384" lon="2.64628">
        <ele>1486.9</ele>
        <time>2000-01-01T01:25:35.000Z</time>
      </trkpt>
      <trkpt lat="45.08392" lon="2.64633">
        <ele>1485.4</ele>
        <time>2000-01-01T01:25:45.000Z</time>
      </trkpt>
      <trkpt lat="45.08392" lon="2.64633">
        <ele>1485.4</ele>
        <time>2000-01-01T01:25:55.000Z</time>
      </trkpt>
      <trkpt lat="45.08401" lon="2.64632">
        <ele>1483</ele>
        <time>2000-01-01T01:26:05.000Z</time>
      </trkpt>
      <trkpt lat="45.08401" lon="2.64632">
        <ele>1486.5</ele>
        <time>2000-01-01T01:26:15.000Z</time>
      </trkpt>
      <trkpt lat="45.08409" lon="2.64628">
        <ele>1488.6</ele>
        <time>2000-01-01T01:26:25.000Z</time>
      </trkpt>
      <trkpt lat="45.08409" lon="2.64628">
        <ele>1488.6</ele>
        <time>2000-01-01T01:26:35.000Z</time>
      </trkpt>
      <trkpt lat="45.08414" lon="2.64621">
        <ele>1491.5</ele>
        <time>2000-01-01T01:26:45.000Z</time>
      </trkpt>
      <trkpt lat="45.08418" lon="2.64613">
        <ele>1490</ele>
        <time>2000-01-01T01:26:55.000Z</time>
      </trkpt>
      <trkpt lat="45.08418" lon="2.64613">
        <ele>1493.6</ele>
        <time>2000-01-01T01:27:05.000Z</time>
      </trkpt>
      <trkpt lat="45.08424" lon="2.64604">
        <ele>1494.4</ele>
        <time>2000-01-01T01:27:15.000Z</time>
      </trkpt>
      <trkpt lat="45.08424" lon="2.64604">
        <ele>1494.4</ele>
        <time>2000-01-01T01:27:25.000Z</time>
      </trkpt>
      <trkpt lat="45.08427" lon="2.64597">
        <ele>1495.8</ele>
        <time>2000-01-01T01:27:35.000Z</time>
      </trkpt>
      <trkpt lat="45.08429" lon="2.64594">
        <ele>1495.9</ele>
        <time>2000-01-01T01:27:45.000Z</time>
      </trkpt>
      <trkpt lat="45.08432" lon="2.64589">
        <ele>1493</ele>
        <time>2000-01-01T01:27:55.000Z</time>
      </trkpt>
      <trkpt lat="45.08435" lon="2.64583">
        <ele>1496.6</ele>
        <time>2000-01-01T01:28:05.000Z</time>
      </trkpt>
      <trkpt lat="45.08437" lon="2.64578">
        <ele>1497.2</ele>
        <time>2000-01-01T01:28:15.000Z</time>
      </trkpt>
      <trkpt lat="45.08439" lon="2.64572">
        <ele>1498.1</ele>
        <time>2000-01-01T01:28:25.000Z</time>
      </trkpt>
      <trkpt lat="45.0844" lon="2.64566">
        <ele>1499.7</ele>
        <time>2000-01-01T01:28:35.000Z</time>
      </trkpt>
      <trkpt lat="45.08442" lon="2.6456">
        <ele>1496</ele>
        <time>2000-01-01T01:28:45.000Z</time>
      </trkpt>
      <trkpt lat="45.08448" lon="2.6455">
        <ele>1501.7</ele>
        <time>2000-01-01T01:28:55.000Z</time>
      </trkpt>
      <trkpt lat="45.08451" lon="2.64542">
        <ele>1504.5</ele>
        <time>2000-01-01T01:29:05.000Z</time>
      </trkpt>
      <trkpt lat="45.08453" lon="2.64537">
        <ele>1499</ele>
        <time>2000-01-01T01:29:15.000Z</time>
      </trkpt>
      <trkpt lat="45.08453" lon="2.64536">
        <ele>1506.6</ele>
        <time>2000-01-01T01:29:25.000Z</time>
      </trkpt>
      <trkpt lat="45.08456" lon="2.64533">
        <ele>1507</ele>
        <time>2000-01-01T01:29:35.000Z</time>
      </trkpt>
      <trkpt lat="45.08461" lon="2.64527">
        <ele>1508</ele>
        <time>2000-01-01T01:29:45.000Z</time>
      </trkpt>
      <trkpt lat="45.08465" lon="2.64519">
        <ele>1510.3</ele>
        <time>2000-01-01T01:29:55.000Z</time>
      </trkpt>
      <trkpt lat="45.08468" lon="2.64512">
        <ele>1505</ele>
        <time>2000-01-01T01:30:05.000Z</time>
      </trkpt>
      <trkpt lat="45.08473" lon="2.64504">
        <ele>1514.1</ele>
        <time>2000-01-01T01:30:15.000Z</time>
      </trkpt>
      <trkpt lat="45.08478" lon="2.64496">
        <ele>1516.4</ele>
        <time>2000-01-01T01:30:25.000Z</time>
      </trkpt>
      <trkpt lat="45.0848" lon="2.64495">
        <ele>1516.4</ele>
        <time>2000-01-01T01:30:35.000Z</time>
      </trkpt>
      <trkpt lat="45.08482" lon="2.64492">
        <ele>1511</ele>
        <time>2000-01-01T01:30:45.000Z</time>
      </trkpt>
      <trkpt lat="45.08484" lon="2.64486">
        <ele>1519.6</ele>
        <time>2000-01-01T01:30:55.000Z</time>
      </trkpt>
      <trkpt lat="45.08487" lon="2.64477">
        <ele>1523</ele>
        <time>2000-01-01T01:31:05.000Z</time>
      </trkpt>
      <trkpt lat="45.08488" lon="2.64473">
        <ele>1524.7</ele>
        <time>2000-01-01T01:31:15.000Z</time>
      </trkpt>
      <trkpt lat="45.08494" lon="2.64467">
        <ele>1516</ele>
        <time>2000-01-01T01:31:25.000Z</time>
      </trkpt>
      <trkpt lat="45.08497" lon="2.64462">
        <ele>1527.9</ele>
        <time>2000-01-01T01:31:35.000Z</time>
      </trkpt>
      <trkpt lat="45.08502" lon="2.64457">
        <ele>1529.3</ele>
        <time>2000-01-01T01:31:45.000Z</time>
      </trkpt>
      <trkpt lat="45.08508" lon="2.64453">
        <ele>1530.2</ele>
        <time>2000-01-01T01:31:55.000Z</time>
      </trkpt>
      <trkpt lat="45.08511" lon="2.64449">
        <ele>1524</ele>
        <time>2000-01-01T01:32:05.000Z</time>
      </trkpt>
      <trkpt lat="45.08518" lon="2.6444">
        <ele>1535.1</ele>
        <time>2000-01-01T01:32:15.000Z</time>
      </trkpt>
      <trkpt lat="45.08523" lon="2.64432">
        <ele>1538.3</ele>
        <time>2000-01-01T01:32:25.000Z</time>
      </trkpt>
      <trkpt lat="45.08526" lon="2.64426">
        <ele>1531</ele>
        <time>2000-01-01T01:32:35.000Z</time>
      </trkpt>
      <trkpt lat="45.08528" lon="2.64425">
        <ele>1540.8</ele>
        <time>2000-01-01T01:32:45.000Z</time>
      </trkpt>
      <trkpt lat="45.08531" lon="2.64424">
        <ele>1541.6</ele>
        <time>2000-01-01T01:32:55.000Z</time>
      </trkpt>
      <trkpt lat="45.08533" lon="2.64422">
        <ele>1542.8</ele>
        <time>2000-01-01T01:33:05.000Z</time>
      </trkpt>
      <trkpt lat="45.08539" lon="2.64417">
        <ele>1545.7</ele>
        <time>2000-01-01T01:33:15.000Z</time>
      </trkpt>
      <trkpt lat="45.08541" lon="2.64415">
        <ele>1546.3</ele>
        <time>2000-01-01T01:33:25.000Z</time>
      </trkpt>
      <trkpt lat="45.08541" lon="2.64413">
        <ele>1546.6</ele>
        <time>2000-01-01T01:33:35.000Z</time>
      </trkpt>
      <trkpt lat="45.08544" lon="2.64413">
        <ele>1540</ele>
        <time>2000-01-01T01:33:45.000Z</time>
      </trkpt>
      <trkpt lat="45.08549" lon="2.6441">
        <ele>1547.2</ele>
        <time>2000-01-01T01:33:55.000Z</time>
      </trkpt>
      <trkpt lat="45.08552" lon="2.64409">
        <ele>1547.3</ele>
        <time>2000-01-01T01:34:05.000Z</time>
      </trkpt>
      <trkpt lat="45.08555" lon="2.6441">
        <ele>1547.2</ele>
        <time>2000-01-01T01:34:15.000Z</time>
      </trkpt>
      <trkpt lat="45.08557" lon="2.64414">
        <ele>1546.9</ele>
        <time>2000-01-01T01:34:25.000Z</time>
      </trkpt>
      <trkpt lat="45.08561" lon="2.64418">
        <ele>1546</ele>
        <time>2000-01-01T01:34:35.000Z</time>
      </trkpt>
      <trkpt lat="45.08574" lon="2.64427">
        <ele>1543.9</ele>
        <time>2000-01-01T01:34:45.000Z</time>
      </trkpt>
      <trkpt lat="45.08588" lon="2.64437">
        <ele>1545</ele>
        <time>2000-01-01T01:34:55.000Z</time>
      </trkpt>
      <trkpt lat="45.08602" lon="2.64442">
        <ele>1542.8</ele>
        <time>2000-01-01T01:35:05.000Z</time>
      </trkpt>
      <trkpt lat="45.08615" lon="2.64448">
        <ele>1544</ele>
        <time>2000-01-01T01:35:15.000Z</time>
      </trkpt>
      <trkpt lat="45.08624" lon="2.64452">
        <ele>1541.2</ele>
        <time>2000-01-01T01:35:25.000Z</time>
      </trkpt>
      <trkpt lat="45.0863" lon="2.64453">
        <ele>1540.6</ele>
        <time>2000-01-01T01:35:35.000Z</time>
      </trkpt>
      <trkpt lat="45.08639" lon="2.64453">
        <ele>1542</ele>
        <time>2000-01-01T01:35:45.000Z</time>
      </trkpt>
      <trkpt lat="45.08648" lon="2.64453">
        <ele>1539.3</ele>
        <time>2000-01-01T01:35:55.000Z</time>
      </trkpt>
      <trkpt lat="45.08656" lon="2.64451">
        <ele>1539.2</ele>
        <time>2000-01-01T01:36:05.000Z</time>
      </trkpt>
      <trkpt lat="45.08664" lon="2.6445">
        <ele>1540</ele>
        <time>2000-01-01T01:36:15.000Z</time>
      </trkpt>
      <trkpt lat="45.08673" lon="2.64446">
        <ele>1538.6</ele>
        <time>2000-01-01T01:36:25.000Z</time>
      </trkpt>
      <trkpt lat="45.08689" lon="2.64437">
        <ele>1540.5</ele>
        <time>2000-01-01T01:36:35.000Z</time>
      </trkpt>
      <trkpt lat="45.08701" lon="2.64431">
        <ele>1537.9</ele>
        <time>2000-01-01T01:36:45.000Z</time>
      </trkpt>
      <trkpt lat="45.08718" lon="2.64422">
        <ele>1541</ele>
        <time>2000-01-01T01:36:55.000Z</time>
      </trkpt>
      <trkpt lat="45.08741" lon="2.6441">
        <ele>1543</ele>
        <time>2000-01-01T01:37:05.000Z</time>
      </trkpt>
      <trkpt lat="45.08754" lon="2.64402">
        <ele>1547.9</ele>
        <time>2000-01-01T01:37:15.000Z</time>
      </trkpt>
      <trkpt lat="45.08768" lon="2.64395">
        <ele>1546</ele>
        <time>2000-01-01T01:37:25.000Z</time>
      </trkpt>
      <trkpt lat="45.08786" lon="2.64387">
        <ele>1551</ele>
        <time>2000-01-01T01:37:35.000Z</time>
      </trkpt>
      <trkpt lat="45.08799" lon="2.64385">
        <ele>1560.9</ele>
        <time>2000-01-01T01:37:45.000Z</time>
      </trkpt>
      <trkpt lat="45.08814" lon="2.64384">
        <ele>1556</ele>
        <time>2000-01-01T01:37:55.000Z</time>
      </trkpt>
      <trkpt lat="45.08822" lon="2.64383">
        <ele>1569</ele>
        <time>2000-01-01T01:38:05.000Z</time>
      </trkpt>
      <trkpt lat="45.08823" lon="2.64382">
        <ele>1569.3</ele>
        <time>2000-01-01T01:38:15.000Z</time>
      </trkpt>
      <trkpt lat="45.0883" lon="2.64381">
        <ele>1571.9</ele>
        <time>2000-01-01T01:38:25.000Z</time>
      </trkpt>
      <trkpt lat="45.08836" lon="2.64379">
        <ele>1566</ele>
        <time>2000-01-01T01:38:35.000Z</time>
      </trkpt>
      <trkpt lat="45.08843" lon="2.64377">
        <ele>1576.9</ele>
        <time>2000-01-01T01:38:45.000Z</time>
      </trkpt>
      <trkpt lat="45.08847" lon="2.64375">
        <ele>1578.4</ele>
        <time>2000-01-01T01:38:55.000Z</time>
      </trkpt>
      <trkpt lat="45.08854" lon="2.64373">
        <ele>1581.2</ele>
        <time>2000-01-01T01:39:05.000Z</time>
      </trkpt>
      <trkpt lat="45.08858" lon="2.6437">
        <ele>1573</ele>
        <time>2000-01-01T01:39:15.000Z</time>
      </trkpt>
      <trkpt lat="45.08862" lon="2.64366">
        <ele>1584</ele>
        <time>2000-01-01T01:39:25.000Z</time>
      </trkpt>
      <trkpt lat="45.08868" lon="2.64363">
        <ele>1586.5</ele>
        <time>2000-01-01T01:39:35.000Z</time>
      </trkpt>
      <trkpt lat="45.08872" lon="2.6436">
        <ele>1587.9</ele>
        <time>2000-01-01T01:39:45.000Z</time>
      </trkpt>
      <trkpt lat="45.08876" lon="2.64356">
        <ele>1583</ele>
        <time>2000-01-01T01:39:55.000Z</time>
      </trkpt>
      <trkpt lat="45.08878" lon="2.6436">
        <ele>1590.7</ele>
        <time>2000-01-01T01:40:05.000Z</time>
      </trkpt>
      <trkpt lat="45.0888" lon="2.64371">
        <ele>1593.9</ele>
        <time>2000-01-01T01:40:15.000Z</time>
      </trkpt>
      <trkpt lat="45.08882" lon="2.64382">
        <ele>1589</ele>
        <time>2000-01-01T01:40:25.000Z</time>
      </trkpt>
      <trkpt lat="45.08884" lon="2.64385">
        <ele>1599.1</ele>
        <time>2000-01-01T01:40:35.000Z</time>
      </trkpt>
      <trkpt lat="45.08886" lon="2.64391">
        <ele>1601.2</ele>
        <time>2000-01-01T01:40:45.000Z</time>
      </trkpt>
      <trkpt lat="45.08888" lon="2.64396">
        <ele>1602.4</ele>
        <time>2000-01-01T01:40:55.000Z</time>
      </trkpt>
      <trkpt lat="45.08896" lon="2.644">
        <ele>1597</ele>
        <time>2000-01-01T01:41:05.000Z</time>
      </trkpt>
      <trkpt lat="45.08909" lon="2.64407">
        <ele>1612.1</ele>
        <time>2000-01-01T01:41:15.000Z</time>
      </trkpt>
      <trkpt lat="45.08916" lon="2.64411">
        <ele>1606</ele>
        <time>2000-01-01T01:41:25.000Z</time>
      </trkpt>
      <trkpt lat="45.08923" lon="2.64413">
        <ele>1617.5</ele>
        <time>2000-01-01T01:41:35.000Z</time>
      </trkpt>
      <trkpt lat="45.08934" lon="2.64412">
        <ele>1619.1</ele>
        <time>2000-01-01T01:41:45.000Z</time>
      </trkpt>
      <trkpt lat="45.08946" lon="2.64412">
        <ele>1616</ele>
        <time>2000-01-01T01:41:55.000Z</time>
      </trkpt>
      <trkpt lat="45.08959" lon="2.6441">
        <ele>1620.4</ele>
        <time>2000-01-01T01:42:05.000Z</time>
      </trkpt>
      <trkpt lat="45.08965" lon="2.64408">
        <ele>1620.2</ele>
        <time>2000-01-01T01:42:15.000Z</time>
      </trkpt>
      <trkpt lat="45.08972" lon="2.64407">
        <ele>1618</ele>
        <time>2000-01-01T01:42:25.000Z</time>
      </trkpt>
      <trkpt lat="45.08979" lon="2.64405">
        <ele>1619.8</ele>
        <time>2000-01-01T01:42:35.000Z</time>
      </trkpt>
      <trkpt lat="45.08986" lon="2.64401">
        <ele>1619.9</ele>
        <time>2000-01-01T01:42:45.000Z</time>
      </trkpt>
      <trkpt lat="45.08994" lon="2.64396">
        <ele>1620</ele>
        <time>2000-01-01T01:42:55.000Z</time>
      </trkpt>
      <trkpt lat="45.09003" lon="2.64391">
        <ele>1621.7</ele>
        <time>2000-01-01T01:43:05.000Z</time>
      </trkpt>
      <trkpt lat="45.0901" lon="2.64386">
        <ele>1622.5</ele>
        <time>2000-01-01T01:43:15.000Z</time>
      </trkpt>
      <trkpt lat="45.09017" lon="2.6438">
        <ele>1620</ele>
        <time>2000-01-01T01:43:25.000Z</time>
      </trkpt>
      <trkpt lat="45.09025" lon="2.64372">
        <ele>1625.6</ele>
        <time>2000-01-01T01:43:35.000Z</time>
      </trkpt>
      <trkpt lat="45.0903" lon="2.64366">
        <ele>1627.5</ele>
        <time>2000-01-01T01:43:45.000Z</time>
      </trkpt>
      <trkpt lat="45.09038" lon="2.64354">
        <ele>1625</ele>
        <time>2000-01-01T01:43:55.000Z</time>
      </trkpt>
      <trkpt lat="45.0904" lon="2.6435">
        <ele>1630.9</ele>
        <time>2000-01-01T01:44:05.000Z</time>
      </trkpt>
      <trkpt lat="45.09043" lon="2.64347">
        <ele>1631.9</ele>
        <time>2000-01-01T01:44:15.000Z</time>
      </trkpt>
      <trkpt lat="45.09046" lon="2.64345">
        <ele>1632.9</ele>
        <time>2000-01-01T01:44:25.000Z</time>
      </trkpt>
      <trkpt lat="45.09053" lon="2.64339">
        <ele>1635.5</ele>
        <time>2000-01-01T01:44:35.000Z</time>
      </trkpt>
      <trkpt lat="45.09061" lon="2.64335">
        <ele>1630</ele>
        <time>2000-01-01T01:44:45.000Z</time>
      </trkpt>
      <trkpt lat="45.09067" lon="2.64332">
        <ele>1640.2</ele>
        <time>2000-01-01T01:44:55.000Z</time>
      </trkpt>
      <trkpt lat="45.0907" lon="2.64331">
        <ele>1641.1</ele>
        <time>2000-01-01T01:45:05.000Z</time>
      </trkpt>
      <trkpt lat="45.09075" lon="2.64324">
        <ele>1642.5</ele>
        <time>2000-01-01T01:45:15.000Z</time>
      </trkpt>
      <trkpt lat="45.09084" lon="2.64319">
        <ele>1639</ele>
        <time>2000-01-01T01:45:25.000Z</time>
      </trkpt>
      <trkpt lat="45.09099" lon="2.64303">
        <ele>1653.3</ele>
        <time>2000-01-01T01:45:35.000Z</time>
      </trkpt>
      <trkpt lat="45.09108" lon="2.64295">
        <ele>1646</ele>
        <time>2000-01-01T01:45:45.000Z</time>
      </trkpt>
      <trkpt lat="45.09112" lon="2.6429">
        <ele>1659.4</ele>
        <time>2000-01-01T01:45:55.000Z</time>
      </trkpt>
      <trkpt lat="45.09118" lon="2.64286">
        <ele>1661.7</ele>
        <time>2000-01-01T01:46:05.000Z</time>
      </trkpt>
      <trkpt lat="45.09125" lon="2.64283">
        <ele>1657</ele>
        <time>2000-01-01T01:46:15.000Z</time>
      </trkpt>
      <trkpt lat="45.09132" lon="2.64278">
        <ele>1667.3</ele>
        <time>2000-01-01T01:46:25.000Z</time>
      </trkpt>
      <trkpt lat="45.09138" lon="2.64271">
        <ele>1669.2</ele>
        <time>2000-01-01T01:46:35.000Z</time>
      </trkpt>
      <trkpt lat="45.09144" lon="2.64269">
        <ele>1664</ele>
        <time>2000-01-01T01:46:45.000Z</time>
      </trkpt>
      <trkpt lat="45.0915" lon="2.64269">
        <ele>1673.6</ele>
        <time>2000-01-01T01:46:55.000Z</time>
      </trkpt>
      <trkpt lat="45.09159" lon="2.64266">
        <ele>1676.8</ele>
        <time>2000-01-01T01:47:05.000Z</time>
      </trkpt>
      <trkpt lat="45.09169" lon="2.64264">
        <ele>1671</ele>
        <time>2000-01-01T01:47:15.000Z</time>
      </trkpt>
      <trkpt lat="45.09184" lon="2.64261">
        <ele>1685.4</ele>
        <time>2000-01-01T01:47:25.000Z</time>
      </trkpt>
      <trkpt lat="45.09196" lon="2.64258">
        <ele>1680</ele>
        <time>2000-01-01T01:47:35.000Z</time>
      </trkpt>
      <trkpt lat="45.09207" lon="2.64258">
        <ele>1690.2</ele>
        <time>2000-01-01T01:47:45.000Z</time>
      </trkpt>
      <trkpt lat="45.09218" lon="2.64258">
        <ele>1688</ele>
        <time>2000-01-01T01:47:55.000Z</time>
      </trkpt>
      <trkpt lat="45.09226" lon="2.64259">
        <ele>1691.9</ele>
        <time>2000-01-01T01:48:05.000Z</time>
      </trkpt>
      <trkpt lat="45.09238" lon="2.64258">
        <ele>1692</ele>
        <time>2000-01-01T01:48:15.000Z</time>
      </trkpt>
      <trkpt lat="45.09249" lon="2.64259">
        <ele>1693.6</ele>
        <time>2000-01-01T01:48:25.000Z</time>
      </trkpt>
      <trkpt lat="45.09252" lon="2.64259">
        <ele>1693.8</ele>
        <time>2000-01-01T01:48:35.000Z</time>
      </trkpt>
      <trkpt lat="45.09262" lon="2.64262">
        <ele>1694</ele>
        <time>2000-01-01T01:48:45.000Z</time>
      </trkpt>
      <trkpt lat="45.09273" lon="2.64268">
        <ele>1696</ele>
        <time>2000-01-01T01:48:55.000Z</time>
      </trkpt>
      <trkpt lat="45.09284" lon="2.64276">
        <ele>1695</ele>
        <time>2000-01-01T01:49:05.000Z</time>
      </trkpt>
      <trkpt lat="45.09301" lon="2.64287">
        <ele>1697.3</ele>
        <time>2000-01-01T01:49:15.000Z</time>
      </trkpt>
      <trkpt lat="45.09309" lon="2.64293">
        <ele>1698</ele>
        <time>2000-01-01T01:49:25.000Z</time>
      </trkpt>
      <trkpt lat="45.0932" lon="2.64295">
        <ele>1699.3</ele>
        <time>2000-01-01T01:49:35.000Z</time>
      </trkpt>
      <trkpt lat="45.09335" lon="2.64301">
        <ele>1699</ele>
        <time>2000-01-01T01:49:45.000Z</time>
      </trkpt>
      <trkpt lat="45.09352" lon="2.64311">
        <ele>1701.7</ele>
        <time>2000-01-01T01:49:55.000Z</time>
      </trkpt>
      <trkpt lat="45.0936" lon="2.64319">
        <ele>1701</ele>
        <time>2000-01-01T01:50:05.000Z</time>
      </trkpt>
      <trkpt lat="45.09365" lon="2.64327">
        <ele>1702.5</ele>
        <time>2000-01-01T01:50:15.000Z</time>
      </trkpt>
      <trkpt lat="45.0937" lon="2.64332">
        <ele>1702.9</ele>
        <time>2000-01-01T01:50:25.000Z</time>
      </trkpt>
      <trkpt lat="45.09374" lon="2.64333">
        <ele>1703</ele>
        <time>2000-01-01T01:50:35.000Z</time>
      </trkpt>
      <trkpt lat="45.09379" lon="2.64333">
        <ele>1702</ele>
        <time>2000-01-01T01:50:45.000Z</time>
      </trkpt>
      <trkpt lat="45.09382" lon="2.64331">
        <ele>1702.8</ele>
        <time>2000-01-01T01:50:55.000Z</time>
      </trkpt>
      <trkpt lat="45.09388" lon="2.64332">
        <ele>1702.9</ele>
        <time>2000-01-01T01:51:05.000Z</time>
      </trkpt>
      <trkpt lat="45.09419" lon="2.64346">
        <ele>1702</ele>
        <time>2000-01-01T01:51:15.000Z</time>
      </trkpt>
      <trkpt lat="45.09437" lon="2.64356">
        <ele>1704</ele>
        <time>2000-01-01T01:51:25.000Z</time>
      </trkpt>
      <trkpt lat="45.09451" lon="2.64366">
        <ele>1708.6</ele>
        <time>2000-01-01T01:51:35.000Z</time>
      </trkpt>
      <trkpt lat="45.0946" lon="2.64375">
        <ele>1707</ele>
        <time>2000-01-01T01:51:45.000Z</time>
      </trkpt>
      <trkpt lat="45.09465" lon="2.64387">
        <ele>1713.2</ele>
        <time>2000-01-01T01:51:55.000Z</time>
      </trkpt>
      <trkpt lat="45.09472" lon="2.64399">
        <ele>1712</ele>
        <time>2000-01-01T01:52:05.000Z</time>
      </trkpt>
      <trkpt lat="45.0948" lon="2.64411">
        <ele>1719.4</ele>
        <time>2000-01-01T01:52:15.000Z</time>
      </trkpt>
      <trkpt lat="45.09492" lon="2.6442">
        <ele>1717</ele>
        <time>2000-01-01T01:52:25.000Z</time>
      </trkpt>
      <trkpt lat="45.095" lon="2.64429">
        <ele>1724.8</ele>
        <time>2000-01-01T01:52:35.000Z</time>
      </trkpt>
      <trkpt lat="45.09513" lon="2.64438">
        <ele>1722</ele>
        <time>2000-01-01T01:52:45.000Z</time>
      </trkpt>
      <trkpt lat="45.09528" lon="2.64446">
        <ele>1729.2</ele>
        <time>2000-01-01T01:52:55.000Z</time>
      </trkpt>
      <trkpt lat="45.09545" lon="2.64456">
        <ele>1727</ele>
        <time>2000-01-01T01:53:05.000Z</time>
      </trkpt>
      <trkpt lat="45.09545" lon="2.64456">
        <ele>1730.1</ele>
        <time>2000-01-01T01:53:15.000Z</time>
      </trkpt>
      <trkpt lat="45.09554" lon="2.64461">
        <ele>1731</ele>
        <time>2000-01-01T01:53:25.000Z</time>
      </trkpt>
      <trkpt lat="45.09567" lon="2.64467">
        <ele>1729</ele>
        <time>2000-01-01T01:53:35.000Z</time>
      </trkpt>
      <trkpt lat="45.09581" lon="2.6447">
        <ele>1732.7</ele>
        <time>2000-01-01T01:53:45.000Z</time>
      </trkpt>
      <trkpt lat="45.09595" lon="2.64471">
        <ele>1733</ele>
        <time>2000-01-01T01:53:55.000Z</time>
      </trkpt>
      <trkpt lat="45.09611" lon="2.64468">
        <ele>1735.2</ele>
        <time>2000-01-01T01:54:05.000Z</time>
      </trkpt>
      <trkpt lat="45.09622" lon="2.64468">
        <ele>1734</ele>
        <time>2000-01-01T01:54:15.000Z</time>
      </trkpt>
      <trkpt lat="45.09627" lon="2.64469">
        <ele>1735</ele>
        <time>2000-01-01T01:54:25.000Z</time>
      </trkpt>
      <trkpt lat="45.09625" lon="2.64469">
        <ele>1735</ele>
        <time>2000-01-01T01:54:35.000Z</time>
      </trkpt>
      <trkpt lat="45.09632" lon="2.6447">
        <ele>1735.2</ele>
        <time>2000-01-01T01:54:45.000Z</time>
      </trkpt>
      <trkpt lat="45.0964" lon="2.64482">
        <ele>1735</ele>
        <time>2000-01-01T01:54:55.000Z</time>
      </trkpt>
      <trkpt lat="45.09647" lon="2.6449">
        <ele>1731.5</ele>
        <time>2000-01-01T01:55:05.000Z</time>
      </trkpt>
      <trkpt lat="45.09659" lon="2.64501">
        <ele>1732.5</ele>
        <time>2000-01-01T01:55:15.000Z</time>
      </trkpt>
      <trkpt lat="45.09667" lon="2.64509">
        <ele>1724.2</ele>
        <time>2000-01-01T01:55:25.000Z</time>
      </trkpt>
      <trkpt lat="45.09671" lon="2.64516">
        <ele>1721.6</ele>
        <time>2000-01-01T01:55:35.000Z</time>
      </trkpt>
      <trkpt lat="45.09675" lon="2.64523">
        <ele>1730</ele>
        <time>2000-01-01T01:55:45.000Z</time>
      </trkpt>
      <trkpt lat="45.0969" lon="2.64537">
        <ele>1712.6</ele>
        <time>2000-01-01T01:55:55.000Z</time>
      </trkpt>
      <trkpt lat="45.09699" lon="2.64549">
        <ele>1721</ele>
        <time>2000-01-01T01:56:05.000Z</time>
      </trkpt>
      <trkpt lat="45.09707" lon="2.64554">
        <ele>1707.7</ele>
        <time>2000-01-01T01:56:15.000Z</time>
      </trkpt>
      <trkpt lat="45.09716" lon="2.64558">
        <ele>1706.7</ele>
        <time>2000-01-01T01:56:25.000Z</time>
      </trkpt>
      <trkpt lat="45.09719" lon="2.64563">
        <ele>1710</ele>
        <time>2000-01-01T01:56:35.000Z</time>
      </trkpt>
      <trkpt lat="45.09724" lon="2.64571">
        <ele>1705</ele>
        <time>2000-01-01T01:56:45.000Z</time>
      </trkpt>
      <trkpt lat="45.09729" lon="2.64575">
        <ele>1704.1</ele>
        <time>2000-01-01T01:56:55.000Z</time>
      </trkpt>
      <trkpt lat="45.09733" lon="2.64577">
        <ele>1703.6</ele>
        <time>2000-01-01T01:57:05.000Z</time>
      </trkpt>
      <trkpt lat="45.09738" lon="2.64579">
        <ele>1708</ele>
        <time>2000-01-01T01:57:15.000Z</time>
      </trkpt>
      <trkpt lat="45.09745" lon="2.64582">
        <ele>1703</ele>
        <time>2000-01-01T01:57:25.000Z</time>
      </trkpt>
      <trkpt lat="45.09751" lon="2.64586">
        <ele>1701.3</ele>
        <time>2000-01-01T01:57:35.000Z</time>
      </trkpt>
      <trkpt lat="45.09755" lon="2.6459">
        <ele>1697.8</ele>
        <time>2000-01-01T01:57:45.000Z</time>
      </trkpt>
      <trkpt lat="45.09759" lon="2.64596">
        <ele>1704</ele>
        <time>2000-01-01T01:57:55.000Z</time>
      </trkpt>
      <trkpt lat="45.09764" lon="2.64607">
        <ele>1691</ele>
        <time>2000-01-01T01:58:05.000Z</time>
      </trkpt>
      <trkpt lat="45.09774" lon="2.64623">
        <ele>1694</ele>
        <time>2000-01-01T01:58:15.000Z</time>
      </trkpt>
      <trkpt lat="45.0978" lon="2.64636">
        <ele>1688.8</ele>
        <time>2000-01-01T01:58:25.000Z</time>
      </trkpt>
      <trkpt lat="45.09783" lon="2.64642">
        <ele>1687.1</ele>
        <time>2000-01-01T01:58:35.000Z</time>
      </trkpt>
      <trkpt lat="45.09786" lon="2.64651">
        <ele>1691</ele>
        <time>2000-01-01T01:58:45.000Z</time>
      </trkpt>
      <trkpt lat="45.09794" lon="2.64666">
        <ele>1682.3</ele>
        <time>2000-01-01T01:58:55.000Z</time>
      </trkpt>
      <trkpt lat="45.098" lon="2.64682">
        <ele>1687</ele>
        <time>2000-01-01T01:59:05.000Z</time>
      </trkpt>
      <trkpt lat="45.09805" lon="2.64695">
        <ele>1685</ele>
        <time>2000-01-01T01:59:15.000Z</time>
      </trkpt>
      <trkpt lat="45.09811" lon="2.64708">
        <ele>1685</ele>
        <time>2000-01-01T01:59:25.000Z</time>
      </trkpt>
      <trkpt lat="45.09815" lon="2.64718">
        <ele>1683.1</ele>
        <time>2000-01-01T01:59:35.000Z</time>
      </trkpt>
      <trkpt lat="45.09823" lon="2.64729">
        <ele>1680.1</ele>
        <time>2000-01-01T01:59:45.000Z</time>
      </trkpt>
      <trkpt lat="45.09826" lon="2.6474">
        <ele>1683</ele>
        <time>2000-01-01T01:59:55.000Z</time>
      </trkpt>
      <trkpt lat="45.09829" lon="2.6475">
        <ele>1678.7</ele>
        <time>2000-01-01T02:00:05.000Z</time>
      </trkpt>
      <trkpt lat="45.09832" lon="2.64765">
        <ele>1677.7</ele>
        <time>2000-01-01T02:00:15.000Z</time>
      </trkpt>
      <trkpt lat="45.09836" lon="2.64775">
        <ele>1679</ele>
        <time>2000-01-01T02:00:25.000Z</time>
      </trkpt>
      <trkpt lat="45.09839" lon="2.64781">
        <ele>1675.9</ele>
        <time>2000-01-01T02:00:35.000Z</time>
      </trkpt>
      <trkpt lat="45.09842" lon="2.64785">
        <ele>1674.6</ele>
        <time>2000-01-01T02:00:45.000Z</time>
      </trkpt>
      <trkpt lat="45.09843" lon="2.64792">
        <ele>1673.4</ele>
        <time>2000-01-01T02:00:55.000Z</time>
      </trkpt>
      <trkpt lat="45.09844" lon="2.64796">
        <ele>1672.8</ele>
        <time>2000-01-01T02:01:05.000Z</time>
      </trkpt>
      <trkpt lat="45.09848" lon="2.64802">
        <ele>1678</ele>
        <time>2000-01-01T02:01:15.000Z</time>
      </trkpt>
      <trkpt lat="45.09854" lon="2.64809">
        <ele>1673.1</ele>
        <time>2000-01-01T02:01:25.000Z</time>
      </trkpt>
      <trkpt lat="45.0986" lon="2.6482">
        <ele>1675.7</ele>
        <time>2000-01-01T02:01:35.000Z</time>
      </trkpt>
      <trkpt lat="45.09869" lon="2.64831">
        <ele>1677</ele>
        <time>2000-01-01T02:01:45.000Z</time>
      </trkpt>
      <trkpt lat="45.09876" lon="2.64842">
        <ele>1675.4</ele>
        <time>2000-01-01T02:01:55.000Z</time>
      </trkpt>
      <trkpt lat="45.09882" lon="2.64851">
        <ele>1677</ele>
        <time>2000-01-01T02:02:05.000Z</time>
      </trkpt>
      <trkpt lat="45.09885" lon="2.64858">
        <ele>1676</ele>
        <time>2000-01-01T02:02:15.000Z</time>
      </trkpt>
      <trkpt lat="45.09886" lon="2.64862">
        <ele>1676.5</ele>
        <time>2000-01-01T02:02:25.000Z</time>
      </trkpt>
      <trkpt lat="45.0989" lon="2.64868">
        <ele>1676.8</ele>
        <time>2000-01-01T02:02:35.000Z</time>
      </trkpt>
      <trkpt lat="45.09894" lon="2.64879">
        <ele>1677</ele>
        <time>2000-01-01T02:02:45.000Z</time>
      </trkpt>
      <trkpt lat="45.09897" lon="2.64886">
        <ele>1677.5</ele>
        <time>2000-01-01T02:02:55.000Z</time>
      </trkpt>
      <trkpt lat="45.099" lon="2.64892">
        <ele>1677.4</ele>
        <time>2000-01-01T02:03:05.000Z</time>
      </trkpt>
      <trkpt lat="45.09902" lon="2.64897">
        <ele>1677.3</ele>
        <time>2000-01-01T02:03:15.000Z</time>
      </trkpt>
      <trkpt lat="45.09904" lon="2.6491">
        <ele>1677.5</ele>
        <time>2000-01-01T02:03:25.000Z</time>
      </trkpt>
      <trkpt lat="45.09907" lon="2.64917">
        <ele>1678.2</ele>
        <time>2000-01-01T02:03:35.000Z</time>
      </trkpt>
      <trkpt lat="45.09911" lon="2.64929">
        <ele>1677.8</ele>
        <time>2000-01-01T02:03:45.000Z</time>
      </trkpt>
      <trkpt lat="45.09915" lon="2.64939">
        <ele>1676.7</ele>
        <time>2000-01-01T02:03:55.000Z</time>
      </trkpt>
      <trkpt lat="45.09919" lon="2.64947">
        <ele>1676.3</ele>
        <time>2000-01-01T02:04:05.000Z</time>
      </trkpt>
      <trkpt lat="45.09924" lon="2.64956">
        <ele>1675.1</ele>
        <time>2000-01-01T02:04:15.000Z</time>
      </trkpt>
      <trkpt lat="45.09928" lon="2.64964">
        <ele>1676</ele>
        <time>2000-01-01T02:04:25.000Z</time>
      </trkpt>
      <trkpt lat="45.09931" lon="2.6497">
        <ele>1673.1</ele>
        <time>2000-01-01T02:04:35.000Z</time>
      </trkpt>
      <trkpt lat="45.09933" lon="2.64976">
        <ele>1672.6</ele>
        <time>2000-01-01T02:04:45.000Z</time>
      </trkpt>
      <trkpt lat="45.09933" lon="2.64982">
        <ele>1673.1</ele>
        <time>2000-01-01T02:04:55.000Z</time>
      </trkpt>
      <trkpt lat="45.09934" lon="2.64989">
        <ele>1673.1</ele>
        <time>2000-01-01T02:05:05.000Z</time>
      </trkpt>
      <trkpt lat="45.09936" lon="2.64999">
        <ele>1674</ele>
        <time>2000-01-01T02:05:15.000Z</time>
      </trkpt>
      <trkpt lat="45.09937" lon="2.65008">
        <ele>1673.6</ele>
        <time>2000-01-01T02:05:25.000Z</time>
      </trkpt>
      <trkpt lat="45.09939" lon="2.65017">
        <ele>1673.9</ele>
        <time>2000-01-01T02:05:35.000Z</time>
      </trkpt>
      <trkpt lat="45.09941" lon="2.65022">
        <ele>1673.7</ele>
        <time>2000-01-01T02:05:45.000Z</time>
      </trkpt>
      <trkpt lat="45.09942" lon="2.65029">
        <ele>1674</ele>
        <time>2000-01-01T02:05:55.000Z</time>
      </trkpt>
      <trkpt lat="45.09944" lon="2.65037">
        <ele>1674.5</ele>
        <time>2000-01-01T02:06:05.000Z</time>
      </trkpt>
      <trkpt lat="45.09947" lon="2.65046">
        <ele>1674.4</ele>
        <time>2000-01-01T02:06:15.000Z</time>
      </trkpt>
      <trkpt lat="45.0995" lon="2.65053">
        <ele>1674</ele>
        <time>2000-01-01T02:06:25.000Z</time>
      </trkpt>
      <trkpt lat="45.09952" lon="2.65057">
        <ele>1673.7</ele>
        <time>2000-01-01T02:06:35.000Z</time>
      </trkpt>
      <trkpt lat="45.09958" lon="2.65068">
        <ele>1673.1</ele>
        <time>2000-01-01T02:06:45.000Z</time>
      </trkpt>
      <trkpt lat="45.09962" lon="2.65075">
        <ele>1673</ele>
        <time>2000-01-01T02:06:55.000Z</time>
      </trkpt>
      <trkpt lat="45.09967" lon="2.65083">
        <ele>1672.8</ele>
        <time>2000-01-01T02:07:05.000Z</time>
      </trkpt>
      <trkpt lat="45.09972" lon="2.65089">
        <ele>1672.1</ele>
        <time>2000-01-01T02:07:15.000Z</time>
      </trkpt>
      <trkpt lat="45.09978" lon="2.651">
        <ele>1673</ele>
        <time>2000-01-01T02:07:25.000Z</time>
      </trkpt>
      <trkpt lat="45.09983" lon="2.65107">
        <ele>1669.4</ele>
        <time>2000-01-01T02:07:35.000Z</time>
      </trkpt>
      <trkpt lat="45.09988" lon="2.65114">
        <ele>1668.1</ele>
        <time>2000-01-01T02:07:45.000Z</time>
      </trkpt>
      <trkpt lat="45.09991" lon="2.65123">
        <ele>1670</ele>
        <time>2000-01-01T02:07:55.000Z</time>
      </trkpt>
      <trkpt lat="45.09994" lon="2.6513">
        <ele>1668.3</ele>
        <time>2000-01-01T02:08:05.000Z</time>
      </trkpt>
      <trkpt lat="45.09997" lon="2.65139">
        <ele>1668.6</ele>
        <time>2000-01-01T02:08:15.000Z</time>
      </trkpt>
      <trkpt lat="45.1" lon="2.65147">
        <ele>1668</ele>
        <time>2000-01-01T02:08:25.000Z</time>
      </trkpt>
      <trkpt lat="45.10001" lon="2.65154">
        <ele>1668.6</ele>
        <time>2000-01-01T02:08:35.000Z</time>
      </trkpt>
      <trkpt lat="45.10005" lon="2.65161">
        <ele>1667.3</ele>
        <time>2000-01-01T02:08:45.000Z</time>
      </trkpt>
      <trkpt lat="45.10009" lon="2.65171">
        <ele>1667</ele>
        <time>2000-01-01T02:08:55.000Z</time>
      </trkpt>
      <trkpt lat="45.10014" lon="2.65185">
        <ele>1665.9</ele>
        <time>2000-01-01T02:09:05.000Z</time>
      </trkpt>
      <trkpt lat="45.10018" lon="2.65195">
        <ele>1666</ele>
        <time>2000-01-01T02:09:15.000Z</time>
      </trkpt>
      <trkpt lat="45.1002" lon="2.65199">
        <ele>1665.5</ele>
        <time>2000-01-01T02:09:25.000Z</time>
      </trkpt>
      <trkpt lat="45.10024" lon="2.65207">
        <ele>1665.3</ele>
        <time>2000-01-01T02:09:35.000Z</time>
      </trkpt>
      <trkpt lat="45.10029" lon="2.65214">
        <ele>1664.8</ele>
        <time>2000-01-01T02:09:45.000Z</time>
      </trkpt>
      <trkpt lat="45.10036" lon="2.65221">
        <ele>1665</ele>
        <time>2000-01-01T02:09:55.000Z</time>
      </trkpt>
      <trkpt lat="45.10042" lon="2.65228">
        <ele>1664.2</ele>
        <time>2000-01-01T02:10:05.000Z</time>
      </trkpt>
      <trkpt lat="45.1005" lon="2.65238">
        <ele>1664</ele>
        <time>2000-01-01T02:10:15.000Z</time>
      </trkpt>
      <trkpt lat="45.10057" lon="2.65244">
        <ele>1663</ele>
        <time>2000-01-01T02:10:25.000Z</time>
      </trkpt>
      <trkpt lat="45.10061" lon="2.65249">
        <ele>1663</ele>
        <time>2000-01-01T02:10:35.000Z</time>
      </trkpt>
      <trkpt lat="45.10065" lon="2.65256">
        <ele>1663.2</ele>
        <time>2000-01-01T02:10:45.000Z</time>
      </trkpt>
      <trkpt lat="45.10069" lon="2.65262">
        <ele>1663.2</ele>
        <time>2000-01-01T02:10:55.000Z</time>
      </trkpt>
      <trkpt lat="45.10074" lon="2.65267">
        <ele>1663</ele>
        <time>2000-01-01T02:11:05.000Z</time>
      </trkpt>
      <trkpt lat="45.10081" lon="2.6527">
        <ele>1661.1</ele>
        <time>2000-01-01T02:11:15.000Z</time>
      </trkpt>
      <trkpt lat="45.1009" lon="2.65275">
        <ele>1659.2</ele>
        <time>2000-01-01T02:11:25.000Z</time>
      </trkpt>
      <trkpt lat="45.10101" lon="2.65282">
        <ele>1662</ele>
        <time>2000-01-01T02:11:35.000Z</time>
      </trkpt>
      <trkpt lat="45.1011" lon="2.65289">
        <ele>1657</ele>
        <time>2000-01-01T02:11:45.000Z</time>
      </trkpt>
      <trkpt lat="45.10122" lon="2.65296">
        <ele>1659</ele>
        <time>2000-01-01T02:11:55.000Z</time>
      </trkpt>
      <trkpt lat="45.10131" lon="2.653">
        <ele>1654.3</ele>
        <time>2000-01-01T02:12:05.000Z</time>
      </trkpt>
      <trkpt lat="45.10135" lon="2.65303">
        <ele>1654.2</ele>
        <time>2000-01-01T02:12:15.000Z</time>
      </trkpt>
      <trkpt lat="45.10141" lon="2.65306">
        <ele>1655</ele>
        <time>2000-01-01T02:12:25.000Z</time>
      </trkpt>
      <trkpt lat="45.1015" lon="2.65314">
        <ele>1652.1</ele>
        <time>2000-01-01T02:12:35.000Z</time>
      </trkpt>
      <trkpt lat="45.10158" lon="2.65321">
        <ele>1653</ele>
        <time>2000-01-01T02:12:45.000Z</time>
      </trkpt>
      <trkpt lat="45.10165" lon="2.65328">
        <ele>1650.3</ele>
        <time>2000-01-01T02:12:55.000Z</time>
      </trkpt>
      <trkpt lat="45.1017" lon="2.65334">
        <ele>1649.5</ele>
        <time>2000-01-01T02:13:05.000Z</time>
      </trkpt>
      <trkpt lat="45.10175" lon="2.65342">
        <ele>1651</ele>
        <time>2000-01-01T02:13:15.000Z</time>
      </trkpt>
      <trkpt lat="45.10184" lon="2.65354">
        <ele>1646.8</ele>
        <time>2000-01-01T02:13:25.000Z</time>
      </trkpt>
      <trkpt lat="45.10189" lon="2.6536">
        <ele>1645.9</ele>
        <time>2000-01-01T02:13:35.000Z</time>
      </trkpt>
      <trkpt lat="45.10196" lon="2.65365">
        <ele>1649</ele>
        <time>2000-01-01T02:13:45.000Z</time>
      </trkpt>
      <trkpt lat="45.10204" lon="2.65374">
        <ele>1643.7</ele>
        <time>2000-01-01T02:13:55.000Z</time>
      </trkpt>
      <trkpt lat="45.1021" lon="2.6538">
        <ele>1643.3</ele>
        <time>2000-01-01T02:14:05.000Z</time>
      </trkpt>
      <trkpt lat="45.10217" lon="2.65384">
        <ele>1644</ele>
        <time>2000-01-01T02:14:15.000Z</time>
      </trkpt>
      <trkpt lat="45.10221" lon="2.65385">
        <ele>1641.5</ele>
        <time>2000-01-01T02:14:25.000Z</time>
      </trkpt>
      <trkpt lat="45.1023" lon="2.65385">
        <ele>1640.6</ele>
        <time>2000-01-01T02:14:35.000Z</time>
      </trkpt>
      <trkpt lat="45.10236" lon="2.65386">
        <ele>1640.3</ele>
        <time>2000-01-01T02:14:45.000Z</time>
      </trkpt>
      <trkpt lat="45.10236" lon="2.65386">
        <ele>1640.3</ele>
        <time>2000-01-01T02:14:55.000Z</time>
      </trkpt>
      <trkpt lat="45.10236" lon="2.65386">
        <ele>1640.3</ele>
        <time>2000-01-01T02:15:05.000Z</time>
      </trkpt>
      <trkpt lat="45.10236" lon="2.65386">
        <ele>1640.3</ele>
        <time>2000-01-01T02:15:15.000Z</time>
      </trkpt>
      <trkpt lat="45.10238" lon="2.65386">
        <ele>1642</ele>
        <time>2000-01-01T02:15:25.000Z</time>
      </trkpt>
      <trkpt lat="45.10238" lon="2.65389">
        <ele>1640.8</ele>
        <time>2000-01-01T02:15:35.000Z</time>
      </trkpt>
      <trkpt lat="45.10239" lon="2.65394">
        <ele>1639.4</ele>
        <time>2000-01-01T02:15:45.000Z</time>
      </trkpt>
      <trkpt lat="45.10238" lon="2.65398">
        <ele>1638.4</ele>
        <time>2000-01-01T02:15:55.000Z</time>
      </trkpt>
      <trkpt lat="45.10236" lon="2.65402">
        <ele>1637.5</ele>
        <time>2000-01-01T02:16:05.000Z</time>
      </trkpt>
      <trkpt lat="45.10233" lon="2.65409">
        <ele>1635.7</ele>
        <time>2000-01-01T02:16:15.000Z</time>
      </trkpt>
      <trkpt lat="45.10231" lon="2.65417">
        <ele>1639</ele>
        <time>2000-01-01T02:16:25.000Z</time>
      </trkpt>
      <trkpt lat="45.10228" lon="2.65425">
        <ele>1630.4</ele>
        <time>2000-01-01T02:16:35.000Z</time>
      </trkpt>
      <trkpt lat="45.10227" lon="2.65429">
        <ele>1628.8</ele>
        <time>2000-01-01T02:16:45.000Z</time>
      </trkpt>
      <trkpt lat="45.10226" lon="2.65432">
        <ele>1627.6</ele>
        <time>2000-01-01T02:16:55.000Z</time>
      </trkpt>
      <trkpt lat="45.10229" lon="2.65436">
        <ele>1625.8</ele>
        <time>2000-01-01T02:17:05.000Z</time>
      </trkpt>
      <trkpt lat="45.10232" lon="2.65439">
        <ele>1632</ele>
        <time>2000-01-01T02:17:15.000Z</time>
      </trkpt>
      <trkpt lat="45.10237" lon="2.65438">
        <ele>1624.2</ele>
        <time>2000-01-01T02:17:25.000Z</time>
      </trkpt>
      <trkpt lat="45.10244" lon="2.65439">
        <ele>1623.1</ele>
        <time>2000-01-01T02:17:35.000Z</time>
      </trkpt>
      <trkpt lat="45.10252" lon="2.65444">
        <ele>1624</ele>
        <time>2000-01-01T02:17:45.000Z</time>
      </trkpt>
      <trkpt lat="45.10259" lon="2.65449">
        <ele>1619.9</ele>
        <time>2000-01-01T02:17:55.000Z</time>
      </trkpt>
      <trkpt lat="45.10263" lon="2.65457">
        <ele>1617.6</ele>
        <time>2000-01-01T02:18:05.000Z</time>
      </trkpt>
      <trkpt lat="45.10264" lon="2.65464">
        <ele>1620</ele>
        <time>2000-01-01T02:18:15.000Z</time>
      </trkpt>
      <trkpt lat="45.10264" lon="2.65471">
        <ele>1612.5</ele>
        <time>2000-01-01T02:18:25.000Z</time>
      </trkpt>
      <trkpt lat="45.10266" lon="2.6548">
        <ele>1610.3</ele>
        <time>2000-01-01T02:18:35.000Z</time>
      </trkpt>
      <trkpt lat="45.10268" lon="2.65488">
        <ele>1608.5</ele>
        <time>2000-01-01T02:18:45.000Z</time>
      </trkpt>
      <trkpt lat="45.10269" lon="2.65493">
        <ele>1613</ele>
        <time>2000-01-01T02:18:55.000Z</time>
      </trkpt>
      <trkpt lat="45.10269" lon="2.65499">
        <ele>1605.7</ele>
        <time>2000-01-01T02:19:05.000Z</time>
      </trkpt>
      <trkpt lat="45.1027" lon="2.65508">
        <ele>1603.7</ele>
        <time>2000-01-01T02:19:15.000Z</time>
      </trkpt>
      <trkpt lat="45.1027" lon="2.65513">
        <ele>1602.4</ele>
        <time>2000-01-01T02:19:25.000Z</time>
      </trkpt>
      <trkpt lat="45.1027" lon="2.65523">
        <ele>1606</ele>
        <time>2000-01-01T02:19:35.000Z</time>
      </trkpt>
      <trkpt lat="45.10271" lon="2.65531">
        <ele>1597.9</ele>
        <time>2000-01-01T02:19:45.000Z</time>
      </trkpt>
      <trkpt lat="45.10273" lon="2.65538">
        <ele>1596.6</ele>
        <time>2000-01-01T02:19:55.000Z</time>
      </trkpt>
      <trkpt lat="45.10275" lon="2.65547">
        <ele>1594.6</ele>
        <time>2000-01-01T02:20:05.000Z</time>
      </trkpt>
      <trkpt lat="45.10276" lon="2.65553">
        <ele>1599</ele>
        <time>2000-01-01T02:20:15.000Z</time>
      </trkpt>
      <trkpt lat="45.10275" lon="2.65556">
        <ele>1592</ele>
        <time>2000-01-01T02:20:25.000Z</time>
      </trkpt>
      <trkpt lat="45.10273" lon="2.65558">
        <ele>1590.8</ele>
        <time>2000-01-01T02:20:35.000Z</time>
      </trkpt>
      <trkpt lat="45.10274" lon="2.65564">
        <ele>1589</ele>
        <time>2000-01-01T02:20:45.000Z</time>
      </trkpt>
      <trkpt lat="45.10275" lon="2.65571">
        <ele>1587</ele>
        <time>2000-01-01T02:20:55.000Z</time>
      </trkpt>
      <trkpt lat="45.10278" lon="2.65576">
        <ele>1586.5</ele>
        <time>2000-01-01T02:21:05.000Z</time>
      </trkpt>
      <trkpt lat="45.1028" lon="2.65583">
        <ele>1592</ele>
        <time>2000-01-01T02:21:15.000Z</time>
      </trkpt>
      <trkpt lat="45.10283" lon="2.65591">
        <ele>1585.1</ele>
        <time>2000-01-01T02:21:25.000Z</time>
      </trkpt>
      <trkpt lat="45.10285" lon="2.65597">
        <ele>1584.7</ele>
        <time>2000-01-01T02:21:35.000Z</time>
      </trkpt>
      <trkpt lat="45.10286" lon="2.65601">
        <ele>1584.3</ele>
        <time>2000-01-01T02:21:45.000Z</time>
      </trkpt>
      <trkpt lat="45.10286" lon="2.6561">
        <ele>1584</ele>
        <time>2000-01-01T02:21:55.000Z</time>
      </trkpt>
      <trkpt lat="45.10287" lon="2.65615">
        <ele>1581.1</ele>
        <time>2000-01-01T02:22:05.000Z</time>
      </trkpt>
      <trkpt lat="45.1029" lon="2.6562">
        <ele>1581.3</ele>
        <time>2000-01-01T02:22:15.000Z</time>
      </trkpt>
      <trkpt lat="45.10293" lon="2.65628">
        <ele>1580.6</ele>
        <time>2000-01-01T02:22:25.000Z</time>
      </trkpt>
      <trkpt lat="45.10296" lon="2.65636">
        <ele>1580</ele>
        <time>2000-01-01T02:22:35.000Z</time>
      </trkpt>
      <trkpt lat="45.10299" lon="2.65645">
        <ele>1579</ele>
        <time>2000-01-01T02:22:45.000Z</time>
      </trkpt>
      <trkpt lat="45.103" lon="2.65654">
        <ele>1577.5</ele>
        <time>2000-01-01T02:22:55.000Z</time>
      </trkpt>
      <trkpt lat="45.10301" lon="2.6566">
        <ele>1576.7</ele>
        <time>2000-01-01T02:23:05.000Z</time>
      </trkpt>
      <trkpt lat="45.10301" lon="2.65665">
        <ele>1580</ele>
        <time>2000-01-01T02:23:15.000Z</time>
      </trkpt>
      <trkpt lat="45.10303" lon="2.65671">
        <ele>1575.8</ele>
        <time>2000-01-01T02:23:25.000Z</time>
      </trkpt>
      <trkpt lat="45.10305" lon="2.6568">
        <ele>1575.7</ele>
        <time>2000-01-01T02:23:35.000Z</time>
      </trkpt>
      <trkpt lat="45.10308" lon="2.65688">
        <ele>1576.8</ele>
        <time>2000-01-01T02:23:45.000Z</time>
      </trkpt>
      <trkpt lat="45.10309" lon="2.65695">
        <ele>1576</ele>
        <time>2000-01-01T02:23:55.000Z</time>
      </trkpt>
      <trkpt lat="45.10311" lon="2.657">
        <ele>1576.9</ele>
        <time>2000-01-01T02:24:05.000Z</time>
      </trkpt>
      <trkpt lat="45.10314" lon="2.65712">
        <ele>1576.6</ele>
        <time>2000-01-01T02:24:15.000Z</time>
      </trkpt>
      <trkpt lat="45.10318" lon="2.6572">
        <ele>1576</ele>
        <time>2000-01-01T02:24:25.000Z</time>
      </trkpt>
      <trkpt lat="45.10321" lon="2.65728">
        <ele>1578.5</ele>
        <time>2000-01-01T02:24:35.000Z</time>
      </trkpt>
      <trkpt lat="45.10324" lon="2.65734">
        <ele>1579.5</ele>
        <time>2000-01-01T02:24:45.000Z</time>
      </trkpt>
      <trkpt lat="45.10324" lon="2.65742">
        <ele>1577.9</ele>
        <time>2000-01-01T02:24:55.000Z</time>
      </trkpt>
      <trkpt lat="45.10326" lon="2.6575">
        <ele>1578</ele>
        <time>2000-01-01T02:25:05.000Z</time>
      </trkpt>
      <trkpt lat="45.10328" lon="2.65756">
        <ele>1578</ele>
        <time>2000-01-01T02:25:15.000Z</time>
      </trkpt>
      <trkpt lat="45.10331" lon="2.65764">
        <ele>1578.5</ele>
        <time>2000-01-01T02:25:25.000Z</time>
      </trkpt>
      <trkpt lat="45.10333" lon="2.65769">
        <ele>1578.9</ele>
        <time>2000-01-01T02:25:35.000Z</time>
      </trkpt>
      <trkpt lat="45.10335" lon="2.65775">
        <ele>1578.5</ele>
        <time>2000-01-01T02:25:45.000Z</time>
      </trkpt>
      <trkpt lat="45.10336" lon="2.65784">
        <ele>1579.6</ele>
        <time>2000-01-01T02:25:55.000Z</time>
      </trkpt>
      <trkpt lat="45.10336" lon="2.65794">
        <ele>1579.5</ele>
        <time>2000-01-01T02:26:05.000Z</time>
      </trkpt>
      <trkpt lat="45.10337" lon="2.65801">
        <ele>1580.5</ele>
        <time>2000-01-01T02:26:15.000Z</time>
      </trkpt>
      <trkpt lat="45.10337" lon="2.6581">
        <ele>1579</ele>
        <time>2000-01-01T02:26:25.000Z</time>
      </trkpt>
      <trkpt lat="45.10338" lon="2.65814">
        <ele>1581.3</ele>
        <time>2000-01-01T02:26:35.000Z</time>
      </trkpt>
      <trkpt lat="45.10339" lon="2.65819">
        <ele>1582</ele>
        <time>2000-01-01T02:26:45.000Z</time>
      </trkpt>
      <trkpt lat="45.10339" lon="2.65823">
        <ele>1581.9</ele>
        <time>2000-01-01T02:26:55.000Z</time>
      </trkpt>
      <trkpt lat="45.10338" lon="2.6583">
        <ele>1581.1</ele>
        <time>2000-01-01T02:27:05.000Z</time>
      </trkpt>
      <trkpt lat="45.10337" lon="2.65835">
        <ele>1580.1</ele>
        <time>2000-01-01T02:27:15.000Z</time>
      </trkpt>
      <trkpt lat="45.10339" lon="2.6584">
        <ele>1580</ele>
        <time>2000-01-01T02:27:25.000Z</time>
      </trkpt>
      <trkpt lat="45.10339" lon="2.65844">
        <ele>1579.4</ele>
        <time>2000-01-01T02:27:35.000Z</time>
      </trkpt>
      <trkpt lat="45.10339" lon="2.65849">
        <ele>1578.3</ele>
        <time>2000-01-01T02:27:45.000Z</time>
      </trkpt>
      <trkpt lat="45.1034" lon="2.65855">
        <ele>1577.3</ele>
        <time>2000-01-01T02:27:55.000Z</time>
      </trkpt>
      <trkpt lat="45.10342" lon="2.65857">
        <ele>1577.5</ele>
        <time>2000-01-01T02:28:05.000Z</time>
      </trkpt>
      <trkpt lat="45.10344" lon="2.65861">
        <ele>1577.1</ele>
        <time>2000-01-01T02:28:15.000Z</time>
      </trkpt>
      <trkpt lat="45.10346" lon="2.65864">
        <ele>1580</ele>
        <time>2000-01-01T02:28:25.000Z</time>
      </trkpt>
      <trkpt lat="45.10349" lon="2.65866">
        <ele>1576.2</ele>
        <time>2000-01-01T02:28:35.000Z</time>
      </trkpt>
      <trkpt lat="45.10352" lon="2.6587">
        <ele>1575.3</ele>
        <time>2000-01-01T02:28:45.000Z</time>
      </trkpt>
      <trkpt lat="45.10355" lon="2.65874">
        <ele>1574.5</ele>
        <time>2000-01-01T02:28:55.000Z</time>
      </trkpt>
      <trkpt lat="45.10358" lon="2.65879">
        <ele>1573.2</ele>
        <time>2000-01-01T02:29:05.000Z</time>
      </trkpt>
      <trkpt lat="45.1036" lon="2.65883">
        <ele>1576</ele>
        <time>2000-01-01T02:29:15.000Z</time>
      </trkpt>
      <trkpt lat="45.10362" lon="2.65887">
        <ele>1571.2</ele>
        <time>2000-01-01T02:29:25.000Z</time>
      </trkpt>
      <trkpt lat="45.10366" lon="2.6589">
        <ele>1571.6</ele>
        <time>2000-01-01T02:29:35.000Z</time>
      </trkpt>
      <trkpt lat="45.10372" lon="2.65891">
        <ele>1573.8</ele>
        <time>2000-01-01T02:29:45.000Z</time>
      </trkpt>
      <trkpt lat="45.10377" lon="2.65895">
        <ele>1572</ele>
        <time>2000-01-01T02:29:55.000Z</time>
      </trkpt>
      <trkpt lat="45.10379" lon="2.65903">
        <ele>1572.3</ele>
        <time>2000-01-01T02:30:05.000Z</time>
      </trkpt>
      <trkpt lat="45.1038" lon="2.65912">
        <ele>1569.3</ele>
        <time>2000-01-01T02:30:15.000Z</time>
      </trkpt>
      <trkpt lat="45.1038" lon="2.65919">
        <ele>1566.7</ele>
        <time>2000-01-01T02:30:25.000Z</time>
      </trkpt>
      <trkpt lat="45.1038" lon="2.65925">
        <ele>1571</ele>
        <time>2000-01-01T02:30:35.000Z</time>
      </trkpt>
      <trkpt lat="45.10384" lon="2.65931">
        <ele>1564.4</ele>
        <time>2000-01-01T02:30:45.000Z</time>
      </trkpt>
      <trkpt lat="45.10388" lon="2.65941">
        <ele>1562.8</ele>
        <time>2000-01-01T02:30:55.000Z</time>
      </trkpt>
      <trkpt lat="45.10392" lon="2.65948">
        <ele>1566</ele>
        <time>2000-01-01T02:31:05.000Z</time>
      </trkpt>
      <trkpt lat="45.10395" lon="2.65956">
        <ele>1561.8</ele>
        <time>2000-01-01T02:31:15.000Z</time>
      </trkpt>
      <trkpt lat="45.10396" lon="2.65965">
        <ele>1559.3</ele>
        <time>2000-01-01T02:31:25.000Z</time>
      </trkpt>
      <trkpt lat="45.104" lon="2.65974">
        <ele>1561</ele>
        <time>2000-01-01T02:31:35.000Z</time>
      </trkpt>
      <trkpt lat="45.10403" lon="2.65981">
        <ele>1557.6</ele>
        <time>2000-01-01T02:31:45.000Z</time>
      </trkpt>
      <trkpt lat="45.10407" lon="2.65991">
        <ele>1556.3</ele>
        <time>2000-01-01T02:31:55.000Z</time>
      </trkpt>
      <trkpt lat="45.1041" lon="2.66">
        <ele>1559</ele>
        <time>2000-01-01T02:32:05.000Z</time>
      </trkpt>
      <trkpt lat="45.10413" lon="2.66011">
        <ele>1553.7</ele>
        <time>2000-01-01T02:32:15.000Z</time>
      </trkpt>
      <trkpt lat="45.10415" lon="2.66024">
        <ele>1551.9</ele>
        <time>2000-01-01T02:32:25.000Z</time>
      </trkpt>
      <trkpt lat="45.10415" lon="2.66036">
        <ele>1555</ele>
        <time>2000-01-01T02:32:35.000Z</time>
      </trkpt>
      <trkpt lat="45.10417" lon="2.66045">
        <ele>1547.8</ele>
        <time>2000-01-01T02:32:45.000Z</time>
      </trkpt>
      <trkpt lat="45.10417" lon="2.66054">
        <ele>1545.5</ele>
        <time>2000-01-01T02:32:55.000Z</time>
      </trkpt>
      <trkpt lat="45.10421" lon="2.66063">
        <ele>1549</ele>
        <time>2000-01-01T02:33:05.000Z</time>
      </trkpt>
      <trkpt lat="45.10424" lon="2.66072">
        <ele>1543</ele>
        <time>2000-01-01T02:33:15.000Z</time>
      </trkpt>
      <trkpt lat="45.10425" lon="2.6608">
        <ele>1541.2</ele>
        <time>2000-01-01T02:33:25.000Z</time>
      </trkpt>
      <trkpt lat="45.10425" lon="2.6609">
        <ele>1545</ele>
        <time>2000-01-01T02:33:35.000Z</time>
      </trkpt>
      <trkpt lat="45.10425" lon="2.66097">
        <ele>1538.1</ele>
        <time>2000-01-01T02:33:45.000Z</time>
      </trkpt>
      <trkpt lat="45.10426" lon="2.66104">
        <ele>1537.2</ele>
        <time>2000-01-01T02:33:55.000Z</time>
      </trkpt>
      <trkpt lat="45.1043" lon="2.66113">
        <ele>1536.4</ele>
        <time>2000-01-01T02:34:05.000Z</time>
      </trkpt>
      <trkpt lat="45.10434" lon="2.66122">
        <ele>1541</ele>
        <time>2000-01-01T02:34:15.000Z</time>
      </trkpt>
      <trkpt lat="45.10437" lon="2.66129">
        <ele>1534.4</ele>
        <time>2000-01-01T02:34:25.000Z</time>
      </trkpt>
      <trkpt lat="45.10438" lon="2.66136">
        <ele>1533</ele>
        <time>2000-01-01T02:34:35.000Z</time>
      </trkpt>
      <trkpt lat="45.10436" lon="2.66137">
        <ele>1532.3</ele>
        <time>2000-01-01T02:34:45.000Z</time>
      </trkpt>
      <trkpt lat="45.10436" lon="2.66137">
        <ele>1532.3</ele>
        <time>2000-01-01T02:34:55.000Z</time>
      </trkpt>
      <trkpt lat="45.10438" lon="2.66136">
        <ele>1533</ele>
        <time>2000-01-01T02:35:05.000Z</time>
      </trkpt>
      <trkpt lat="45.10438" lon="2.66136">
        <ele>1533</ele>
        <time>2000-01-01T02:35:15.000Z</time>
      </trkpt>
      <trkpt lat="45.10439" lon="2.66142">
        <ele>1537</ele>
        <time>2000-01-01T02:35:25.000Z</time>
      </trkpt>
      <trkpt lat="45.10438" lon="2.66147">
        <ele>1531.6</ele>
        <time>2000-01-01T02:35:35.000Z</time>
      </trkpt>
      <trkpt lat="45.10437" lon="2.66155">
        <ele>1530.7</ele>
        <time>2000-01-01T02:35:45.000Z</time>
      </trkpt>
      <trkpt lat="45.10435" lon="2.66164">
        <ele>1529.5</ele>
        <time>2000-01-01T02:35:55.000Z</time>
      </trkpt>
      <trkpt lat="45.10434" lon="2.66174">
        <ele>1534</ele>
        <time>2000-01-01T02:36:05.000Z</time>
      </trkpt>
      <trkpt lat="45.10435" lon="2.66181">
        <ele>1529</ele>
        <time>2000-01-01T02:36:15.000Z</time>
      </trkpt>
      <trkpt lat="45.10436" lon="2.66189">
        <ele>1528.8</ele>
        <time>2000-01-01T02:36:25.000Z</time>
      </trkpt>
      <trkpt lat="45.10438" lon="2.66204">
        <ele>1532</ele>
        <time>2000-01-01T02:36:35.000Z</time>
      </trkpt>
      <trkpt lat="45.10437" lon="2.66204">
        <ele>1528.9</ele>
        <time>2000-01-01T02:36:45.000Z</time>
      </trkpt>
      <trkpt lat="45.10443" lon="2.66201">
        <ele>1529</ele>
        <time>2000-01-01T02:36:55.000Z</time>
      </trkpt>
      <trkpt lat="45.10449" lon="2.66183">
        <ele>1530</ele>
        <time>2000-01-01T02:37:05.000Z</time>
      </trkpt>
      <trkpt lat="45.10461" lon="2.66168">
        <ele>1523.7</ele>
        <time>2000-01-01T02:37:15.000Z</time>
      </trkpt>
      <trkpt lat="45.10466" lon="2.6616">
        <ele>1527</ele>
        <time>2000-01-01T02:37:25.000Z</time>
      </trkpt>
      <trkpt lat="45.10475" lon="2.66152">
        <ele>1521.6</ele>
        <time>2000-01-01T02:37:35.000Z</time>
      </trkpt>
      <trkpt lat="45.10481" lon="2.66149">
        <ele>1520.1</ele>
        <time>2000-01-01T02:37:45.000Z</time>
      </trkpt>
      <trkpt lat="45.10481" lon="2.6615">
        <ele>1519.9</ele>
        <time>2000-01-01T02:37:55.000Z</time>
      </trkpt>
      <trkpt lat="45.10479" lon="2.66162">
        <ele>1523</ele>
        <time>2000-01-01T02:38:05.000Z</time>
      </trkpt>
      <trkpt lat="45.10477" lon="2.66166">
        <ele>1517.4</ele>
        <time>2000-01-01T02:38:15.000Z</time>
      </trkpt>
      <trkpt lat="45.10478" lon="2.66173">
        <ele>1516.2</ele>
        <time>2000-01-01T02:38:25.000Z</time>
      </trkpt>
      <trkpt lat="45.10479" lon="2.66181">
        <ele>1514.9</ele>
        <time>2000-01-01T02:38:35.000Z</time>
      </trkpt>
      <trkpt lat="45.10483" lon="2.66187">
        <ele>1517</ele>
        <time>2000-01-01T02:38:45.000Z</time>
      </trkpt>
      <trkpt lat="45.10484" lon="2.66198">
        <ele>1511.1</ele>
        <time>2000-01-01T02:38:55.000Z</time>
      </trkpt>
      <trkpt lat="45.10487" lon="2.66204">
        <ele>1509.4</ele>
        <time>2000-01-01T02:39:05.000Z</time>
      </trkpt>
      <trkpt lat="45.10491" lon="2.66208">
        <ele>1507.4</ele>
        <time>2000-01-01T02:39:15.000Z</time>
      </trkpt>
      <trkpt lat="45.10499" lon="2.66198">
        <ele>1512</ele>
        <time>2000-01-01T02:39:25.000Z</time>
      </trkpt>
      <trkpt lat="45.10507" lon="2.66193">
        <ele>1502.2</ele>
        <time>2000-01-01T02:39:35.000Z</time>
      </trkpt>
      <trkpt lat="45.1051" lon="2.66187">
        <ele>1501.8</ele>
        <time>2000-01-01T02:39:45.000Z</time>
      </trkpt>
      <trkpt lat="45.10518" lon="2.66182">
        <ele>1504</ele>
        <time>2000-01-01T02:39:55.000Z</time>
      </trkpt>
      <trkpt lat="45.10526" lon="2.66176">
        <ele>1497</ele>
        <time>2000-01-01T02:40:05.000Z</time>
      </trkpt>
      <trkpt lat="45.10532" lon="2.66175">
        <ele>1494.9</ele>
        <time>2000-01-01T02:40:15.000Z</time>
      </trkpt>
      <trkpt lat="45.10541" lon="2.66174">
        <ele>1500</ele>
        <time>2000-01-01T02:40:25.000Z</time>
      </trkpt>
      <trkpt lat="45.10544" lon="2.66173">
        <ele>1490.9</ele>
        <time>2000-01-01T02:40:35.000Z</time>
      </trkpt>
      <trkpt lat="45.1055" lon="2.66173">
        <ele>1488.7</ele>
        <time>2000-01-01T02:40:45.000Z</time>
      </trkpt>
      <trkpt lat="45.10549" lon="2.66181">
        <ele>1487.4</ele>
        <time>2000-01-01T02:40:55.000Z</time>
      </trkpt>
      <trkpt lat="45.10547" lon="2.66193">
        <ele>1490</ele>
        <time>2000-01-01T02:41:05.000Z</time>
      </trkpt>
      <trkpt lat="45.10544" lon="2.66201">
        <ele>1485.6</ele>
        <time>2000-01-01T02:41:15.000Z</time>
      </trkpt>
      <trkpt lat="45.10541" lon="2.66211">
        <ele>1485.4</ele>
        <time>2000-01-01T02:41:25.000Z</time>
      </trkpt>
      <trkpt lat="45.10538" lon="2.66225">
        <ele>1485</ele>
        <time>2000-01-01T02:41:35.000Z</time>
      </trkpt>
      <trkpt lat="45.10536" lon="2.66239">
        <ele>1483</ele>
        <time>2000-01-01T02:41:45.000Z</time>
      </trkpt>
      <trkpt lat="45.10537" lon="2.66248">
        <ele>1481</ele>
        <time>2000-01-01T02:41:55.000Z</time>
      </trkpt>
      <trkpt lat="45.10535" lon="2.66254">
        <ele>1484</ele>
        <time>2000-01-01T02:42:05.000Z</time>
      </trkpt>
      <trkpt lat="45.10535" lon="2.66264">
        <ele>1478.5</ele>
        <time>2000-01-01T02:42:15.000Z</time>
      </trkpt>
      <trkpt lat="45.10539" lon="2.66266">
        <ele>1476.1</ele>
        <time>2000-01-01T02:42:25.000Z</time>
      </trkpt>
      <trkpt lat="45.10542" lon="2.66262">
        <ele>1475.5</ele>
        <time>2000-01-01T02:42:35.000Z</time>
      </trkpt>
      <trkpt lat="45.10545" lon="2.66259">
        <ele>1481</ele>
        <time>2000-01-01T02:42:45.000Z</time>
      </trkpt>
      <trkpt lat="45.10549" lon="2.66258">
        <ele>1473.1</ele>
        <time>2000-01-01T02:42:55.000Z</time>
      </trkpt>
      <trkpt lat="45.10547" lon="2.66267">
        <ele>1471.9</ele>
        <time>2000-01-01T02:43:05.000Z</time>
      </trkpt>
      <trkpt lat="45.10546" lon="2.66279">
        <ele>1469.3</ele>
        <time>2000-01-01T02:43:15.000Z</time>
      </trkpt>
      <trkpt lat="45.10543" lon="2.66286">
        <ele>1475</ele>
        <time>2000-01-01T02:43:25.000Z</time>
      </trkpt>
      <trkpt lat="45.10538" lon="2.66292">
        <ele>1468.7</ele>
        <time>2000-01-01T02:43:35.000Z</time>
      </trkpt>
      <trkpt lat="45.10537" lon="2.663">
        <ele>1466.4</ele>
        <time>2000-01-01T02:43:45.000Z</time>
      </trkpt>
      <trkpt lat="45.10538" lon="2.66305">
        <ele>1463.9</ele>
        <time>2000-01-01T02:43:55.000Z</time>
      </trkpt>
      <trkpt lat="45.1054" lon="2.6632">
        <ele>1466</ele>
        <time>2000-01-01T02:44:05.000Z</time>
      </trkpt>
      <trkpt lat="45.10542" lon="2.66334">
        <ele>1458.8</ele>
        <time>2000-01-01T02:44:15.000Z</time>
      </trkpt>
      <trkpt lat="45.10547" lon="2.66348">
        <ele>1464</ele>
        <time>2000-01-01T02:44:25.000Z</time>
      </trkpt>
      <trkpt lat="45.10548" lon="2.66357">
        <ele>1454.5</ele>
        <time>2000-01-01T02:44:35.000Z</time>
      </trkpt>
      <trkpt lat="45.1055" lon="2.66365">
        <ele>1453</ele>
        <time>2000-01-01T02:44:45.000Z</time>
      </trkpt>
      <trkpt lat="45.10551" lon="2.66372">
        <ele>1452.3</ele>
        <time>2000-01-01T02:44:55.000Z</time>
      </trkpt>
      <trkpt lat="45.10552" lon="2.66378">
        <ele>1455</ele>
        <time>2000-01-01T02:45:05.000Z</time>
      </trkpt>
      <trkpt lat="45.10556" lon="2.66392">
        <ele>1448.8</ele>
        <time>2000-01-01T02:45:15.000Z</time>
      </trkpt>
      <trkpt lat="45.10562" lon="2.66411">
        <ele>1451</ele>
        <time>2000-01-01T02:45:25.000Z</time>
      </trkpt>
      <trkpt lat="45.10565" lon="2.66424">
        <ele>1444.9</ele>
        <time>2000-01-01T02:45:35.000Z</time>
      </trkpt>
      <trkpt lat="45.1057" lon="2.66438">
        <ele>1445</ele>
        <time>2000-01-01T02:45:45.000Z</time>
      </trkpt>
      <trkpt lat="45.10576" lon="2.66451">
        <ele>1441.9</ele>
        <time>2000-01-01T02:45:55.000Z</time>
      </trkpt>
      <trkpt lat="45.10581" lon="2.66468">
        <ele>1441</ele>
        <time>2000-01-01T02:46:05.000Z</time>
      </trkpt>
      <trkpt lat="45.10586" lon="2.66482">
        <ele>1440.2</ele>
        <time>2000-01-01T02:46:15.000Z</time>
      </trkpt>
      <trkpt lat="45.1059" lon="2.66496">
        <ele>1441</ele>
        <time>2000-01-01T02:46:25.000Z</time>
      </trkpt>
      <trkpt lat="45.10601" lon="2.66519">
        <ele>1440</ele>
        <time>2000-01-01T02:46:35.000Z</time>
      </trkpt>
      <trkpt lat="45.10608" lon="2.66531">
        <ele>1434.3</ele>
        <time>2000-01-01T02:46:45.000Z</time>
      </trkpt>
      <trkpt lat="45.10612" lon="2.66552">
        <ele>1438</ele>
        <time>2000-01-01T02:46:55.000Z</time>
      </trkpt>
      <trkpt lat="45.10614" lon="2.66565">
        <ele>1437.8</ele>
        <time>2000-01-01T02:47:05.000Z</time>
      </trkpt>
      <trkpt lat="45.10617" lon="2.66577">
        <ele>1439</ele>
        <time>2000-01-01T02:47:15.000Z</time>
      </trkpt>
      <trkpt lat="45.10621" lon="2.66592">
        <ele>1437.5</ele>
        <time>2000-01-01T02:47:25.000Z</time>
      </trkpt>
      <trkpt lat="45.10624" lon="2.66607">
        <ele>1441.8</ele>
        <time>2000-01-01T02:47:35.000Z</time>
      </trkpt>
      <trkpt lat="45.10625" lon="2.6662">
        <ele>1438.7</ele>
        <time>2000-01-01T02:47:45.000Z</time>
      </trkpt>
      <trkpt lat="45.10627" lon="2.66641">
        <ele>1442.1</ele>
        <time>2000-01-01T02:47:55.000Z</time>
      </trkpt>
      <trkpt lat="45.10628" lon="2.66663">
        <ele>1440</ele>
        <time>2000-01-01T02:48:05.000Z</time>
      </trkpt>
      <trkpt lat="45.10629" lon="2.66676">
        <ele>1444.6</ele>
        <time>2000-01-01T02:48:15.000Z</time>
      </trkpt>
      <trkpt lat="45.10631" lon="2.66699">
        <ele>1442</ele>
        <time>2000-01-01T02:48:25.000Z</time>
      </trkpt>
      <trkpt lat="45.10631" lon="2.66716">
        <ele>1448.9</ele>
        <time>2000-01-01T02:48:35.000Z</time>
      </trkpt>
      <trkpt lat="45.10636" lon="2.66732">
        <ele>1443</ele>
        <time>2000-01-01T02:48:45.000Z</time>
      </trkpt>
      <trkpt lat="45.10639" lon="2.66742">
        <ele>1451.9</ele>
        <time>2000-01-01T02:48:55.000Z</time>
      </trkpt>
      <trkpt lat="45.10643" lon="2.66758">
        <ele>1450</ele>
        <time>2000-01-01T02:49:05.000Z</time>
      </trkpt>
      <trkpt lat="45.10646" lon="2.66766">
        <ele>1456.8</ele>
        <time>2000-01-01T02:49:15.000Z</time>
      </trkpt>
      <trkpt lat="45.10651" lon="2.66769">
        <ele>1456.1</ele>
        <time>2000-01-01T02:49:25.000Z</time>
      </trkpt>
      <trkpt lat="45.10657" lon="2.66776">
        <ele>1456</ele>
        <time>2000-01-01T02:49:35.000Z</time>
      </trkpt>
      <trkpt lat="45.10661" lon="2.66788">
        <ele>1458.5</ele>
        <time>2000-01-01T02:49:45.000Z</time>
      </trkpt>
      <trkpt lat="45.10665" lon="2.66798">
        <ele>1460.2</ele>
        <time>2000-01-01T02:49:55.000Z</time>
      </trkpt>
      <trkpt lat="45.10672" lon="2.66808">
        <ele>1456</ele>
        <time>2000-01-01T02:50:05.000Z</time>
      </trkpt>
      <trkpt lat="45.10679" lon="2.66812">
        <ele>1460</ele>
        <time>2000-01-01T02:50:15.000Z</time>
      </trkpt>
      <trkpt lat="45.10683" lon="2.66823">
        <ele>1462.7</ele>
        <time>2000-01-01T02:50:25.000Z</time>
      </trkpt>
      <trkpt lat="45.10689" lon="2.66836">
        <ele>1461</ele>
        <time>2000-01-01T02:50:35.000Z</time>
      </trkpt>
      <trkpt lat="45.10693" lon="2.66847">
        <ele>1467.5</ele>
        <time>2000-01-01T02:50:45.000Z</time>
      </trkpt>
      <trkpt lat="45.10696" lon="2.66855">
        <ele>1469.1</ele>
        <time>2000-01-01T02:50:55.000Z</time>
      </trkpt>
      <trkpt lat="45.10701" lon="2.66864">
        <ele>1465</ele>
        <time>2000-01-01T02:51:05.000Z</time>
      </trkpt>
      <trkpt lat="45.10707" lon="2.66872">
        <ele>1470.4</ele>
        <time>2000-01-01T02:51:15.000Z</time>
      </trkpt>
      <trkpt lat="45.10711" lon="2.6688">
        <ele>1471.1</ele>
        <time>2000-01-01T02:51:25.000Z</time>
      </trkpt>
      <trkpt lat="45.10711" lon="2.66886">
        <ele>1473.1</ele>
        <time>2000-01-01T02:51:35.000Z</time>
      </trkpt>
      <trkpt lat="45.10715" lon="2.66893">
        <ele>1469</ele>
        <time>2000-01-01T02:51:45.000Z</time>
      </trkpt>
      <trkpt lat="45.10718" lon="2.66905">
        <ele>1475.5</ele>
        <time>2000-01-01T02:51:55.000Z</time>
      </trkpt>
      <trkpt lat="45.1072" lon="2.66916">
        <ele>1478</ele>
        <time>2000-01-01T02:52:05.000Z</time>
      </trkpt>
      <trkpt lat="45.10725" lon="2.66928">
        <ele>1473</ele>
        <time>2000-01-01T02:52:15.000Z</time>
      </trkpt>
      <trkpt lat="45.10729" lon="2.66935">
        <ele>1479.7</ele>
        <time>2000-01-01T02:52:25.000Z</time>
      </trkpt>
      <trkpt lat="45.10734" lon="2.66943">
        <ele>1479.6</ele>
        <time>2000-01-01T02:52:35.000Z</time>
      </trkpt>
      <trkpt lat="45.10739" lon="2.66954">
        <ele>1478</ele>
        <time>2000-01-01T02:52:45.000Z</time>
      </trkpt>
      <trkpt lat="45.10746" lon="2.66962">
        <ele>1480.1</ele>
        <time>2000-01-01T02:52:55.000Z</time>
      </trkpt>
      <trkpt lat="45.1075" lon="2.66965">
        <ele>1479.4</ele>
        <time>2000-01-01T02:53:05.000Z</time>
      </trkpt>
      <trkpt lat="45.10754" lon="2.66975">
        <ele>1478</ele>
        <time>2000-01-01T02:53:15.000Z</time>
      </trkpt>
      <trkpt lat="45.1076" lon="2.66984">
        <ele>1483.7</ele>
        <time>2000-01-01T02:53:25.000Z</time>
      </trkpt>
      <trkpt lat="45.10765" lon="2.66988">
        <ele>1484</ele>
        <time>2000-01-01T02:53:35.000Z</time>
      </trkpt>
      <trkpt lat="45.10771" lon="2.66993">
        <ele>1481</ele>
        <time>2000-01-01T02:53:45.000Z</time>
      </trkpt>
      <trkpt lat="45.10779" lon="2.67">
        <ele>1486</ele>
        <time>2000-01-01T02:53:55.000Z</time>
      </trkpt>
      <trkpt lat="45.10789" lon="2.67002">
        <ele>1483</ele>
        <time>2000-01-01T02:54:05.000Z</time>
      </trkpt>
      <trkpt lat="45.10795" lon="2.67004">
        <ele>1487.3</ele>
        <time>2000-01-01T02:54:15.000Z</time>
      </trkpt>
      <trkpt lat="45.10805" lon="2.67009">
        <ele>1489.5</ele>
        <time>2000-01-01T02:54:25.000Z</time>
      </trkpt>
      <trkpt lat="45.10812" lon="2.67016">
        <ele>1488</ele>
        <time>2000-01-01T02:54:35.000Z</time>
      </trkpt>
      <trkpt lat="45.10818" lon="2.67018">
        <ele>1492.6</ele>
        <time>2000-01-01T02:54:45.000Z</time>
      </trkpt>
      <trkpt lat="45.10833" lon="2.67021">
        <ele>1492</ele>
        <time>2000-01-01T02:54:55.000Z</time>
      </trkpt>
      <trkpt lat="45.10845" lon="2.67028">
        <ele>1493.6</ele>
        <time>2000-01-01T02:55:05.000Z</time>
      </trkpt>
      <trkpt lat="45.10856" lon="2.67036">
        <ele>1493</ele>
        <time>2000-01-01T02:55:15.000Z</time>
      </trkpt>
      <trkpt lat="45.10862" lon="2.67042">
        <ele>1497.6</ele>
        <time>2000-01-01T02:55:25.000Z</time>
      </trkpt>
      <trkpt lat="45.10877" lon="2.67043">
        <ele>1495</ele>
        <time>2000-01-01T02:55:35.000Z</time>
      </trkpt>
      <trkpt lat="45.10885" lon="2.67041">
        <ele>1494.6</ele>
        <time>2000-01-01T02:55:45.000Z</time>
      </trkpt>
      <trkpt lat="45.10894" lon="2.67042">
        <ele>1494.8</ele>
        <time>2000-01-01T02:55:55.000Z</time>
      </trkpt>
      <trkpt lat="45.109" lon="2.67046">
        <ele>1495</ele>
        <time>2000-01-01T02:56:05.000Z</time>
      </trkpt>
      <trkpt lat="45.10909" lon="2.67052">
        <ele>1500.2</ele>
        <time>2000-01-01T02:56:15.000Z</time>
      </trkpt>
      <trkpt lat="45.10919" lon="2.67051">
        <ele>1495</ele>
        <time>2000-01-01T02:56:25.000Z</time>
      </trkpt>
      <trkpt lat="45.10924" lon="2.6706">
        <ele>1504.1</ele>
        <time>2000-01-01T02:56:35.000Z</time>
      </trkpt>
      <trkpt lat="45.10931" lon="2.67058">
        <ele>1502.8</ele>
        <time>2000-01-01T02:56:45.000Z</time>
      </trkpt>
      <trkpt lat="45.10939" lon="2.67057">
        <ele>1500</ele>
        <time>2000-01-01T02:56:55.000Z</time>
      </trkpt>
      <trkpt lat="45.10947" lon="2.67056">
        <ele>1501.4</ele>
        <time>2000-01-01T02:57:05.000Z</time>
      </trkpt>
      <trkpt lat="45.10957" lon="2.67046">
        <ele>1498.5</ele>
        <time>2000-01-01T02:57:15.000Z</time>
      </trkpt>
      <trkpt lat="45.10968" lon="2.67035">
        <ele>1491.8</ele>
        <time>2000-01-01T02:57:25.000Z</time>
      </trkpt>
      <trkpt lat="45.10981" lon="2.6703">
        <ele>1497</ele>
        <time>2000-01-01T02:57:35.000Z</time>
      </trkpt>
      <trkpt lat="45.10994" lon="2.67027">
        <ele>1489.2</ele>
        <time>2000-01-01T02:57:45.000Z</time>
      </trkpt>
      <trkpt lat="45.11" lon="2.67026">
        <ele>1489</ele>
        <time>2000-01-01T02:57:55.000Z</time>
      </trkpt>
      <trkpt lat="45.11001" lon="2.67025">
        <ele>1488.8</ele>
        <time>2000-01-01T02:58:05.000Z</time>
      </trkpt>
      <trkpt lat="45.11005" lon="2.67021">
        <ele>1487.6</ele>
        <time>2000-01-01T02:58:15.000Z</time>
      </trkpt>
      <trkpt lat="45.11011" lon="2.6702">
        <ele>1488.1</ele>
        <time>2000-01-01T02:58:25.000Z</time>
      </trkpt>
      <trkpt lat="45.11018" lon="2.6702">
        <ele>1489</ele>
        <time>2000-01-01T02:58:35.000Z</time>
      </trkpt>
      <trkpt lat="45.1102" lon="2.67023">
        <ele>1490.8</ele>
        <time>2000-01-01T02:58:45.000Z</time>
      </trkpt>
      <trkpt lat="45.11032" lon="2.67023">
        <ele>1492.7</ele>
        <time>2000-01-01T02:58:55.000Z</time>
      </trkpt>
      <trkpt lat="45.11041" lon="2.6702">
        <ele>1491</ele>
        <time>2000-01-01T02:59:05.000Z</time>
      </trkpt>
      <trkpt lat="45.11049" lon="2.67019">
        <ele>1494.3</ele>
        <time>2000-01-01T02:59:15.000Z</time>
      </trkpt>
      <trkpt lat="45.11054" lon="2.67018">
        <ele>1494.8</ele>
        <time>2000-01-01T02:59:25.000Z</time>
      </trkpt>
      <trkpt lat="45.11062" lon="2.67013">
        <ele>1493</ele>
        <time>2000-01-01T02:59:35.000Z</time>
      </trkpt>
      <trkpt lat="45.11071" lon="2.67012">
        <ele>1495</ele>
        <time>2000-01-01T02:59:45.000Z</time>
      </trkpt>
      <trkpt lat="45.11082" lon="2.6701">
        <ele>1494</ele>
        <time>2000-01-01T02:59:55.000Z</time>
      </trkpt>
      <trkpt lat="45.11088" lon="2.67012">
        <ele>1497.4</ele>
        <time>2000-01-01T03:00:05.000Z</time>
      </trkpt>
      <trkpt lat="45.11096" lon="2.67011">
        <ele>1498.2</ele>
        <time>2000-01-01T03:00:15.000Z</time>
      </trkpt>
      <trkpt lat="45.11105" lon="2.67006">
        <ele>1495</ele>
        <time>2000-01-01T03:00:25.000Z</time>
      </trkpt>
      <trkpt lat="45.11113" lon="2.66999">
        <ele>1496</ele>
        <time>2000-01-01T03:00:35.000Z</time>
      </trkpt>
      <trkpt lat="45.11124" lon="2.66996">
        <ele>1496</ele>
        <time>2000-01-01T03:00:45.000Z</time>
      </trkpt>
      <trkpt lat="45.11134" lon="2.66995">
        <ele>1498.8</ele>
        <time>2000-01-01T03:00:55.000Z</time>
      </trkpt>
      <trkpt lat="45.11141" lon="2.66992">
        <ele>1498.9</ele>
        <time>2000-01-01T03:01:05.000Z</time>
      </trkpt>
      <trkpt lat="45.1115" lon="2.66991">
        <ele>1497</ele>
        <time>2000-01-01T03:01:15.000Z</time>
      </trkpt>
      <trkpt lat="45.11159" lon="2.66993">
        <ele>1502.4</ele>
        <time>2000-01-01T03:01:25.000Z</time>
      </trkpt>
      <trkpt lat="45.1117" lon="2.6699">
        <ele>1500</ele>
        <time>2000-01-01T03:01:35.000Z</time>
      </trkpt>
      <trkpt lat="45.1118" lon="2.66989">
        <ele>1502</ele>
        <time>2000-01-01T03:01:45.000Z</time>
      </trkpt>
      <trkpt lat="45.11188" lon="2.66991">
        <ele>1503</ele>
        <time>2000-01-01T03:01:55.000Z</time>
      </trkpt>
      <trkpt lat="45.11196" lon="2.66988">
        <ele>1500.5</ele>
        <time>2000-01-01T03:02:05.000Z</time>
      </trkpt>
      <trkpt lat="45.112" lon="2.66984">
        <ele>1500</ele>
        <time>2000-01-01T03:02:15.000Z</time>
      </trkpt>
      <trkpt lat="45.11204" lon="2.66984">
        <ele>1500</ele>
        <time>2000-01-01T03:02:25.000Z</time>
      </trkpt>
      <trkpt lat="45.11209" lon="2.66985">
        <ele>1500.3</ele>
        <time>2000-01-01T03:02:35.000Z</time>
      </trkpt>
      <trkpt lat="45.11214" lon="2.6699">
        <ele>1501</ele>
        <time>2000-01-01T03:02:45.000Z</time>
      </trkpt>
      <trkpt lat="45.11221" lon="2.66992">
        <ele>1502.5</ele>
        <time>2000-01-01T03:02:55.000Z</time>
      </trkpt>
      <trkpt lat="45.11225" lon="2.66997">
        <ele>1503.7</ele>
        <time>2000-01-01T03:03:05.000Z</time>
      </trkpt>
      <trkpt lat="45.11232" lon="2.67001">
        <ele>1501.5</ele>
        <time>2000-01-01T03:03:15.000Z</time>
      </trkpt>
      <trkpt lat="45.1124" lon="2.67004">
        <ele>1504.5</ele>
        <time>2000-01-01T03:03:25.000Z</time>
      </trkpt>
      <trkpt lat="45.11243" lon="2.67006">
        <ele>1504.9</ele>
        <time>2000-01-01T03:03:35.000Z</time>
      </trkpt>
      <trkpt lat="45.11247" lon="2.67007">
        <ele>1504.8</ele>
        <time>2000-01-01T03:03:45.000Z</time>
      </trkpt>
      <trkpt lat="45.11253" lon="2.67009">
        <ele>1502</ele>
        <time>2000-01-01T03:03:55.000Z</time>
      </trkpt>
      <trkpt lat="45.11261" lon="2.67008">
        <ele>1506.1</ele>
        <time>2000-01-01T03:04:05.000Z</time>
      </trkpt>
      <trkpt lat="45.1127" lon="2.67003">
        <ele>1505.2</ele>
        <time>2000-01-01T03:04:15.000Z</time>
      </trkpt>
      <trkpt lat="45.11283" lon="2.66995">
        <ele>1502.5</ele>
        <time>2000-01-01T03:04:25.000Z</time>
      </trkpt>
      <trkpt lat="45.11293" lon="2.66988">
        <ele>1503.7</ele>
        <time>2000-01-01T03:04:35.000Z</time>
      </trkpt>
      <trkpt lat="45.11303" lon="2.66981">
        <ele>1502.2</ele>
        <time>2000-01-01T03:04:45.000Z</time>
      </trkpt>
      <trkpt lat="45.11306" lon="2.66979">
        <ele>1503.2</ele>
        <time>2000-01-01T03:04:55.000Z</time>
      </trkpt>
      <trkpt lat="45.11313" lon="2.66977">
        <ele>1502.7</ele>
        <time>2000-01-01T03:05:05.000Z</time>
      </trkpt>
      <trkpt lat="45.1132" lon="2.66976">
        <ele>1502.6</ele>
        <time>2000-01-01T03:05:15.000Z</time>
      </trkpt>
      <trkpt lat="45.11324" lon="2.66975">
        <ele>1502.6</ele>
        <time>2000-01-01T03:05:25.000Z</time>
      </trkpt>
      <trkpt lat="45.11336" lon="2.66975">
        <ele>1502.7</ele>
        <time>2000-01-01T03:05:35.000Z</time>
      </trkpt>
      <trkpt lat="45.11346" lon="2.66976">
        <ele>1502.3</ele>
        <time>2000-01-01T03:05:45.000Z</time>
      </trkpt>
      <trkpt lat="45.11353" lon="2.66981">
        <ele>1504.7</ele>
        <time>2000-01-01T03:05:55.000Z</time>
      </trkpt>
      <trkpt lat="45.11362" lon="2.66986">
        <ele>1506.6</ele>
        <time>2000-01-01T03:06:05.000Z</time>
      </trkpt>
      <trkpt lat="45.11371" lon="2.66986">
        <ele>1504.6</ele>
        <time>2000-01-01T03:06:15.000Z</time>
      </trkpt>
      <trkpt lat="45.11383" lon="2.66984">
        <ele>1509</ele>
        <time>2000-01-01T03:06:25.000Z</time>
      </trkpt>
      <trkpt lat="45.11393" lon="2.66981">
        <ele>1507</ele>
        <time>2000-01-01T03:06:35.000Z</time>
      </trkpt>
      <trkpt lat="45.11406" lon="2.66977">
        <ele>1511.9</ele>
        <time>2000-01-01T03:06:45.000Z</time>
      </trkpt>
      <trkpt lat="45.11422" lon="2.66973">
        <ele>1510</ele>
        <time>2000-01-01T03:06:55.000Z</time>
      </trkpt>
      <trkpt lat="45.11435" lon="2.66968">
        <ele>1516.9</ele>
        <time>2000-01-01T03:07:05.000Z</time>
      </trkpt>
      <trkpt lat="45.11444" lon="2.66961">
        <ele>1514</ele>
        <time>2000-01-01T03:07:15.000Z</time>
      </trkpt>
      <trkpt lat="45.11455" lon="2.66954">
        <ele>1518</ele>
        <time>2000-01-01T03:07:25.000Z</time>
      </trkpt>
      <trkpt lat="45.11464" lon="2.66952">
        <ele>1516</ele>
        <time>2000-01-01T03:07:35.000Z</time>
      </trkpt>
      <trkpt lat="45.11476" lon="2.66948">
        <ele>1522.2</ele>
        <time>2000-01-01T03:07:45.000Z</time>
      </trkpt>
      <trkpt lat="45.11488" lon="2.66939">
        <ele>1519</ele>
        <time>2000-01-01T03:07:55.000Z</time>
      </trkpt>
      <trkpt lat="45.11507" lon="2.66937">
        <ele>1523</ele>
        <time>2000-01-01T03:08:05.000Z</time>
      </trkpt>
      <trkpt lat="45.11525" lon="2.66926">
        <ele>1528</ele>
        <time>2000-01-01T03:08:15.000Z</time>
      </trkpt>
      <trkpt lat="45.11545" lon="2.66918">
        <ele>1531</ele>
        <time>2000-01-01T03:08:25.000Z</time>
      </trkpt>
      <trkpt lat="45.11557" lon="2.66915">
        <ele>1538.4</ele>
        <time>2000-01-01T03:08:35.000Z</time>
      </trkpt>
      <trkpt lat="45.11568" lon="2.66905">
        <ele>1535</ele>
        <time>2000-01-01T03:08:45.000Z</time>
      </trkpt>
      <trkpt lat="45.11576" lon="2.66894">
        <ele>1542.2</ele>
        <time>2000-01-01T03:08:55.000Z</time>
      </trkpt>
      <trkpt lat="45.11587" lon="2.66889">
        <ele>1541</ele>
        <time>2000-01-01T03:09:05.000Z</time>
      </trkpt>
      <trkpt lat="45.11603" lon="2.66878">
        <ele>1547.4</ele>
        <time>2000-01-01T03:09:15.000Z</time>
      </trkpt>
      <trkpt lat="45.11598" lon="2.66891">
        <ele>1544</ele>
        <time>2000-01-01T03:09:25.000Z</time>
      </trkpt>
      <trkpt lat="45.11593" lon="2.66904">
        <ele>1551.3</ele>
        <time>2000-01-01T03:09:35.000Z</time>
      </trkpt>
      <trkpt lat="45.11593" lon="2.66904">
        <ele>1551.3</ele>
        <time>2000-01-01T03:09:45.000Z</time>
      </trkpt>
      <trkpt lat="45.11586" lon="2.66924">
        <ele>1550</ele>
        <time>2000-01-01T03:09:55.000Z</time>
      </trkpt>
      <trkpt lat="45.11577" lon="2.66952">
        <ele>1554</ele>
        <time>2000-01-01T03:10:05.000Z</time>
      </trkpt>
      <trkpt lat="45.11567" lon="2.66972">
        <ele>1558.8</ele>
        <time>2000-01-01T03:10:15.000Z</time>
      </trkpt>
      <trkpt lat="45.11557" lon="2.66993">
        <ele>1557</ele>
        <time>2000-01-01T03:10:25.000Z</time>
      </trkpt>
      <trkpt lat="45.11544" lon="2.67014">
        <ele>1562</ele>
        <time>2000-01-01T03:10:35.000Z</time>
      </trkpt>
      <trkpt lat="45.11533" lon="2.67034">
        <ele>1567</ele>
        <time>2000-01-01T03:10:45.000Z</time>
      </trkpt>
      <trkpt lat="45.1152" lon="2.67054">
        <ele>1564</ele>
        <time>2000-01-01T03:10:55.000Z</time>
      </trkpt>
      <trkpt lat="45.11514" lon="2.67063">
        <ele>1569.9</ele>
        <time>2000-01-01T03:11:05.000Z</time>
      </trkpt>
      <trkpt lat="45.11509" lon="2.6707">
        <ele>1571.3</ele>
        <time>2000-01-01T03:11:15.000Z</time>
      </trkpt>
      <trkpt lat="45.11505" lon="2.67076">
        <ele>1570</ele>
        <time>2000-01-01T03:11:25.000Z</time>
      </trkpt>
      <trkpt lat="45.11501" lon="2.67082">
        <ele>1573.7</ele>
        <time>2000-01-01T03:11:35.000Z</time>
      </trkpt>
      <trkpt lat="45.11498" lon="2.67087">
        <ele>1574.7</ele>
        <time>2000-01-01T03:11:45.000Z</time>
      </trkpt>
      <trkpt lat="45.11489" lon="2.67098">
        <ele>1573</ele>
        <time>2000-01-01T03:11:55.000Z</time>
      </trkpt>
      <trkpt lat="45.11477" lon="2.67113">
        <ele>1579.5</ele>
        <time>2000-01-01T03:12:05.000Z</time>
      </trkpt>
      <trkpt lat="45.11463" lon="2.67127">
        <ele>1576</ele>
        <time>2000-01-01T03:12:15.000Z</time>
      </trkpt>
      <trkpt lat="45.11447" lon="2.67141">
        <ele>1584.7</ele>
        <time>2000-01-01T03:12:25.000Z</time>
      </trkpt>
      <trkpt lat="45.11437" lon="2.67149">
        <ele>1581</ele>
        <time>2000-01-01T03:12:35.000Z</time>
      </trkpt>
      <trkpt lat="45.11431" lon="2.67154">
        <ele>1585.7</ele>
        <time>2000-01-01T03:12:45.000Z</time>
      </trkpt>
      <trkpt lat="45.11427" lon="2.67159">
        <ele>1586.7</ele>
        <time>2000-01-01T03:12:55.000Z</time>
      </trkpt>
      <trkpt lat="45.1142" lon="2.67165">
        <ele>1585</ele>
        <time>2000-01-01T03:13:05.000Z</time>
      </trkpt>
      <trkpt lat="45.11419" lon="2.67166">
        <ele>1588</ele>
        <time>2000-01-01T03:13:15.000Z</time>
      </trkpt>
      <trkpt lat="45.11419" lon="2.67166">
        <ele>1588</ele>
        <time>2000-01-01T03:13:25.000Z</time>
      </trkpt>
      <trkpt lat="45.11416" lon="2.67171">
        <ele>1587.8</ele>
        <time>2000-01-01T03:13:35.000Z</time>
      </trkpt>
      <trkpt lat="45.11414" lon="2.67175">
        <ele>1587.7</ele>
        <time>2000-01-01T03:13:45.000Z</time>
      </trkpt>
      <trkpt lat="45.11405" lon="2.67182">
        <ele>1587</ele>
        <time>2000-01-01T03:13:55.000Z</time>
      </trkpt>
      <trkpt lat="45.11399" lon="2.67188">
        <ele>1588.5</ele>
        <time>2000-01-01T03:14:05.000Z</time>
      </trkpt>
      <trkpt lat="45.11393" lon="2.67191">
        <ele>1589.3</ele>
        <time>2000-01-01T03:14:15.000Z</time>
      </trkpt>
      <trkpt lat="45.11384" lon="2.67195">
        <ele>1587</ele>
        <time>2000-01-01T03:14:25.000Z</time>
      </trkpt>
      <trkpt lat="45.11375" lon="2.67198">
        <ele>1592.1</ele>
        <time>2000-01-01T03:14:35.000Z</time>
      </trkpt>
      <trkpt lat="45.11367" lon="2.67205">
        <ele>1592.9</ele>
        <time>2000-01-01T03:14:45.000Z</time>
      </trkpt>
      <trkpt lat="45.11363" lon="2.67207">
        <ele>1591</ele>
        <time>2000-01-01T03:14:55.000Z</time>
      </trkpt>
      <trkpt lat="45.11353" lon="2.67214">
        <ele>1595.3</ele>
        <time>2000-01-01T03:15:05.000Z</time>
      </trkpt>
      <trkpt lat="45.11338" lon="2.67222">
        <ele>1597</ele>
        <time>2000-01-01T03:15:15.000Z</time>
      </trkpt>
      <trkpt lat="45.11325" lon="2.67232">
        <ele>1600.9</ele>
        <time>2000-01-01T03:15:25.000Z</time>
      </trkpt>
      <trkpt lat="45.11319" lon="2.67238">
        <ele>1601</ele>
        <time>2000-01-01T03:15:35.000Z</time>
      </trkpt>
      <trkpt lat="45.11312" lon="2.67243">
        <ele>1604.2</ele>
        <time>2000-01-01T03:15:45.000Z</time>
      </trkpt>
      <trkpt lat="45.11307" lon="2.67245">
        <ele>1606.4</ele>
        <time>2000-01-01T03:15:55.000Z</time>
      </trkpt>
      <trkpt lat="45.11299" lon="2.67247">
        <ele>1605</ele>
        <time>2000-01-01T03:16:05.000Z</time>
      </trkpt>
      <trkpt lat="45.11291" lon="2.67251">
        <ele>1610.1</ele>
        <time>2000-01-01T03:16:15.000Z</time>
      </trkpt>
      <trkpt lat="45.11287" lon="2.67254">
        <ele>1611</ele>
        <time>2000-01-01T03:16:25.000Z</time>
      </trkpt>
      <trkpt lat="45.11285" lon="2.67258">
        <ele>1611.9</ele>
        <time>2000-01-01T03:16:35.000Z</time>
      </trkpt>
      <trkpt lat="45.1128" lon="2.67266">
        <ele>1610</ele>
        <time>2000-01-01T03:16:45.000Z</time>
      </trkpt>
      <trkpt lat="45.11276" lon="2.6727">
        <ele>1617.2</ele>
        <time>2000-01-01T03:16:55.000Z</time>
      </trkpt>
      <trkpt lat="45.1127" lon="2.67275">
        <ele>1619.1</ele>
        <time>2000-01-01T03:17:05.000Z</time>
      </trkpt>
      <trkpt lat="45.11266" lon="2.67279">
        <ele>1620.4</ele>
        <time>2000-01-01T03:17:15.000Z</time>
      </trkpt>
      <trkpt lat="45.11263" lon="2.67284">
        <ele>1616</ele>
        <time>2000-01-01T03:17:25.000Z</time>
      </trkpt>
      <trkpt lat="45.1126" lon="2.67289">
        <ele>1622.3</ele>
        <time>2000-01-01T03:17:35.000Z</time>
      </trkpt>
      <trkpt lat="45.11256" lon="2.67298">
        <ele>1624.6</ele>
        <time>2000-01-01T03:17:45.000Z</time>
      </trkpt>
      <trkpt lat="45.11252" lon="2.67307">
        <ele>1622</ele>
        <time>2000-01-01T03:17:55.000Z</time>
      </trkpt>
      <trkpt lat="45.11248" lon="2.6731">
        <ele>1627.3</ele>
        <time>2000-01-01T03:18:05.000Z</time>
      </trkpt>
      <trkpt lat="45.11245" lon="2.67309">
        <ele>1628</ele>
        <time>2000-01-01T03:18:15.000Z</time>
      </trkpt>
      <trkpt lat="45.11239" lon="2.67307">
        <ele>1629</ele>
        <time>2000-01-01T03:18:25.000Z</time>
      </trkpt>
      <trkpt lat="45.11235" lon="2.67305">
        <ele>1629.5</ele>
        <time>2000-01-01T03:18:35.000Z</time>
      </trkpt>
      <trkpt lat="45.11232" lon="2.67305">
        <ele>1628</ele>
        <time>2000-01-01T03:18:45.000Z</time>
      </trkpt>
      <trkpt lat="45.11225" lon="2.6731">
        <ele>1630.9</ele>
        <time>2000-01-01T03:18:55.000Z</time>
      </trkpt>
      <trkpt lat="45.11219" lon="2.67316">
        <ele>1632.5</ele>
        <time>2000-01-01T03:19:05.000Z</time>
      </trkpt>
      <trkpt lat="45.11216" lon="2.67319">
        <ele>1633.6</ele>
        <time>2000-01-01T03:19:15.000Z</time>
      </trkpt>
      <trkpt lat="45.11214" lon="2.67324">
        <ele>1629</ele>
        <time>2000-01-01T03:19:25.000Z</time>
      </trkpt>
      <trkpt lat="45.11213" lon="2.67326">
        <ele>1635.5</ele>
        <time>2000-01-01T03:19:35.000Z</time>
      </trkpt>
      <trkpt lat="45.11211" lon="2.67327">
        <ele>1636.3</ele>
        <time>2000-01-01T03:19:45.000Z</time>
      </trkpt>
      <trkpt lat="45.11206" lon="2.67328">
        <ele>1638.3</ele>
        <time>2000-01-01T03:19:55.000Z</time>
      </trkpt>
      <trkpt lat="45.11197" lon="2.67328">
        <ele>1641.4</ele>
        <time>2000-01-01T03:20:05.000Z</time>
      </trkpt>
      <trkpt lat="45.11187" lon="2.67328">
        <ele>1636</ele>
        <time>2000-01-01T03:20:15.000Z</time>
      </trkpt>
      <trkpt lat="45.11182" lon="2.67327">
        <ele>1645</ele>
        <time>2000-01-01T03:20:25.000Z</time>
      </trkpt>
      <trkpt lat="45.11176" lon="2.67328">
        <ele>1646.8</ele>
        <time>2000-01-01T03:20:35.000Z</time>
      </trkpt>
      <trkpt lat="45.1117" lon="2.67328">
        <ele>1648.3</ele>
        <time>2000-01-01T03:20:45.000Z</time>
      </trkpt>
      <trkpt lat="45.11166" lon="2.6733">
        <ele>1645</ele>
        <time>2000-01-01T03:20:55.000Z</time>
      </trkpt>
      <trkpt lat="45.1116" lon="2.67332">
        <ele>1650.5</ele>
        <time>2000-01-01T03:21:05.000Z</time>
      </trkpt>
      <trkpt lat="45.11157" lon="2.67333">
        <ele>1650.9</ele>
        <time>2000-01-01T03:21:15.000Z</time>
      </trkpt>
      <trkpt lat="45.11154" lon="2.67336">
        <ele>1651.3</ele>
        <time>2000-01-01T03:21:25.000Z</time>
      </trkpt>
      <trkpt lat="45.11151" lon="2.67344">
        <ele>1651</ele>
        <time>2000-01-01T03:21:35.000Z</time>
      </trkpt>
      <trkpt lat="45.11149" lon="2.67346">
        <ele>1653.4</ele>
        <time>2000-01-01T03:21:45.000Z</time>
      </trkpt>
      <trkpt lat="45.11147" lon="2.67349">
        <ele>1654.4</ele>
        <time>2000-01-01T03:21:55.000Z</time>
      </trkpt>
      <trkpt lat="45.11145" lon="2.67354">
        <ele>1656.1</ele>
        <time>2000-01-01T03:22:05.000Z</time>
      </trkpt>
      <trkpt lat="45.11144" lon="2.6736">
        <ele>1657.9</ele>
        <time>2000-01-01T03:22:15.000Z</time>
      </trkpt>
      <trkpt lat="45.11143" lon="2.67364">
        <ele>1657.5</ele>
        <time>2000-01-01T03:22:25.000Z</time>
      </trkpt>
      <trkpt lat="45.11138" lon="2.67368">
        <ele>1656</ele>
        <time>2000-01-01T03:22:35.000Z</time>
      </trkpt>
      <trkpt lat="45.11129" lon="2.67374">
        <ele>1659.6</ele>
        <time>2000-01-01T03:22:45.000Z</time>
      </trkpt>
      <trkpt lat="45.11122" lon="2.67378">
        <ele>1662.7</ele>
        <time>2000-01-01T03:22:55.000Z</time>
      </trkpt>
      <trkpt lat="45.11116" lon="2.67381">
        <ele>1662</ele>
        <time>2000-01-01T03:23:05.000Z</time>
      </trkpt>
      <trkpt lat="45.11112" lon="2.67383">
        <ele>1669.5</ele>
        <time>2000-01-01T03:23:15.000Z</time>
      </trkpt>
      <trkpt lat="45.11111" lon="2.67385">
        <ele>1671</ele>
        <time>2000-01-01T03:23:25.000Z</time>
      </trkpt>
      <trkpt lat="45.11104" lon="2.67392">
        <ele>1673.2</ele>
        <time>2000-01-01T03:23:35.000Z</time>
      </trkpt>
      <trkpt lat="45.111" lon="2.67396">
        <ele>1669</ele>
        <time>2000-01-01T03:23:45.000Z</time>
      </trkpt>
      <trkpt lat="45.11096" lon="2.67401">
        <ele>1675.9</ele>
        <time>2000-01-01T03:23:55.000Z</time>
      </trkpt>
      <trkpt lat="45.11088" lon="2.67411">
        <ele>1682</ele>
        <time>2000-01-01T03:24:05.000Z</time>
      </trkpt>
      <trkpt lat="45.11084" lon="2.67416">
        <ele>1677</ele>
        <time>2000-01-01T03:24:15.000Z</time>
      </trkpt>
      <trkpt lat="45.11079" lon="2.67421">
        <ele>1688.6</ele>
        <time>2000-01-01T03:24:25.000Z</time>
      </trkpt>
      <trkpt lat="45.11073" lon="2.67425">
        <ele>1690.7</ele>
        <time>2000-01-01T03:24:35.000Z</time>
      </trkpt>
      <trkpt lat="45.11068" lon="2.6743">
        <ele>1693.2</ele>
        <time>2000-01-01T03:24:45.000Z</time>
      </trkpt>
      <trkpt lat="45.11064" lon="2.67433">
        <ele>1687</ele>
        <time>2000-01-01T03:24:55.000Z</time>
      </trkpt>
      <trkpt lat="45.11063" lon="2.67435">
        <ele>1696.1</ele>
        <time>2000-01-01T03:25:05.000Z</time>
      </trkpt>
      <trkpt lat="45.11063" lon="2.67439">
        <ele>1697.5</ele>
        <time>2000-01-01T03:25:15.000Z</time>
      </trkpt>
      <trkpt lat="45.11063" lon="2.67444">
        <ele>1699.2</ele>
        <time>2000-01-01T03:25:25.000Z</time>
      </trkpt>
      <trkpt lat="45.11062" lon="2.67448">
        <ele>1699.8</ele>
        <time>2000-01-01T03:25:35.000Z</time>
      </trkpt>
      <trkpt lat="45.11061" lon="2.67452">
        <ele>1700.5</ele>
        <time>2000-01-01T03:25:45.000Z</time>
      </trkpt>
      <trkpt lat="45.1106" lon="2.67453">
        <ele>1701.1</ele>
        <time>2000-01-01T03:25:55.000Z</time>
      </trkpt>
      <trkpt lat="45.11059" lon="2.67455">
        <ele>1701.9</ele>
        <time>2000-01-01T03:26:05.000Z</time>
      </trkpt>
      <trkpt lat="45.11057" lon="2.67456">
        <ele>1696</ele>
        <time>2000-01-01T03:26:15.000Z</time>
      </trkpt>
      <trkpt lat="45.11052" lon="2.67456">
        <ele>1705.2</ele>
        <time>2000-01-01T03:26:25.000Z</time>
      </trkpt>
      <trkpt lat="45.11047" lon="2.67453">
        <ele>1706.2</ele>
        <time>2000-01-01T03:26:35.000Z</time>
      </trkpt>
      <trkpt lat="45.11044" lon="2.67452">
        <ele>1706.8</ele>
        <time>2000-01-01T03:26:45.000Z</time>
      </trkpt>
      <trkpt lat="45.11041" lon="2.67452">
        <ele>1707.7</ele>
        <time>2000-01-01T03:26:55.000Z</time>
      </trkpt>
      <trkpt lat="45.11037" lon="2.67455">
        <ele>1703</ele>
        <time>2000-01-01T03:27:05.000Z</time>
      </trkpt>
      <trkpt lat="45.11034" lon="2.67455">
        <ele>1710.8</ele>
        <time>2000-01-01T03:27:15.000Z</time>
      </trkpt>
      <trkpt lat="45.1103" lon="2.67456">
        <ele>1712.4</ele>
        <time>2000-01-01T03:27:25.000Z</time>
      </trkpt>
      <trkpt lat="45.11027" lon="2.67459">
        <ele>1714.4</ele>
        <time>2000-01-01T03:27:35.000Z</time>
      </trkpt>
      <trkpt lat="45.1102" lon="2.67464">
        <ele>1718.1</ele>
        <time>2000-01-01T03:27:45.000Z</time>
      </trkpt>
      <trkpt lat="45.11012" lon="2.6747">
        <ele>1710</ele>
        <time>2000-01-01T03:27:55.000Z</time>
      </trkpt>
      <trkpt lat="45.11007" lon="2.67474">
        <ele>1726.2</ele>
        <time>2000-01-01T03:28:05.000Z</time>
      </trkpt>
      <trkpt lat="45.11003" lon="2.67477">
        <ele>1728.5</ele>
        <time>2000-01-01T03:28:15.000Z</time>
      </trkpt>
      <trkpt lat="45.11" lon="2.67478">
        <ele>1730.1</ele>
        <time>2000-01-01T03:28:25.000Z</time>
      </trkpt>
      <trkpt lat="45.10996" lon="2.67479">
        <ele>1731</ele>
        <time>2000-01-01T03:28:35.000Z</time>
      </trkpt>
      <trkpt lat="45.10995" lon="2.67481">
        <ele>1724</ele>
        <time>2000-01-01T03:28:45.000Z</time>
      </trkpt>
      <trkpt lat="45.10991" lon="2.67487">
        <ele>1735.2</ele>
        <time>2000-01-01T03:28:55.000Z</time>
      </trkpt>
      <trkpt lat="45.10989" lon="2.67491">
        <ele>1737.3</ele>
        <time>2000-01-01T03:29:05.000Z</time>
      </trkpt>
      <trkpt lat="45.10985" lon="2.67495">
        <ele>1740</ele>
        <time>2000-01-01T03:29:15.000Z</time>
      </trkpt>
      <trkpt lat="45.10981" lon="2.67497">
        <ele>1742</ele>
        <time>2000-01-01T03:29:25.000Z</time>
      </trkpt>
      <trkpt lat="45.10974" lon="2.675">
        <ele>1732</ele>
        <time>2000-01-01T03:29:35.000Z</time>
      </trkpt>
      <trkpt lat="45.1097" lon="2.67501">
        <ele>1746.7</ele>
        <time>2000-01-01T03:29:45.000Z</time>
      </trkpt>
      <trkpt lat="45.10964" lon="2.67503">
        <ele>1748.5</ele>
        <time>2000-01-01T03:29:55.000Z</time>
      </trkpt>
      <trkpt lat="45.10958" lon="2.67506">
        <ele>1750.9</ele>
        <time>2000-01-01T03:30:05.000Z</time>
      </trkpt>
      <trkpt lat="45.10948" lon="2.6751">
        <ele>1745</ele>
        <time>2000-01-01T03:30:15.000Z</time>
      </trkpt>
      <trkpt lat="45.10944" lon="2.67511">
        <ele>1756.1</ele>
        <time>2000-01-01T03:30:25.000Z</time>
      </trkpt>
      <trkpt lat="45.10939" lon="2.67512">
        <ele>1756.6</ele>
        <time>2000-01-01T03:30:35.000Z</time>
      </trkpt>
      <trkpt lat="45.10938" lon="2.67512">
        <ele>1756.6</ele>
        <time>2000-01-01T03:30:45.000Z</time>
      </trkpt>
      <trkpt lat="45.10937" lon="2.67513">
        <ele>1757.2</ele>
        <time>2000-01-01T03:30:55.000Z</time>
      </trkpt>
      <trkpt lat="45.10937" lon="2.67515">
        <ele>1758.4</ele>
        <time>2000-01-01T03:31:05.000Z</time>
      </trkpt>
      <trkpt lat="45.10937" lon="2.67517">
        <ele>1759.6</ele>
        <time>2000-01-01T03:31:15.000Z</time>
      </trkpt>
      <trkpt lat="45.10938" lon="2.6752">
        <ele>1761.5</ele>
        <time>2000-01-01T03:31:25.000Z</time>
      </trkpt>
      <trkpt lat="45.10942" lon="2.67522">
        <ele>1754</ele>
        <time>2000-01-01T03:31:35.000Z</time>
      </trkpt>
      <trkpt lat="45.10947" lon="2.67526">
        <ele>1765.1</ele>
        <time>2000-01-01T03:31:45.000Z</time>
      </trkpt>
      <trkpt lat="45.1095" lon="2.67531">
        <ele>1766.1</ele>
        <time>2000-01-01T03:31:55.000Z</time>
      </trkpt>
      <trkpt lat="45.10951" lon="2.67534">
        <ele>1766.4</ele>
        <time>2000-01-01T03:32:05.000Z</time>
      </trkpt>
      <trkpt lat="45.10952" lon="2.67538">
        <ele>1766.8</ele>
        <time>2000-01-01T03:32:15.000Z</time>
      </trkpt>
      <trkpt lat="45.10952" lon="2.67543">
        <ele>1767.8</ele>
        <time>2000-01-01T03:32:25.000Z</time>
      </trkpt>
      <trkpt lat="45.10951" lon="2.67549">
        <ele>1764</ele>
        <time>2000-01-01T03:32:35.000Z</time>
      </trkpt>
      <trkpt lat="45.10949" lon="2.67556">
        <ele>1772.5</ele>
        <time>2000-01-01T03:32:45.000Z</time>
      </trkpt>
      <trkpt lat="45.10945" lon="2.67567">
        <ele>1776.3</ele>
        <time>2000-01-01T03:32:55.000Z</time>
      </trkpt>
      <trkpt lat="45.10942" lon="2.67576">
        <ele>1772</ele>
        <time>2000-01-01T03:33:05.000Z</time>
      </trkpt>
      <trkpt lat="45.10939" lon="2.67584">
        <ele>1775.8</ele>
        <time>2000-01-01T03:33:15.000Z</time>
      </trkpt>
      <trkpt lat="45.10937" lon="2.67589">
        <ele>1774.5</ele>
        <time>2000-01-01T03:33:25.000Z</time>
      </trkpt>
      <trkpt lat="45.10936" lon="2.67595">
        <ele>1773.7</ele>
        <time>2000-01-01T03:33:35.000Z</time>
      </trkpt>
      <trkpt lat="45.10935" lon="2.67603">
        <ele>1779</ele>
        <time>2000-01-01T03:33:45.000Z</time>
      </trkpt>
      <trkpt lat="45.10934" lon="2.67609">
        <ele>1772.4</ele>
        <time>2000-01-01T03:33:55.000Z</time>
      </trkpt>
      <trkpt lat="45.10933" lon="2.67618">
        <ele>1770.8</ele>
        <time>2000-01-01T03:34:05.000Z</time>
      </trkpt>
      <trkpt lat="45.10933" lon="2.67625">
        <ele>1769.5</ele>
        <time>2000-01-01T03:34:15.000Z</time>
      </trkpt>
      <trkpt lat="45.10933" lon="2.67629">
        <ele>1768.7</ele>
        <time>2000-01-01T03:34:25.000Z</time>
      </trkpt>
      <trkpt lat="45.10935" lon="2.67635">
        <ele>1778</ele>
        <time>2000-01-01T03:34:35.000Z</time>
      </trkpt>
      <trkpt lat="45.10935" lon="2.67637">
        <ele>1767.3</ele>
        <time>2000-01-01T03:34:45.000Z</time>
      </trkpt>
      <trkpt lat="45.10933" lon="2.6764">
        <ele>1766.2</ele>
        <time>2000-01-01T03:34:55.000Z</time>
      </trkpt>
      <trkpt lat="45.10929" lon="2.67644">
        <ele>1764.3</ele>
        <time>2000-01-01T03:35:05.000Z</time>
      </trkpt>
      <trkpt lat="45.10929" lon="2.67646">
        <ele>1763.5</ele>
        <time>2000-01-01T03:35:15.000Z</time>
      </trkpt>
      <trkpt lat="45.10928" lon="2.6765">
        <ele>1762.1</ele>
        <time>2000-01-01T03:35:25.000Z</time>
      </trkpt>
      <trkpt lat="45.10927" lon="2.67658">
        <ele>1777</ele>
        <time>2000-01-01T03:35:35.000Z</time>
      </trkpt>
      <trkpt lat="45.10925" lon="2.67667">
        <ele>1758</ele>
        <time>2000-01-01T03:35:45.000Z</time>
      </trkpt>
      <trkpt lat="45.10924" lon="2.67673">
        <ele>1758.3</ele>
        <time>2000-01-01T03:35:55.000Z</time>
      </trkpt>
      <trkpt lat="45.10923" lon="2.67677">
        <ele>1758.7</ele>
        <time>2000-01-01T03:36:05.000Z</time>
      </trkpt>
      <trkpt lat="45.10922" lon="2.6768">
        <ele>1759.3</ele>
        <time>2000-01-01T03:36:15.000Z</time>
      </trkpt>
      <trkpt lat="45.10922" lon="2.67685">
        <ele>1774</ele>
        <time>2000-01-01T03:36:25.000Z</time>
      </trkpt>
      <trkpt lat="45.10923" lon="2.67698">
        <ele>1757.8</ele>
        <time>2000-01-01T03:36:35.000Z</time>
      </trkpt>
      <trkpt lat="45.10922" lon="2.67701">
        <ele>1758.8</ele>
        <time>2000-01-01T03:36:45.000Z</time>
      </trkpt>
      <trkpt lat="45.1092" lon="2.67705">
        <ele>1760.6</ele>
        <time>2000-01-01T03:36:55.000Z</time>
      </trkpt>
      <trkpt lat="45.10917" lon="2.67709">
        <ele>1766</ele>
        <time>2000-01-01T03:37:05.000Z</time>
      </trkpt>
      <trkpt lat="45.10917" lon="2.67713">
        <ele>1762.8</ele>
        <time>2000-01-01T03:37:15.000Z</time>
      </trkpt>
      <trkpt lat="45.10917" lon="2.67717">
        <ele>1762.8</ele>
        <time>2000-01-01T03:37:25.000Z</time>
      </trkpt>
      <trkpt lat="45.10916" lon="2.67719">
        <ele>1762.4</ele>
        <time>2000-01-01T03:37:35.000Z</time>
      </trkpt>
      <trkpt lat="45.10913" lon="2.67723">
        <ele>1759.6</ele>
        <time>2000-01-01T03:37:45.000Z</time>
      </trkpt>
      <trkpt lat="45.10911" lon="2.67724">
        <ele>1757.6</ele>
        <time>2000-01-01T03:37:55.000Z</time>
      </trkpt>
      <trkpt lat="45.10908" lon="2.67726">
        <ele>1754.5</ele>
        <time>2000-01-01T03:38:05.000Z</time>
      </trkpt>
      <trkpt lat="45.10908" lon="2.6773">
        <ele>1764</ele>
        <time>2000-01-01T03:38:15.000Z</time>
      </trkpt>
      <trkpt lat="45.10909" lon="2.67736">
        <ele>1751.7</ele>
        <time>2000-01-01T03:38:25.000Z</time>
      </trkpt>
      <trkpt lat="45.1091" lon="2.67739">
        <ele>1751.2</ele>
        <time>2000-01-01T03:38:35.000Z</time>
      </trkpt>
      <trkpt lat="45.10909" lon="2.6774">
        <ele>1750.3</ele>
        <time>2000-01-01T03:38:45.000Z</time>
      </trkpt>
      <trkpt lat="45.10908" lon="2.6774">
        <ele>1749.7</ele>
        <time>2000-01-01T03:38:55.000Z</time>
      </trkpt>
      <trkpt lat="45.10906" lon="2.67741">
        <ele>1748.2</ele>
        <time>2000-01-01T03:39:05.000Z</time>
      </trkpt>
      <trkpt lat="45.10904" lon="2.67743">
        <ele>1746.5</ele>
        <time>2000-01-01T03:39:15.000Z</time>
      </trkpt>
      <trkpt lat="45.10902" lon="2.67744">
        <ele>1745.2</ele>
        <time>2000-01-01T03:39:25.000Z</time>
      </trkpt>
      <trkpt lat="45.10899" lon="2.67745">
        <ele>1743.4</ele>
        <time>2000-01-01T03:39:35.000Z</time>
      </trkpt>
      <trkpt lat="45.10898" lon="2.6775">
        <ele>1756</ele>
        <time>2000-01-01T03:39:45.000Z</time>
      </trkpt>
      <trkpt lat="45.10898" lon="2.67753">
        <ele>1740.9</ele>
        <time>2000-01-01T03:39:55.000Z</time>
      </trkpt>
      <trkpt lat="45.10897" lon="2.67753">
        <ele>1740.5</ele>
        <time>2000-01-01T03:40:05.000Z</time>
      </trkpt>
      <trkpt lat="45.10897" lon="2.67751">
        <ele>1741.2</ele>
        <time>2000-01-01T03:40:15.000Z</time>
      </trkpt>
      <trkpt lat="45.10896" lon="2.67751">
        <ele>1740.7</ele>
        <time>2000-01-01T03:40:25.000Z</time>
      </trkpt>
      <trkpt lat="45.10895" lon="2.67752">
        <ele>1740</ele>
        <time>2000-01-01T03:40:35.000Z</time>
      </trkpt>
      <trkpt lat="45.10894" lon="2.67754">
        <ele>1739</ele>
        <time>2000-01-01T03:40:45.000Z</time>
      </trkpt>
      <trkpt lat="45.10894" lon="2.67756">
        <ele>1738.3</ele>
        <time>2000-01-01T03:40:55.000Z</time>
      </trkpt>
      <trkpt lat="45.10893" lon="2.67756">
        <ele>1738</ele>
        <time>2000-01-01T03:41:05.000Z</time>
      </trkpt>
      <trkpt lat="45.10892" lon="2.67756">
        <ele>1737.6</ele>
        <time>2000-01-01T03:41:15.000Z</time>
      </trkpt>
      <trkpt lat="45.10891" lon="2.6776">
        <ele>1736.1</ele>
        <time>2000-01-01T03:41:25.000Z</time>
      </trkpt>
      <trkpt lat="45.1089" lon="2.67765">
        <ele>1734.5</ele>
        <time>2000-01-01T03:41:35.000Z</time>
      </trkpt>
      <trkpt lat="45.1089" lon="2.67768">
        <ele>1744</ele>
        <time>2000-01-01T03:41:45.000Z</time>
      </trkpt>
      <trkpt lat="45.10888" lon="2.67769">
        <ele>1732.7</ele>
        <time>2000-01-01T03:41:55.000Z</time>
      </trkpt>
      <trkpt lat="45.10885" lon="2.67775">
        <ele>1729.6</ele>
        <time>2000-01-01T03:42:05.000Z</time>
      </trkpt>
      <trkpt lat="45.10882" lon="2.67775">
        <ele>1728</ele>
        <time>2000-01-01T03:42:15.000Z</time>
      </trkpt>
      <trkpt lat="45.10879" lon="2.67778">
        <ele>1725.9</ele>
        <time>2000-01-01T03:42:25.000Z</time>
      </trkpt>
      <trkpt lat="45.10874" lon="2.67781">
        <ele>1722.2</ele>
        <time>2000-01-01T03:42:35.000Z</time>
      </trkpt>
      <trkpt lat="45.10869" lon="2.67784">
        <ele>1735</ele>
        <time>2000-01-01T03:42:45.000Z</time>
      </trkpt>
      <trkpt lat="45.10867" lon="2.67786">
        <ele>1717.7</ele>
        <time>2000-01-01T03:42:55.000Z</time>
      </trkpt>
      <trkpt lat="45.10867" lon="2.6779">
        <ele>1716.6</ele>
        <time>2000-01-01T03:43:05.000Z</time>
      </trkpt>
      <trkpt lat="45.10866" lon="2.67792">
        <ele>1715.7</ele>
        <time>2000-01-01T03:43:15.000Z</time>
      </trkpt>
      <trkpt lat="45.10865" lon="2.67794">
        <ele>1715</ele>
        <time>2000-01-01T03:43:25.000Z</time>
      </trkpt>
      <trkpt lat="45.10863" lon="2.67795">
        <ele>1714.3</ele>
        <time>2000-01-01T03:43:35.000Z</time>
      </trkpt>
      <trkpt lat="45.10861" lon="2.67796">
        <ele>1713.7</ele>
        <time>2000-01-01T03:43:45.000Z</time>
      </trkpt>
      <trkpt lat="45.10853" lon="2.67803">
        <ele>1720</ele>
        <time>2000-01-01T03:43:55.000Z</time>
      </trkpt>
      <trkpt lat="45.10849" lon="2.67807">
        <ele>1708.7</ele>
        <time>2000-01-01T03:44:05.000Z</time>
      </trkpt>
      <trkpt lat="45.10848" lon="2.67807">
        <ele>1708.5</ele>
        <time>2000-01-01T03:44:15.000Z</time>
      </trkpt>
      <trkpt lat="45.10844" lon="2.67806">
        <ele>1708.1</ele>
        <time>2000-01-01T03:44:25.000Z</time>
      </trkpt>
      <trkpt lat="45.1084" lon="2.67807">
        <ele>1706.8</ele>
        <time>2000-01-01T03:44:35.000Z</time>
      </trkpt>
      <trkpt lat="45.10837" lon="2.67808">
        <ele>1705.8</ele>
        <time>2000-01-01T03:44:45.000Z</time>
      </trkpt>
      <trkpt lat="45.10836" lon="2.67811">
        <ele>1712</ele>
        <time>2000-01-01T03:44:55.000Z</time>
      </trkpt>
      <trkpt lat="45.10835" lon="2.67813">
        <ele>1703.3</ele>
        <time>2000-01-01T03:45:05.000Z</time>
      </trkpt>
      <trkpt lat="45.1083" lon="2.67814">
        <ele>1700.2</ele>
        <time>2000-01-01T03:45:15.000Z</time>
      </trkpt>
      <trkpt lat="45.10828" lon="2.67815">
        <ele>1698.5</ele>
        <time>2000-01-01T03:45:25.000Z</time>
      </trkpt>
      <trkpt lat="45.10828" lon="2.67818">
        <ele>1697.6</ele>
        <time>2000-01-01T03:45:35.000Z</time>
      </trkpt>
      <trkpt lat="45.10831" lon="2.67822">
        <ele>1698.2</ele>
        <time>2000-01-01T03:45:45.000Z</time>
      </trkpt>
      <trkpt lat="45.1083" lon="2.67826">
        <ele>1696.3</ele>
        <time>2000-01-01T03:45:55.000Z</time>
      </trkpt>
      <trkpt lat="45.10828" lon="2.67828">
        <ele>1705</ele>
        <time>2000-01-01T03:46:05.000Z</time>
      </trkpt>
      <trkpt lat="45.10826" lon="2.6783">
        <ele>1693.4</ele>
        <time>2000-01-01T03:46:15.000Z</time>
      </trkpt>
      <trkpt lat="45.10822" lon="2.67832">
        <ele>1691.5</ele>
        <time>2000-01-01T03:46:25.000Z</time>
      </trkpt>
      <trkpt lat="45.10819" lon="2.67833">
        <ele>1690.4</ele>
        <time>2000-01-01T03:46:35.000Z</time>
      </trkpt>
      <trkpt lat="45.10816" lon="2.67834">
        <ele>1689.2</ele>
        <time>2000-01-01T03:46:45.000Z</time>
      </trkpt>
      <trkpt lat="45.10815" lon="2.67834">
        <ele>1688.9</ele>
        <time>2000-01-01T03:46:55.000Z</time>
      </trkpt>
      <trkpt lat="45.10814" lon="2.67839">
        <ele>1687.1</ele>
        <time>2000-01-01T03:47:05.000Z</time>
      </trkpt>
      <trkpt lat="45.10813" lon="2.6784">
        <ele>1686.5</ele>
        <time>2000-01-01T03:47:15.000Z</time>
      </trkpt>
      <trkpt lat="45.10809" lon="2.67844">
        <ele>1696</ele>
        <time>2000-01-01T03:47:25.000Z</time>
      </trkpt>
      <trkpt lat="45.10806" lon="2.67846">
        <ele>1683.4</ele>
        <time>2000-01-01T03:47:35.000Z</time>
      </trkpt>
      <trkpt lat="45.10804" lon="2.67849">
        <ele>1681.8</ele>
        <time>2000-01-01T03:47:45.000Z</time>
      </trkpt>
      <trkpt lat="45.10804" lon="2.67851">
        <ele>1681.5</ele>
        <time>2000-01-01T03:47:55.000Z</time>
      </trkpt>
      <trkpt lat="45.10797" lon="2.67855">
        <ele>1677.9</ele>
        <time>2000-01-01T03:48:05.000Z</time>
      </trkpt>
      <trkpt lat="45.10793" lon="2.67857">
        <ele>1685</ele>
        <time>2000-01-01T03:48:15.000Z</time>
      </trkpt>
      <trkpt lat="45.10789" lon="2.67862">
        <ele>1675</ele>
        <time>2000-01-01T03:48:25.000Z</time>
      </trkpt>
      <trkpt lat="45.10786" lon="2.67868">
        <ele>1672.7</ele>
        <time>2000-01-01T03:48:35.000Z</time>
      </trkpt>
      <trkpt lat="45.10785" lon="2.67872">
        <ele>1671.7</ele>
        <time>2000-01-01T03:48:45.000Z</time>
      </trkpt>
      <trkpt lat="45.10783" lon="2.67877">
        <ele>1670.5</ele>
        <time>2000-01-01T03:48:55.000Z</time>
      </trkpt>
      <trkpt lat="45.10779" lon="2.67882">
        <ele>1679</ele>
        <time>2000-01-01T03:49:05.000Z</time>
      </trkpt>
      <trkpt lat="45.10776" lon="2.67887">
        <ele>1668.2</ele>
        <time>2000-01-01T03:49:15.000Z</time>
      </trkpt>
      <trkpt lat="45.10773" lon="2.6789">
        <ele>1665.9</ele>
        <time>2000-01-01T03:49:25.000Z</time>
      </trkpt>
      <trkpt lat="45.1077" lon="2.67892">
        <ele>1663.5</ele>
        <time>2000-01-01T03:49:35.000Z</time>
      </trkpt>
      <trkpt lat="45.10767" lon="2.67896">
        <ele>1660.8</ele>
        <time>2000-01-01T03:49:45.000Z</time>
      </trkpt>
      <trkpt lat="45.10766" lon="2.67899">
        <ele>1659.4</ele>
        <time>2000-01-01T03:49:55.000Z</time>
      </trkpt>
      <trkpt lat="45.10763" lon="2.679">
        <ele>1670</ele>
        <time>2000-01-01T03:50:05.000Z</time>
      </trkpt>
      <trkpt lat="45.1076" lon="2.67902">
        <ele>1657</ele>
        <time>2000-01-01T03:50:15.000Z</time>
      </trkpt>
      <trkpt lat="45.10758" lon="2.67904">
        <ele>1656.2</ele>
        <time>2000-01-01T03:50:25.000Z</time>
      </trkpt>
      <trkpt lat="45.10756" lon="2.67907">
        <ele>1655.5</ele>
        <time>2000-01-01T03:50:35.000Z</time>
      </trkpt>
      <trkpt lat="45.10754" lon="2.6791">
        <ele>1655.1</ele>
        <time>2000-01-01T03:50:45.000Z</time>
      </trkpt>
      <trkpt lat="45.10753" lon="2.67913">
        <ele>1654.9</ele>
        <time>2000-01-01T03:50:55.000Z</time>
      </trkpt>
      <trkpt lat="45.10751" lon="2.67916">
        <ele>1654.9</ele>
        <time>2000-01-01T03:51:05.000Z</time>
      </trkpt>
      <trkpt lat="45.10748" lon="2.6792">
        <ele>1661</ele>
        <time>2000-01-01T03:51:15.000Z</time>
      </trkpt>
      <trkpt lat="45.10746" lon="2.67923">
        <ele>1650.5</ele>
        <time>2000-01-01T03:51:25.000Z</time>
      </trkpt>
      <trkpt lat="45.10743" lon="2.67926">
        <ele>1648.2</ele>
        <time>2000-01-01T03:51:35.000Z</time>
      </trkpt>
      <trkpt lat="45.10741" lon="2.67932">
        <ele>1645.7</ele>
        <time>2000-01-01T03:51:45.000Z</time>
      </trkpt>
      <trkpt lat="45.10737" lon="2.67937">
        <ele>1643.3</ele>
        <time>2000-01-01T03:51:55.000Z</time>
      </trkpt>
      <trkpt lat="45.10733" lon="2.67942">
        <ele>1654</ele>
        <time>2000-01-01T03:52:05.000Z</time>
      </trkpt>
      <trkpt lat="45.10726" lon="2.67955">
        <ele>1638.5</ele>
        <time>2000-01-01T03:52:15.000Z</time>
      </trkpt>
      <trkpt lat="45.10719" lon="2.67968">
        <ele>1643</ele>
        <time>2000-01-01T03:52:25.000Z</time>
      </trkpt>
      <trkpt lat="45.10712" lon="2.67979">
        <ele>1632.6</ele>
        <time>2000-01-01T03:52:35.000Z</time>
      </trkpt>
      <trkpt lat="45.10702" lon="2.67991">
        <ele>1637</ele>
        <time>2000-01-01T03:52:45.000Z</time>
      </trkpt>
      <trkpt lat="45.10698" lon="2.67997">
        <ele>1628.3</ele>
        <time>2000-01-01T03:52:55.000Z</time>
      </trkpt>
      <trkpt lat="45.10695" lon="2.68001">
        <ele>1627.6</ele>
        <time>2000-01-01T03:53:05.000Z</time>
      </trkpt>
      <trkpt lat="45.1069" lon="2.68008">
        <ele>1623.9</ele>
        <time>2000-01-01T03:53:15.000Z</time>
      </trkpt>
      <trkpt lat="45.10686" lon="2.68014">
        <ele>1630</ele>
        <time>2000-01-01T03:53:25.000Z</time>
      </trkpt>
      <trkpt lat="45.10684" lon="2.68012">
        <ele>1621.2</ele>
        <time>2000-01-01T03:53:35.000Z</time>
      </trkpt>
      <trkpt lat="45.10684" lon="2.68012">
        <ele>1621.2</ele>
        <time>2000-01-01T03:53:45.000Z</time>
      </trkpt>
      <trkpt lat="45.10686" lon="2.68014">
        <ele>1621.3</ele>
        <time>2000-01-01T03:53:55.000Z</time>
      </trkpt>
      <trkpt lat="45.10681" lon="2.68023">
        <ele>1618.7</ele>
        <time>2000-01-01T03:54:05.000Z</time>
      </trkpt>
      <trkpt lat="45.10676" lon="2.6803">
        <ele>1623</ele>
        <time>2000-01-01T03:54:15.000Z</time>
      </trkpt>
      <trkpt lat="45.10675" lon="2.68033">
        <ele>1616.6</ele>
        <time>2000-01-01T03:54:25.000Z</time>
      </trkpt>
      <trkpt lat="45.10673" lon="2.68036">
        <ele>1615.9</ele>
        <time>2000-01-01T03:54:35.000Z</time>
      </trkpt>
      <trkpt lat="45.10671" lon="2.68042">
        <ele>1614.9</ele>
        <time>2000-01-01T03:54:45.000Z</time>
      </trkpt>
      <trkpt lat="45.10668" lon="2.68052">
        <ele>1613.4</ele>
        <time>2000-01-01T03:54:55.000Z</time>
      </trkpt>
      <trkpt lat="45.10668" lon="2.68053">
        <ele>1613.2</ele>
        <time>2000-01-01T03:55:05.000Z</time>
      </trkpt>
      <trkpt lat="45.10668" lon="2.68056">
        <ele>1617</ele>
        <time>2000-01-01T03:55:15.000Z</time>
      </trkpt>
      <trkpt lat="45.10667" lon="2.68059">
        <ele>1612.2</ele>
        <time>2000-01-01T03:55:25.000Z</time>
      </trkpt>
      <trkpt lat="45.10666" lon="2.68065">
        <ele>1610.8</ele>
        <time>2000-01-01T03:55:35.000Z</time>
      </trkpt>
      <trkpt lat="45.10665" lon="2.68073">
        <ele>1608.8</ele>
        <time>2000-01-01T03:55:45.000Z</time>
      </trkpt>
      <trkpt lat="45.10664" lon="2.68076">
        <ele>1607.9</ele>
        <time>2000-01-01T03:55:55.000Z</time>
      </trkpt>
      <trkpt lat="45.10664" lon="2.68079">
        <ele>1607.2</ele>
        <time>2000-01-01T03:56:05.000Z</time>
      </trkpt>
      <trkpt lat="45.10663" lon="2.68082">
        <ele>1612</ele>
        <time>2000-01-01T03:56:15.000Z</time>
      </trkpt>
      <trkpt lat="45.10662" lon="2.6809">
        <ele>1604.7</ele>
        <time>2000-01-01T03:56:25.000Z</time>
      </trkpt>
      <trkpt lat="45.10659" lon="2.68098">
        <ele>1602.9</ele>
        <time>2000-01-01T03:56:35.000Z</time>
      </trkpt>
      <trkpt lat="45.10658" lon="2.681">
        <ele>1602.5</ele>
        <time>2000-01-01T03:56:45.000Z</time>
      </trkpt>
      <trkpt lat="45.10657" lon="2.68104">
        <ele>1601.9</ele>
        <time>2000-01-01T03:56:55.000Z</time>
      </trkpt>
      <trkpt lat="45.10656" lon="2.68105">
        <ele>1601.7</ele>
        <time>2000-01-01T03:57:05.000Z</time>
      </trkpt>
      <trkpt lat="45.10654" lon="2.68108">
        <ele>1607</ele>
        <time>2000-01-01T03:57:15.000Z</time>
      </trkpt>
      <trkpt lat="45.10653" lon="2.68111">
        <ele>1601</ele>
        <time>2000-01-01T03:57:25.000Z</time>
      </trkpt>
      <trkpt lat="45.1065" lon="2.68117">
        <ele>1600.7</ele>
        <time>2000-01-01T03:57:35.000Z</time>
      </trkpt>
      <trkpt lat="45.10648" lon="2.6812">
        <ele>1600.9</ele>
        <time>2000-01-01T03:57:45.000Z</time>
      </trkpt>
      <trkpt lat="45.10645" lon="2.68125">
        <ele>1601.7</ele>
        <time>2000-01-01T03:57:55.000Z</time>
      </trkpt>
      <trkpt lat="45.10642" lon="2.68132">
        <ele>1606.5</ele>
        <time>2000-01-01T03:58:05.000Z</time>
      </trkpt>
      <trkpt lat="45.1064" lon="2.68137">
        <ele>1605.1</ele>
        <time>2000-01-01T03:58:15.000Z</time>
      </trkpt>
      <trkpt lat="45.1064" lon="2.68141">
        <ele>1604.8</ele>
        <time>2000-01-01T03:58:25.000Z</time>
      </trkpt>
      <trkpt lat="45.10638" lon="2.68143">
        <ele>1604.8</ele>
        <time>2000-01-01T03:58:35.000Z</time>
      </trkpt>
      <trkpt lat="45.10635" lon="2.68148">
        <ele>1603.4</ele>
        <time>2000-01-01T03:58:45.000Z</time>
      </trkpt>
      <trkpt lat="45.10632" lon="2.68151">
        <ele>1602.8</ele>
        <time>2000-01-01T03:58:55.000Z</time>
      </trkpt>
      <trkpt lat="45.10628" lon="2.68155">
        <ele>1607.2</ele>
        <time>2000-01-01T03:59:05.000Z</time>
      </trkpt>
      <trkpt lat="45.10625" lon="2.68158">
        <ele>1602.8</ele>
        <time>2000-01-01T03:59:15.000Z</time>
      </trkpt>
      <trkpt lat="45.1062" lon="2.68161">
        <ele>1603.8</ele>
        <time>2000-01-01T03:59:25.000Z</time>
      </trkpt>
      <trkpt lat="45.10617" lon="2.68163">
        <ele>1604.7</ele>
        <time>2000-01-01T03:59:35.000Z</time>
      </trkpt>
      <trkpt lat="45.10613" lon="2.68168">
        <ele>1606</ele>
        <time>2000-01-01T03:59:45.000Z</time>
      </trkpt>
      <trkpt lat="45.10609" lon="2.68173">
        <ele>1608</ele>
        <time>2000-01-01T03:59:55.000Z</time>
      </trkpt>
      <trkpt lat="45.10606" lon="2.68179">
        <ele>1602.8</ele>
        <time>2000-01-01T04:00:05.000Z</time>
      </trkpt>
      <trkpt lat="45.10602" lon="2.68184">
        <ele>1602</ele>
        <time>2000-01-01T04:00:15.000Z</time>
      </trkpt>
      <trkpt lat="45.10598" lon="2.68189">
        <ele>1602.1</ele>
        <time>2000-01-01T04:00:25.000Z</time>
      </trkpt>
      <trkpt lat="45.10595" lon="2.68192">
        <ele>1608</ele>
        <time>2000-01-01T04:00:35.000Z</time>
      </trkpt>
      <trkpt lat="45.10592" lon="2.68195">
        <ele>1603.4</ele>
        <time>2000-01-01T04:00:45.000Z</time>
      </trkpt>
      <trkpt lat="45.10585" lon="2.68201">
        <ele>1605.3</ele>
        <time>2000-01-01T04:00:55.000Z</time>
      </trkpt>
      <trkpt lat="45.10582" lon="2.68205">
        <ele>1606</ele>
        <time>2000-01-01T04:01:05.000Z</time>
      </trkpt>
      <trkpt lat="45.10578" lon="2.68208">
        <ele>1607</ele>
        <time>2000-01-01T04:01:15.000Z</time>
      </trkpt>
      <trkpt lat="45.10576" lon="2.6821">
        <ele>1606.7</ele>
        <time>2000-01-01T04:01:25.000Z</time>
      </trkpt>
      <trkpt lat="45.10572" lon="2.68214">
        <ele>1607.5</ele>
        <time>2000-01-01T04:01:35.000Z</time>
      </trkpt>
      <trkpt lat="45.1057" lon="2.68218">
        <ele>1608.3</ele>
        <time>2000-01-01T04:01:45.000Z</time>
      </trkpt>
      <trkpt lat="45.10565" lon="2.68225">
        <ele>1609.3</ele>
        <time>2000-01-01T04:01:55.000Z</time>
      </trkpt>
      <trkpt lat="45.10561" lon="2.68229">
        <ele>1607</ele>
        <time>2000-01-01T04:02:05.000Z</time>
      </trkpt>
      <trkpt lat="45.10559" lon="2.68232">
        <ele>1611.3</ele>
        <time>2000-01-01T04:02:15.000Z</time>
      </trkpt>
      <trkpt lat="45.10554" lon="2.6824">
        <ele>1614.5</ele>
        <time>2000-01-01T04:02:25.000Z</time>
      </trkpt>
      <trkpt lat="45.10551" lon="2.68244">
        <ele>1615.1</ele>
        <time>2000-01-01T04:02:35.000Z</time>
      </trkpt>
      <trkpt lat="45.10547" lon="2.6825">
        <ele>1613</ele>
        <time>2000-01-01T04:02:45.000Z</time>
      </trkpt>
      <trkpt lat="45.10544" lon="2.68253">
        <ele>1614.3</ele>
        <time>2000-01-01T04:02:55.000Z</time>
      </trkpt>
      <trkpt lat="45.1054" lon="2.68259">
        <ele>1611.7</ele>
        <time>2000-01-01T04:03:05.000Z</time>
      </trkpt>
      <trkpt lat="45.10534" lon="2.68264">
        <ele>1612.7</ele>
        <time>2000-01-01T04:03:15.000Z</time>
      </trkpt>
      <trkpt lat="45.1053" lon="2.68267">
        <ele>1619</ele>
        <time>2000-01-01T04:03:25.000Z</time>
      </trkpt>
      <trkpt lat="45.10526" lon="2.6827">
        <ele>1616.2</ele>
        <time>2000-01-01T04:03:35.000Z</time>
      </trkpt>
      <trkpt lat="45.10522" lon="2.68273">
        <ele>1616</ele>
        <time>2000-01-01T04:03:45.000Z</time>
      </trkpt>
      <trkpt lat="45.10517" lon="2.68278">
        <ele>1616.3</ele>
        <time>2000-01-01T04:03:55.000Z</time>
      </trkpt>
      <trkpt lat="45.10513" lon="2.68281">
        <ele>1618.5</ele>
        <time>2000-01-01T04:04:05.000Z</time>
      </trkpt>
      <trkpt lat="45.1051" lon="2.68284">
        <ele>1615.1</ele>
        <time>2000-01-01T04:04:15.000Z</time>
      </trkpt>
      <trkpt lat="45.10505" lon="2.68291">
        <ele>1614.8</ele>
        <time>2000-01-01T04:04:25.000Z</time>
      </trkpt>
      <trkpt lat="45.10502" lon="2.68293">
        <ele>1615.3</ele>
        <time>2000-01-01T04:04:35.000Z</time>
      </trkpt>
      <trkpt lat="45.105" lon="2.68297">
        <ele>1615.6</ele>
        <time>2000-01-01T04:04:45.000Z</time>
      </trkpt>
      <trkpt lat="45.10497" lon="2.68304">
        <ele>1618</ele>
        <time>2000-01-01T04:04:55.000Z</time>
      </trkpt>
      <trkpt lat="45.10493" lon="2.68315">
        <ele>1610.7</ele>
        <time>2000-01-01T04:05:05.000Z</time>
      </trkpt>
      <trkpt lat="45.1049" lon="2.68319">
        <ele>1610.4</ele>
        <time>2000-01-01T04:05:15.000Z</time>
      </trkpt>
      <trkpt lat="45.10488" lon="2.68322">
        <ele>1610.8</ele>
        <time>2000-01-01T04:05:25.000Z</time>
      </trkpt>
      <trkpt lat="45.10482" lon="2.6833">
        <ele>1619</ele>
        <time>2000-01-01T04:05:35.000Z</time>
      </trkpt>
      <trkpt lat="45.10479" lon="2.68332">
        <ele>1616.3</ele>
        <time>2000-01-01T04:05:45.000Z</time>
      </trkpt>
      <trkpt lat="45.10476" lon="2.68335">
        <ele>1618.6</ele>
        <time>2000-01-01T04:05:55.000Z</time>
      </trkpt>
      <trkpt lat="45.10474" lon="2.68338">
        <ele>1619.9</ele>
        <time>2000-01-01T04:06:05.000Z</time>
      </trkpt>
      <trkpt lat="45.10471" lon="2.68344">
        <ele>1621.5</ele>
        <time>2000-01-01T04:06:15.000Z</time>
      </trkpt>
      <trkpt lat="45.10468" lon="2.68348">
        <ele>1621.6</ele>
        <time>2000-01-01T04:06:25.000Z</time>
      </trkpt>
      <trkpt lat="45.10464" lon="2.68356">
        <ele>1620</ele>
        <time>2000-01-01T04:06:35.000Z</time>
      </trkpt>
      <trkpt lat="45.10461" lon="2.68363">
        <ele>1625.3</ele>
        <time>2000-01-01T04:06:45.000Z</time>
      </trkpt>
      <trkpt lat="45.10459" lon="2.68366">
        <ele>1625.3</ele>
        <time>2000-01-01T04:06:55.000Z</time>
      </trkpt>
      <trkpt lat="45.10453" lon="2.68373">
        <ele>1626.9</ele>
        <time>2000-01-01T04:07:05.000Z</time>
      </trkpt>
      <trkpt lat="45.10451" lon="2.68376">
        <ele>1626</ele>
        <time>2000-01-01T04:07:15.000Z</time>
      </trkpt>
      <trkpt lat="45.10447" lon="2.68383">
        <ele>1631</ele>
        <time>2000-01-01T04:07:25.000Z</time>
      </trkpt>
      <trkpt lat="45.10444" lon="2.68386">
        <ele>1633.1</ele>
        <time>2000-01-01T04:07:35.000Z</time>
      </trkpt>
      <trkpt lat="45.1044" lon="2.68393">
        <ele>1633</ele>
        <time>2000-01-01T04:07:45.000Z</time>
      </trkpt>
      <trkpt lat="45.10433" lon="2.68403">
        <ele>1632</ele>
        <time>2000-01-01T04:07:55.000Z</time>
      </trkpt>
      <trkpt lat="45.10429" lon="2.68412">
        <ele>1633.6</ele>
        <time>2000-01-01T04:08:05.000Z</time>
      </trkpt>
      <trkpt lat="45.10426" lon="2.68418">
        <ele>1634.5</ele>
        <time>2000-01-01T04:08:15.000Z</time>
      </trkpt>
      <trkpt lat="45.10425" lon="2.68421">
        <ele>1634.5</ele>
        <time>2000-01-01T04:08:25.000Z</time>
      </trkpt>
      <trkpt lat="45.10423" lon="2.68426">
        <ele>1636</ele>
        <time>2000-01-01T04:08:35.000Z</time>
      </trkpt>
      <trkpt lat="45.10421" lon="2.6843">
        <ele>1635.1</ele>
        <time>2000-01-01T04:08:45.000Z</time>
      </trkpt>
      <trkpt lat="45.1042" lon="2.68435">
        <ele>1635.4</ele>
        <time>2000-01-01T04:08:55.000Z</time>
      </trkpt>
      <trkpt lat="45.10418" lon="2.68438">
        <ele>1636.2</ele>
        <time>2000-01-01T04:09:05.000Z</time>
      </trkpt>
      <trkpt lat="45.10416" lon="2.68444">
        <ele>1636.9</ele>
        <time>2000-01-01T04:09:15.000Z</time>
      </trkpt>
      <trkpt lat="45.10413" lon="2.68451">
        <ele>1637</ele>
        <time>2000-01-01T04:09:25.000Z</time>
      </trkpt>
      <trkpt lat="45.1041" lon="2.68457">
        <ele>1637.6</ele>
        <time>2000-01-01T04:09:35.000Z</time>
      </trkpt>
      <trkpt lat="45.10408" lon="2.68461">
        <ele>1638.1</ele>
        <time>2000-01-01T04:09:45.000Z</time>
      </trkpt>
      <trkpt lat="45.10407" lon="2.68465">
        <ele>1638.8</ele>
        <time>2000-01-01T04:09:55.000Z</time>
      </trkpt>
      <trkpt lat="45.10405" lon="2.68473">
        <ele>1640.1</ele>
        <time>2000-01-01T04:10:05.000Z</time>
      </trkpt>
      <trkpt lat="45.10403" lon="2.68485">
        <ele>1638</ele>
        <time>2000-01-01T04:10:15.000Z</time>
      </trkpt>
      <trkpt lat="45.10401" lon="2.68496">
        <ele>1641.4</ele>
        <time>2000-01-01T04:10:25.000Z</time>
      </trkpt>
      <trkpt lat="45.104" lon="2.685">
        <ele>1641.8</ele>
        <time>2000-01-01T04:10:35.000Z</time>
      </trkpt>
      <trkpt lat="45.10399" lon="2.68504">
        <ele>1641.7</ele>
        <time>2000-01-01T04:10:45.000Z</time>
      </trkpt>
      <trkpt lat="45.10398" lon="2.68509">
        <ele>1641.4</ele>
        <time>2000-01-01T04:10:55.000Z</time>
      </trkpt>
      <trkpt lat="45.10396" lon="2.68513">
        <ele>1641</ele>
        <time>2000-01-01T04:11:05.000Z</time>
      </trkpt>
      <trkpt lat="45.10391" lon="2.68522">
        <ele>1642</ele>
        <time>2000-01-01T04:11:15.000Z</time>
      </trkpt>
      <trkpt lat="45.1039" lon="2.68526">
        <ele>1641.9</ele>
        <time>2000-01-01T04:11:25.000Z</time>
      </trkpt>
      <trkpt lat="45.10386" lon="2.68532">
        <ele>1639.7</ele>
        <time>2000-01-01T04:11:35.000Z</time>
      </trkpt>
      <trkpt lat="45.1038" lon="2.68542">
        <ele>1642</ele>
        <time>2000-01-01T04:11:45.000Z</time>
      </trkpt>
      <trkpt lat="45.10377" lon="2.68547">
        <ele>1633.3</ele>
        <time>2000-01-01T04:11:55.000Z</time>
      </trkpt>
      <trkpt lat="45.10374" lon="2.6855">
        <ele>1632.6</ele>
        <time>2000-01-01T04:12:05.000Z</time>
      </trkpt>
      <trkpt lat="45.10372" lon="2.68552">
        <ele>1632.3</ele>
        <time>2000-01-01T04:12:15.000Z</time>
      </trkpt>
      <trkpt lat="45.1037" lon="2.68555">
        <ele>1631.7</ele>
        <time>2000-01-01T04:12:25.000Z</time>
      </trkpt>
      <trkpt lat="45.1037" lon="2.68557">
        <ele>1630.6</ele>
        <time>2000-01-01T04:12:35.000Z</time>
      </trkpt>
      <trkpt lat="45.1037" lon="2.68559">
        <ele>1629.4</ele>
        <time>2000-01-01T04:12:45.000Z</time>
      </trkpt>
      <trkpt lat="45.10371" lon="2.6856">
        <ele>1628.5</ele>
        <time>2000-01-01T04:12:55.000Z</time>
      </trkpt>
      <trkpt lat="45.10372" lon="2.68561">
        <ele>1642</ele>
        <time>2000-01-01T04:13:05.000Z</time>
      </trkpt>
      <trkpt lat="45.10374" lon="2.68563">
        <ele>1626</ele>
        <time>2000-01-01T04:13:15.000Z</time>
      </trkpt>
      <trkpt lat="45.10375" lon="2.68565">
        <ele>1624.6</ele>
        <time>2000-01-01T04:13:25.000Z</time>
      </trkpt>
      <trkpt lat="45.10374" lon="2.68569">
        <ele>1622.5</ele>
        <time>2000-01-01T04:13:35.000Z</time>
      </trkpt>
      <trkpt lat="45.10373" lon="2.6857">
        <ele>1622.1</ele>
        <time>2000-01-01T04:13:45.000Z</time>
      </trkpt>
      <trkpt lat="45.10372" lon="2.68572">
        <ele>1621.1</ele>
        <time>2000-01-01T04:13:55.000Z</time>
      </trkpt>
      <trkpt lat="45.10371" lon="2.68573">
        <ele>1620.7</ele>
        <time>2000-01-01T04:14:05.000Z</time>
      </trkpt>
      <trkpt lat="45.10369" lon="2.68575">
        <ele>1619.9</ele>
        <time>2000-01-01T04:14:15.000Z</time>
      </trkpt>
      <trkpt lat="45.10369" lon="2.68576">
        <ele>1619.3</ele>
        <time>2000-01-01T04:14:25.000Z</time>
      </trkpt>
      <trkpt lat="45.1037" lon="2.68579">
        <ele>1617.3</ele>
        <time>2000-01-01T04:14:35.000Z</time>
      </trkpt>
      <trkpt lat="45.10371" lon="2.68581">
        <ele>1616</ele>
        <time>2000-01-01T04:14:45.000Z</time>
      </trkpt>
      <trkpt lat="45.10372" lon="2.68584">
        <ele>1634</ele>
        <time>2000-01-01T04:14:55.000Z</time>
      </trkpt>
      <trkpt lat="45.10372" lon="2.68588">
        <ele>1616.2</ele>
        <time>2000-01-01T04:15:05.000Z</time>
      </trkpt>
      <trkpt lat="45.10372" lon="2.68591">
        <ele>1617.4</ele>
        <time>2000-01-01T04:15:15.000Z</time>
      </trkpt>
      <trkpt lat="45.10372" lon="2.68593">
        <ele>1618.2</ele>
        <time>2000-01-01T04:15:25.000Z</time>
      </trkpt>
      <trkpt lat="45.10373" lon="2.68594">
        <ele>1618.5</ele>
        <time>2000-01-01T04:15:35.000Z</time>
      </trkpt>
      <trkpt lat="45.10375" lon="2.68595">
        <ele>1618.8</ele>
        <time>2000-01-01T04:15:45.000Z</time>
      </trkpt>
      <trkpt lat="45.10376" lon="2.68597">
        <ele>1619.6</ele>
        <time>2000-01-01T04:15:55.000Z</time>
      </trkpt>
      <trkpt lat="45.10377" lon="2.68598">
        <ele>1620.1</ele>
        <time>2000-01-01T04:16:05.000Z</time>
      </trkpt>
      <trkpt lat="45.10377" lon="2.686">
        <ele>1620.9</ele>
        <time>2000-01-01T04:16:15.000Z</time>
      </trkpt>
      <trkpt lat="45.10376" lon="2.68602">
        <ele>1621.8</ele>
        <time>2000-01-01T04:16:25.000Z</time>
      </trkpt>
      <trkpt lat="45.10374" lon="2.68611">
        <ele>1633</ele>
        <time>2000-01-01T04:16:35.000Z</time>
      </trkpt>
      <trkpt lat="45.10372" lon="2.68617">
        <ele>1627.9</ele>
        <time>2000-01-01T04:16:45.000Z</time>
      </trkpt>
      <trkpt lat="45.10371" lon="2.68625">
        <ele>1631.4</ele>
        <time>2000-01-01T04:16:55.000Z</time>
      </trkpt>
      <trkpt lat="45.10372" lon="2.68629">
        <ele>1633.4</ele>
        <time>2000-01-01T04:17:05.000Z</time>
      </trkpt>
      <trkpt lat="45.10372" lon="2.6863">
        <ele>1633.9</ele>
        <time>2000-01-01T04:17:15.000Z</time>
      </trkpt>
      <trkpt lat="45.10372" lon="2.68632">
        <ele>1634.8</ele>
        <time>2000-01-01T04:17:25.000Z</time>
      </trkpt>
      <trkpt lat="45.10374" lon="2.68641">
        <ele>1637</ele>
        <time>2000-01-01T04:17:35.000Z</time>
      </trkpt>
      <trkpt lat="45.10375" lon="2.68643">
        <ele>1639.5</ele>
        <time>2000-01-01T04:17:45.000Z</time>
      </trkpt>
      <trkpt lat="45.10375" lon="2.68646">
        <ele>1640.3</ele>
        <time>2000-01-01T04:17:55.000Z</time>
      </trkpt>
      <trkpt lat="45.10375" lon="2.68649">
        <ele>1641</ele>
        <time>2000-01-01T04:18:05.000Z</time>
      </trkpt>
      <trkpt lat="45.10373" lon="2.68655">
        <ele>1642.5</ele>
        <time>2000-01-01T04:18:15.000Z</time>
      </trkpt>
      <trkpt lat="45.10373" lon="2.68656">
        <ele>1642.7</ele>
        <time>2000-01-01T04:18:25.000Z</time>
      </trkpt>
      <trkpt lat="45.10373" lon="2.68659">
        <ele>1643.5</ele>
        <time>2000-01-01T04:18:35.000Z</time>
      </trkpt>
      <trkpt lat="45.10375" lon="2.68665">
        <ele>1645.1</ele>
        <time>2000-01-01T04:18:45.000Z</time>
      </trkpt>
      <trkpt lat="45.10376" lon="2.68668">
        <ele>1641</ele>
        <time>2000-01-01T04:18:55.000Z</time>
      </trkpt>
      <trkpt lat="45.10376" lon="2.68671">
        <ele>1646.3</ele>
        <time>2000-01-01T04:19:05.000Z</time>
      </trkpt>
      <trkpt lat="45.10375" lon="2.68673">
        <ele>1646.8</ele>
        <time>2000-01-01T04:19:15.000Z</time>
      </trkpt>
      <trkpt lat="45.10373" lon="2.68675">
        <ele>1647.3</ele>
        <time>2000-01-01T04:19:25.000Z</time>
      </trkpt>
      <trkpt lat="45.10371" lon="2.68682">
        <ele>1648.9</ele>
        <time>2000-01-01T04:19:35.000Z</time>
      </trkpt>
      <trkpt lat="45.1037" lon="2.6869">
        <ele>1650.8</ele>
        <time>2000-01-01T04:19:45.000Z</time>
      </trkpt>
      <trkpt lat="45.10369" lon="2.68698">
        <ele>1647</ele>
        <time>2000-01-01T04:19:55.000Z</time>
      </trkpt>
      <trkpt lat="45.10366" lon="2.68707">
        <ele>1652.5</ele>
        <time>2000-01-01T04:20:05.000Z</time>
      </trkpt>
      <trkpt lat="45.10365" lon="2.68712">
        <ele>1652.8</ele>
        <time>2000-01-01T04:20:15.000Z</time>
      </trkpt>
      <trkpt lat="45.10364" lon="2.68721">
        <ele>1653.2</ele>
        <time>2000-01-01T04:20:25.000Z</time>
      </trkpt>
      <trkpt lat="45.10363" lon="2.68733">
        <ele>1651</ele>
        <time>2000-01-01T04:20:35.000Z</time>
      </trkpt>
      <trkpt lat="45.10362" lon="2.68747">
        <ele>1656.3</ele>
        <time>2000-01-01T04:20:45.000Z</time>
      </trkpt>
      <trkpt lat="45.10362" lon="2.68763">
        <ele>1655</ele>
        <time>2000-01-01T04:20:55.000Z</time>
      </trkpt>
      <trkpt lat="45.10362" lon="2.6877">
        <ele>1658.8</ele>
        <time>2000-01-01T04:21:05.000Z</time>
      </trkpt>
      <trkpt lat="45.10362" lon="2.68776">
        <ele>1659.5</ele>
        <time>2000-01-01T04:21:15.000Z</time>
      </trkpt>
      <trkpt lat="45.10362" lon="2.68782">
        <ele>1660.1</ele>
        <time>2000-01-01T04:21:25.000Z</time>
      </trkpt>
      <trkpt lat="45.10362" lon="2.6879">
        <ele>1658</ele>
        <time>2000-01-01T04:21:35.000Z</time>
      </trkpt>
      <trkpt lat="45.10363" lon="2.68796">
        <ele>1661.4</ele>
        <time>2000-01-01T04:21:45.000Z</time>
      </trkpt>
      <trkpt lat="45.10364" lon="2.68806">
        <ele>1662.2</ele>
        <time>2000-01-01T04:21:55.000Z</time>
      </trkpt>
      <trkpt lat="45.10366" lon="2.68817">
        <ele>1661</ele>
        <time>2000-01-01T04:22:05.000Z</time>
      </trkpt>
      <trkpt lat="45.10369" lon="2.68829">
        <ele>1664.1</ele>
        <time>2000-01-01T04:22:15.000Z</time>
      </trkpt>
      <trkpt lat="45.1037" lon="2.68835">
        <ele>1664.5</ele>
        <time>2000-01-01T04:22:25.000Z</time>
      </trkpt>
      <trkpt lat="45.1037" lon="2.68841">
        <ele>1664.9</ele>
        <time>2000-01-01T04:22:35.000Z</time>
      </trkpt>
      <trkpt lat="45.10369" lon="2.68845">
        <ele>1663</ele>
        <time>2000-01-01T04:22:45.000Z</time>
      </trkpt>
      <trkpt lat="45.10369" lon="2.68849">
        <ele>1665.6</ele>
        <time>2000-01-01T04:22:55.000Z</time>
      </trkpt>
      <trkpt lat="45.10368" lon="2.68855">
        <ele>1666.2</ele>
        <time>2000-01-01T04:23:05.000Z</time>
      </trkpt>
      <trkpt lat="45.10365" lon="2.68869">
        <ele>1666.8</ele>
        <time>2000-01-01T04:23:15.000Z</time>
      </trkpt>
      <trkpt lat="45.10362" lon="2.68878">
        <ele>1666</ele>
        <time>2000-01-01T04:23:25.000Z</time>
      </trkpt>
      <trkpt lat="45.10359" lon="2.68889">
        <ele>1667.3</ele>
        <time>2000-01-01T04:23:35.000Z</time>
      </trkpt>
      <trkpt lat="45.10357" lon="2.68897">
        <ele>1665.7</ele>
        <time>2000-01-01T04:23:45.000Z</time>
      </trkpt>
      <trkpt lat="45.10354" lon="2.68905">
        <ele>1666</ele>
        <time>2000-01-01T04:23:55.000Z</time>
      </trkpt>
      <trkpt lat="45.1035" lon="2.6891">
        <ele>1664.5</ele>
        <time>2000-01-01T04:24:05.000Z</time>
      </trkpt>
      <trkpt lat="45.10347" lon="2.68914">
        <ele>1664.5</ele>
        <time>2000-01-01T04:24:15.000Z</time>
      </trkpt>
      <trkpt lat="45.10343" lon="2.6892">
        <ele>1664</ele>
        <time>2000-01-01T04:24:25.000Z</time>
      </trkpt>
      <trkpt lat="45.10338" lon="2.68925">
        <ele>1666</ele>
        <time>2000-01-01T04:24:35.000Z</time>
      </trkpt>
      <trkpt lat="45.10333" lon="2.68935">
        <ele>1663.4</ele>
        <time>2000-01-01T04:24:45.000Z</time>
      </trkpt>
      <trkpt lat="45.10329" lon="2.68941">
        <ele>1662.7</ele>
        <time>2000-01-01T04:24:55.000Z</time>
      </trkpt>
      <trkpt lat="45.10323" lon="2.68958">
        <ele>1663</ele>
        <time>2000-01-01T04:25:05.000Z</time>
      </trkpt>
      <trkpt lat="45.10321" lon="2.68961">
        <ele>1660.2</ele>
        <time>2000-01-01T04:25:15.000Z</time>
      </trkpt>
      <trkpt lat="45.1032" lon="2.68966">
        <ele>1659.3</ele>
        <time>2000-01-01T04:25:25.000Z</time>
      </trkpt>
      <trkpt lat="45.1032" lon="2.68972">
        <ele>1658</ele>
        <time>2000-01-01T04:25:35.000Z</time>
      </trkpt>
      <trkpt lat="45.1032" lon="2.68984">
        <ele>1656.1</ele>
        <time>2000-01-01T04:25:45.000Z</time>
      </trkpt>
      <trkpt lat="45.1032" lon="2.68994">
        <ele>1661</ele>
        <time>2000-01-01T04:25:55.000Z</time>
      </trkpt>
      <trkpt lat="45.1032" lon="2.68999">
        <ele>1653.6</ele>
        <time>2000-01-01T04:26:05.000Z</time>
      </trkpt>
      <trkpt lat="45.1032" lon="2.69005">
        <ele>1653.5</ele>
        <time>2000-01-01T04:26:15.000Z</time>
      </trkpt>
      <trkpt lat="45.1032" lon="2.69015">
        <ele>1653.5</ele>
        <time>2000-01-01T04:26:25.000Z</time>
      </trkpt>
      <trkpt lat="45.1032" lon="2.69031">
        <ele>1657</ele>
        <time>2000-01-01T04:26:35.000Z</time>
      </trkpt>
      <trkpt lat="45.1032" lon="2.69037">
        <ele>1654.8</ele>
        <time>2000-01-01T04:26:45.000Z</time>
      </trkpt>
      <trkpt lat="45.10319" lon="2.69041">
        <ele>1655.4</ele>
        <time>2000-01-01T04:26:55.000Z</time>
      </trkpt>
      <trkpt lat="45.10316" lon="2.69047">
        <ele>1656.6</ele>
        <time>2000-01-01T04:27:05.000Z</time>
      </trkpt>
      <trkpt lat="45.10313" lon="2.69056">
        <ele>1657</ele>
        <time>2000-01-01T04:27:15.000Z</time>
      </trkpt>
      <trkpt lat="45.10308" lon="2.69066">
        <ele>1659.6</ele>
        <time>2000-01-01T04:27:25.000Z</time>
      </trkpt>
      <trkpt lat="45.10302" lon="2.69077">
        <ele>1660.9</ele>
        <time>2000-01-01T04:27:35.000Z</time>
      </trkpt>
      <trkpt lat="45.10301" lon="2.69079">
        <ele>1659</ele>
        <time>2000-01-01T04:27:45.000Z</time>
      </trkpt>
      <trkpt lat="45.10298" lon="2.69086">
        <ele>1661.9</ele>
        <time>2000-01-01T04:27:55.000Z</time>
      </trkpt>
      <trkpt lat="45.10296" lon="2.69093">
        <ele>1662.5</ele>
        <time>2000-01-01T04:28:05.000Z</time>
      </trkpt>
      <trkpt lat="45.10293" lon="2.69107">
        <ele>1662</ele>
        <time>2000-01-01T04:28:15.000Z</time>
      </trkpt>
      <trkpt lat="45.10292" lon="2.69113">
        <ele>1664.9</ele>
        <time>2000-01-01T04:28:25.000Z</time>
      </trkpt>
      <trkpt lat="45.1029" lon="2.6912">
        <ele>1665.3</ele>
        <time>2000-01-01T04:28:35.000Z</time>
      </trkpt>
      <trkpt lat="45.10288" lon="2.69126">
        <ele>1665.7</ele>
        <time>2000-01-01T04:28:45.000Z</time>
      </trkpt>
      <trkpt lat="45.10286" lon="2.69131">
        <ele>1666.3</ele>
        <time>2000-01-01T04:28:55.000Z</time>
      </trkpt>
      <trkpt lat="45.10281" lon="2.69146">
        <ele>1664</ele>
        <time>2000-01-01T04:29:05.000Z</time>
      </trkpt>
      <trkpt lat="45.1028" lon="2.69153">
        <ele>1667.7</ele>
        <time>2000-01-01T04:29:15.000Z</time>
      </trkpt>
      <trkpt lat="45.10278" lon="2.6916">
        <ele>1668.2</ele>
        <time>2000-01-01T04:29:25.000Z</time>
      </trkpt>
      <trkpt lat="45.10275" lon="2.69168">
        <ele>1668.5</ele>
        <time>2000-01-01T04:29:35.000Z</time>
      </trkpt>
      <trkpt lat="45.10271" lon="2.69181">
        <ele>1667</ele>
        <time>2000-01-01T04:29:45.000Z</time>
      </trkpt>
      <trkpt lat="45.10271" lon="2.69182">
        <ele>1668.8</ele>
        <time>2000-01-01T04:29:55.000Z</time>
      </trkpt>
      <trkpt lat="45.10268" lon="2.69193">
        <ele>1669.2</ele>
        <time>2000-01-01T04:30:05.000Z</time>
      </trkpt>
      <trkpt lat="45.10266" lon="2.69201">
        <ele>1669.3</ele>
        <time>2000-01-01T04:30:15.000Z</time>
      </trkpt>
      <trkpt lat="45.10264" lon="2.69206">
        <ele>1668</ele>
        <time>2000-01-01T04:30:25.000Z</time>
      </trkpt>
      <trkpt lat="45.10262" lon="2.69213">
        <ele>1669.8</ele>
        <time>2000-01-01T04:30:35.000Z</time>
      </trkpt>
      <trkpt lat="45.1026" lon="2.69219">
        <ele>1670</ele>
        <time>2000-01-01T04:30:45.000Z</time>
      </trkpt>
      <trkpt lat="45.10257" lon="2.69226">
        <ele>1669.8</ele>
        <time>2000-01-01T04:30:55.000Z</time>
      </trkpt>
      <trkpt lat="45.10254" lon="2.69233">
        <ele>1670</ele>
        <time>2000-01-01T04:31:05.000Z</time>
      </trkpt>
      <trkpt lat="45.10252" lon="2.69237">
        <ele>1669.5</ele>
        <time>2000-01-01T04:31:15.000Z</time>
      </trkpt>
      <trkpt lat="45.1025" lon="2.6924">
        <ele>1669.8</ele>
        <time>2000-01-01T04:31:25.000Z</time>
      </trkpt>
      <trkpt lat="45.10248" lon="2.69253">
        <ele>1667.5</ele>
        <time>2000-01-01T04:31:35.000Z</time>
      </trkpt>
      <trkpt lat="45.10248" lon="2.6926">
        <ele>1670</ele>
        <time>2000-01-01T04:31:45.000Z</time>
      </trkpt>
      <trkpt lat="45.10247" lon="2.69267">
        <ele>1665</ele>
        <time>2000-01-01T04:31:55.000Z</time>
      </trkpt>
      <trkpt lat="45.10245" lon="2.69271">
        <ele>1663.9</ele>
        <time>2000-01-01T04:32:05.000Z</time>
      </trkpt>
      <trkpt lat="45.10242" lon="2.69278">
        <ele>1661.7</ele>
        <time>2000-01-01T04:32:15.000Z</time>
      </trkpt>
      <trkpt lat="45.10241" lon="2.69281">
        <ele>1661.6</ele>
        <time>2000-01-01T04:32:25.000Z</time>
      </trkpt>
      <trkpt lat="45.10241" lon="2.69286">
        <ele>1668</ele>
        <time>2000-01-01T04:32:35.000Z</time>
      </trkpt>
      <trkpt lat="45.10241" lon="2.69293">
        <ele>1662.2</ele>
        <time>2000-01-01T04:32:45.000Z</time>
      </trkpt>
      <trkpt lat="45.10241" lon="2.69299">
        <ele>1662.6</ele>
        <time>2000-01-01T04:32:55.000Z</time>
      </trkpt>
      <trkpt lat="45.10241" lon="2.69308">
        <ele>1662.9</ele>
        <time>2000-01-01T04:33:05.000Z</time>
      </trkpt>
      <trkpt lat="45.1024" lon="2.69314">
        <ele>1668</ele>
        <time>2000-01-01T04:33:15.000Z</time>
      </trkpt>
      <trkpt lat="45.10239" lon="2.69325">
        <ele>1663.2</ele>
        <time>2000-01-01T04:33:25.000Z</time>
      </trkpt>
      <trkpt lat="45.10238" lon="2.69335">
        <ele>1663.3</ele>
        <time>2000-01-01T04:33:35.000Z</time>
      </trkpt>
      <trkpt lat="45.10238" lon="2.69345">
        <ele>1668</ele>
        <time>2000-01-01T04:33:45.000Z</time>
      </trkpt>
      <trkpt lat="45.10236" lon="2.69355">
        <ele>1661.7</ele>
        <time>2000-01-01T04:33:55.000Z</time>
      </trkpt>
      <trkpt lat="45.10236" lon="2.69359">
        <ele>1661.2</ele>
        <time>2000-01-01T04:34:05.000Z</time>
      </trkpt>
      <trkpt lat="45.10236" lon="2.69363">
        <ele>1661.4</ele>
        <time>2000-01-01T04:34:15.000Z</time>
      </trkpt>
      <trkpt lat="45.10237" lon="2.69367">
        <ele>1662.2</ele>
        <time>2000-01-01T04:34:25.000Z</time>
      </trkpt>
      <trkpt lat="45.1024" lon="2.69374">
        <ele>1668</ele>
        <time>2000-01-01T04:34:35.000Z</time>
      </trkpt>
      <trkpt lat="45.10243" lon="2.6938">
        <ele>1663.9</ele>
        <time>2000-01-01T04:34:45.000Z</time>
      </trkpt>
      <trkpt lat="45.10244" lon="2.69386">
        <ele>1664.8</ele>
        <time>2000-01-01T04:34:55.000Z</time>
      </trkpt>
      <trkpt lat="45.10246" lon="2.6939">
        <ele>1664.9</ele>
        <time>2000-01-01T04:35:05.000Z</time>
      </trkpt>
      <trkpt lat="45.10248" lon="2.69395">
        <ele>1664.9</ele>
        <time>2000-01-01T04:35:15.000Z</time>
      </trkpt>
      <trkpt lat="45.10249" lon="2.694">
        <ele>1667</ele>
        <time>2000-01-01T04:35:25.000Z</time>
      </trkpt>
      <trkpt lat="45.10251" lon="2.69406">
        <ele>1665.2</ele>
        <time>2000-01-01T04:35:35.000Z</time>
      </trkpt>
      <trkpt lat="45.10252" lon="2.69409">
        <ele>1664.9</ele>
        <time>2000-01-01T04:35:45.000Z</time>
      </trkpt>
      <trkpt lat="45.10255" lon="2.69415">
        <ele>1663.9</ele>
        <time>2000-01-01T04:35:55.000Z</time>
      </trkpt>
      <trkpt lat="45.10257" lon="2.6942">
        <ele>1663</ele>
        <time>2000-01-01T04:36:05.000Z</time>
      </trkpt>
      <trkpt lat="45.10259" lon="2.69424">
        <ele>1665</ele>
        <time>2000-01-01T04:36:15.000Z</time>
      </trkpt>
      <trkpt lat="45.10262" lon="2.69431">
        <ele>1660.7</ele>
        <time>2000-01-01T04:36:25.000Z</time>
      </trkpt>
      <trkpt lat="45.10262" lon="2.69439">
        <ele>1661</ele>
        <time>2000-01-01T04:36:35.000Z</time>
      </trkpt>
      <trkpt lat="45.10262" lon="2.69445">
        <ele>1661.1</ele>
        <time>2000-01-01T04:36:45.000Z</time>
      </trkpt>
      <trkpt lat="45.10265" lon="2.69453">
        <ele>1663</ele>
        <time>2000-01-01T04:36:55.000Z</time>
      </trkpt>
      <trkpt lat="45.1027" lon="2.6946">
        <ele>1656.1</ele>
        <time>2000-01-01T04:37:05.000Z</time>
      </trkpt>
      <trkpt lat="45.10274" lon="2.69463">
        <ele>1655.7</ele>
        <time>2000-01-01T04:37:15.000Z</time>
      </trkpt>
      <trkpt lat="45.10281" lon="2.69472">
        <ele>1660</ele>
        <time>2000-01-01T04:37:25.000Z</time>
      </trkpt>
      <trkpt lat="45.10286" lon="2.69478">
        <ele>1651.5</ele>
        <time>2000-01-01T04:37:35.000Z</time>
      </trkpt>
      <trkpt lat="45.10292" lon="2.69486">
        <ele>1648.4</ele>
        <time>2000-01-01T04:37:45.000Z</time>
      </trkpt>
      <trkpt lat="45.10296" lon="2.6949">
        <ele>1654</ele>
        <time>2000-01-01T04:37:55.000Z</time>
      </trkpt>
      <trkpt lat="45.103" lon="2.69495">
        <ele>1646.4</ele>
        <time>2000-01-01T04:38:05.000Z</time>
      </trkpt>
      <trkpt lat="45.10303" lon="2.695">
        <ele>1646.1</ele>
        <time>2000-01-01T04:38:15.000Z</time>
      </trkpt>
      <trkpt lat="45.10305" lon="2.69503">
        <ele>1645.2</ele>
        <time>2000-01-01T04:38:25.000Z</time>
      </trkpt>
      <trkpt lat="45.1031" lon="2.69506">
        <ele>1642.5</ele>
        <time>2000-01-01T04:38:35.000Z</time>
      </trkpt>
      <trkpt lat="45.10314" lon="2.6951">
        <ele>1650</ele>
        <time>2000-01-01T04:38:45.000Z</time>
      </trkpt>
      <trkpt lat="45.10317" lon="2.69513">
        <ele>1638.5</ele>
        <time>2000-01-01T04:38:55.000Z</time>
      </trkpt>
      <trkpt lat="45.10321" lon="2.69517">
        <ele>1636.7</ele>
        <time>2000-01-01T04:39:05.000Z</time>
      </trkpt>
      <trkpt lat="45.10324" lon="2.69522">
        <ele>1635.4</ele>
        <time>2000-01-01T04:39:15.000Z</time>
      </trkpt>
      <trkpt lat="45.10328" lon="2.69526">
        <ele>1634.2</ele>
        <time>2000-01-01T04:39:25.000Z</time>
      </trkpt>
      <trkpt lat="45.10333" lon="2.69529">
        <ele>1641</ele>
        <time>2000-01-01T04:39:35.000Z</time>
      </trkpt>
      <trkpt lat="45.10336" lon="2.69532">
        <ele>1631.9</ele>
        <time>2000-01-01T04:39:45.000Z</time>
      </trkpt>
      <trkpt lat="45.10333" lon="2.69536">
        <ele>1632.4</ele>
        <time>2000-01-01T04:39:55.000Z</time>
      </trkpt>
      <trkpt lat="45.10333" lon="2.69536">
        <ele>1632.4</ele>
        <time>2000-01-01T04:40:05.000Z</time>
      </trkpt>
      <trkpt lat="45.10336" lon="2.69532">
        <ele>1631.9</ele>
        <time>2000-01-01T04:40:15.000Z</time>
      </trkpt>
      <trkpt lat="45.10337" lon="2.69534">
        <ele>1631.6</ele>
        <time>2000-01-01T04:40:25.000Z</time>
      </trkpt>
      <trkpt lat="45.10341" lon="2.69547">
        <ele>1633</ele>
        <time>2000-01-01T04:40:35.000Z</time>
      </trkpt>
      <trkpt lat="45.10342" lon="2.6955">
        <ele>1630.3</ele>
        <time>2000-01-01T04:40:45.000Z</time>
      </trkpt>
      <trkpt lat="45.10342" lon="2.69553">
        <ele>1630.4</ele>
        <time>2000-01-01T04:40:55.000Z</time>
      </trkpt>
      <trkpt lat="45.10343" lon="2.69557">
        <ele>1630.4</ele>
        <time>2000-01-01T04:41:05.000Z</time>
      </trkpt>
      <trkpt lat="45.10343" lon="2.69565">
        <ele>1631.2</ele>
        <time>2000-01-01T04:41:15.000Z</time>
      </trkpt>
      <trkpt lat="45.10343" lon="2.69572">
        <ele>1631.9</ele>
        <time>2000-01-01T04:41:25.000Z</time>
      </trkpt>
      <trkpt lat="45.10345" lon="2.69588">
        <ele>1634</ele>
        <time>2000-01-01T04:41:35.000Z</time>
      </trkpt>
      <trkpt lat="45.10346" lon="2.69601">
        <ele>1633.9</ele>
        <time>2000-01-01T04:41:45.000Z</time>
      </trkpt>
      <trkpt lat="45.10348" lon="2.69611">
        <ele>1634.5</ele>
        <time>2000-01-01T04:41:55.000Z</time>
      </trkpt>
      <trkpt lat="45.1035" lon="2.69626">
        <ele>1635</ele>
        <time>2000-01-01T04:42:05.000Z</time>
      </trkpt>
      <trkpt lat="45.10354" lon="2.6964">
        <ele>1636.7</ele>
        <time>2000-01-01T04:42:15.000Z</time>
      </trkpt>
      <trkpt lat="45.10356" lon="2.6965">
        <ele>1638</ele>
        <time>2000-01-01T04:42:25.000Z</time>
      </trkpt>
      <trkpt lat="45.10361" lon="2.69664">
        <ele>1638</ele>
        <time>2000-01-01T04:42:35.000Z</time>
      </trkpt>
      <trkpt lat="45.10363" lon="2.6967">
        <ele>1640.9</ele>
        <time>2000-01-01T04:42:45.000Z</time>
      </trkpt>
      <trkpt lat="45.10367" lon="2.69683">
        <ele>1638.5</ele>
        <time>2000-01-01T04:42:55.000Z</time>
      </trkpt>
      <trkpt lat="45.1037" lon="2.69695">
        <ele>1642</ele>
        <time>2000-01-01T04:43:05.000Z</time>
      </trkpt>
      <trkpt lat="45.10374" lon="2.69706">
        <ele>1635.7</ele>
        <time>2000-01-01T04:43:15.000Z</time>
      </trkpt>
      <trkpt lat="45.10376" lon="2.69719">
        <ele>1634.6</ele>
        <time>2000-01-01T04:43:25.000Z</time>
      </trkpt>
      <trkpt lat="45.10377" lon="2.69725">
        <ele>1642</ele>
        <time>2000-01-01T04:43:35.000Z</time>
      </trkpt>
      <trkpt lat="45.10379" lon="2.69735">
        <ele>1634.2</ele>
        <time>2000-01-01T04:43:45.000Z</time>
      </trkpt>
      <trkpt lat="45.10383" lon="2.6975">
        <ele>1634.7</ele>
        <time>2000-01-01T04:43:55.000Z</time>
      </trkpt>
      <trkpt lat="45.10385" lon="2.69758">
        <ele>1642</ele>
        <time>2000-01-01T04:44:05.000Z</time>
      </trkpt>
      <trkpt lat="45.10388" lon="2.69771">
        <ele>1637.4</ele>
        <time>2000-01-01T04:44:15.000Z</time>
      </trkpt>
      <trkpt lat="45.10393" lon="2.69788">
        <ele>1640</ele>
        <time>2000-01-01T04:44:25.000Z</time>
      </trkpt>
      <trkpt lat="45.10396" lon="2.698">
        <ele>1638.4</ele>
        <time>2000-01-01T04:44:35.000Z</time>
      </trkpt>
      <trkpt lat="45.104" lon="2.69813">
        <ele>1638.3</ele>
        <time>2000-01-01T04:44:45.000Z</time>
      </trkpt>
      <trkpt lat="45.10402" lon="2.69822">
        <ele>1640</ele>
        <time>2000-01-01T04:44:55.000Z</time>
      </trkpt>
      <trkpt lat="45.10407" lon="2.69834">
        <ele>1639</ele>
        <time>2000-01-01T04:45:05.000Z</time>
      </trkpt>
      <trkpt lat="45.10412" lon="2.69848">
        <ele>1640</ele>
        <time>2000-01-01T04:45:15.000Z</time>
      </trkpt>
      <trkpt lat="45.10414" lon="2.69854">
        <ele>1642.2</ele>
        <time>2000-01-01T04:45:25.000Z</time>
      </trkpt>
      <trkpt lat="45.10415" lon="2.69858">
        <ele>1643</ele>
        <time>2000-01-01T04:45:35.000Z</time>
      </trkpt>
      <trkpt lat="45.10416" lon="2.69862">
        <ele>1643.9</ele>
        <time>2000-01-01T04:45:45.000Z</time>
      </trkpt>
      <trkpt lat="45.10419" lon="2.69875">
        <ele>1642</ele>
        <time>2000-01-01T04:45:55.000Z</time>
      </trkpt>
      <trkpt lat="45.1042" lon="2.69881">
        <ele>1645.2</ele>
        <time>2000-01-01T04:46:05.000Z</time>
      </trkpt>
      <trkpt lat="45.10422" lon="2.69886">
        <ele>1645.3</ele>
        <time>2000-01-01T04:46:15.000Z</time>
      </trkpt>
      <trkpt lat="45.10425" lon="2.69896">
        <ele>1645.8</ele>
        <time>2000-01-01T04:46:25.000Z</time>
      </trkpt>
      <trkpt lat="45.10426" lon="2.69901">
        <ele>1645</ele>
        <time>2000-01-01T04:46:35.000Z</time>
      </trkpt>
      <trkpt lat="45.10428" lon="2.69904">
        <ele>1646.3</ele>
        <time>2000-01-01T04:46:45.000Z</time>
      </trkpt>
      <trkpt lat="45.10431" lon="2.69908">
        <ele>1646.5</ele>
        <time>2000-01-01T04:46:55.000Z</time>
      </trkpt>
      <trkpt lat="45.10435" lon="2.69914">
        <ele>1647.2</ele>
        <time>2000-01-01T04:47:05.000Z</time>
      </trkpt>
      <trkpt lat="45.10437" lon="2.69918">
        <ele>1647.5</ele>
        <time>2000-01-01T04:47:15.000Z</time>
      </trkpt>
      <trkpt lat="45.10439" lon="2.69921">
        <ele>1647.3</ele>
        <time>2000-01-01T04:47:25.000Z</time>
      </trkpt>
      <trkpt lat="45.10444" lon="2.69924">
        <ele>1646</ele>
        <time>2000-01-01T04:47:35.000Z</time>
      </trkpt>
      <trkpt lat="45.10447" lon="2.69926">
        <ele>1646.8</ele>
        <time>2000-01-01T04:47:45.000Z</time>
      </trkpt>
      <trkpt lat="45.10451" lon="2.69929">
        <ele>1646.2</ele>
        <time>2000-01-01T04:47:55.000Z</time>
      </trkpt>
      <trkpt lat="45.10455" lon="2.69932">
        <ele>1645.7</ele>
        <time>2000-01-01T04:48:05.000Z</time>
      </trkpt>
      <trkpt lat="45.1046" lon="2.69938">
        <ele>1647</ele>
        <time>2000-01-01T04:48:15.000Z</time>
      </trkpt>
      <trkpt lat="45.10465" lon="2.69945">
        <ele>1645.7</ele>
        <time>2000-01-01T04:48:25.000Z</time>
      </trkpt>
      <trkpt lat="45.10471" lon="2.69953">
        <ele>1644.4</ele>
        <time>2000-01-01T04:48:35.000Z</time>
      </trkpt>
      <trkpt lat="45.10477" lon="2.69963">
        <ele>1646</ele>
        <time>2000-01-01T04:48:45.000Z</time>
      </trkpt>
      <trkpt lat="45.10483" lon="2.69968">
        <ele>1641.2</ele>
        <time>2000-01-01T04:48:55.000Z</time>
      </trkpt>
      <trkpt lat="45.10488" lon="2.69974">
        <ele>1640.3</ele>
        <time>2000-01-01T04:49:05.000Z</time>
      </trkpt>
      <trkpt lat="45.10496" lon="2.69982">
        <ele>1645</ele>
        <time>2000-01-01T04:49:15.000Z</time>
      </trkpt>
      <trkpt lat="45.10502" lon="2.69989">
        <ele>1637.3</ele>
        <time>2000-01-01T04:49:25.000Z</time>
      </trkpt>
      <trkpt lat="45.1051" lon="2.69998">
        <ele>1635.9</ele>
        <time>2000-01-01T04:49:35.000Z</time>
      </trkpt>
      <trkpt lat="45.10517" lon="2.70007">
        <ele>1642</ele>
        <time>2000-01-01T04:49:45.000Z</time>
      </trkpt>
      <trkpt lat="45.1052" lon="2.70013">
        <ele>1633.9</ele>
        <time>2000-01-01T04:49:55.000Z</time>
      </trkpt>
      <trkpt lat="45.10526" lon="2.70023">
        <ele>1635.1</ele>
        <time>2000-01-01T04:50:05.000Z</time>
      </trkpt>
      <trkpt lat="45.10531" lon="2.70031">
        <ele>1637</ele>
        <time>2000-01-01T04:50:15.000Z</time>
      </trkpt>
      <trkpt lat="45.10533" lon="2.70036">
        <ele>1633.1</ele>
        <time>2000-01-01T04:50:25.000Z</time>
      </trkpt>
      <trkpt lat="45.10535" lon="2.70039">
        <ele>1632.5</ele>
        <time>2000-01-01T04:50:35.000Z</time>
      </trkpt>
      <trkpt lat="45.10537" lon="2.70044">
        <ele>1631.8</ele>
        <time>2000-01-01T04:50:45.000Z</time>
      </trkpt>
      <trkpt lat="45.10537" lon="2.70046">
        <ele>1631.6</ele>
        <time>2000-01-01T04:50:55.000Z</time>
      </trkpt>
      <trkpt lat="45.10536" lon="2.70048">
        <ele>1631.3</ele>
        <time>2000-01-01T04:51:05.000Z</time>
      </trkpt>
      <trkpt lat="45.10536" lon="2.7005">
        <ele>1631.1</ele>
        <time>2000-01-01T04:51:15.000Z</time>
      </trkpt>
      <trkpt lat="45.10537" lon="2.70054">
        <ele>1630.8</ele>
        <time>2000-01-01T04:51:25.000Z</time>
      </trkpt>
      <trkpt lat="45.10539" lon="2.70059">
        <ele>1636</ele>
        <time>2000-01-01T04:51:35.000Z</time>
      </trkpt>
      <trkpt lat="45.10541" lon="2.70067">
        <ele>1630</ele>
        <time>2000-01-01T04:51:45.000Z</time>
      </trkpt>
      <trkpt lat="45.10542" lon="2.70076">
        <ele>1629.4</ele>
        <time>2000-01-01T04:51:55.000Z</time>
      </trkpt>
      <trkpt lat="45.10543" lon="2.70078">
        <ele>1629.7</ele>
        <time>2000-01-01T04:52:05.000Z</time>
      </trkpt>
      <trkpt lat="45.10545" lon="2.70083">
        <ele>1630.3</ele>
        <time>2000-01-01T04:52:15.000Z</time>
      </trkpt>
      <trkpt lat="45.10546" lon="2.70088">
        <ele>1633</ele>
        <time>2000-01-01T04:52:25.000Z</time>
      </trkpt>
      <trkpt lat="45.10546" lon="2.70096">
        <ele>1628.1</ele>
        <time>2000-01-01T04:52:35.000Z</time>
      </trkpt>
      <trkpt lat="45.10548" lon="2.70107">
        <ele>1627</ele>
        <time>2000-01-01T04:52:45.000Z</time>
      </trkpt>
      <trkpt lat="45.1055" lon="2.70112">
        <ele>1627.3</ele>
        <time>2000-01-01T04:52:55.000Z</time>
      </trkpt>
      <trkpt lat="45.10552" lon="2.70118">
        <ele>1629</ele>
        <time>2000-01-01T04:53:05.000Z</time>
      </trkpt>
      <trkpt lat="45.10553" lon="2.70123">
        <ele>1627.6</ele>
        <time>2000-01-01T04:53:15.000Z</time>
      </trkpt>
      <trkpt lat="45.10553" lon="2.70127">
        <ele>1627.1</ele>
        <time>2000-01-01T04:53:25.000Z</time>
      </trkpt>
      <trkpt lat="45.10553" lon="2.70134">
        <ele>1626</ele>
        <time>2000-01-01T04:53:35.000Z</time>
      </trkpt>
      <trkpt lat="45.10553" lon="2.70139">
        <ele>1625.3</ele>
        <time>2000-01-01T04:53:45.000Z</time>
      </trkpt>
      <trkpt lat="45.10553" lon="2.70144">
        <ele>1626</ele>
        <time>2000-01-01T04:53:55.000Z</time>
      </trkpt>
      <trkpt lat="45.10552" lon="2.70151">
        <ele>1623.9</ele>
        <time>2000-01-01T04:54:05.000Z</time>
      </trkpt>
      <trkpt lat="45.10552" lon="2.70157">
        <ele>1623.5</ele>
        <time>2000-01-01T04:54:15.000Z</time>
      </trkpt>
      <trkpt lat="45.10553" lon="2.70165">
        <ele>1623.6</ele>
        <time>2000-01-01T04:54:25.000Z</time>
      </trkpt>
      <trkpt lat="45.10554" lon="2.70173">
        <ele>1625</ele>
        <time>2000-01-01T04:54:35.000Z</time>
      </trkpt>
      <trkpt lat="45.10555" lon="2.70181">
        <ele>1623.6</ele>
        <time>2000-01-01T04:54:45.000Z</time>
      </trkpt>
      <trkpt lat="45.10555" lon="2.70196">
        <ele>1622.9</ele>
        <time>2000-01-01T04:54:55.000Z</time>
      </trkpt>
      <trkpt lat="45.10554" lon="2.702">
        <ele>1624</ele>
        <time>2000-01-01T04:55:05.000Z</time>
      </trkpt>
      <trkpt lat="45.10554" lon="2.70204">
        <ele>1623.3</ele>
        <time>2000-01-01T04:55:15.000Z</time>
      </trkpt>
      <trkpt lat="45.10552" lon="2.70209">
        <ele>1622.7</ele>
        <time>2000-01-01T04:55:25.000Z</time>
      </trkpt>
      <trkpt lat="45.1055" lon="2.70212">
        <ele>1621.7</ele>
        <time>2000-01-01T04:55:35.000Z</time>
      </trkpt>
      <trkpt lat="45.10549" lon="2.70217">
        <ele>1621.6</ele>
        <time>2000-01-01T04:55:45.000Z</time>
      </trkpt>
      <trkpt lat="45.10548" lon="2.70224">
        <ele>1621.7</ele>
        <time>2000-01-01T04:55:55.000Z</time>
      </trkpt>
      <trkpt lat="45.10547" lon="2.70237">
        <ele>1622</ele>
        <time>2000-01-01T04:56:05.000Z</time>
      </trkpt>
      <trkpt lat="45.10548" lon="2.70241">
        <ele>1623.3</ele>
        <time>2000-01-01T04:56:15.000Z</time>
      </trkpt>
      <trkpt lat="45.10547" lon="2.70248">
        <ele>1623.1</ele>
        <time>2000-01-01T04:56:25.000Z</time>
      </trkpt>
      <trkpt lat="45.10548" lon="2.70252">
        <ele>1624.4</ele>
        <time>2000-01-01T04:56:35.000Z</time>
      </trkpt>
      <trkpt lat="45.10548" lon="2.70257">
        <ele>1625</ele>
        <time>2000-01-01T04:56:45.000Z</time>
      </trkpt>
      <trkpt lat="45.10548" lon="2.70264">
        <ele>1622</ele>
        <time>2000-01-01T04:56:55.000Z</time>
      </trkpt>
      <trkpt lat="45.10545" lon="2.70272">
        <ele>1624.6</ele>
        <time>2000-01-01T04:57:05.000Z</time>
      </trkpt>
      <trkpt lat="45.10543" lon="2.70278">
        <ele>1624</ele>
        <time>2000-01-01T04:57:15.000Z</time>
      </trkpt>
      <trkpt lat="45.10541" lon="2.70283">
        <ele>1623.1</ele>
        <time>2000-01-01T04:57:25.000Z</time>
      </trkpt>
      <trkpt lat="45.10541" lon="2.70287">
        <ele>1623.5</ele>
        <time>2000-01-01T04:57:35.000Z</time>
      </trkpt>
      <trkpt lat="45.10541" lon="2.70294">
        <ele>1622</ele>
        <time>2000-01-01T04:57:45.000Z</time>
      </trkpt>
      <trkpt lat="45.1054" lon="2.70299">
        <ele>1624.2</ele>
        <time>2000-01-01T04:57:55.000Z</time>
      </trkpt>
      <trkpt lat="45.1054" lon="2.70305">
        <ele>1624.9</ele>
        <time>2000-01-01T04:58:05.000Z</time>
      </trkpt>
      <trkpt lat="45.10539" lon="2.70312">
        <ele>1624</ele>
        <time>2000-01-01T04:58:15.000Z</time>
      </trkpt>
      <trkpt lat="45.10539" lon="2.7032">
        <ele>1623.7</ele>
        <time>2000-01-01T04:58:25.000Z</time>
      </trkpt>
      <trkpt lat="45.10539" lon="2.70326">
        <ele>1622.5</ele>
        <time>2000-01-01T04:58:35.000Z</time>
      </trkpt>
      <trkpt lat="45.10539" lon="2.70331">
        <ele>1623.3</ele>
        <time>2000-01-01T04:58:45.000Z</time>
      </trkpt>
      <trkpt lat="45.10541" lon="2.70337">
        <ele>1623.2</ele>
        <time>2000-01-01T04:58:55.000Z</time>
      </trkpt>
      <trkpt lat="45.10543" lon="2.70343">
        <ele>1622.4</ele>
        <time>2000-01-01T04:59:05.000Z</time>
      </trkpt>
      <trkpt lat="45.10544" lon="2.70348">
        <ele>1621.4</ele>
        <time>2000-01-01T04:59:15.000Z</time>
      </trkpt>
      <trkpt lat="45.10548" lon="2.70352">
        <ele>1621.7</ele>
        <time>2000-01-01T04:59:25.000Z</time>
      </trkpt>
      <trkpt lat="45.1055" lon="2.70356">
        <ele>1621.1</ele>
        <time>2000-01-01T04:59:35.000Z</time>
      </trkpt>
      <trkpt lat="45.10553" lon="2.7036">
        <ele>1620.6</ele>
        <time>2000-01-01T04:59:45.000Z</time>
      </trkpt>
      <trkpt lat="45.10556" lon="2.70364">
        <ele>1619.9</ele>
        <time>2000-01-01T04:59:55.000Z</time>
      </trkpt>
      <trkpt lat="45.10564" lon="2.70375">
        <ele>1621</ele>
        <time>2000-01-01T05:00:05.000Z</time>
      </trkpt>
      <trkpt lat="45.10565" lon="2.70378">
        <ele>1618.3</ele>
        <time>2000-01-01T05:00:15.000Z</time>
      </trkpt>
      <trkpt lat="45.10567" lon="2.70384">
        <ele>1617.3</ele>
        <time>2000-01-01T05:00:25.000Z</time>
      </trkpt>
      <trkpt lat="45.1057" lon="2.70389">
        <ele>1617.3</ele>
        <time>2000-01-01T05:00:35.000Z</time>
      </trkpt>
      <trkpt lat="45.10571" lon="2.70393">
        <ele>1616.9</ele>
        <time>2000-01-01T05:00:45.000Z</time>
      </trkpt>
      <trkpt lat="45.10575" lon="2.704">
        <ele>1619.5</ele>
        <time>2000-01-01T05:00:55.000Z</time>
      </trkpt>
      <trkpt lat="45.10577" lon="2.70408">
        <ele>1616.5</ele>
        <time>2000-01-01T05:01:05.000Z</time>
      </trkpt>
      <trkpt lat="45.1058" lon="2.70416">
        <ele>1616.2</ele>
        <time>2000-01-01T05:01:15.000Z</time>
      </trkpt>
      <trkpt lat="45.10583" lon="2.70425">
        <ele>1618</ele>
        <time>2000-01-01T05:01:25.000Z</time>
      </trkpt>
      <trkpt lat="45.10584" lon="2.70431">
        <ele>1615.8</ele>
        <time>2000-01-01T05:01:35.000Z</time>
      </trkpt>
      <trkpt lat="45.10585" lon="2.70437">
        <ele>1615.4</ele>
        <time>2000-01-01T05:01:45.000Z</time>
      </trkpt>
      <trkpt lat="45.10587" lon="2.70443">
        <ele>1615.6</ele>
        <time>2000-01-01T05:01:55.000Z</time>
      </trkpt>
      <trkpt lat="45.10587" lon="2.70447">
        <ele>1615.3</ele>
        <time>2000-01-01T05:02:05.000Z</time>
      </trkpt>
      <trkpt lat="45.10587" lon="2.70453">
        <ele>1617</ele>
        <time>2000-01-01T05:02:15.000Z</time>
      </trkpt>
      <trkpt lat="45.10586" lon="2.70458">
        <ele>1614.1</ele>
        <time>2000-01-01T05:02:25.000Z</time>
      </trkpt>
      <trkpt lat="45.10585" lon="2.70468">
        <ele>1613.1</ele>
        <time>2000-01-01T05:02:35.000Z</time>
      </trkpt>
      <trkpt lat="45.10586" lon="2.7047">
        <ele>1613.6</ele>
        <time>2000-01-01T05:02:45.000Z</time>
      </trkpt>
      <trkpt lat="45.10586" lon="2.70478">
        <ele>1612.7</ele>
        <time>2000-01-01T05:02:55.000Z</time>
      </trkpt>
      <trkpt lat="45.10587" lon="2.70483">
        <ele>1613</ele>
        <time>2000-01-01T05:03:05.000Z</time>
      </trkpt>
      <trkpt lat="45.10588" lon="2.7049">
        <ele>1612.1</ele>
        <time>2000-01-01T05:03:15.000Z</time>
      </trkpt>
      <trkpt lat="45.10589" lon="2.70498">
        <ele>1611.6</ele>
        <time>2000-01-01T05:03:25.000Z</time>
      </trkpt>
      <trkpt lat="45.10589" lon="2.70507">
        <ele>1610.4</ele>
        <time>2000-01-01T05:03:35.000Z</time>
      </trkpt>
      <trkpt lat="45.10588" lon="2.70509">
        <ele>1609.5</ele>
        <time>2000-01-01T05:03:45.000Z</time>
      </trkpt>
      <trkpt lat="45.10588" lon="2.70513">
        <ele>1611</ele>
        <time>2000-01-01T05:03:55.000Z</time>
      </trkpt>
      <trkpt lat="45.10587" lon="2.70517">
        <ele>1607.8</ele>
        <time>2000-01-01T05:04:05.000Z</time>
      </trkpt>
      <trkpt lat="45.10587" lon="2.70521">
        <ele>1607.3</ele>
        <time>2000-01-01T05:04:15.000Z</time>
      </trkpt>
      <trkpt lat="45.10587" lon="2.70527">
        <ele>1606.5</ele>
        <time>2000-01-01T05:04:25.000Z</time>
      </trkpt>
      <trkpt lat="45.10587" lon="2.7053">
        <ele>1606.2</ele>
        <time>2000-01-01T05:04:35.000Z</time>
      </trkpt>
      <trkpt lat="45.10585" lon="2.70537">
        <ele>1604.5</ele>
        <time>2000-01-01T05:04:45.000Z</time>
      </trkpt>
      <trkpt lat="45.10585" lon="2.70541">
        <ele>1609</ele>
        <time>2000-01-01T05:04:55.000Z</time>
      </trkpt>
      <trkpt lat="45.10585" lon="2.70549">
        <ele>1603.7</ele>
        <time>2000-01-01T05:05:05.000Z</time>
      </trkpt>
      <trkpt lat="45.10585" lon="2.70557">
        <ele>1603.2</ele>
        <time>2000-01-01T05:05:15.000Z</time>
      </trkpt>
      <trkpt lat="45.10586" lon="2.70569">
        <ele>1604</ele>
        <time>2000-01-01T05:05:25.000Z</time>
      </trkpt>
      <trkpt lat="45.10587" lon="2.70576">
        <ele>1603</ele>
        <time>2000-01-01T05:05:35.000Z</time>
      </trkpt>
      <trkpt lat="45.10588" lon="2.70579">
        <ele>1603.1</ele>
        <time>2000-01-01T05:05:45.000Z</time>
      </trkpt>
      <trkpt lat="45.10589" lon="2.70584">
        <ele>1602.7</ele>
        <time>2000-01-01T05:05:55.000Z</time>
      </trkpt>
      <trkpt lat="45.10595" lon="2.70594">
        <ele>1603</ele>
        <time>2000-01-01T05:06:05.000Z</time>
      </trkpt>
      <trkpt lat="45.10597" lon="2.70597">
        <ele>1600.5</ele>
        <time>2000-01-01T05:06:15.000Z</time>
      </trkpt>
      <trkpt lat="45.106" lon="2.706">
        <ele>1600.6</ele>
        <time>2000-01-01T05:06:25.000Z</time>
      </trkpt>
      <trkpt lat="45.10602" lon="2.70602">
        <ele>1600.8</ele>
        <time>2000-01-01T05:06:35.000Z</time>
      </trkpt>
      <trkpt lat="45.10605" lon="2.70606">
        <ele>1600.7</ele>
        <time>2000-01-01T05:06:45.000Z</time>
      </trkpt>
      <trkpt lat="45.10606" lon="2.7061">
        <ele>1599.8</ele>
        <time>2000-01-01T05:06:55.000Z</time>
      </trkpt>
      <trkpt lat="45.10608" lon="2.70621">
        <ele>1600</ele>
        <time>2000-01-01T05:07:05.000Z</time>
      </trkpt>
      <trkpt lat="45.10609" lon="2.70624">
        <ele>1596.7</ele>
        <time>2000-01-01T05:07:15.000Z</time>
      </trkpt>
      <trkpt lat="45.10611" lon="2.70627">
        <ele>1596.8</ele>
        <time>2000-01-01T05:07:25.000Z</time>
      </trkpt>
      <trkpt lat="45.10617" lon="2.70637">
        <ele>1595.4</ele>
        <time>2000-01-01T05:07:35.000Z</time>
      </trkpt>
      <trkpt lat="45.10621" lon="2.70639">
        <ele>1595.8</ele>
        <time>2000-01-01T05:07:45.000Z</time>
      </trkpt>
      <trkpt lat="45.10623" lon="2.70642">
        <ele>1598</ele>
        <time>2000-01-01T05:07:55.000Z</time>
      </trkpt>
      <trkpt lat="45.10626" lon="2.70643">
        <ele>1595.6</ele>
        <time>2000-01-01T05:08:05.000Z</time>
      </trkpt>
      <trkpt lat="45.10631" lon="2.70646">
        <ele>1595.8</ele>
        <time>2000-01-01T05:08:15.000Z</time>
      </trkpt>
      <trkpt lat="45.10639" lon="2.70652">
        <ele>1595.8</ele>
        <time>2000-01-01T05:08:25.000Z</time>
      </trkpt>
      <trkpt lat="45.10641" lon="2.70655">
        <ele>1596</ele>
        <time>2000-01-01T05:08:35.000Z</time>
      </trkpt>
      <trkpt lat="45.10644" lon="2.70659">
        <ele>1594.8</ele>
        <time>2000-01-01T05:08:45.000Z</time>
      </trkpt>
      <trkpt lat="45.10647" lon="2.70662">
        <ele>1594.6</ele>
        <time>2000-01-01T05:08:55.000Z</time>
      </trkpt>
      <trkpt lat="45.10651" lon="2.70664">
        <ele>1595.1</ele>
        <time>2000-01-01T05:09:05.000Z</time>
      </trkpt>
      <trkpt lat="45.10653" lon="2.70666">
        <ele>1594.9</ele>
        <time>2000-01-01T05:09:15.000Z</time>
      </trkpt>
      <trkpt lat="45.10654" lon="2.70669">
        <ele>1594.1</ele>
        <time>2000-01-01T05:09:25.000Z</time>
      </trkpt>
      <trkpt lat="45.10656" lon="2.70673">
        <ele>1594</ele>
        <time>2000-01-01T05:09:35.000Z</time>
      </trkpt>
      <trkpt lat="45.10658" lon="2.70676">
        <ele>1593</ele>
        <time>2000-01-01T05:09:45.000Z</time>
      </trkpt>
      <trkpt lat="45.10661" lon="2.70678">
        <ele>1593.3</ele>
        <time>2000-01-01T05:09:55.000Z</time>
      </trkpt>
      <trkpt lat="45.10665" lon="2.70679">
        <ele>1594.4</ele>
        <time>2000-01-01T05:10:05.000Z</time>
      </trkpt>
      <trkpt lat="45.10667" lon="2.70682">
        <ele>1594.2</ele>
        <time>2000-01-01T05:10:15.000Z</time>
      </trkpt>
      <trkpt lat="45.10668" lon="2.70686">
        <ele>1593.4</ele>
        <time>2000-01-01T05:10:25.000Z</time>
      </trkpt>
      <trkpt lat="45.1067" lon="2.70688">
        <ele>1593.7</ele>
        <time>2000-01-01T05:10:35.000Z</time>
      </trkpt>
      <trkpt lat="45.10674" lon="2.70696">
        <ele>1594</ele>
        <time>2000-01-01T05:10:45.000Z</time>
      </trkpt>
      <trkpt lat="45.10676" lon="2.70699">
        <ele>1593.8</ele>
        <time>2000-01-01T05:10:55.000Z</time>
      </trkpt>
      <trkpt lat="45.10676" lon="2.70702">
        <ele>1593.2</ele>
        <time>2000-01-01T05:11:05.000Z</time>
      </trkpt>
      <trkpt lat="45.10677" lon="2.70705">
        <ele>1593.1</ele>
        <time>2000-01-01T05:11:15.000Z</time>
      </trkpt>
      <trkpt lat="45.10678" lon="2.70708">
        <ele>1593</ele>
        <time>2000-01-01T05:11:25.000Z</time>
      </trkpt>
      <trkpt lat="45.10679" lon="2.70713">
        <ele>1592.5</ele>
        <time>2000-01-01T05:11:35.000Z</time>
      </trkpt>
      <trkpt lat="45.1068" lon="2.70716">
        <ele>1592.4</ele>
        <time>2000-01-01T05:11:45.000Z</time>
      </trkpt>
      <trkpt lat="45.10681" lon="2.70719">
        <ele>1592.4</ele>
        <time>2000-01-01T05:11:55.000Z</time>
      </trkpt>
      <trkpt lat="45.10683" lon="2.70722">
        <ele>1593</ele>
        <time>2000-01-01T05:12:05.000Z</time>
      </trkpt>
      <trkpt lat="45.10684" lon="2.70725">
        <ele>1593</ele>
        <time>2000-01-01T05:12:15.000Z</time>
      </trkpt>
      <trkpt lat="45.10685" lon="2.7073">
        <ele>1592.8</ele>
        <time>2000-01-01T05:12:25.000Z</time>
      </trkpt>
      <trkpt lat="45.10686" lon="2.70736">
        <ele>1592.5</ele>
        <time>2000-01-01T05:12:35.000Z</time>
      </trkpt>
      <trkpt lat="45.10687" lon="2.70742">
        <ele>1592.1</ele>
        <time>2000-01-01T05:12:45.000Z</time>
      </trkpt>
      <trkpt lat="45.10687" lon="2.70747">
        <ele>1591.4</ele>
        <time>2000-01-01T05:12:55.000Z</time>
      </trkpt>
      <trkpt lat="45.10687" lon="2.7075">
        <ele>1592</ele>
        <time>2000-01-01T05:13:05.000Z</time>
      </trkpt>
      <trkpt lat="45.10689" lon="2.70756">
        <ele>1591.8</ele>
        <time>2000-01-01T05:13:15.000Z</time>
      </trkpt>
      <trkpt lat="45.10689" lon="2.70763">
        <ele>1591.4</ele>
        <time>2000-01-01T05:13:25.000Z</time>
      </trkpt>
      <trkpt lat="45.1069" lon="2.70768">
        <ele>1591.7</ele>
        <time>2000-01-01T05:13:35.000Z</time>
      </trkpt>
      <trkpt lat="45.10692" lon="2.70774">
        <ele>1592.7</ele>
        <time>2000-01-01T05:13:45.000Z</time>
      </trkpt>
      <trkpt lat="45.10693" lon="2.7078">
        <ele>1592</ele>
        <time>2000-01-01T05:13:55.000Z</time>
      </trkpt>
      <trkpt lat="45.10693" lon="2.70785">
        <ele>1593.1</ele>
        <time>2000-01-01T05:14:05.000Z</time>
      </trkpt>
      <trkpt lat="45.10695" lon="2.70794">
        <ele>1594.3</ele>
        <time>2000-01-01T05:14:15.000Z</time>
      </trkpt>
      <trkpt lat="45.10695" lon="2.70797">
        <ele>1594.3</ele>
        <time>2000-01-01T05:14:25.000Z</time>
      </trkpt>
      <trkpt lat="45.10694" lon="2.70801">
        <ele>1593.7</ele>
        <time>2000-01-01T05:14:35.000Z</time>
      </trkpt>
      <trkpt lat="45.10689" lon="2.70813">
        <ele>1592</ele>
        <time>2000-01-01T05:14:45.000Z</time>
      </trkpt>
      <trkpt lat="45.10689" lon="2.70818">
        <ele>1591</ele>
        <time>2000-01-01T05:14:55.000Z</time>
      </trkpt>
      <trkpt lat="45.10689" lon="2.70822">
        <ele>1591.1</ele>
        <time>2000-01-01T05:15:05.000Z</time>
      </trkpt>
      <trkpt lat="45.10689" lon="2.70824">
        <ele>1591.1</ele>
        <time>2000-01-01T05:15:15.000Z</time>
      </trkpt>
      <trkpt lat="45.10693" lon="2.70835">
        <ele>1593.1</ele>
        <time>2000-01-01T05:15:25.000Z</time>
      </trkpt>
      <trkpt lat="45.10696" lon="2.70842">
        <ele>1592</ele>
        <time>2000-01-01T05:15:35.000Z</time>
      </trkpt>
      <trkpt lat="45.10698" lon="2.70846">
        <ele>1594.6</ele>
        <time>2000-01-01T05:15:45.000Z</time>
      </trkpt>
      <trkpt lat="45.10699" lon="2.70849">
        <ele>1594.9</ele>
        <time>2000-01-01T05:15:55.000Z</time>
      </trkpt>
      <trkpt lat="45.10698" lon="2.70855">
        <ele>1593.7</ele>
        <time>2000-01-01T05:16:05.000Z</time>
      </trkpt>
      <trkpt lat="45.10697" lon="2.70861">
        <ele>1592.5</ele>
        <time>2000-01-01T05:16:15.000Z</time>
      </trkpt>
      <trkpt lat="45.10697" lon="2.70864">
        <ele>1592.9</ele>
        <time>2000-01-01T05:16:25.000Z</time>
      </trkpt>
      <trkpt lat="45.10696" lon="2.70869">
        <ele>1592</ele>
        <time>2000-01-01T05:16:35.000Z</time>
      </trkpt>
      <trkpt lat="45.10695" lon="2.70873">
        <ele>1593</ele>
        <time>2000-01-01T05:16:45.000Z</time>
      </trkpt>
      <trkpt lat="45.10694" lon="2.70877">
        <ele>1593</ele>
        <time>2000-01-01T05:16:55.000Z</time>
      </trkpt>
      <trkpt lat="45.10691" lon="2.70881">
        <ele>1591.8</ele>
        <time>2000-01-01T05:17:05.000Z</time>
      </trkpt>
      <trkpt lat="45.10688" lon="2.70885">
        <ele>1590.7</ele>
        <time>2000-01-01T05:17:15.000Z</time>
      </trkpt>
      <trkpt lat="45.10687" lon="2.70889">
        <ele>1590.7</ele>
        <time>2000-01-01T05:17:25.000Z</time>
      </trkpt>
      <trkpt lat="45.10685" lon="2.70897">
        <ele>1592</ele>
        <time>2000-01-01T05:17:35.000Z</time>
      </trkpt>
      <trkpt lat="45.10683" lon="2.70903">
        <ele>1592</ele>
        <time>2000-01-01T05:17:45.000Z</time>
      </trkpt>
      <trkpt lat="45.10677" lon="2.70916">
        <ele>1591.8</ele>
        <time>2000-01-01T05:17:55.000Z</time>
      </trkpt>
      <trkpt lat="45.10672" lon="2.70924">
        <ele>1590</ele>
        <time>2000-01-01T05:18:05.000Z</time>
      </trkpt>
      <trkpt lat="45.10671" lon="2.70927">
        <ele>1587.2</ele>
        <time>2000-01-01T05:18:15.000Z</time>
      </trkpt>
      <trkpt lat="45.10671" lon="2.70931">
        <ele>1586.7</ele>
        <time>2000-01-01T05:18:25.000Z</time>
      </trkpt>
      <trkpt lat="45.10672" lon="2.70937">
        <ele>1586.6</ele>
        <time>2000-01-01T05:18:35.000Z</time>
      </trkpt>
      <trkpt lat="45.10675" lon="2.70947">
        <ele>1587.1</ele>
        <time>2000-01-01T05:18:45.000Z</time>
      </trkpt>
      <trkpt lat="45.1068" lon="2.70952">
        <ele>1589</ele>
        <time>2000-01-01T05:18:55.000Z</time>
      </trkpt>
      <trkpt lat="45.10685" lon="2.70962">
        <ele>1590.7</ele>
        <time>2000-01-01T05:19:05.000Z</time>
      </trkpt>
      <trkpt lat="45.10687" lon="2.70976">
        <ele>1589.3</ele>
        <time>2000-01-01T05:19:15.000Z</time>
      </trkpt>
      <trkpt lat="45.10688" lon="2.70983">
        <ele>1589</ele>
        <time>2000-01-01T05:19:25.000Z</time>
      </trkpt>
      <trkpt lat="45.10691" lon="2.70989">
        <ele>1589.8</ele>
        <time>2000-01-01T05:19:35.000Z</time>
      </trkpt>
      <trkpt lat="45.10692" lon="2.70992">
        <ele>1590</ele>
        <time>2000-01-01T05:19:45.000Z</time>
      </trkpt>
      <trkpt lat="45.10691" lon="2.70996">
        <ele>1588.7</ele>
        <time>2000-01-01T05:19:55.000Z</time>
      </trkpt>
      <trkpt lat="45.10689" lon="2.7101">
        <ele>1589</ele>
        <time>2000-01-01T05:20:05.000Z</time>
      </trkpt>
      <trkpt lat="45.1069" lon="2.71016">
        <ele>1588</ele>
        <time>2000-01-01T05:20:15.000Z</time>
      </trkpt>
      <trkpt lat="45.10689" lon="2.7102">
        <ele>1587.6</ele>
        <time>2000-01-01T05:20:25.000Z</time>
      </trkpt>
      <trkpt lat="45.10687" lon="2.71024">
        <ele>1586.6</ele>
        <time>2000-01-01T05:20:35.000Z</time>
      </trkpt>
      <trkpt lat="45.10684" lon="2.7104">
        <ele>1585</ele>
        <time>2000-01-01T05:20:45.000Z</time>
      </trkpt>
      <trkpt lat="45.10684" lon="2.71045">
        <ele>1587.1</ele>
        <time>2000-01-01T05:20:55.000Z</time>
      </trkpt>
      <trkpt lat="45.10682" lon="2.71048">
        <ele>1586.3</ele>
        <time>2000-01-01T05:21:05.000Z</time>
      </trkpt>
      <trkpt lat="45.10679" lon="2.71052">
        <ele>1585.2</ele>
        <time>2000-01-01T05:21:15.000Z</time>
      </trkpt>
      <trkpt lat="45.10677" lon="2.71058">
        <ele>1585.2</ele>
        <time>2000-01-01T05:21:25.000Z</time>
      </trkpt>
      <trkpt lat="45.10674" lon="2.71063">
        <ele>1585.1</ele>
        <time>2000-01-01T05:21:35.000Z</time>
      </trkpt>
      <trkpt lat="45.10667" lon="2.71069">
        <ele>1585</ele>
        <time>2000-01-01T05:21:45.000Z</time>
      </trkpt>
      <trkpt lat="45.1066" lon="2.71074">
        <ele>1582.1</ele>
        <time>2000-01-01T05:21:55.000Z</time>
      </trkpt>
      <trkpt lat="45.10656" lon="2.71078">
        <ele>1581.5</ele>
        <time>2000-01-01T05:22:05.000Z</time>
      </trkpt>
      <trkpt lat="45.10651" lon="2.71086">
        <ele>1583</ele>
        <time>2000-01-01T05:22:15.000Z</time>
      </trkpt>
      <trkpt lat="45.10646" lon="2.71094">
        <ele>1581.7</ele>
        <time>2000-01-01T05:22:25.000Z</time>
      </trkpt>
      <trkpt lat="45.1064" lon="2.71099">
        <ele>1580.6</ele>
        <time>2000-01-01T05:22:35.000Z</time>
      </trkpt>
      <trkpt lat="45.10636" lon="2.71104">
        <ele>1580</ele>
        <time>2000-01-01T05:22:45.000Z</time>
      </trkpt>
      <trkpt lat="45.10629" lon="2.71108">
        <ele>1579.7</ele>
        <time>2000-01-01T05:22:55.000Z</time>
      </trkpt>
      <trkpt lat="45.10622" lon="2.71112">
        <ele>1578.9</ele>
        <time>2000-01-01T05:23:05.000Z</time>
      </trkpt>
      <trkpt lat="45.10617" lon="2.71115">
        <ele>1580</ele>
        <time>2000-01-01T05:23:15.000Z</time>
      </trkpt>
      <trkpt lat="45.10612" lon="2.71121">
        <ele>1578.9</ele>
        <time>2000-01-01T05:23:25.000Z</time>
      </trkpt>
      <trkpt lat="45.10608" lon="2.71121">
        <ele>1577.5</ele>
        <time>2000-01-01T05:23:35.000Z</time>
      </trkpt>
      <trkpt lat="45.10604" lon="2.71124">
        <ele>1577.1</ele>
        <time>2000-01-01T05:23:45.000Z</time>
      </trkpt>
      <trkpt lat="45.10602" lon="2.71129">
        <ele>1578.1</ele>
        <time>2000-01-01T05:23:55.000Z</time>
      </trkpt>
      <trkpt lat="45.10599" lon="2.71132">
        <ele>1578</ele>
        <time>2000-01-01T05:24:05.000Z</time>
      </trkpt>
      <trkpt lat="45.10593" lon="2.71139">
        <ele>1577.8</ele>
        <time>2000-01-01T05:24:15.000Z</time>
      </trkpt>
      <trkpt lat="45.10589" lon="2.71145">
        <ele>1577</ele>
        <time>2000-01-01T05:24:25.000Z</time>
      </trkpt>
      <trkpt lat="45.10588" lon="2.71155">
        <ele>1578</ele>
        <time>2000-01-01T05:24:35.000Z</time>
      </trkpt>
      <trkpt lat="45.10586" lon="2.71164">
        <ele>1577.4</ele>
        <time>2000-01-01T05:24:45.000Z</time>
      </trkpt>
      <trkpt lat="45.10584" lon="2.71171">
        <ele>1576.9</ele>
        <time>2000-01-01T05:24:55.000Z</time>
      </trkpt>
      <trkpt lat="45.1058" lon="2.71176">
        <ele>1575</ele>
        <time>2000-01-01T05:25:05.000Z</time>
      </trkpt>
      <trkpt lat="45.1058" lon="2.71181">
        <ele>1578</ele>
        <time>2000-01-01T05:25:15.000Z</time>
      </trkpt>
      <trkpt lat="45.10579" lon="2.71184">
        <ele>1575.4</ele>
        <time>2000-01-01T05:25:25.000Z</time>
      </trkpt>
      <trkpt lat="45.10575" lon="2.71187">
        <ele>1573.5</ele>
        <time>2000-01-01T05:25:35.000Z</time>
      </trkpt>
      <trkpt lat="45.10573" lon="2.71189">
        <ele>1572.6</ele>
        <time>2000-01-01T05:25:45.000Z</time>
      </trkpt>
      <trkpt lat="45.1057" lon="2.71197">
        <ele>1572.6</ele>
        <time>2000-01-01T05:25:55.000Z</time>
      </trkpt>
      <trkpt lat="45.10565" lon="2.71203">
        <ele>1575</ele>
        <time>2000-01-01T05:26:05.000Z</time>
      </trkpt>
      <trkpt lat="45.10561" lon="2.71207">
        <ele>1571.3</ele>
        <time>2000-01-01T05:26:15.000Z</time>
      </trkpt>
      <trkpt lat="45.10558" lon="2.71208">
        <ele>1570.1</ele>
        <time>2000-01-01T05:26:25.000Z</time>
      </trkpt>
      <trkpt lat="45.10552" lon="2.7121">
        <ele>1567.5</ele>
        <time>2000-01-01T05:26:35.000Z</time>
      </trkpt>
      <trkpt lat="45.1055" lon="2.71212">
        <ele>1567</ele>
        <time>2000-01-01T05:26:45.000Z</time>
      </trkpt>
      <trkpt lat="45.10547" lon="2.71216">
        <ele>1569</ele>
        <time>2000-01-01T05:26:55.000Z</time>
      </trkpt>
      <trkpt lat="45.10546" lon="2.71224">
        <ele>1567.8</ele>
        <time>2000-01-01T05:27:05.000Z</time>
      </trkpt>
      <trkpt lat="45.10539" lon="2.71238">
        <ele>1565.6</ele>
        <time>2000-01-01T05:27:15.000Z</time>
      </trkpt>
      <trkpt lat="45.10535" lon="2.71248">
        <ele>1567</ele>
        <time>2000-01-01T05:27:25.000Z</time>
      </trkpt>
      <trkpt lat="45.10533" lon="2.71255">
        <ele>1564.8</ele>
        <time>2000-01-01T05:27:35.000Z</time>
      </trkpt>
      <trkpt lat="45.10529" lon="2.71263">
        <ele>1563.2</ele>
        <time>2000-01-01T05:27:45.000Z</time>
      </trkpt>
      <trkpt lat="45.10527" lon="2.7127">
        <ele>1562.7</ele>
        <time>2000-01-01T05:27:55.000Z</time>
      </trkpt>
      <trkpt lat="45.10524" lon="2.71276">
        <ele>1563</ele>
        <time>2000-01-01T05:28:05.000Z</time>
      </trkpt>
      <trkpt lat="45.1052" lon="2.71279">
        <ele>1560.1</ele>
        <time>2000-01-01T05:28:15.000Z</time>
      </trkpt>
      <trkpt lat="45.10512" lon="2.71289">
        <ele>1557.8</ele>
        <time>2000-01-01T05:28:25.000Z</time>
      </trkpt>
      <trkpt lat="45.10508" lon="2.71294">
        <ele>1562</ele>
        <time>2000-01-01T05:28:35.000Z</time>
      </trkpt>
      <trkpt lat="45.10504" lon="2.71305">
        <ele>1556.3</ele>
        <time>2000-01-01T05:28:45.000Z</time>
      </trkpt>
      <trkpt lat="45.10501" lon="2.71308">
        <ele>1555.6</ele>
        <time>2000-01-01T05:28:55.000Z</time>
      </trkpt>
      <trkpt lat="45.10501" lon="2.71308">
        <ele>1555.6</ele>
        <time>2000-01-01T05:29:05.000Z</time>
      </trkpt>
      <trkpt lat="45.10492" lon="2.71314">
        <ele>1557</ele>
        <time>2000-01-01T05:29:15.000Z</time>
      </trkpt>
      <trkpt lat="45.10483" lon="2.71317">
        <ele>1553.8</ele>
        <time>2000-01-01T05:29:25.000Z</time>
      </trkpt>
      <trkpt lat="45.10475" lon="2.71323">
        <ele>1554.5</ele>
        <time>2000-01-01T05:29:35.000Z</time>
      </trkpt>
      <trkpt lat="45.10469" lon="2.71324">
        <ele>1555.5</ele>
        <time>2000-01-01T05:29:45.000Z</time>
      </trkpt>
      <trkpt lat="45.10461" lon="2.71325">
        <ele>1552.2</ele>
        <time>2000-01-01T05:29:55.000Z</time>
      </trkpt>
      <trkpt lat="45.10452" lon="2.71328">
        <ele>1551.2</ele>
        <time>2000-01-01T05:30:05.000Z</time>
      </trkpt>
      <trkpt lat="45.10445" lon="2.7133">
        <ele>1554</ele>
        <time>2000-01-01T05:30:15.000Z</time>
      </trkpt>
      <trkpt lat="45.10442" lon="2.71333">
        <ele>1549.4</ele>
        <time>2000-01-01T05:30:25.000Z</time>
      </trkpt>
      <trkpt lat="45.1044" lon="2.71336">
        <ele>1548.5</ele>
        <time>2000-01-01T05:30:35.000Z</time>
      </trkpt>
      <trkpt lat="45.1044" lon="2.71342">
        <ele>1549.1</ele>
        <time>2000-01-01T05:30:45.000Z</time>
      </trkpt>
      <trkpt lat="45.10437" lon="2.71351">
        <ele>1548</ele>
        <time>2000-01-01T05:30:55.000Z</time>
      </trkpt>
      <trkpt lat="45.10436" lon="2.7136">
        <ele>1549</ele>
        <time>2000-01-01T05:31:05.000Z</time>
      </trkpt>
      <trkpt lat="45.10436" lon="2.71364">
        <ele>1548</ele>
        <time>2000-01-01T05:31:15.000Z</time>
      </trkpt>
      <trkpt lat="45.10436" lon="2.71364">
        <ele>1548</ele>
        <time>2000-01-01T05:31:25.000Z</time>
      </trkpt>
      <trkpt lat="45.10436" lon="2.71364">
        <ele>1548</ele>
        <time>2000-01-01T05:31:35.000Z</time>
      </trkpt>
      <trkpt lat="45.10436" lon="2.71364">
        <ele>1548</ele>
        <time>2000-01-01T05:31:45.000Z</time>
      </trkpt>
      <trkpt lat="45.10436" lon="2.71367">
        <ele>1547.9</ele>
        <time>2000-01-01T05:31:55.000Z</time>
      </trkpt>
      <trkpt lat="45.10436" lon="2.71373">
        <ele>1547.5</ele>
        <time>2000-01-01T05:32:05.000Z</time>
      </trkpt>
      <trkpt lat="45.10436" lon="2.71384">
        <ele>1546.8</ele>
        <time>2000-01-01T05:32:15.000Z</time>
      </trkpt>
      <trkpt lat="45.10437" lon="2.71402">
        <ele>1547</ele>
        <time>2000-01-01T05:32:25.000Z</time>
      </trkpt>
      <trkpt lat="45.10438" lon="2.71418">
        <ele>1545.3</ele>
        <time>2000-01-01T05:32:35.000Z</time>
      </trkpt>
      <trkpt lat="45.10438" lon="2.71426">
        <ele>1543.8</ele>
        <time>2000-01-01T05:32:45.000Z</time>
      </trkpt>
      <trkpt lat="45.10442" lon="2.71441">
        <ele>1545</ele>
        <time>2000-01-01T05:32:55.000Z</time>
      </trkpt>
      <trkpt lat="45.10441" lon="2.71454">
        <ele>1541.4</ele>
        <time>2000-01-01T05:33:05.000Z</time>
      </trkpt>
      <trkpt lat="45.1044" lon="2.71468">
        <ele>1543</ele>
        <time>2000-01-01T05:33:15.000Z</time>
      </trkpt>
      <trkpt lat="45.10437" lon="2.71481">
        <ele>1538.7</ele>
        <time>2000-01-01T05:33:25.000Z</time>
      </trkpt>
      <trkpt lat="45.10432" lon="2.71497">
        <ele>1539</ele>
        <time>2000-01-01T05:33:35.000Z</time>
      </trkpt>
      <trkpt lat="45.10429" lon="2.7151">
        <ele>1536.9</ele>
        <time>2000-01-01T05:33:45.000Z</time>
      </trkpt>
      <trkpt lat="45.10425" lon="2.71522">
        <ele>1536</ele>
        <time>2000-01-01T05:33:55.000Z</time>
      </trkpt>
      <trkpt lat="45.10421" lon="2.71534">
        <ele>1535.7</ele>
        <time>2000-01-01T05:34:05.000Z</time>
      </trkpt>
      <trkpt lat="45.10418" lon="2.71543">
        <ele>1535.4</ele>
        <time>2000-01-01T05:34:15.000Z</time>
      </trkpt>
      <trkpt lat="45.10413" lon="2.71551">
        <ele>1536</ele>
        <time>2000-01-01T05:34:25.000Z</time>
      </trkpt>
      <trkpt lat="45.10409" lon="2.71558">
        <ele>1533.7</ele>
        <time>2000-01-01T05:34:35.000Z</time>
      </trkpt>
      <trkpt lat="45.10406" lon="2.71567">
        <ele>1532.9</ele>
        <time>2000-01-01T05:34:45.000Z</time>
      </trkpt>
      <trkpt lat="45.10399" lon="2.71585">
        <ele>1535</ele>
        <time>2000-01-01T05:34:55.000Z</time>
      </trkpt>
      <trkpt lat="45.10395" lon="2.71594">
        <ele>1531.6</ele>
        <time>2000-01-01T05:35:05.000Z</time>
      </trkpt>
      <trkpt lat="45.10386" lon="2.716">
        <ele>1532.2</ele>
        <time>2000-01-01T05:35:15.000Z</time>
      </trkpt>
      <trkpt lat="45.10379" lon="2.71606">
        <ele>1534</ele>
        <time>2000-01-01T05:35:25.000Z</time>
      </trkpt>
      <trkpt lat="45.10369" lon="2.7161">
        <ele>1533.6</ele>
        <time>2000-01-01T05:35:35.000Z</time>
      </trkpt>
      <trkpt lat="45.10359" lon="2.71614">
        <ele>1534</ele>
        <time>2000-01-01T05:35:45.000Z</time>
      </trkpt>
      <trkpt lat="45.10351" lon="2.71617">
        <ele>1533</ele>
        <time>2000-01-01T05:35:55.000Z</time>
      </trkpt>
      <trkpt lat="45.10341" lon="2.71624">
        <ele>1534</ele>
        <time>2000-01-01T05:36:05.000Z</time>
      </trkpt>
      <trkpt lat="45.10333" lon="2.71628">
        <ele>1533.1</ele>
        <time>2000-01-01T05:36:15.000Z</time>
      </trkpt>
      <trkpt lat="45.10324" lon="2.71635">
        <ele>1534</ele>
        <time>2000-01-01T05:36:25.000Z</time>
      </trkpt>
      <trkpt lat="45.10315" lon="2.7164">
        <ele>1529.4</ele>
        <time>2000-01-01T05:36:35.000Z</time>
      </trkpt>
      <trkpt lat="45.10307" lon="2.71646">
        <ele>1527.8</ele>
        <time>2000-01-01T05:36:45.000Z</time>
      </trkpt>
      <trkpt lat="45.10299" lon="2.7165">
        <ele>1531</ele>
        <time>2000-01-01T05:36:55.000Z</time>
      </trkpt>
      <trkpt lat="45.10289" lon="2.7165">
        <ele>1529.6</ele>
        <time>2000-01-01T05:37:05.000Z</time>
      </trkpt>
      <trkpt lat="45.10281" lon="2.71647">
        <ele>1529.8</ele>
        <time>2000-01-01T05:37:15.000Z</time>
      </trkpt>
      <trkpt lat="45.10271" lon="2.71643">
        <ele>1530.5</ele>
        <time>2000-01-01T05:37:25.000Z</time>
      </trkpt>
      <trkpt lat="45.10261" lon="2.71641">
        <ele>1529.8</ele>
        <time>2000-01-01T05:37:35.000Z</time>
      </trkpt>
      <trkpt lat="45.1025" lon="2.7164">
        <ele>1530</ele>
        <time>2000-01-01T05:37:45.000Z</time>
      </trkpt>
      <trkpt lat="45.10248" lon="2.71639">
        <ele>1530.1</ele>
        <time>2000-01-01T05:37:55.000Z</time>
      </trkpt>
      <trkpt lat="45.10243" lon="2.71639">
        <ele>1530.3</ele>
        <time>2000-01-01T05:38:05.000Z</time>
      </trkpt>
      <trkpt lat="45.10234" lon="2.71638">
        <ele>1530.3</ele>
        <time>2000-01-01T05:38:15.000Z</time>
      </trkpt>
      <trkpt lat="45.10226" lon="2.71635">
        <ele>1529</ele>
        <time>2000-01-01T05:38:25.000Z</time>
      </trkpt>
      <trkpt lat="45.10216" lon="2.71634">
        <ele>1529.8</ele>
        <time>2000-01-01T05:38:35.000Z</time>
      </trkpt>
      <trkpt lat="45.10206" lon="2.71635">
        <ele>1529</ele>
        <time>2000-01-01T05:38:45.000Z</time>
      </trkpt>
      <trkpt lat="45.10195" lon="2.71632">
        <ele>1530.5</ele>
        <time>2000-01-01T05:38:55.000Z</time>
      </trkpt>
      <trkpt lat="45.10186" lon="2.71629">
        <ele>1529</ele>
        <time>2000-01-01T05:39:05.000Z</time>
      </trkpt>
      <trkpt lat="45.10182" lon="2.7163">
        <ele>1529.7</ele>
        <time>2000-01-01T05:39:15.000Z</time>
      </trkpt>
      <trkpt lat="45.10177" lon="2.71631">
        <ele>1530</ele>
        <time>2000-01-01T05:39:25.000Z</time>
      </trkpt>
      <trkpt lat="45.10172" lon="2.7163">
        <ele>1529.5</ele>
        <time>2000-01-01T05:39:35.000Z</time>
      </trkpt>
      <trkpt lat="45.1016" lon="2.71633">
        <ele>1530</ele>
        <time>2000-01-01T05:39:45.000Z</time>
      </trkpt>
      <trkpt lat="45.1015" lon="2.71636">
        <ele>1529.5</ele>
        <time>2000-01-01T05:39:55.000Z</time>
      </trkpt>
      <trkpt lat="45.10139" lon="2.71642">
        <ele>1530</ele>
        <time>2000-01-01T05:40:05.000Z</time>
      </trkpt>
      <trkpt lat="45.10125" lon="2.7165">
        <ele>1531.1</ele>
        <time>2000-01-01T05:40:15.000Z</time>
      </trkpt>
      <trkpt lat="45.10113" lon="2.71655">
        <ele>1530</ele>
        <time>2000-01-01T05:40:25.000Z</time>
      </trkpt>
      <trkpt lat="45.101" lon="2.7166">
        <ele>1530.6</ele>
        <time>2000-01-01T05:40:35.000Z</time>
      </trkpt>
      <trkpt lat="45.10095" lon="2.71666">
        <ele>1531</ele>
        <time>2000-01-01T05:40:45.000Z</time>
      </trkpt>
      <trkpt lat="45.10093" lon="2.71669">
        <ele>1533.5</ele>
        <time>2000-01-01T05:40:55.000Z</time>
      </trkpt>
      <trkpt lat="45.10089" lon="2.7167">
        <ele>1533.4</ele>
        <time>2000-01-01T05:41:05.000Z</time>
      </trkpt>
      <trkpt lat="45.10085" lon="2.71668">
        <ele>1531.9</ele>
        <time>2000-01-01T05:41:15.000Z</time>
      </trkpt>
      <trkpt lat="45.10081" lon="2.71667">
        <ele>1531.3</ele>
        <time>2000-01-01T05:41:25.000Z</time>
      </trkpt>
      <trkpt lat="45.10076" lon="2.71668">
        <ele>1531</ele>
        <time>2000-01-01T05:41:35.000Z</time>
      </trkpt>
      <trkpt lat="45.10071" lon="2.71669">
        <ele>1533</ele>
        <time>2000-01-01T05:41:45.000Z</time>
      </trkpt>
      <trkpt lat="45.10069" lon="2.71667">
        <ele>1532.2</ele>
        <time>2000-01-01T05:41:55.000Z</time>
      </trkpt>
      <trkpt lat="45.10063" lon="2.71666">
        <ele>1532.2</ele>
        <time>2000-01-01T05:42:05.000Z</time>
      </trkpt>
      <trkpt lat="45.1006" lon="2.71665">
        <ele>1532</ele>
        <time>2000-01-01T05:42:15.000Z</time>
      </trkpt>
      <trkpt lat="45.10055" lon="2.7166">
        <ele>1531</ele>
        <time>2000-01-01T05:42:25.000Z</time>
      </trkpt>
      <trkpt lat="45.1005" lon="2.71658">
        <ele>1530.1</ele>
        <time>2000-01-01T05:42:35.000Z</time>
      </trkpt>
      <trkpt lat="45.10043" lon="2.71658">
        <ele>1531.1</ele>
        <time>2000-01-01T05:42:45.000Z</time>
      </trkpt>
      <trkpt lat="45.10037" lon="2.71658">
        <ele>1532</ele>
        <time>2000-01-01T05:42:55.000Z</time>
      </trkpt>
      <trkpt lat="45.10033" lon="2.7166">
        <ele>1532</ele>
        <time>2000-01-01T05:43:05.000Z</time>
      </trkpt>
      <trkpt lat="45.10029" lon="2.71659">
        <ele>1533.7</ele>
        <time>2000-01-01T05:43:15.000Z</time>
      </trkpt>
      <trkpt lat="45.10022" lon="2.71656">
        <ele>1533.4</ele>
        <time>2000-01-01T05:43:25.000Z</time>
      </trkpt>
      <trkpt lat="45.10017" lon="2.71654">
        <ele>1533.3</ele>
        <time>2000-01-01T05:43:35.000Z</time>
      </trkpt>
      <trkpt lat="45.10007" lon="2.71653">
        <ele>1533</ele>
        <time>2000-01-01T05:43:45.000Z</time>
      </trkpt>
      <trkpt lat="45.09997" lon="2.71652">
        <ele>1536</ele>
        <time>2000-01-01T05:43:55.000Z</time>
      </trkpt>
      <trkpt lat="45.09991" lon="2.7165">
        <ele>1535.9</ele>
        <time>2000-01-01T05:44:05.000Z</time>
      </trkpt>
      <trkpt lat="45.09986" lon="2.71646">
        <ele>1534</ele>
        <time>2000-01-01T05:44:15.000Z</time>
      </trkpt>
      <trkpt lat="45.09981" lon="2.71645">
        <ele>1534.8</ele>
        <time>2000-01-01T05:44:25.000Z</time>
      </trkpt>
      <trkpt lat="45.09969" lon="2.71647">
        <ele>1537.1</ele>
        <time>2000-01-01T05:44:35.000Z</time>
      </trkpt>
      <trkpt lat="45.0996" lon="2.71647">
        <ele>1536</ele>
        <time>2000-01-01T05:44:45.000Z</time>
      </trkpt>
      <trkpt lat="45.09953" lon="2.71649">
        <ele>1538.1</ele>
        <time>2000-01-01T05:44:55.000Z</time>
      </trkpt>
      <trkpt lat="45.09949" lon="2.7165">
        <ele>1538.6</ele>
        <time>2000-01-01T05:45:05.000Z</time>
      </trkpt>
      <trkpt lat="45.09944" lon="2.71652">
        <ele>1539.6</ele>
        <time>2000-01-01T05:45:15.000Z</time>
      </trkpt>
      <trkpt lat="45.0994" lon="2.71651">
        <ele>1537</ele>
        <time>2000-01-01T05:45:25.000Z</time>
      </trkpt>
      <trkpt lat="45.09932" lon="2.71652">
        <ele>1539.6</ele>
        <time>2000-01-01T05:45:35.000Z</time>
      </trkpt>
      <trkpt lat="45.09919" lon="2.71653">
        <ele>1539</ele>
        <time>2000-01-01T05:45:45.000Z</time>
      </trkpt>
      <trkpt lat="45.09914" lon="2.71655">
        <ele>1540.9</ele>
        <time>2000-01-01T05:45:55.000Z</time>
      </trkpt>
      <trkpt lat="45.09912" lon="2.71656">
        <ele>1541.3</ele>
        <time>2000-01-01T05:46:05.000Z</time>
      </trkpt>
      <trkpt lat="45.09905" lon="2.71656">
        <ele>1540.8</ele>
        <time>2000-01-01T05:46:15.000Z</time>
      </trkpt>
      <trkpt lat="45.09901" lon="2.71658">
        <ele>1541.5</ele>
        <time>2000-01-01T05:46:25.000Z</time>
      </trkpt>
      <trkpt lat="45.09893" lon="2.71661">
        <ele>1539</ele>
        <time>2000-01-01T05:46:35.000Z</time>
      </trkpt>
      <trkpt lat="45.09888" lon="2.71661">
        <ele>1542</ele>
        <time>2000-01-01T05:46:45.000Z</time>
      </trkpt>
      <trkpt lat="45.09879" lon="2.71664">
        <ele>1542.2</ele>
        <time>2000-01-01T05:46:55.000Z</time>
      </trkpt>
      <trkpt lat="45.09876" lon="2.71665">
        <ele>1542.2</ele>
        <time>2000-01-01T05:47:05.000Z</time>
      </trkpt>
      <trkpt lat="45.09864" lon="2.71668">
        <ele>1541</ele>
        <time>2000-01-01T05:47:15.000Z</time>
      </trkpt>
      <trkpt lat="45.09852" lon="2.71671">
        <ele>1541.3</ele>
        <time>2000-01-01T05:47:25.000Z</time>
      </trkpt>
      <trkpt lat="45.09844" lon="2.71675">
        <ele>1540.5</ele>
        <time>2000-01-01T05:47:35.000Z</time>
      </trkpt>
      <trkpt lat="45.09834" lon="2.7168">
        <ele>1541.9</ele>
        <time>2000-01-01T05:47:45.000Z</time>
      </trkpt>
      <trkpt lat="45.09827" lon="2.71684">
        <ele>1543.1</ele>
        <time>2000-01-01T05:47:55.000Z</time>
      </trkpt>
      <trkpt lat="45.09817" lon="2.71686">
        <ele>1541.2</ele>
        <time>2000-01-01T05:48:05.000Z</time>
      </trkpt>
      <trkpt lat="45.09805" lon="2.7169">
        <ele>1543.4</ele>
        <time>2000-01-01T05:48:15.000Z</time>
      </trkpt>
      <trkpt lat="45.09797" lon="2.71691">
        <ele>1542</ele>
        <time>2000-01-01T05:48:25.000Z</time>
      </trkpt>
      <trkpt lat="45.09788" lon="2.71693">
        <ele>1543.3</ele>
        <time>2000-01-01T05:48:35.000Z</time>
      </trkpt>
      <trkpt lat="45.09777" lon="2.71696">
        <ele>1542</ele>
        <time>2000-01-01T05:48:45.000Z</time>
      </trkpt>
      <trkpt lat="45.09772" lon="2.71699">
        <ele>1544.6</ele>
        <time>2000-01-01T05:48:55.000Z</time>
      </trkpt>
      <trkpt lat="45.09761" lon="2.71702">
        <ele>1544.7</ele>
        <time>2000-01-01T05:49:05.000Z</time>
      </trkpt>
      <trkpt lat="45.0975" lon="2.71704">
        <ele>1542</ele>
        <time>2000-01-01T05:49:15.000Z</time>
      </trkpt>
      <trkpt lat="45.09737" lon="2.71709">
        <ele>1544.3</ele>
        <time>2000-01-01T05:49:25.000Z</time>
      </trkpt>
      <trkpt lat="45.09728" lon="2.71714">
        <ele>1542.5</ele>
        <time>2000-01-01T05:49:35.000Z</time>
      </trkpt>
      <trkpt lat="45.09722" lon="2.71719">
        <ele>1546.3</ele>
        <time>2000-01-01T05:49:45.000Z</time>
      </trkpt>
      <trkpt lat="45.09715" lon="2.7172">
        <ele>1545.1</ele>
        <time>2000-01-01T05:49:55.000Z</time>
      </trkpt>
      <trkpt lat="45.09708" lon="2.71725">
        <ele>1543</ele>
        <time>2000-01-01T05:50:05.000Z</time>
      </trkpt>
      <trkpt lat="45.09702" lon="2.7173">
        <ele>1546.6</ele>
        <time>2000-01-01T05:50:15.000Z</time>
      </trkpt>
      <trkpt lat="45.09696" lon="2.71734">
        <ele>1546.9</ele>
        <time>2000-01-01T05:50:25.000Z</time>
      </trkpt>
      <trkpt lat="45.09689" lon="2.71737">
        <ele>1546</ele>
        <time>2000-01-01T05:50:35.000Z</time>
      </trkpt>
      <trkpt lat="45.09684" lon="2.7174">
        <ele>1546.6</ele>
        <time>2000-01-01T05:50:45.000Z</time>
      </trkpt>
      <trkpt lat="45.09676" lon="2.71745">
        <ele>1546.6</ele>
        <time>2000-01-01T05:50:55.000Z</time>
      </trkpt>
      <trkpt lat="45.09671" lon="2.71746">
        <ele>1546</ele>
        <time>2000-01-01T05:51:05.000Z</time>
      </trkpt>
      <trkpt lat="45.09666" lon="2.71748">
        <ele>1545.1</ele>
        <time>2000-01-01T05:51:15.000Z</time>
      </trkpt>
      <trkpt lat="45.09661" lon="2.7175">
        <ele>1545</ele>
        <time>2000-01-01T05:51:25.000Z</time>
      </trkpt>
      <trkpt lat="45.09658" lon="2.71751">
        <ele>1544.8</ele>
        <time>2000-01-01T05:51:35.000Z</time>
      </trkpt>
      <trkpt lat="45.09652" lon="2.71751">
        <ele>1545</ele>
        <time>2000-01-01T05:51:45.000Z</time>
      </trkpt>
      <trkpt lat="45.09645" lon="2.71755">
        <ele>1543.6</ele>
        <time>2000-01-01T05:51:55.000Z</time>
      </trkpt>
      <trkpt lat="45.0964" lon="2.71757">
        <ele>1543.2</ele>
        <time>2000-01-01T05:52:05.000Z</time>
      </trkpt>
      <trkpt lat="45.09632" lon="2.71761">
        <ele>1544</ele>
        <time>2000-01-01T05:52:15.000Z</time>
      </trkpt>
      <trkpt lat="45.09629" lon="2.71762">
        <ele>1544.1</ele>
        <time>2000-01-01T05:52:25.000Z</time>
      </trkpt>
      <trkpt lat="45.09621" lon="2.71762">
        <ele>1543.8</ele>
        <time>2000-01-01T05:52:35.000Z</time>
      </trkpt>
      <trkpt lat="45.09615" lon="2.7176">
        <ele>1543</ele>
        <time>2000-01-01T05:52:45.000Z</time>
      </trkpt>
      <trkpt lat="45.09609" lon="2.7176">
        <ele>1543</ele>
        <time>2000-01-01T05:52:55.000Z</time>
      </trkpt>
      <trkpt lat="45.09609" lon="2.7176">
        <ele>1542.9</ele>
        <time>2000-01-01T05:53:05.000Z</time>
      </trkpt>
      <trkpt lat="45.09609" lon="2.71759">
        <ele>1542.6</ele>
        <time>2000-01-01T05:53:15.000Z</time>
      </trkpt>
      <trkpt lat="45.09609" lon="2.71759">
        <ele>1542.6</ele>
        <time>2000-01-01T05:53:25.000Z</time>
      </trkpt>
      <trkpt lat="45.09609" lon="2.7176">
        <ele>1542.9</ele>
        <time>2000-01-01T05:53:35.000Z</time>
      </trkpt>
      <trkpt lat="45.096" lon="2.71761">
        <ele>1543</ele>
        <time>2000-01-01T05:53:45.000Z</time>
      </trkpt>
      <trkpt lat="45.09595" lon="2.71761">
        <ele>1542.9</ele>
        <time>2000-01-01T05:53:55.000Z</time>
      </trkpt>
      <trkpt lat="45.09587" lon="2.71762">
        <ele>1543</ele>
        <time>2000-01-01T05:54:05.000Z</time>
      </trkpt>
      <trkpt lat="45.0958" lon="2.71763">
        <ele>1543.2</ele>
        <time>2000-01-01T05:54:15.000Z</time>
      </trkpt>
      <trkpt lat="45.09573" lon="2.71764">
        <ele>1543.3</ele>
        <time>2000-01-01T05:54:25.000Z</time>
      </trkpt>
      <trkpt lat="45.09565" lon="2.71765">
        <ele>1543</ele>
        <time>2000-01-01T05:54:35.000Z</time>
      </trkpt>
      <trkpt lat="45.09562" lon="2.71765">
        <ele>1543.4</ele>
        <time>2000-01-01T05:54:45.000Z</time>
      </trkpt>
      <trkpt lat="45.09557" lon="2.71764">
        <ele>1543.1</ele>
        <time>2000-01-01T05:54:55.000Z</time>
      </trkpt>
      <trkpt lat="45.09553" lon="2.71764">
        <ele>1543</ele>
        <time>2000-01-01T05:55:05.000Z</time>
      </trkpt>
      <trkpt lat="45.0955" lon="2.71765">
        <ele>1543.2</ele>
        <time>2000-01-01T05:55:15.000Z</time>
      </trkpt>
      <trkpt lat="45.09545" lon="2.71768">
        <ele>1543</ele>
        <time>2000-01-01T05:55:25.000Z</time>
      </trkpt>
      <trkpt lat="45.09535" lon="2.71768">
        <ele>1544.1</ele>
        <time>2000-01-01T05:55:35.000Z</time>
      </trkpt>
      <trkpt lat="45.0953" lon="2.71769">
        <ele>1544.5</ele>
        <time>2000-01-01T05:55:45.000Z</time>
      </trkpt>
      <trkpt lat="45.09518" lon="2.71768">
        <ele>1543</ele>
        <time>2000-01-01T05:55:55.000Z</time>
      </trkpt>
      <trkpt lat="45.09513" lon="2.71768">
        <ele>1543.9</ele>
        <time>2000-01-01T05:56:05.000Z</time>
      </trkpt>
      <trkpt lat="45.09505" lon="2.71769">
        <ele>1544.3</ele>
        <time>2000-01-01T05:56:15.000Z</time>
      </trkpt>
      <trkpt lat="45.09501" lon="2.71769">
        <ele>1544.2</ele>
        <time>2000-01-01T05:56:25.000Z</time>
      </trkpt>
      <trkpt lat="45.09499" lon="2.71769">
        <ele>1543</ele>
        <time>2000-01-01T05:56:35.000Z</time>
      </trkpt>
      <trkpt lat="45.09495" lon="2.71769">
        <ele>1544.6</ele>
        <time>2000-01-01T05:56:45.000Z</time>
      </trkpt>
      <trkpt lat="45.09492" lon="2.7177">
        <ele>1545.3</ele>
        <time>2000-01-01T05:56:55.000Z</time>
      </trkpt>
      <trkpt lat="45.0949" lon="2.71769">
        <ele>1545</ele>
        <time>2000-01-01T05:57:05.000Z</time>
      </trkpt>
      <trkpt lat="45.09487" lon="2.71766">
        <ele>1544</ele>
        <time>2000-01-01T05:57:15.000Z</time>
      </trkpt>
      <trkpt lat="45.0948" lon="2.71765">
        <ele>1543</ele>
        <time>2000-01-01T05:57:25.000Z</time>
      </trkpt>
      <trkpt lat="45.09472" lon="2.71764">
        <ele>1544.6</ele>
        <time>2000-01-01T05:57:35.000Z</time>
      </trkpt>
      <trkpt lat="45.09465" lon="2.71761">
        <ele>1544.1</ele>
        <time>2000-01-01T05:57:45.000Z</time>
      </trkpt>
      <trkpt lat="45.09457" lon="2.71757">
        <ele>1543</ele>
        <time>2000-01-01T05:57:55.000Z</time>
      </trkpt>
      <trkpt lat="45.09448" lon="2.71753">
        <ele>1543.4</ele>
        <time>2000-01-01T05:58:05.000Z</time>
      </trkpt>
      <trkpt lat="45.09436" lon="2.71749">
        <ele>1543</ele>
        <time>2000-01-01T05:58:15.000Z</time>
      </trkpt>
      <trkpt lat="45.0943" lon="2.71748">
        <ele>1543.5</ele>
        <time>2000-01-01T05:58:25.000Z</time>
      </trkpt>
      <trkpt lat="45.09425" lon="2.71747">
        <ele>1543.6</ele>
        <time>2000-01-01T05:58:35.000Z</time>
      </trkpt>
      <trkpt lat="45.09415" lon="2.71743">
        <ele>1543</ele>
        <time>2000-01-01T05:58:45.000Z</time>
      </trkpt>
      <trkpt lat="45.09405" lon="2.71739">
        <ele>1543.5</ele>
        <time>2000-01-01T05:58:55.000Z</time>
      </trkpt>
      <trkpt lat="45.09394" lon="2.71733">
        <ele>1543</ele>
        <time>2000-01-01T05:59:05.000Z</time>
      </trkpt>
      <trkpt lat="45.09388" lon="2.71728">
        <ele>1542.5</ele>
        <time>2000-01-01T05:59:15.000Z</time>
      </trkpt>
      <trkpt lat="45.09376" lon="2.71721">
        <ele>1542</ele>
        <time>2000-01-01T05:59:25.000Z</time>
      </trkpt>
      <trkpt lat="45.0937" lon="2.7172">
        <ele>1541.9</ele>
        <time>2000-01-01T05:59:35.000Z</time>
      </trkpt>
      <trkpt lat="45.09362" lon="2.71719">
        <ele>1542.3</ele>
        <time>2000-01-01T05:59:45.000Z</time>
      </trkpt>
      <trkpt lat="45.09355" lon="2.71717">
        <ele>1541</ele>
        <time>2000-01-01T05:59:55.000Z</time>
      </trkpt>
      <trkpt lat="45.09347" lon="2.71714">
        <ele>1542.3</ele>
        <time>2000-01-01T06:00:05.000Z</time>
      </trkpt>
      <trkpt lat="45.09341" lon="2.71711">
        <ele>1542.3</ele>
        <time>2000-01-01T06:00:15.000Z</time>
      </trkpt>
      <trkpt lat="45.09332" lon="2.71705">
        <ele>1541</ele>
        <time>2000-01-01T06:00:25.000Z</time>
      </trkpt>
      <trkpt lat="45.09324" lon="2.717">
        <ele>1541.8</ele>
        <time>2000-01-01T06:00:35.000Z</time>
      </trkpt>
      <trkpt lat="45.09313" lon="2.71692">
        <ele>1541</ele>
        <time>2000-01-01T06:00:45.000Z</time>
      </trkpt>
      <trkpt lat="45.09302" lon="2.71683">
        <ele>1540.9</ele>
        <time>2000-01-01T06:00:55.000Z</time>
      </trkpt>
      <trkpt lat="45.09297" lon="2.71678">
        <ele>1541</ele>
        <time>2000-01-01T06:01:05.000Z</time>
      </trkpt>
      <trkpt lat="45.09295" lon="2.7168">
        <ele>1539.6</ele>
        <time>2000-01-01T06:01:15.000Z</time>
      </trkpt>
      <trkpt lat="45.09292" lon="2.71682">
        <ele>1539.1</ele>
        <time>2000-01-01T06:01:25.000Z</time>
      </trkpt>
      <trkpt lat="45.09285" lon="2.71684">
        <ele>1537.9</ele>
        <time>2000-01-01T06:01:35.000Z</time>
      </trkpt>
      <trkpt lat="45.09278" lon="2.71683">
        <ele>1540</ele>
        <time>2000-01-01T06:01:45.000Z</time>
      </trkpt>
      <trkpt lat="45.0927" lon="2.7168">
        <ele>1534.9</ele>
        <time>2000-01-01T06:01:55.000Z</time>
      </trkpt>
      <trkpt lat="45.09262" lon="2.71679">
        <ele>1533.4</ele>
        <time>2000-01-01T06:02:05.000Z</time>
      </trkpt>
      <trkpt lat="45.09253" lon="2.71676">
        <ele>1536</ele>
        <time>2000-01-01T06:02:15.000Z</time>
      </trkpt>
      <trkpt lat="45.09249" lon="2.71676">
        <ele>1531</ele>
        <time>2000-01-01T06:02:25.000Z</time>
      </trkpt>
      <trkpt lat="45.09243" lon="2.71673">
        <ele>1530.8</ele>
        <time>2000-01-01T06:02:35.000Z</time>
      </trkpt>
      <trkpt lat="45.09234" lon="2.71673">
        <ele>1532</ele>
        <time>2000-01-01T06:02:45.000Z</time>
      </trkpt>
      <trkpt lat="45.09226" lon="2.71676">
        <ele>1529.8</ele>
        <time>2000-01-01T06:02:55.000Z</time>
      </trkpt>
      <trkpt lat="45.09218" lon="2.7168">
        <ele>1529</ele>
        <time>2000-01-01T06:03:05.000Z</time>
      </trkpt>
      <trkpt lat="45.09207" lon="2.71682">
        <ele>1529</ele>
        <time>2000-01-01T06:03:15.000Z</time>
      </trkpt>
      <trkpt lat="45.092" lon="2.71685">
        <ele>1528.7</ele>
        <time>2000-01-01T06:03:25.000Z</time>
      </trkpt>
      <trkpt lat="45.09187" lon="2.71694">
        <ele>1528</ele>
        <time>2000-01-01T06:03:35.000Z</time>
      </trkpt>
      <trkpt lat="45.09181" lon="2.71696">
        <ele>1526.9</ele>
        <time>2000-01-01T06:03:45.000Z</time>
      </trkpt>
      <trkpt lat="45.09176" lon="2.71697">
        <ele>1527.1</ele>
        <time>2000-01-01T06:03:55.000Z</time>
      </trkpt>
      <trkpt lat="45.09166" lon="2.71699">
        <ele>1527</ele>
        <time>2000-01-01T06:04:05.000Z</time>
      </trkpt>
      <trkpt lat="45.09159" lon="2.71701">
        <ele>1527</ele>
        <time>2000-01-01T06:04:15.000Z</time>
      </trkpt>
      <trkpt lat="45.09152" lon="2.71702">
        <ele>1526.8</ele>
        <time>2000-01-01T06:04:25.000Z</time>
      </trkpt>
      <trkpt lat="45.09143" lon="2.71707">
        <ele>1527</ele>
        <time>2000-01-01T06:04:35.000Z</time>
      </trkpt>
      <trkpt lat="45.09138" lon="2.71707">
        <ele>1524.9</ele>
        <time>2000-01-01T06:04:45.000Z</time>
      </trkpt>
      <trkpt lat="45.09127" lon="2.71707">
        <ele>1523.9</ele>
        <time>2000-01-01T06:04:55.000Z</time>
      </trkpt>
      <trkpt lat="45.09118" lon="2.71707">
        <ele>1524</ele>
        <time>2000-01-01T06:05:05.000Z</time>
      </trkpt>
      <trkpt lat="45.09107" lon="2.71707">
        <ele>1522.4</ele>
        <time>2000-01-01T06:05:15.000Z</time>
      </trkpt>
      <trkpt lat="45.091" lon="2.7171">
        <ele>1521.2</ele>
        <time>2000-01-01T06:05:25.000Z</time>
      </trkpt>
      <trkpt lat="45.09088" lon="2.71713">
        <ele>1522</ele>
        <time>2000-01-01T06:05:35.000Z</time>
      </trkpt>
      <trkpt lat="45.09077" lon="2.7172">
        <ele>1519</ele>
        <time>2000-01-01T06:05:45.000Z</time>
      </trkpt>
      <trkpt lat="45.09073" lon="2.71719">
        <ele>1520.1</ele>
        <time>2000-01-01T06:05:55.000Z</time>
      </trkpt>
      <trkpt lat="45.09069" lon="2.71717">
        <ele>1521</ele>
        <time>2000-01-01T06:06:05.000Z</time>
      </trkpt>
      <trkpt lat="45.09068" lon="2.71714">
        <ele>1522.3</ele>
        <time>2000-01-01T06:06:15.000Z</time>
      </trkpt>
      <trkpt lat="45.09068" lon="2.71711">
        <ele>1523.1</ele>
        <time>2000-01-01T06:06:25.000Z</time>
      </trkpt>
      <trkpt lat="45.09068" lon="2.71707">
        <ele>1524</ele>
        <time>2000-01-01T06:06:35.000Z</time>
      </trkpt>
      <trkpt lat="45.09069" lon="2.71702">
        <ele>1525.1</ele>
        <time>2000-01-01T06:06:45.000Z</time>
      </trkpt>
      <trkpt lat="45.0907" lon="2.71698">
        <ele>1526.1</ele>
        <time>2000-01-01T06:06:55.000Z</time>
      </trkpt>
      <trkpt lat="45.09069" lon="2.71694">
        <ele>1527.1</ele>
        <time>2000-01-01T06:07:05.000Z</time>
      </trkpt>
      <trkpt lat="45.09068" lon="2.7169">
        <ele>1523</ele>
        <time>2000-01-01T06:07:15.000Z</time>
      </trkpt>
      <trkpt lat="45.09065" lon="2.71684">
        <ele>1527.5</ele>
        <time>2000-01-01T06:07:25.000Z</time>
      </trkpt>
      <trkpt lat="45.09061" lon="2.71678">
        <ele>1527.2</ele>
        <time>2000-01-01T06:07:35.000Z</time>
      </trkpt>
      <trkpt lat="45.09059" lon="2.71676">
        <ele>1527</ele>
        <time>2000-01-01T06:07:45.000Z</time>
      </trkpt>
      <trkpt lat="45.09057" lon="2.71673">
        <ele>1526.6</ele>
        <time>2000-01-01T06:07:55.000Z</time>
      </trkpt>
      <trkpt lat="45.09056" lon="2.71673">
        <ele>1526.5</ele>
        <time>2000-01-01T06:08:05.000Z</time>
      </trkpt>
      <trkpt lat="45.09055" lon="2.71672">
        <ele>1526.4</ele>
        <time>2000-01-01T06:08:15.000Z</time>
      </trkpt>
      <trkpt lat="45.09053" lon="2.71671">
        <ele>1525</ele>
        <time>2000-01-01T06:08:25.000Z</time>
      </trkpt>
      <trkpt lat="45.09049" lon="2.7167">
        <ele>1526.8</ele>
        <time>2000-01-01T06:08:35.000Z</time>
      </trkpt>
      <trkpt lat="45.09047" lon="2.71669">
        <ele>1526.9</ele>
        <time>2000-01-01T06:08:45.000Z</time>
      </trkpt>
      <trkpt lat="45.09041" lon="2.71664">
        <ele>1526.7</ele>
        <time>2000-01-01T06:08:55.000Z</time>
      </trkpt>
      <trkpt lat="45.09037" lon="2.71661">
        <ele>1526.4</ele>
        <time>2000-01-01T06:09:05.000Z</time>
      </trkpt>
      <trkpt lat="45.09032" lon="2.71656">
        <ele>1524.5</ele>
        <time>2000-01-01T06:09:15.000Z</time>
      </trkpt>
      <trkpt lat="45.09029" lon="2.71653">
        <ele>1525</ele>
        <time>2000-01-01T06:09:25.000Z</time>
      </trkpt>
      <trkpt lat="45.09026" lon="2.71649">
        <ele>1524.9</ele>
        <time>2000-01-01T06:09:35.000Z</time>
      </trkpt>
      <trkpt lat="45.09023" lon="2.71643">
        <ele>1524.8</ele>
        <time>2000-01-01T06:09:45.000Z</time>
      </trkpt>
      <trkpt lat="45.09018" lon="2.71632">
        <ele>1524</ele>
        <time>2000-01-01T06:09:55.000Z</time>
      </trkpt>
      <trkpt lat="45.09016" lon="2.71627">
        <ele>1524.8</ele>
        <time>2000-01-01T06:10:05.000Z</time>
      </trkpt>
      <trkpt lat="45.09015" lon="2.71624">
        <ele>1524.7</ele>
        <time>2000-01-01T06:10:15.000Z</time>
      </trkpt>
      <trkpt lat="45.09014" lon="2.71621">
        <ele>1524.6</ele>
        <time>2000-01-01T06:10:25.000Z</time>
      </trkpt>
      <trkpt lat="45.09012" lon="2.71618">
        <ele>1524.7</ele>
        <time>2000-01-01T06:10:35.000Z</time>
      </trkpt>
      <trkpt lat="45.0901" lon="2.71616">
        <ele>1525</ele>
        <time>2000-01-01T06:10:45.000Z</time>
      </trkpt>
      <trkpt lat="45.09006" lon="2.71612">
        <ele>1525.4</ele>
        <time>2000-01-01T06:10:55.000Z</time>
      </trkpt>
      <trkpt lat="45.09004" lon="2.71609">
        <ele>1524</ele>
        <time>2000-01-01T06:11:05.000Z</time>
      </trkpt>
      <trkpt lat="45.09001" lon="2.71606">
        <ele>1525.6</ele>
        <time>2000-01-01T06:11:15.000Z</time>
      </trkpt>
      <trkpt lat="45.08999" lon="2.71603">
        <ele>1525.6</ele>
        <time>2000-01-01T06:11:25.000Z</time>
      </trkpt>
      <trkpt lat="45.08991" lon="2.71593">
        <ele>1526.1</ele>
        <time>2000-01-01T06:11:35.000Z</time>
      </trkpt>
      <trkpt lat="45.08988" lon="2.71589">
        <ele>1524</ele>
        <time>2000-01-01T06:11:45.000Z</time>
      </trkpt>
      <trkpt lat="45.08984" lon="2.71584">
        <ele>1526.3</ele>
        <time>2000-01-01T06:11:55.000Z</time>
      </trkpt>
      <trkpt lat="45.0898" lon="2.71579">
        <ele>1526.5</ele>
        <time>2000-01-01T06:12:05.000Z</time>
      </trkpt>
      <trkpt lat="45.08977" lon="2.71575">
        <ele>1526.5</ele>
        <time>2000-01-01T06:12:15.000Z</time>
      </trkpt>
      <trkpt lat="45.08975" lon="2.71572">
        <ele>1526.3</ele>
        <time>2000-01-01T06:12:25.000Z</time>
      </trkpt>
      <trkpt lat="45.08973" lon="2.71569">
        <ele>1525</ele>
        <time>2000-01-01T06:12:35.000Z</time>
      </trkpt>
      <trkpt lat="45.08969" lon="2.71564">
        <ele>1526.2</ele>
        <time>2000-01-01T06:12:45.000Z</time>
      </trkpt>
      <trkpt lat="45.08967" lon="2.7156">
        <ele>1525.8</ele>
        <time>2000-01-01T06:12:55.000Z</time>
      </trkpt>
      <trkpt lat="45.08962" lon="2.71557">
        <ele>1526.7</ele>
        <time>2000-01-01T06:13:05.000Z</time>
      </trkpt>
      <trkpt lat="45.0896" lon="2.71555">
        <ele>1526.8</ele>
        <time>2000-01-01T06:13:15.000Z</time>
      </trkpt>
      <trkpt lat="45.08957" lon="2.71551">
        <ele>1525.5</ele>
        <time>2000-01-01T06:13:25.000Z</time>
      </trkpt>
      <trkpt lat="45.08952" lon="2.71546">
        <ele>1526.6</ele>
        <time>2000-01-01T06:13:35.000Z</time>
      </trkpt>
      <trkpt lat="45.08949" lon="2.71542">
        <ele>1526.3</ele>
        <time>2000-01-01T06:13:45.000Z</time>
      </trkpt>
      <trkpt lat="45.08947" lon="2.71539">
        <ele>1525.9</ele>
        <time>2000-01-01T06:13:55.000Z</time>
      </trkpt>
      <trkpt lat="45.08943" lon="2.71537">
        <ele>1526.5</ele>
        <time>2000-01-01T06:14:05.000Z</time>
      </trkpt>
      <trkpt lat="45.08939" lon="2.71534">
        <ele>1525.2</ele>
        <time>2000-01-01T06:14:15.000Z</time>
      </trkpt>
      <trkpt lat="45.08937" lon="2.71531">
        <ele>1527</ele>
        <time>2000-01-01T06:14:25.000Z</time>
      </trkpt>
      <trkpt lat="45.08935" lon="2.71528">
        <ele>1526.8</ele>
        <time>2000-01-01T06:14:35.000Z</time>
      </trkpt>
      <trkpt lat="45.08934" lon="2.71524">
        <ele>1526.2</ele>
        <time>2000-01-01T06:14:45.000Z</time>
      </trkpt>
      <trkpt lat="45.08932" lon="2.71521">
        <ele>1526.2</ele>
        <time>2000-01-01T06:14:55.000Z</time>
      </trkpt>
      <trkpt lat="45.08931" lon="2.7152">
        <ele>1526.4</ele>
        <time>2000-01-01T06:15:05.000Z</time>
      </trkpt>
      <trkpt lat="45.0893" lon="2.71519">
        <ele>1526.5</ele>
        <time>2000-01-01T06:15:15.000Z</time>
      </trkpt>
      <trkpt lat="45.08927" lon="2.71516">
        <ele>1526.8</ele>
        <time>2000-01-01T06:15:25.000Z</time>
      </trkpt>
      <trkpt lat="45.08923" lon="2.71512">
        <ele>1525</ele>
        <time>2000-01-01T06:15:35.000Z</time>
      </trkpt>
      <trkpt lat="45.0892" lon="2.7151">
        <ele>1527.7</ele>
        <time>2000-01-01T06:15:45.000Z</time>
      </trkpt>
      <trkpt lat="45.08918" lon="2.71508">
        <ele>1527.8</ele>
        <time>2000-01-01T06:15:55.000Z</time>
      </trkpt>
      <trkpt lat="45.08916" lon="2.71505">
        <ele>1527.8</ele>
        <time>2000-01-01T06:16:05.000Z</time>
      </trkpt>
      <trkpt lat="45.08914" lon="2.71502">
        <ele>1527.9</ele>
        <time>2000-01-01T06:16:15.000Z</time>
      </trkpt>
      <trkpt lat="45.08912" lon="2.715">
        <ele>1528.4</ele>
        <time>2000-01-01T06:16:25.000Z</time>
      </trkpt>
      <trkpt lat="45.08911" lon="2.71498">
        <ele>1528.5</ele>
        <time>2000-01-01T06:16:35.000Z</time>
      </trkpt>
      <trkpt lat="45.08908" lon="2.71492">
        <ele>1525</ele>
        <time>2000-01-01T06:16:45.000Z</time>
      </trkpt>
      <trkpt lat="45.08907" lon="2.71488">
        <ele>1528.4</ele>
        <time>2000-01-01T06:16:55.000Z</time>
      </trkpt>
      <trkpt lat="45.08905" lon="2.71485">
        <ele>1528.7</ele>
        <time>2000-01-01T06:17:05.000Z</time>
      </trkpt>
      <trkpt lat="45.08903" lon="2.71482">
        <ele>1529</ele>
        <time>2000-01-01T06:17:15.000Z</time>
      </trkpt>
      <trkpt lat="45.089" lon="2.71477">
        <ele>1529.3</ele>
        <time>2000-01-01T06:17:25.000Z</time>
      </trkpt>
      <trkpt lat="45.08898" lon="2.71475">
        <ele>1529.7</ele>
        <time>2000-01-01T06:17:35.000Z</time>
      </trkpt>
      <trkpt lat="45.08896" lon="2.71472">
        <ele>1529.9</ele>
        <time>2000-01-01T06:17:45.000Z</time>
      </trkpt>
      <trkpt lat="45.08893" lon="2.71468">
        <ele>1529</ele>
        <time>2000-01-01T06:17:55.000Z</time>
      </trkpt>
      <trkpt lat="45.08889" lon="2.71464">
        <ele>1530.9</ele>
        <time>2000-01-01T06:18:05.000Z</time>
      </trkpt>
      <trkpt lat="45.08887" lon="2.71463">
        <ele>1531.6</ele>
        <time>2000-01-01T06:18:15.000Z</time>
      </trkpt>
      <trkpt lat="45.08885" lon="2.7146">
        <ele>1531.7</ele>
        <time>2000-01-01T06:18:25.000Z</time>
      </trkpt>
      <trkpt lat="45.08881" lon="2.71459">
        <ele>1533.4</ele>
        <time>2000-01-01T06:18:35.000Z</time>
      </trkpt>
      <trkpt lat="45.0888" lon="2.71456">
        <ele>1533.1</ele>
        <time>2000-01-01T06:18:45.000Z</time>
      </trkpt>
      <trkpt lat="45.08878" lon="2.71454">
        <ele>1533.5</ele>
        <time>2000-01-01T06:18:55.000Z</time>
      </trkpt>
      <trkpt lat="45.08876" lon="2.71451">
        <ele>1529</ele>
        <time>2000-01-01T06:19:05.000Z</time>
      </trkpt>
      <trkpt lat="45.08874" lon="2.71449">
        <ele>1534.1</ele>
        <time>2000-01-01T06:19:15.000Z</time>
      </trkpt>
      <trkpt lat="45.08872" lon="2.71446">
        <ele>1534.3</ele>
        <time>2000-01-01T06:19:25.000Z</time>
      </trkpt>
      <trkpt lat="45.08872" lon="2.71445">
        <ele>1534</ele>
        <time>2000-01-01T06:19:35.000Z</time>
      </trkpt>
      <trkpt lat="45.0887" lon="2.71443">
        <ele>1534.5</ele>
        <time>2000-01-01T06:19:45.000Z</time>
      </trkpt>
      <trkpt lat="45.08869" lon="2.71441">
        <ele>1534.4</ele>
        <time>2000-01-01T06:19:55.000Z</time>
      </trkpt>
      <trkpt lat="45.08868" lon="2.71439">
        <ele>1534.4</ele>
        <time>2000-01-01T06:20:05.000Z</time>
      </trkpt>
      <trkpt lat="45.08867" lon="2.71436">
        <ele>1534.1</ele>
        <time>2000-01-01T06:20:15.000Z</time>
      </trkpt>
      <trkpt lat="45.08864" lon="2.71432">
        <ele>1534.5</ele>
        <time>2000-01-01T06:20:25.000Z</time>
      </trkpt>
      <trkpt lat="45.08863" lon="2.71431">
        <ele>1532</ele>
        <time>2000-01-01T06:20:35.000Z</time>
      </trkpt>
      <trkpt lat="45.08862" lon="2.71426">
        <ele>1533.9</ele>
        <time>2000-01-01T06:20:45.000Z</time>
      </trkpt>
      <trkpt lat="45.0886" lon="2.71422">
        <ele>1533.8</ele>
        <time>2000-01-01T06:20:55.000Z</time>
      </trkpt>
      <trkpt lat="45.08857" lon="2.71419">
        <ele>1534.4</ele>
        <time>2000-01-01T06:21:05.000Z</time>
      </trkpt>
      <trkpt lat="45.08856" lon="2.71417">
        <ele>1534.3</ele>
        <time>2000-01-01T06:21:15.000Z</time>
      </trkpt>
      <trkpt lat="45.08854" lon="2.71416">
        <ele>1534.9</ele>
        <time>2000-01-01T06:21:25.000Z</time>
      </trkpt>
      <trkpt lat="45.08852" lon="2.71415">
        <ele>1535.6</ele>
        <time>2000-01-01T06:21:35.000Z</time>
      </trkpt>
      <trkpt lat="45.0885" lon="2.71413">
        <ele>1536.1</ele>
        <time>2000-01-01T06:21:45.000Z</time>
      </trkpt>
      <trkpt lat="45.08849" lon="2.71409">
        <ele>1533</ele>
        <time>2000-01-01T06:21:55.000Z</time>
      </trkpt>
      <trkpt lat="45.08847" lon="2.71405">
        <ele>1536</ele>
        <time>2000-01-01T06:22:05.000Z</time>
      </trkpt>
      <trkpt lat="45.08845" lon="2.714">
        <ele>1536.2</ele>
        <time>2000-01-01T06:22:15.000Z</time>
      </trkpt>
      <trkpt lat="45.08844" lon="2.71397">
        <ele>1536.2</ele>
        <time>2000-01-01T06:22:25.000Z</time>
      </trkpt>
      <trkpt lat="45.08842" lon="2.7139">
        <ele>1536.2</ele>
        <time>2000-01-01T06:22:35.000Z</time>
      </trkpt>
      <trkpt lat="45.08842" lon="2.71387">
        <ele>1535.8</ele>
        <time>2000-01-01T06:22:45.000Z</time>
      </trkpt>
      <trkpt lat="45.0884" lon="2.71385">
        <ele>1534</ele>
        <time>2000-01-01T06:22:55.000Z</time>
      </trkpt>
      <trkpt lat="45.08839" lon="2.71381">
        <ele>1536.7</ele>
        <time>2000-01-01T06:23:05.000Z</time>
      </trkpt>
      <trkpt lat="45.08838" lon="2.71377">
        <ele>1536.7</ele>
        <time>2000-01-01T06:23:15.000Z</time>
      </trkpt>
      <trkpt lat="45.08837" lon="2.71373">
        <ele>1536.7</ele>
        <time>2000-01-01T06:23:25.000Z</time>
      </trkpt>
      <trkpt lat="45.08835" lon="2.7137">
        <ele>1537.4</ele>
        <time>2000-01-01T06:23:35.000Z</time>
      </trkpt>
      <trkpt lat="45.08833" lon="2.71368">
        <ele>1538.2</ele>
        <time>2000-01-01T06:23:45.000Z</time>
      </trkpt>
      <trkpt lat="45.08833" lon="2.71365">
        <ele>1537.8</ele>
        <time>2000-01-01T06:23:55.000Z</time>
      </trkpt>
      <trkpt lat="45.08831" lon="2.71362">
        <ele>1538.6</ele>
        <time>2000-01-01T06:24:05.000Z</time>
      </trkpt>
      <trkpt lat="45.0883" lon="2.71357">
        <ele>1537</ele>
        <time>2000-01-01T06:24:15.000Z</time>
      </trkpt>
      <trkpt lat="45.08829" lon="2.71353">
        <ele>1538.3</ele>
        <time>2000-01-01T06:24:25.000Z</time>
      </trkpt>
      <trkpt lat="45.08823" lon="2.71341">
        <ele>1539.6</ele>
        <time>2000-01-01T06:24:35.000Z</time>
      </trkpt>
      <trkpt lat="45.08821" lon="2.71335">
        <ele>1539.5</ele>
        <time>2000-01-01T06:24:45.000Z</time>
      </trkpt>
      <trkpt lat="45.08819" lon="2.7133">
        <ele>1538</ele>
        <time>2000-01-01T06:24:55.000Z</time>
      </trkpt>
      <trkpt lat="45.08817" lon="2.71326">
        <ele>1539.6</ele>
        <time>2000-01-01T06:25:05.000Z</time>
      </trkpt>
      <trkpt lat="45.08815" lon="2.71323">
        <ele>1540</ele>
        <time>2000-01-01T06:25:15.000Z</time>
      </trkpt>
      <trkpt lat="45.08813" lon="2.7132">
        <ele>1540.4</ele>
        <time>2000-01-01T06:25:25.000Z</time>
      </trkpt>
      <trkpt lat="45.08812" lon="2.71316">
        <ele>1540</ele>
        <time>2000-01-01T06:25:35.000Z</time>
      </trkpt>
      <trkpt lat="45.08811" lon="2.71313">
        <ele>1539.9</ele>
        <time>2000-01-01T06:25:45.000Z</time>
      </trkpt>
      <trkpt lat="45.08809" lon="2.71312">
        <ele>1540.7</ele>
        <time>2000-01-01T06:25:55.000Z</time>
      </trkpt>
      <trkpt lat="45.08806" lon="2.71309">
        <ele>1540</ele>
        <time>2000-01-01T06:26:05.000Z</time>
      </trkpt>
      <trkpt lat="45.08802" lon="2.71305">
        <ele>1542.4</ele>
        <time>2000-01-01T06:26:15.000Z</time>
      </trkpt>
      <trkpt lat="45.08799" lon="2.71301">
        <ele>1542.6</ele>
        <time>2000-01-01T06:26:25.000Z</time>
      </trkpt>
      <trkpt lat="45.08796" lon="2.71299">
        <ele>1543.4</ele>
        <time>2000-01-01T06:26:35.000Z</time>
      </trkpt>
      <trkpt lat="45.08793" lon="2.71296">
        <ele>1544</ele>
        <time>2000-01-01T06:26:45.000Z</time>
      </trkpt>
      <trkpt lat="45.0879" lon="2.71291">
        <ele>1542</ele>
        <time>2000-01-01T06:26:55.000Z</time>
      </trkpt>
      <trkpt lat="45.08788" lon="2.71289">
        <ele>1544.6</ele>
        <time>2000-01-01T06:27:05.000Z</time>
      </trkpt>
      <trkpt lat="45.08786" lon="2.71287">
        <ele>1545</ele>
        <time>2000-01-01T06:27:15.000Z</time>
      </trkpt>
      <trkpt lat="45.08784" lon="2.71283">
        <ele>1545.1</ele>
        <time>2000-01-01T06:27:25.000Z</time>
      </trkpt>
      <trkpt lat="45.08783" lon="2.71279">
        <ele>1544.6</ele>
        <time>2000-01-01T06:27:35.000Z</time>
      </trkpt>
      <trkpt lat="45.08781" lon="2.71275">
        <ele>1544.9</ele>
        <time>2000-01-01T06:27:45.000Z</time>
      </trkpt>
      <trkpt lat="45.08778" lon="2.7127">
        <ele>1543</ele>
        <time>2000-01-01T06:27:55.000Z</time>
      </trkpt>
      <trkpt lat="45.08774" lon="2.71263">
        <ele>1546.4</ele>
        <time>2000-01-01T06:28:05.000Z</time>
      </trkpt>
      <trkpt lat="45.08772" lon="2.7126">
        <ele>1547</ele>
        <time>2000-01-01T06:28:15.000Z</time>
      </trkpt>
      <trkpt lat="45.0877" lon="2.71257">
        <ele>1547.6</ele>
        <time>2000-01-01T06:28:25.000Z</time>
      </trkpt>
      <trkpt lat="45.08768" lon="2.71255">
        <ele>1548.4</ele>
        <time>2000-01-01T06:28:35.000Z</time>
      </trkpt>
      <trkpt lat="45.08766" lon="2.71249">
        <ele>1545</ele>
        <time>2000-01-01T06:28:45.000Z</time>
      </trkpt>
      <trkpt lat="45.08762" lon="2.71241">
        <ele>1549</ele>
        <time>2000-01-01T06:28:55.000Z</time>
      </trkpt>
      <trkpt lat="45.08761" lon="2.71239">
        <ele>1549</ele>
        <time>2000-01-01T06:29:05.000Z</time>
      </trkpt>
      <trkpt lat="45.0876" lon="2.71236">
        <ele>1548.9</ele>
        <time>2000-01-01T06:29:15.000Z</time>
      </trkpt>
      <trkpt lat="45.08753" lon="2.71225">
        <ele>1548</ele>
        <time>2000-01-01T06:29:25.000Z</time>
      </trkpt>
      <trkpt lat="45.08749" lon="2.7122">
        <ele>1550.7</ele>
        <time>2000-01-01T06:29:35.000Z</time>
      </trkpt>
      <trkpt lat="45.08747" lon="2.71217">
        <ele>1550.1</ele>
        <time>2000-01-01T06:29:45.000Z</time>
      </trkpt>
      <trkpt lat="45.08745" lon="2.71214">
        <ele>1549.5</ele>
        <time>2000-01-01T06:29:55.000Z</time>
      </trkpt>
      <trkpt lat="45.08743" lon="2.71213">
        <ele>1549.2</ele>
        <time>2000-01-01T06:30:05.000Z</time>
      </trkpt>
      <trkpt lat="45.08742" lon="2.71212">
        <ele>1548.9</ele>
        <time>2000-01-01T06:30:15.000Z</time>
      </trkpt>
      <trkpt lat="45.0874" lon="2.71212">
        <ele>1548.7</ele>
        <time>2000-01-01T06:30:25.000Z</time>
      </trkpt>
      <trkpt lat="45.08739" lon="2.71213">
        <ele>1548.9</ele>
        <time>2000-01-01T06:30:35.000Z</time>
      </trkpt>
      <trkpt lat="45.08737" lon="2.71214">
        <ele>1551</ele>
        <time>2000-01-01T06:30:45.000Z</time>
      </trkpt>
      <trkpt lat="45.08732" lon="2.71216">
        <ele>1549.2</ele>
        <time>2000-01-01T06:30:55.000Z</time>
      </trkpt>
      <trkpt lat="45.08726" lon="2.7122">
        <ele>1550.3</ele>
        <time>2000-01-01T06:31:05.000Z</time>
      </trkpt>
      <trkpt lat="45.08722" lon="2.71222">
        <ele>1550.8</ele>
        <time>2000-01-01T06:31:15.000Z</time>
      </trkpt>
      <trkpt lat="45.08721" lon="2.71224">
        <ele>1550.9</ele>
        <time>2000-01-01T06:31:25.000Z</time>
      </trkpt>
      <trkpt lat="45.0872" lon="2.71226">
        <ele>1550.5</ele>
        <time>2000-01-01T06:31:35.000Z</time>
      </trkpt>
      <trkpt lat="45.0872" lon="2.71229">
        <ele>1552</ele>
        <time>2000-01-01T06:31:45.000Z</time>
      </trkpt>
      <trkpt lat="45.08718" lon="2.7123">
        <ele>1551.3</ele>
        <time>2000-01-01T06:31:55.000Z</time>
      </trkpt>
      <trkpt lat="45.08716" lon="2.71233">
        <ele>1551.4</ele>
        <time>2000-01-01T06:32:05.000Z</time>
      </trkpt>
      <trkpt lat="45.08715" lon="2.71235">
        <ele>1551.5</ele>
        <time>2000-01-01T06:32:15.000Z</time>
      </trkpt>
      <trkpt lat="45.08713" lon="2.71237">
        <ele>1551.3</ele>
        <time>2000-01-01T06:32:25.000Z</time>
      </trkpt>
      <trkpt lat="45.08711" lon="2.71239">
        <ele>1551.1</ele>
        <time>2000-01-01T06:32:35.000Z</time>
      </trkpt>
      <trkpt lat="45.08709" lon="2.71244">
        <ele>1551.8</ele>
        <time>2000-01-01T06:32:45.000Z</time>
      </trkpt>
      <trkpt lat="45.08708" lon="2.71245">
        <ele>1551.7</ele>
        <time>2000-01-01T06:32:55.000Z</time>
      </trkpt>
      <trkpt lat="45.08705" lon="2.71249">
        <ele>1550</ele>
        <time>2000-01-01T06:33:05.000Z</time>
      </trkpt>
      <trkpt lat="45.08701" lon="2.71253">
        <ele>1551.5</ele>
        <time>2000-01-01T06:33:15.000Z</time>
      </trkpt>
      <trkpt lat="45.08699" lon="2.71256">
        <ele>1551.7</ele>
        <time>2000-01-01T06:33:25.000Z</time>
      </trkpt>
      <trkpt lat="45.08693" lon="2.71262">
        <ele>1551.7</ele>
        <time>2000-01-01T06:33:35.000Z</time>
      </trkpt>
      <trkpt lat="45.08691" lon="2.71265">
        <ele>1552.4</ele>
        <time>2000-01-01T06:33:45.000Z</time>
      </trkpt>
      <trkpt lat="45.08689" lon="2.71267">
        <ele>1550</ele>
        <time>2000-01-01T06:33:55.000Z</time>
      </trkpt>
      <trkpt lat="45.08686" lon="2.71269">
        <ele>1553.1</ele>
        <time>2000-01-01T06:34:05.000Z</time>
      </trkpt>
      <trkpt lat="45.08684" lon="2.71272">
        <ele>1553.9</ele>
        <time>2000-01-01T06:34:15.000Z</time>
      </trkpt>
      <trkpt lat="45.08682" lon="2.71274">
        <ele>1554.4</ele>
        <time>2000-01-01T06:34:25.000Z</time>
      </trkpt>
      <trkpt lat="45.08681" lon="2.71274">
        <ele>1554.3</ele>
        <time>2000-01-01T06:34:35.000Z</time>
      </trkpt>
      <trkpt lat="45.0868" lon="2.71274">
        <ele>1554.1</ele>
        <time>2000-01-01T06:34:45.000Z</time>
      </trkpt>
      <trkpt lat="45.0868" lon="2.71274">
        <ele>1554.1</ele>
        <time>2000-01-01T06:34:55.000Z</time>
      </trkpt>
      <trkpt lat="45.08678" lon="2.71273">
        <ele>1553.6</ele>
        <time>2000-01-01T06:35:05.000Z</time>
      </trkpt>
      <trkpt lat="45.08676" lon="2.71273">
        <ele>1553.3</ele>
        <time>2000-01-01T06:35:15.000Z</time>
      </trkpt>
      <trkpt lat="45.0867" lon="2.71271">
        <ele>1550</ele>
        <time>2000-01-01T06:35:25.000Z</time>
      </trkpt>
      <trkpt lat="45.08666" lon="2.71269">
        <ele>1551</ele>
        <time>2000-01-01T06:35:35.000Z</time>
      </trkpt>
      <trkpt lat="45.0866" lon="2.71266">
        <ele>1551.8</ele>
        <time>2000-01-01T06:35:45.000Z</time>
      </trkpt>
      <trkpt lat="45.08657" lon="2.71264">
        <ele>1552</ele>
        <time>2000-01-01T06:35:55.000Z</time>
      </trkpt>
      <trkpt lat="45.08655" lon="2.71262">
        <ele>1551.9</ele>
        <time>2000-01-01T06:36:05.000Z</time>
      </trkpt>
      <trkpt lat="45.08652" lon="2.7126">
        <ele>1550</ele>
        <time>2000-01-01T06:36:15.000Z</time>
      </trkpt>
      <trkpt lat="45.08649" lon="2.71258">
        <ele>1552.4</ele>
        <time>2000-01-01T06:36:25.000Z</time>
      </trkpt>
      <trkpt lat="45.08647" lon="2.71255">
        <ele>1552</ele>
        <time>2000-01-01T06:36:35.000Z</time>
      </trkpt>
      <trkpt lat="45.08644" lon="2.71252">
        <ele>1552</ele>
        <time>2000-01-01T06:36:45.000Z</time>
      </trkpt>
      <trkpt lat="45.08641" lon="2.71248">
        <ele>1551.6</ele>
        <time>2000-01-01T06:36:55.000Z</time>
      </trkpt>
      <trkpt lat="45.08637" lon="2.71245">
        <ele>1552</ele>
        <time>2000-01-01T06:37:05.000Z</time>
      </trkpt>
      <trkpt lat="45.08636" lon="2.71243">
        <ele>1551</ele>
        <time>2000-01-01T06:37:15.000Z</time>
      </trkpt>
      <trkpt lat="45.08632" lon="2.71243">
        <ele>1553.5</ele>
        <time>2000-01-01T06:37:25.000Z</time>
      </trkpt>
      <trkpt lat="45.08631" lon="2.71243">
        <ele>1554</ele>
        <time>2000-01-01T06:37:35.000Z</time>
      </trkpt>
      <trkpt lat="45.08629" lon="2.71241">
        <ele>1554.1</ele>
        <time>2000-01-01T06:37:45.000Z</time>
      </trkpt>
      <trkpt lat="45.08626" lon="2.71238">
        <ele>1554.4</ele>
        <time>2000-01-01T06:37:55.000Z</time>
      </trkpt>
      <trkpt lat="45.08625" lon="2.71235">
        <ele>1553.9</ele>
        <time>2000-01-01T06:38:05.000Z</time>
      </trkpt>
      <trkpt lat="45.08621" lon="2.7123">
        <ele>1554</ele>
        <time>2000-01-01T06:38:15.000Z</time>
      </trkpt>
      <trkpt lat="45.08611" lon="2.71217">
        <ele>1551</ele>
        <time>2000-01-01T06:38:25.000Z</time>
      </trkpt>
      <trkpt lat="45.08608" lon="2.71213">
        <ele>1554.1</ele>
        <time>2000-01-01T06:38:35.000Z</time>
      </trkpt>
      <trkpt lat="45.08604" lon="2.71208">
        <ele>1553.6</ele>
        <time>2000-01-01T06:38:45.000Z</time>
      </trkpt>
      <trkpt lat="45.08603" lon="2.71207">
        <ele>1553.5</ele>
        <time>2000-01-01T06:38:55.000Z</time>
      </trkpt>
      <trkpt lat="45.08601" lon="2.71206">
        <ele>1553.7</ele>
        <time>2000-01-01T06:39:05.000Z</time>
      </trkpt>
      <trkpt lat="45.08597" lon="2.71204">
        <ele>1554</ele>
        <time>2000-01-01T06:39:15.000Z</time>
      </trkpt>
      <trkpt lat="45.08589" lon="2.71202">
        <ele>1554</ele>
        <time>2000-01-01T06:39:25.000Z</time>
      </trkpt>
      <trkpt lat="45.08585" lon="2.71202">
        <ele>1556.4</ele>
        <time>2000-01-01T06:39:35.000Z</time>
      </trkpt>
      <trkpt lat="45.0858" lon="2.71203">
        <ele>1557.2</ele>
        <time>2000-01-01T06:39:45.000Z</time>
      </trkpt>
      <trkpt lat="45.08577" lon="2.71203">
        <ele>1557.1</ele>
        <time>2000-01-01T06:39:55.000Z</time>
      </trkpt>
      <trkpt lat="45.08574" lon="2.71205">
        <ele>1558</ele>
        <time>2000-01-01T06:40:05.000Z</time>
      </trkpt>
      <trkpt lat="45.08572" lon="2.71205">
        <ele>1557.9</ele>
        <time>2000-01-01T06:40:15.000Z</time>
      </trkpt>
      <trkpt lat="45.0857" lon="2.71205">
        <ele>1555</ele>
        <time>2000-01-01T06:40:25.000Z</time>
      </trkpt>
      <trkpt lat="45.08566" lon="2.71205">
        <ele>1557.7</ele>
        <time>2000-01-01T06:40:35.000Z</time>
      </trkpt>
      <trkpt lat="45.08564" lon="2.71204">
        <ele>1557.1</ele>
        <time>2000-01-01T06:40:45.000Z</time>
      </trkpt>
      <trkpt lat="45.08559" lon="2.71203">
        <ele>1556.4</ele>
        <time>2000-01-01T06:40:55.000Z</time>
      </trkpt>
      <trkpt lat="45.08549" lon="2.71203">
        <ele>1555</ele>
        <time>2000-01-01T06:41:05.000Z</time>
      </trkpt>
      <trkpt lat="45.08544" lon="2.71203">
        <ele>1555.6</ele>
        <time>2000-01-01T06:41:15.000Z</time>
      </trkpt>
      <trkpt lat="45.08537" lon="2.71203">
        <ele>1555.2</ele>
        <time>2000-01-01T06:41:25.000Z</time>
      </trkpt>
      <trkpt lat="45.08532" lon="2.71203">
        <ele>1554.9</ele>
        <time>2000-01-01T06:41:35.000Z</time>
      </trkpt>
      <trkpt lat="45.08527" lon="2.71203">
        <ele>1555</ele>
        <time>2000-01-01T06:41:45.000Z</time>
      </trkpt>
      <trkpt lat="45.08523" lon="2.712">
        <ele>1555.1</ele>
        <time>2000-01-01T06:41:55.000Z</time>
      </trkpt>
      <trkpt lat="45.08519" lon="2.71198">
        <ele>1555.8</ele>
        <time>2000-01-01T06:42:05.000Z</time>
      </trkpt>
      <trkpt lat="45.08517" lon="2.71195">
        <ele>1555.5</ele>
        <time>2000-01-01T06:42:15.000Z</time>
      </trkpt>
      <trkpt lat="45.08515" lon="2.71192">
        <ele>1555.3</ele>
        <time>2000-01-01T06:42:25.000Z</time>
      </trkpt>
      <trkpt lat="45.08512" lon="2.71186">
        <ele>1554.5</ele>
        <time>2000-01-01T06:42:35.000Z</time>
      </trkpt>
      <trkpt lat="45.0851" lon="2.71181">
        <ele>1554.1</ele>
        <time>2000-01-01T06:42:45.000Z</time>
      </trkpt>
      <trkpt lat="45.08507" lon="2.71177">
        <ele>1554.4</ele>
        <time>2000-01-01T06:42:55.000Z</time>
      </trkpt>
      <trkpt lat="45.08504" lon="2.71171">
        <ele>1554.1</ele>
        <time>2000-01-01T06:43:05.000Z</time>
      </trkpt>
      <trkpt lat="45.085" lon="2.71165">
        <ele>1554</ele>
        <time>2000-01-01T06:43:15.000Z</time>
      </trkpt>
      <trkpt lat="45.08497" lon="2.7116">
        <ele>1554.6</ele>
        <time>2000-01-01T06:43:25.000Z</time>
      </trkpt>
      <trkpt lat="45.08494" lon="2.71155">
        <ele>1554.4</ele>
        <time>2000-01-01T06:43:35.000Z</time>
      </trkpt>
      <trkpt lat="45.08487" lon="2.71144">
        <ele>1554</ele>
        <time>2000-01-01T06:43:45.000Z</time>
      </trkpt>
      <trkpt lat="45.08483" lon="2.71141">
        <ele>1554.7</ele>
        <time>2000-01-01T06:43:55.000Z</time>
      </trkpt>
      <trkpt lat="45.08481" lon="2.71139">
        <ele>1554.8</ele>
        <time>2000-01-01T06:44:05.000Z</time>
      </trkpt>
      <trkpt lat="45.0848" lon="2.71135">
        <ele>1554.6</ele>
        <time>2000-01-01T06:44:15.000Z</time>
      </trkpt>
      <trkpt lat="45.08479" lon="2.71131">
        <ele>1554.4</ele>
        <time>2000-01-01T06:44:25.000Z</time>
      </trkpt>
      <trkpt lat="45.08477" lon="2.71128">
        <ele>1554.7</ele>
        <time>2000-01-01T06:44:35.000Z</time>
      </trkpt>
      <trkpt lat="45.08475" lon="2.71124">
        <ele>1555</ele>
        <time>2000-01-01T06:44:45.000Z</time>
      </trkpt>
      <trkpt lat="45.08473" lon="2.7112">
        <ele>1554</ele>
        <time>2000-01-01T06:44:55.000Z</time>
      </trkpt>
      <trkpt lat="45.08471" lon="2.71117">
        <ele>1555.7</ele>
        <time>2000-01-01T06:45:05.000Z</time>
      </trkpt>
      <trkpt lat="45.08466" lon="2.71111">
        <ele>1556.3</ele>
        <time>2000-01-01T06:45:15.000Z</time>
      </trkpt>
      <trkpt lat="45.08461" lon="2.71108">
        <ele>1556.8</ele>
        <time>2000-01-01T06:45:25.000Z</time>
      </trkpt>
      <trkpt lat="45.08457" lon="2.71104">
        <ele>1556</ele>
        <time>2000-01-01T06:45:35.000Z</time>
      </trkpt>
      <trkpt lat="45.08451" lon="2.711">
        <ele>1557</ele>
        <time>2000-01-01T06:45:45.000Z</time>
      </trkpt>
      <trkpt lat="45.08447" lon="2.71097">
        <ele>1557</ele>
        <time>2000-01-01T06:45:55.000Z</time>
      </trkpt>
      <trkpt lat="45.08444" lon="2.71095">
        <ele>1557</ele>
        <time>2000-01-01T06:46:05.000Z</time>
      </trkpt>
      <trkpt lat="45.08441" lon="2.71093">
        <ele>1557.1</ele>
        <time>2000-01-01T06:46:15.000Z</time>
      </trkpt>
      <trkpt lat="45.08437" lon="2.71091">
        <ele>1556</ele>
        <time>2000-01-01T06:46:25.000Z</time>
      </trkpt>
      <trkpt lat="45.08433" lon="2.71089">
        <ele>1557.3</ele>
        <time>2000-01-01T06:46:35.000Z</time>
      </trkpt>
      <trkpt lat="45.08431" lon="2.71087">
        <ele>1557.1</ele>
        <time>2000-01-01T06:46:45.000Z</time>
      </trkpt>
      <trkpt lat="45.08424" lon="2.71082">
        <ele>1556.5</ele>
        <time>2000-01-01T06:46:55.000Z</time>
      </trkpt>
      <trkpt lat="45.0842" lon="2.7108">
        <ele>1556.5</ele>
        <time>2000-01-01T06:47:05.000Z</time>
      </trkpt>
      <trkpt lat="45.08415" lon="2.71078">
        <ele>1556</ele>
        <time>2000-01-01T06:47:15.000Z</time>
      </trkpt>
      <trkpt lat="45.08411" lon="2.71076">
        <ele>1556.4</ele>
        <time>2000-01-01T06:47:25.000Z</time>
      </trkpt>
      <trkpt lat="45.08407" lon="2.71073">
        <ele>1555.9</ele>
        <time>2000-01-01T06:47:35.000Z</time>
      </trkpt>
      <trkpt lat="45.08401" lon="2.71069">
        <ele>1555.3</ele>
        <time>2000-01-01T06:47:45.000Z</time>
      </trkpt>
      <trkpt lat="45.08399" lon="2.71067">
        <ele>1554.9</ele>
        <time>2000-01-01T06:47:55.000Z</time>
      </trkpt>
      <trkpt lat="45.08395" lon="2.71067">
        <ele>1555</ele>
        <time>2000-01-01T06:48:05.000Z</time>
      </trkpt>
      <trkpt lat="45.08392" lon="2.71066">
        <ele>1555.4</ele>
        <time>2000-01-01T06:48:15.000Z</time>
      </trkpt>
      <trkpt lat="45.08387" lon="2.71064">
        <ele>1555.8</ele>
        <time>2000-01-01T06:48:25.000Z</time>
      </trkpt>
      <trkpt lat="45.08383" lon="2.71061">
        <ele>1556.3</ele>
        <time>2000-01-01T06:48:35.000Z</time>
      </trkpt>
      <trkpt lat="45.08379" lon="2.71059">
        <ele>1557.1</ele>
        <time>2000-01-01T06:48:45.000Z</time>
      </trkpt>
      <trkpt lat="45.08377" lon="2.71056">
        <ele>1555</ele>
        <time>2000-01-01T06:48:55.000Z</time>
      </trkpt>
      <trkpt lat="45.08375" lon="2.71053">
        <ele>1556.9</ele>
        <time>2000-01-01T06:49:05.000Z</time>
      </trkpt>
      <trkpt lat="45.08373" lon="2.7105">
        <ele>1556.9</ele>
        <time>2000-01-01T06:49:15.000Z</time>
      </trkpt>
      <trkpt lat="45.08368" lon="2.71042">
        <ele>1556.6</ele>
        <time>2000-01-01T06:49:25.000Z</time>
      </trkpt>
      <trkpt lat="45.08364" lon="2.71035">
        <ele>1555</ele>
        <time>2000-01-01T06:49:35.000Z</time>
      </trkpt>
      <trkpt lat="45.0836" lon="2.7103">
        <ele>1556.2</ele>
        <time>2000-01-01T06:49:45.000Z</time>
      </trkpt>
      <trkpt lat="45.08358" lon="2.71028">
        <ele>1556.6</ele>
        <time>2000-01-01T06:49:55.000Z</time>
      </trkpt>
      <trkpt lat="45.08357" lon="2.71026">
        <ele>1556.6</ele>
        <time>2000-01-01T06:50:05.000Z</time>
      </trkpt>
      <trkpt lat="45.08355" lon="2.71023">
        <ele>1556.8</ele>
        <time>2000-01-01T06:50:15.000Z</time>
      </trkpt>
      <trkpt lat="45.08353" lon="2.71019">
        <ele>1556.8</ele>
        <time>2000-01-01T06:50:25.000Z</time>
      </trkpt>
      <trkpt lat="45.08346" lon="2.71009">
        <ele>1556</ele>
        <time>2000-01-01T06:50:35.000Z</time>
      </trkpt>
      <trkpt lat="45.08342" lon="2.71005">
        <ele>1558.3</ele>
        <time>2000-01-01T06:50:45.000Z</time>
      </trkpt>
      <trkpt lat="45.08337" lon="2.71">
        <ele>1559.3</ele>
        <time>2000-01-01T06:50:55.000Z</time>
      </trkpt>
      <trkpt lat="45.08334" lon="2.70997">
        <ele>1559.8</ele>
        <time>2000-01-01T06:51:05.000Z</time>
      </trkpt>
      <trkpt lat="45.08331" lon="2.70994">
        <ele>1558</ele>
        <time>2000-01-01T06:51:15.000Z</time>
      </trkpt>
      <trkpt lat="45.08326" lon="2.70992">
        <ele>1560</ele>
        <time>2000-01-01T06:51:25.000Z</time>
      </trkpt>
      <trkpt lat="45.08321" lon="2.7099">
        <ele>1560.3</ele>
        <time>2000-01-01T06:51:35.000Z</time>
      </trkpt>
      <trkpt lat="45.08317" lon="2.70988">
        <ele>1560.5</ele>
        <time>2000-01-01T06:51:45.000Z</time>
      </trkpt>
      <trkpt lat="45.08308" lon="2.70984">
        <ele>1560</ele>
        <time>2000-01-01T06:51:55.000Z</time>
      </trkpt>
      <trkpt lat="45.08296" lon="2.70979">
        <ele>1561.5</ele>
        <time>2000-01-01T06:52:05.000Z</time>
      </trkpt>
      <trkpt lat="45.08293" lon="2.70977">
        <ele>1561.5</ele>
        <time>2000-01-01T06:52:15.000Z</time>
      </trkpt>
      <trkpt lat="45.08288" lon="2.70973">
        <ele>1560</ele>
        <time>2000-01-01T06:52:25.000Z</time>
      </trkpt>
      <trkpt lat="45.08282" lon="2.70969">
        <ele>1561.5</ele>
        <time>2000-01-01T06:52:35.000Z</time>
      </trkpt>
      <trkpt lat="45.0828" lon="2.70967">
        <ele>1561.4</ele>
        <time>2000-01-01T06:52:45.000Z</time>
      </trkpt>
      <trkpt lat="45.08277" lon="2.70964">
        <ele>1561.4</ele>
        <time>2000-01-01T06:52:55.000Z</time>
      </trkpt>
      <trkpt lat="45.08274" lon="2.7096">
        <ele>1561.3</ele>
        <time>2000-01-01T06:53:05.000Z</time>
      </trkpt>
      <trkpt lat="45.0827" lon="2.70957">
        <ele>1560</ele>
        <time>2000-01-01T06:53:15.000Z</time>
      </trkpt>
      <trkpt lat="45.08268" lon="2.70954">
        <ele>1561.7</ele>
        <time>2000-01-01T06:53:25.000Z</time>
      </trkpt>
      <trkpt lat="45.08267" lon="2.70952">
        <ele>1561.7</ele>
        <time>2000-01-01T06:53:35.000Z</time>
      </trkpt>
      <trkpt lat="45.08266" lon="2.7095">
        <ele>1561.7</ele>
        <time>2000-01-01T06:53:45.000Z</time>
      </trkpt>
      <trkpt lat="45.08263" lon="2.70945">
        <ele>1561.9</ele>
        <time>2000-01-01T06:53:55.000Z</time>
      </trkpt>
      <trkpt lat="45.08256" lon="2.70936">
        <ele>1560</ele>
        <time>2000-01-01T06:54:05.000Z</time>
      </trkpt>
      <trkpt lat="45.08249" lon="2.70926">
        <ele>1564.3</ele>
        <time>2000-01-01T06:54:15.000Z</time>
      </trkpt>
      <trkpt lat="45.08244" lon="2.70921">
        <ele>1565.4</ele>
        <time>2000-01-01T06:54:25.000Z</time>
      </trkpt>
      <trkpt lat="45.08244" lon="2.70919">
        <ele>1565.2</ele>
        <time>2000-01-01T06:54:35.000Z</time>
      </trkpt>
      <trkpt lat="45.08244" lon="2.70903">
        <ele>1563</ele>
        <time>2000-01-01T06:54:45.000Z</time>
      </trkpt>
      <trkpt lat="45.08246" lon="2.70892">
        <ele>1561.8</ele>
        <time>2000-01-01T06:54:55.000Z</time>
      </trkpt>
      <trkpt lat="45.08247" lon="2.70878">
        <ele>1559.9</ele>
        <time>2000-01-01T06:55:05.000Z</time>
      </trkpt>
      <trkpt lat="45.08248" lon="2.70863">
        <ele>1560.5</ele>
        <time>2000-01-01T06:55:15.000Z</time>
      </trkpt>
      <trkpt lat="45.08248" lon="2.70862">
        <ele>1557.9</ele>
        <time>2000-01-01T06:55:25.000Z</time>
      </trkpt>
      <trkpt lat="45.08248" lon="2.70862">
        <ele>1557.9</ele>
        <time>2000-01-01T06:55:35.000Z</time>
      </trkpt>
      <trkpt lat="45.08248" lon="2.7086">
        <ele>1557.7</ele>
        <time>2000-01-01T06:55:45.000Z</time>
      </trkpt>
      <trkpt lat="45.0825" lon="2.70855">
        <ele>1556.6</ele>
        <time>2000-01-01T06:55:55.000Z</time>
      </trkpt>
      <trkpt lat="45.08252" lon="2.70848">
        <ele>1555.3</ele>
        <time>2000-01-01T06:56:05.000Z</time>
      </trkpt>
      <trkpt lat="45.08254" lon="2.70837">
        <ele>1558</ele>
        <time>2000-01-01T06:56:15.000Z</time>
      </trkpt>
      <trkpt lat="45.08255" lon="2.70834">
        <ele>1553.1</ele>
        <time>2000-01-01T06:56:25.000Z</time>
      </trkpt>
      <trkpt lat="45.08257" lon="2.70826">
        <ele>1551.5</ele>
        <time>2000-01-01T06:56:35.000Z</time>
      </trkpt>
      <trkpt lat="45.08258" lon="2.70818">
        <ele>1550.3</ele>
        <time>2000-01-01T06:56:45.000Z</time>
      </trkpt>
      <trkpt lat="45.08258" lon="2.70813">
        <ele>1549.8</ele>
        <time>2000-01-01T06:56:55.000Z</time>
      </trkpt>
      <trkpt lat="45.0826" lon="2.70797">
        <ele>1553</ele>
        <time>2000-01-01T06:57:05.000Z</time>
      </trkpt>
      <trkpt lat="45.08262" lon="2.70785">
        <ele>1546.3</ele>
        <time>2000-01-01T06:57:15.000Z</time>
      </trkpt>
      <trkpt lat="45.08264" lon="2.70776">
        <ele>1544.9</ele>
        <time>2000-01-01T06:57:25.000Z</time>
      </trkpt>
      <trkpt lat="45.08267" lon="2.7077">
        <ele>1547</ele>
        <time>2000-01-01T06:57:35.000Z</time>
      </trkpt>
      <trkpt lat="45.0827" lon="2.70764">
        <ele>1541.7</ele>
        <time>2000-01-01T06:57:45.000Z</time>
      </trkpt>
      <trkpt lat="45.08278" lon="2.7075">
        <ele>1537.9</ele>
        <time>2000-01-01T06:57:55.000Z</time>
      </trkpt>
      <trkpt lat="45.08283" lon="2.7074">
        <ele>1541</ele>
        <time>2000-01-01T06:58:05.000Z</time>
      </trkpt>
      <trkpt lat="45.08286" lon="2.70734">
        <ele>1533.7</ele>
        <time>2000-01-01T06:58:15.000Z</time>
      </trkpt>
      <trkpt lat="45.08287" lon="2.70728">
        <ele>1533.2</ele>
        <time>2000-01-01T06:58:25.000Z</time>
      </trkpt>
      <trkpt lat="45.08287" lon="2.7072">
        <ele>1532.9</ele>
        <time>2000-01-01T06:58:35.000Z</time>
      </trkpt>
      <trkpt lat="45.08287" lon="2.70716">
        <ele>1532.6</ele>
        <time>2000-01-01T06:58:45.000Z</time>
      </trkpt>
      <trkpt lat="45.08289" lon="2.70707">
        <ele>1535</ele>
        <time>2000-01-01T06:58:55.000Z</time>
      </trkpt>
      <trkpt lat="45.08291" lon="2.70699">
        <ele>1530.4</ele>
        <time>2000-01-01T06:59:05.000Z</time>
      </trkpt>
      <trkpt lat="45.08292" lon="2.7069">
        <ele>1529</ele>
        <time>2000-01-01T06:59:15.000Z</time>
      </trkpt>
      <trkpt lat="45.08292" lon="2.70684">
        <ele>1527.7</ele>
        <time>2000-01-01T06:59:25.000Z</time>
      </trkpt>
      <trkpt lat="45.08289" lon="2.70673">
        <ele>1532</ele>
        <time>2000-01-01T06:59:35.000Z</time>
      </trkpt>
      <trkpt lat="45.08288" lon="2.70671">
        <ele>1525.7</ele>
        <time>2000-01-01T06:59:45.000Z</time>
      </trkpt>
      <trkpt lat="45.08285" lon="2.70662">
        <ele>1524.5</ele>
        <time>2000-01-01T06:59:55.000Z</time>
      </trkpt>
      <trkpt lat="45.08284" lon="2.7066">
        <ele>1524.3</ele>
        <time>2000-01-01T07:00:05.000Z</time>
      </trkpt>
      <trkpt lat="45.08284" lon="2.70656">
        <ele>1523.6</ele>
        <time>2000-01-01T07:00:15.000Z</time>
      </trkpt>
      <trkpt lat="45.08287" lon="2.70647">
        <ele>1526</ele>
        <time>2000-01-01T07:00:25.000Z</time>
      </trkpt>
      <trkpt lat="45.0829" lon="2.70638">
        <ele>1518.4</ele>
        <time>2000-01-01T07:00:35.000Z</time>
      </trkpt>
      <trkpt lat="45.08294" lon="2.7063">
        <ele>1516.1</ele>
        <time>2000-01-01T07:00:45.000Z</time>
      </trkpt>
      <trkpt lat="45.08295" lon="2.70626">
        <ele>1515.2</ele>
        <time>2000-01-01T07:00:55.000Z</time>
      </trkpt>
      <trkpt lat="45.08295" lon="2.70623">
        <ele>1521</ele>
        <time>2000-01-01T07:01:05.000Z</time>
      </trkpt>
      <trkpt lat="45.08295" lon="2.70614">
        <ele>1513.6</ele>
        <time>2000-01-01T07:01:15.000Z</time>
      </trkpt>
      <trkpt lat="45.08296" lon="2.70606">
        <ele>1512.2</ele>
        <time>2000-01-01T07:01:25.000Z</time>
      </trkpt>
      <trkpt lat="45.08295" lon="2.70596">
        <ele>1515</ele>
        <time>2000-01-01T07:01:35.000Z</time>
      </trkpt>
      <trkpt lat="45.08296" lon="2.70591">
        <ele>1510.4</ele>
        <time>2000-01-01T07:01:45.000Z</time>
      </trkpt>
      <trkpt lat="45.08296" lon="2.7058">
        <ele>1509.1</ele>
        <time>2000-01-01T07:01:55.000Z</time>
      </trkpt>
      <trkpt lat="45.08296" lon="2.70574">
        <ele>1508.5</ele>
        <time>2000-01-01T07:02:05.000Z</time>
      </trkpt>
      <trkpt lat="45.08296" lon="2.70565">
        <ele>1512</ele>
        <time>2000-01-01T07:02:15.000Z</time>
      </trkpt>
      <trkpt lat="45.08296" lon="2.70559">
        <ele>1507.1</ele>
        <time>2000-01-01T07:02:25.000Z</time>
      </trkpt>
      <trkpt lat="45.08297" lon="2.70552">
        <ele>1505.9</ele>
        <time>2000-01-01T07:02:35.000Z</time>
      </trkpt>
      <trkpt lat="45.08298" lon="2.70544">
        <ele>1504.4</ele>
        <time>2000-01-01T07:02:45.000Z</time>
      </trkpt>
      <trkpt lat="45.08298" lon="2.70538">
        <ele>1503.5</ele>
        <time>2000-01-01T07:02:55.000Z</time>
      </trkpt>
      <trkpt lat="45.08299" lon="2.70531">
        <ele>1507</ele>
        <time>2000-01-01T07:03:05.000Z</time>
      </trkpt>
      <trkpt lat="45.08299" lon="2.70529">
        <ele>1501.8</ele>
        <time>2000-01-01T07:03:15.000Z</time>
      </trkpt>
      <trkpt lat="45.08299" lon="2.70526">
        <ele>1501.3</ele>
        <time>2000-01-01T07:03:25.000Z</time>
      </trkpt>
      <trkpt lat="45.08298" lon="2.70522">
        <ele>1500.7</ele>
        <time>2000-01-01T07:03:35.000Z</time>
      </trkpt>
      <trkpt lat="45.08298" lon="2.70521">
        <ele>1500.4</ele>
        <time>2000-01-01T07:03:45.000Z</time>
      </trkpt>
      <trkpt lat="45.08298" lon="2.70517">
        <ele>1499.6</ele>
        <time>2000-01-01T07:03:55.000Z</time>
      </trkpt>
      <trkpt lat="45.08299" lon="2.70508">
        <ele>1497.4</ele>
        <time>2000-01-01T07:04:05.000Z</time>
      </trkpt>
      <trkpt lat="45.083" lon="2.70504">
        <ele>1502</ele>
        <time>2000-01-01T07:04:15.000Z</time>
      </trkpt>
      <trkpt lat="45.083" lon="2.70502">
        <ele>1495.8</ele>
        <time>2000-01-01T07:04:25.000Z</time>
      </trkpt>
      <trkpt lat="45.083" lon="2.70499">
        <ele>1495.2</ele>
        <time>2000-01-01T07:04:35.000Z</time>
      </trkpt>
      <trkpt lat="45.083" lon="2.70492">
        <ele>1493.9</ele>
        <time>2000-01-01T07:04:45.000Z</time>
      </trkpt>
      <trkpt lat="45.083" lon="2.70489">
        <ele>1493.3</ele>
        <time>2000-01-01T07:04:55.000Z</time>
      </trkpt>
      <trkpt lat="45.083" lon="2.70485">
        <ele>1492.6</ele>
        <time>2000-01-01T07:05:05.000Z</time>
      </trkpt>
      <trkpt lat="45.08299" lon="2.70482">
        <ele>1492.3</ele>
        <time>2000-01-01T07:05:15.000Z</time>
      </trkpt>
      <trkpt lat="45.08298" lon="2.70477">
        <ele>1495</ele>
        <time>2000-01-01T07:05:25.000Z</time>
      </trkpt>
      <trkpt lat="45.08297" lon="2.70473">
        <ele>1491</ele>
        <time>2000-01-01T07:05:35.000Z</time>
      </trkpt>
      <trkpt lat="45.08295" lon="2.70466">
        <ele>1489.9</ele>
        <time>2000-01-01T07:05:45.000Z</time>
      </trkpt>
      <trkpt lat="45.08293" lon="2.70461">
        <ele>1489.1</ele>
        <time>2000-01-01T07:05:55.000Z</time>
      </trkpt>
      <trkpt lat="45.08288" lon="2.70449">
        <ele>1491</ele>
        <time>2000-01-01T07:06:05.000Z</time>
      </trkpt>
      <trkpt lat="45.08284" lon="2.70441">
        <ele>1486.2</ele>
        <time>2000-01-01T07:06:15.000Z</time>
      </trkpt>
      <trkpt lat="45.08282" lon="2.70435">
        <ele>1485.3</ele>
        <time>2000-01-01T07:06:25.000Z</time>
      </trkpt>
      <trkpt lat="45.08279" lon="2.70428">
        <ele>1484.3</ele>
        <time>2000-01-01T07:06:35.000Z</time>
      </trkpt>
      <trkpt lat="45.08275" lon="2.7042">
        <ele>1487</ele>
        <time>2000-01-01T07:06:45.000Z</time>
      </trkpt>
      <trkpt lat="45.08274" lon="2.70415">
        <ele>1482.4</ele>
        <time>2000-01-01T07:06:55.000Z</time>
      </trkpt>
      <trkpt lat="45.08273" lon="2.70412">
        <ele>1482</ele>
        <time>2000-01-01T07:07:05.000Z</time>
      </trkpt>
      <trkpt lat="45.08271" lon="2.70406">
        <ele>1481.2</ele>
        <time>2000-01-01T07:07:15.000Z</time>
      </trkpt>
      <trkpt lat="45.0827" lon="2.70398">
        <ele>1479.9</ele>
        <time>2000-01-01T07:07:25.000Z</time>
      </trkpt>
      <trkpt lat="45.08269" lon="2.70394">
        <ele>1483</ele>
        <time>2000-01-01T07:07:35.000Z</time>
      </trkpt>
      <trkpt lat="45.08269" lon="2.7039">
        <ele>1478.5</ele>
        <time>2000-01-01T07:07:45.000Z</time>
      </trkpt>
      <trkpt lat="45.08267" lon="2.70379">
        <ele>1476.3</ele>
        <time>2000-01-01T07:07:55.000Z</time>
      </trkpt>
      <trkpt lat="45.08266" lon="2.70376">
        <ele>1475.7</ele>
        <time>2000-01-01T07:08:05.000Z</time>
      </trkpt>
      <trkpt lat="45.08264" lon="2.70365">
        <ele>1479</ele>
        <time>2000-01-01T07:08:15.000Z</time>
      </trkpt>
      <trkpt lat="45.08263" lon="2.70364">
        <ele>1473.3</ele>
        <time>2000-01-01T07:08:25.000Z</time>
      </trkpt>
      <trkpt lat="45.08261" lon="2.70356">
        <ele>1471.7</ele>
        <time>2000-01-01T07:08:35.000Z</time>
      </trkpt>
      <trkpt lat="45.08261" lon="2.70353">
        <ele>1471.1</ele>
        <time>2000-01-01T07:08:45.000Z</time>
      </trkpt>
      <trkpt lat="45.0826" lon="2.70345">
        <ele>1469.4</ele>
        <time>2000-01-01T07:08:55.000Z</time>
      </trkpt>
      <trkpt lat="45.08259" lon="2.70342">
        <ele>1468.9</ele>
        <time>2000-01-01T07:09:05.000Z</time>
      </trkpt>
      <trkpt lat="45.08259" lon="2.70338">
        <ele>1473</ele>
        <time>2000-01-01T07:09:15.000Z</time>
      </trkpt>
      <trkpt lat="45.08258" lon="2.70334">
        <ele>1467.3</ele>
        <time>2000-01-01T07:09:25.000Z</time>
      </trkpt>
      <trkpt lat="45.08255" lon="2.70326">
        <ele>1465.9</ele>
        <time>2000-01-01T07:09:35.000Z</time>
      </trkpt>
      <trkpt lat="45.08254" lon="2.70323">
        <ele>1465.4</ele>
        <time>2000-01-01T07:09:45.000Z</time>
      </trkpt>
      <trkpt lat="45.08253" lon="2.70321">
        <ele>1465.1</ele>
        <time>2000-01-01T07:09:55.000Z</time>
      </trkpt>
      <trkpt lat="45.08249" lon="2.70311">
        <ele>1468</ele>
        <time>2000-01-01T07:10:05.000Z</time>
      </trkpt>
      <trkpt lat="45.08248" lon="2.70309">
        <ele>1462.7</ele>
        <time>2000-01-01T07:10:15.000Z</time>
      </trkpt>
      <trkpt lat="45.08244" lon="2.703">
        <ele>1460.6</ele>
        <time>2000-01-01T07:10:25.000Z</time>
      </trkpt>
      <trkpt lat="45.08243" lon="2.70298">
        <ele>1460.1</ele>
        <time>2000-01-01T07:10:35.000Z</time>
      </trkpt>
      <trkpt lat="45.08242" lon="2.70294">
        <ele>1459.2</ele>
        <time>2000-01-01T07:10:45.000Z</time>
      </trkpt>
      <trkpt lat="45.0824" lon="2.70291">
        <ele>1458.5</ele>
        <time>2000-01-01T07:10:55.000Z</time>
      </trkpt>
      <trkpt lat="45.08237" lon="2.70285">
        <ele>1463</ele>
        <time>2000-01-01T07:11:05.000Z</time>
      </trkpt>
      <trkpt lat="45.08235" lon="2.70281">
        <ele>1456.2</ele>
        <time>2000-01-01T07:11:15.000Z</time>
      </trkpt>
      <trkpt lat="45.08232" lon="2.7028">
        <ele>1455.8</ele>
        <time>2000-01-01T07:11:25.000Z</time>
      </trkpt>
      <trkpt lat="45.08229" lon="2.70278">
        <ele>1455.3</ele>
        <time>2000-01-01T07:11:35.000Z</time>
      </trkpt>
      <trkpt lat="45.08226" lon="2.70275">
        <ele>1454.7</ele>
        <time>2000-01-01T07:11:45.000Z</time>
      </trkpt>
      <trkpt lat="45.08223" lon="2.70273">
        <ele>1454.2</ele>
        <time>2000-01-01T07:11:55.000Z</time>
      </trkpt>
      <trkpt lat="45.08218" lon="2.7027">
        <ele>1457</ele>
        <time>2000-01-01T07:12:05.000Z</time>
      </trkpt>
      <trkpt lat="45.08212" lon="2.70264">
        <ele>1451.4</ele>
        <time>2000-01-01T07:12:15.000Z</time>
      </trkpt>
      <trkpt lat="45.08209" lon="2.7026">
        <ele>1450.2</ele>
        <time>2000-01-01T07:12:25.000Z</time>
      </trkpt>
      <trkpt lat="45.08207" lon="2.70257">
        <ele>1449.3</ele>
        <time>2000-01-01T07:12:35.000Z</time>
      </trkpt>
      <trkpt lat="45.08205" lon="2.70254">
        <ele>1448.4</ele>
        <time>2000-01-01T07:12:45.000Z</time>
      </trkpt>
      <trkpt lat="45.08199" lon="2.70245">
        <ele>1452</ele>
        <time>2000-01-01T07:12:55.000Z</time>
      </trkpt>
      <trkpt lat="45.08196" lon="2.70242">
        <ele>1444.5</ele>
        <time>2000-01-01T07:13:05.000Z</time>
      </trkpt>
      <trkpt lat="45.08193" lon="2.70239">
        <ele>1443.5</ele>
        <time>2000-01-01T07:13:15.000Z</time>
      </trkpt>
      <trkpt lat="45.0819" lon="2.70236">
        <ele>1442.7</ele>
        <time>2000-01-01T07:13:25.000Z</time>
      </trkpt>
      <trkpt lat="45.08188" lon="2.70232">
        <ele>1441.6</ele>
        <time>2000-01-01T07:13:35.000Z</time>
      </trkpt>
      <trkpt lat="45.08186" lon="2.7023">
        <ele>1440.9</ele>
        <time>2000-01-01T07:13:45.000Z</time>
      </trkpt>
      <trkpt lat="45.08184" lon="2.70228">
        <ele>1445</ele>
        <time>2000-01-01T07:13:55.000Z</time>
      </trkpt>
      <trkpt lat="45.08183" lon="2.70226">
        <ele>1439.7</ele>
        <time>2000-01-01T07:14:05.000Z</time>
      </trkpt>
      <trkpt lat="45.08176" lon="2.70225">
        <ele>1438.7</ele>
        <time>2000-01-01T07:14:15.000Z</time>
      </trkpt>
      <trkpt lat="45.08158" lon="2.70222">
        <ele>1440</ele>
        <time>2000-01-01T07:14:25.000Z</time>
      </trkpt>
      <trkpt lat="45.08132" lon="2.7022">
        <ele>1436</ele>
        <time>2000-01-01T07:14:35.000Z</time>
      </trkpt>
      <trkpt lat="45.08101" lon="2.70217">
        <ele>1434</ele>
        <time>2000-01-01T07:14:45.000Z</time>
      </trkpt>
      <trkpt lat="45.0808" lon="2.70208">
        <ele>1434</ele>
        <time>2000-01-01T07:14:55.000Z</time>
      </trkpt>
      <trkpt lat="45.08062" lon="2.70196">
        <ele>1433</ele>
        <time>2000-01-01T07:15:05.000Z</time>
      </trkpt>
      <trkpt lat="45.08051" lon="2.70194">
        <ele>1430.7</ele>
        <time>2000-01-01T07:15:15.000Z</time>
      </trkpt>
      <trkpt lat="45.08037" lon="2.70194">
        <ele>1431</ele>
        <time>2000-01-01T07:15:25.000Z</time>
      </trkpt>
      <trkpt lat="45.08008" lon="2.70196">
        <ele>1431</ele>
        <time>2000-01-01T07:15:35.000Z</time>
      </trkpt>
      <trkpt lat="45.07974" lon="2.70198">
        <ele>1431</ele>
        <time>2000-01-01T07:15:45.000Z</time>
      </trkpt>
      <trkpt lat="45.07934" lon="2.70207">
        <ele>1429</ele>
        <time>2000-01-01T07:15:55.000Z</time>
      </trkpt>
      <trkpt lat="45.07914" lon="2.70213">
        <ele>1429.5</ele>
        <time>2000-01-01T07:16:05.000Z</time>
      </trkpt>
      <trkpt lat="45.07889" lon="2.70216">
        <ele>1430</ele>
        <time>2000-01-01T07:16:15.000Z</time>
      </trkpt>
      <trkpt lat="45.07864" lon="2.70222">
        <ele>1431</ele>
        <time>2000-01-01T07:16:25.000Z</time>
      </trkpt>
      <trkpt lat="45.07835" lon="2.70229">
        <ele>1431</ele>
        <time>2000-01-01T07:16:35.000Z</time>
      </trkpt>
      <trkpt lat="45.07819" lon="2.70236">
        <ele>1435.4</ele>
        <time>2000-01-01T07:16:45.000Z</time>
      </trkpt>
      <trkpt lat="45.07796" lon="2.70244">
        <ele>1434</ele>
        <time>2000-01-01T07:16:55.000Z</time>
      </trkpt>
      <trkpt lat="45.0778" lon="2.70248">
        <ele>1435.6</ele>
        <time>2000-01-01T07:17:05.000Z</time>
      </trkpt>
      <trkpt lat="45.0778" lon="2.70248">
        <ele>1435.6</ele>
        <time>2000-01-01T07:17:15.000Z</time>
      </trkpt>
      <trkpt lat="45.0776" lon="2.70255">
        <ele>1435</ele>
        <time>2000-01-01T07:17:25.000Z</time>
      </trkpt>
      <trkpt lat="45.07746" lon="2.70257">
        <ele>1434.8</ele>
        <time>2000-01-01T07:17:35.000Z</time>
      </trkpt>
      <trkpt lat="45.07733" lon="2.7026">
        <ele>1434.5</ele>
        <time>2000-01-01T07:17:45.000Z</time>
      </trkpt>
      <trkpt lat="45.0772" lon="2.70263">
        <ele>1434.1</ele>
        <time>2000-01-01T07:17:55.000Z</time>
      </trkpt>
      <trkpt lat="45.07708" lon="2.70258">
        <ele>1434</ele>
        <time>2000-01-01T07:18:05.000Z</time>
      </trkpt>
      <trkpt lat="45.07699" lon="2.70252">
        <ele>1430.5</ele>
        <time>2000-01-01T07:18:15.000Z</time>
      </trkpt>
      <trkpt lat="45.07687" lon="2.70249">
        <ele>1432</ele>
        <time>2000-01-01T07:18:25.000Z</time>
      </trkpt>
      <trkpt lat="45.07679" lon="2.7024">
        <ele>1428.5</ele>
        <time>2000-01-01T07:18:35.000Z</time>
      </trkpt>
      <trkpt lat="45.07669" lon="2.7024">
        <ele>1431.5</ele>
        <time>2000-01-01T07:18:45.000Z</time>
      </trkpt>
      <trkpt lat="45.07663" lon="2.70236">
        <ele>1429.2</ele>
        <time>2000-01-01T07:18:55.000Z</time>
      </trkpt>
      <trkpt lat="45.07657" lon="2.70236">
        <ele>1429.5</ele>
        <time>2000-01-01T07:19:05.000Z</time>
      </trkpt>
      <trkpt lat="45.0765" lon="2.70238">
        <ele>1432.2</ele>
        <time>2000-01-01T07:19:15.000Z</time>
      </trkpt>
      <trkpt lat="45.07646" lon="2.70233">
        <ele>1430</ele>
        <time>2000-01-01T07:19:25.000Z</time>
      </trkpt>
      <trkpt lat="45.07637" lon="2.70224">
        <ele>1429.8</ele>
        <time>2000-01-01T07:19:35.000Z</time>
      </trkpt>
      <trkpt lat="45.07628" lon="2.70221">
        <ele>1431.1</ele>
        <time>2000-01-01T07:19:45.000Z</time>
      </trkpt>
      <trkpt lat="45.07614" lon="2.70219">
        <ele>1426.3</ele>
        <time>2000-01-01T07:19:55.000Z</time>
      </trkpt>
      <trkpt lat="45.07604" lon="2.70219">
        <ele>1430</ele>
        <time>2000-01-01T07:20:05.000Z</time>
      </trkpt>
      <trkpt lat="45.07599" lon="2.70211">
        <ele>1419.2</ele>
        <time>2000-01-01T07:20:15.000Z</time>
      </trkpt>
      <trkpt lat="45.07586" lon="2.70153">
        <ele>1424</ele>
        <time>2000-01-01T07:20:25.000Z</time>
      </trkpt>
      <trkpt lat="45.07574" lon="2.70132">
        <ele>1421</ele>
        <time>2000-01-01T07:20:35.000Z</time>
      </trkpt>
      <trkpt lat="45.07565" lon="2.70113">
        <ele>1416.7</ele>
        <time>2000-01-01T07:20:45.000Z</time>
      </trkpt>
      <trkpt lat="45.07554" lon="2.70103">
        <ele>1421</ele>
        <time>2000-01-01T07:20:55.000Z</time>
      </trkpt>
      <trkpt lat="45.07534" lon="2.70058">
        <ele>1413</ele>
        <time>2000-01-01T07:21:05.000Z</time>
      </trkpt>
      <trkpt lat="45.07523" lon="2.70045">
        <ele>1404.5</ele>
        <time>2000-01-01T07:21:15.000Z</time>
      </trkpt>
      <trkpt lat="45.07516" lon="2.69985">
        <ele>1407</ele>
        <time>2000-01-01T07:21:25.000Z</time>
      </trkpt>
      <trkpt lat="45.07499" lon="2.69977">
        <ele>1392.8</ele>
        <time>2000-01-01T07:21:35.000Z</time>
      </trkpt>
      <trkpt lat="45.07487" lon="2.69973">
        <ele>1394</ele>
        <time>2000-01-01T07:21:45.000Z</time>
      </trkpt>
      <trkpt lat="45.07477" lon="2.69965">
        <ele>1390.6</ele>
        <time>2000-01-01T07:21:55.000Z</time>
      </trkpt>
      <trkpt lat="45.07474" lon="2.69954">
        <ele>1391</ele>
        <time>2000-01-01T07:22:05.000Z</time>
      </trkpt>
      <trkpt lat="45.07475" lon="2.69943">
        <ele>1391.9</ele>
        <time>2000-01-01T07:22:15.000Z</time>
      </trkpt>
      <trkpt lat="45.07478" lon="2.69906">
        <ele>1393.5</ele>
        <time>2000-01-01T07:22:25.000Z</time>
      </trkpt>
      <trkpt lat="45.07477" lon="2.6988">
        <ele>1399</ele>
        <time>2000-01-01T07:22:35.000Z</time>
      </trkpt>
      <trkpt lat="45.07474" lon="2.69853">
        <ele>1396</ele>
        <time>2000-01-01T07:22:45.000Z</time>
      </trkpt>
      <trkpt lat="45.07468" lon="2.69825">
        <ele>1401</ele>
        <time>2000-01-01T07:22:55.000Z</time>
      </trkpt>
      <trkpt lat="45.07461" lon="2.69792">
        <ele>1402</ele>
        <time>2000-01-01T07:23:05.000Z</time>
      </trkpt>
      <trkpt lat="45.07455" lon="2.69758">
        <ele>1406</ele>
        <time>2000-01-01T07:23:15.000Z</time>
      </trkpt>
      <trkpt lat="45.07451" lon="2.69733">
        <ele>1408.3</ele>
        <time>2000-01-01T07:23:25.000Z</time>
      </trkpt>
      <trkpt lat="45.07449" lon="2.69725">
        <ele>1408</ele>
        <time>2000-01-01T07:23:35.000Z</time>
      </trkpt>
      <trkpt lat="45.07443" lon="2.69709">
        <ele>1408.9</ele>
        <time>2000-01-01T07:23:45.000Z</time>
      </trkpt>
      <trkpt lat="45.0744" lon="2.69707">
        <ele>1408.2</ele>
        <time>2000-01-01T07:23:55.000Z</time>
      </trkpt>
      <trkpt lat="45.07437" lon="2.69706">
        <ele>1410</ele>
        <time>2000-01-01T07:24:05.000Z</time>
      </trkpt>
      <trkpt lat="45.07429" lon="2.69712">
        <ele>1407.8</ele>
        <time>2000-01-01T07:24:15.000Z</time>
      </trkpt>
      <trkpt lat="45.07419" lon="2.6972">
        <ele>1409.5</ele>
        <time>2000-01-01T07:24:25.000Z</time>
      </trkpt>
      <trkpt lat="45.07395" lon="2.69731">
        <ele>1409</ele>
        <time>2000-01-01T07:24:35.000Z</time>
      </trkpt>
      <trkpt lat="45.07369" lon="2.69743">
        <ele>1407</ele>
        <time>2000-01-01T07:24:45.000Z</time>
      </trkpt>
      <trkpt lat="45.07361" lon="2.69749">
        <ele>1404.6</ele>
        <time>2000-01-01T07:24:55.000Z</time>
      </trkpt>
      <trkpt lat="45.0734" lon="2.69774">
        <ele>1405</ele>
        <time>2000-01-01T07:25:05.000Z</time>
      </trkpt>
      <trkpt lat="45.07323" lon="2.69803">
        <ele>1398</ele>
        <time>2000-01-01T07:25:15.000Z</time>
      </trkpt>
      <trkpt lat="45.07319" lon="2.69805">
        <ele>1400.3</ele>
        <time>2000-01-01T07:25:25.000Z</time>
      </trkpt>
      <trkpt lat="45.07314" lon="2.69802">
        <ele>1398.8</ele>
        <time>2000-01-01T07:25:35.000Z</time>
      </trkpt>
      <trkpt lat="45.07289" lon="2.69788">
        <ele>1398</ele>
        <time>2000-01-01T07:25:45.000Z</time>
      </trkpt>
      <trkpt lat="45.07278" lon="2.69778">
        <ele>1397</ele>
        <time>2000-01-01T07:25:55.000Z</time>
      </trkpt>
      <trkpt lat="45.07257" lon="2.69762">
        <ele>1397</ele>
        <time>2000-01-01T07:26:05.000Z</time>
      </trkpt>
      <trkpt lat="45.07235" lon="2.69742">
        <ele>1394</ele>
        <time>2000-01-01T07:26:15.000Z</time>
      </trkpt>
      <trkpt lat="45.07214" lon="2.69721">
        <ele>1391</ele>
        <time>2000-01-01T07:26:25.000Z</time>
      </trkpt>
      <trkpt lat="45.07198" lon="2.69702">
        <ele>1390</ele>
        <time>2000-01-01T07:26:35.000Z</time>
      </trkpt>
      <trkpt lat="45.07192" lon="2.69691">
        <ele>1391.4</ele>
        <time>2000-01-01T07:26:45.000Z</time>
      </trkpt>
      <trkpt lat="45.07176" lon="2.69641">
        <ele>1390</ele>
        <time>2000-01-01T07:26:55.000Z</time>
      </trkpt>
      <trkpt lat="45.07169" lon="2.69615">
        <ele>1394</ele>
        <time>2000-01-01T07:27:05.000Z</time>
      </trkpt>
      <trkpt lat="45.07161" lon="2.69568">
        <ele>1395</ele>
        <time>2000-01-01T07:27:15.000Z</time>
      </trkpt>
      <trkpt lat="45.07155" lon="2.69526">
        <ele>1395</ele>
        <time>2000-01-01T07:27:25.000Z</time>
      </trkpt>
      <trkpt lat="45.07152" lon="2.69505">
        <ele>1395</ele>
        <time>2000-01-01T07:27:35.000Z</time>
      </trkpt>
      <trkpt lat="45.07125" lon="2.69521">
        <ele>1395.5</ele>
        <time>2000-01-01T07:27:45.000Z</time>
      </trkpt>
      <trkpt lat="45.07113" lon="2.69529">
        <ele>1396.1</ele>
        <time>2000-01-01T07:27:55.000Z</time>
      </trkpt>
      <trkpt lat="45.0711" lon="2.6953">
        <ele>1395.8</ele>
        <time>2000-01-01T07:28:05.000Z</time>
      </trkpt>
      <trkpt lat="45.07109" lon="2.69527">
        <ele>1394.2</ele>
        <time>2000-01-01T07:28:15.000Z</time>
      </trkpt>
      <trkpt lat="45.07109" lon="2.69527">
        <ele>1394.2</ele>
        <time>2000-01-01T07:28:25.000Z</time>
      </trkpt>
      <trkpt lat="45.0711" lon="2.6953">
        <ele>1395.2</ele>
        <time>2000-01-01T07:28:35.000Z</time>
      </trkpt>
      <trkpt lat="45.07088" lon="2.69539">
        <ele>1395</ele>
        <time>2000-01-01T07:28:45.000Z</time>
      </trkpt>
      <trkpt lat="45.07069" lon="2.69546">
        <ele>1393</ele>
        <time>2000-01-01T07:28:55.000Z</time>
      </trkpt>
      <trkpt lat="45.07057" lon="2.69551">
        <ele>1391</ele>
        <time>2000-01-01T07:29:05.000Z</time>
      </trkpt>
      <trkpt lat="45.07047" lon="2.69558">
        <ele>1391</ele>
        <time>2000-01-01T07:29:15.000Z</time>
      </trkpt>
      <trkpt lat="45.07036" lon="2.69565">
        <ele>1386.9</ele>
        <time>2000-01-01T07:29:25.000Z</time>
      </trkpt>
      <trkpt lat="45.07026" lon="2.69572">
        <ele>1390</ele>
        <time>2000-01-01T07:29:35.000Z</time>
      </trkpt>
      <trkpt lat="45.07019" lon="2.6958">
        <ele>1384.3</ele>
        <time>2000-01-01T07:29:45.000Z</time>
      </trkpt>
      <trkpt lat="45.07014" lon="2.69587">
        <ele>1383.9</ele>
        <time>2000-01-01T07:29:55.000Z</time>
      </trkpt>
      <trkpt lat="45.07007" lon="2.69595">
        <ele>1385</ele>
        <time>2000-01-01T07:30:05.000Z</time>
      </trkpt>
      <trkpt lat="45.07" lon="2.69601">
        <ele>1380.8</ele>
        <time>2000-01-01T07:30:15.000Z</time>
      </trkpt>
      <trkpt lat="45.06992" lon="2.69609">
        <ele>1379.6</ele>
        <time>2000-01-01T07:30:25.000Z</time>
      </trkpt>
      <trkpt lat="45.0698" lon="2.69619">
        <ele>1382</ele>
        <time>2000-01-01T07:30:35.000Z</time>
      </trkpt>
      <trkpt lat="45.06966" lon="2.69631">
        <ele>1375.1</ele>
        <time>2000-01-01T07:30:45.000Z</time>
      </trkpt>
      <trkpt lat="45.06956" lon="2.69641">
        <ele>1377</ele>
        <time>2000-01-01T07:30:55.000Z</time>
      </trkpt>
      <trkpt lat="45.06954" lon="2.69643">
        <ele>1373</ele>
        <time>2000-01-01T07:31:05.000Z</time>
      </trkpt>
      <trkpt lat="45.06944" lon="2.69654">
        <ele>1371.1</ele>
        <time>2000-01-01T07:31:15.000Z</time>
      </trkpt>
      <trkpt lat="45.06939" lon="2.69661">
        <ele>1373</ele>
        <time>2000-01-01T07:31:25.000Z</time>
      </trkpt>
      <trkpt lat="45.06931" lon="2.69673">
        <ele>1369.3</ele>
        <time>2000-01-01T07:31:35.000Z</time>
      </trkpt>
      <trkpt lat="45.06926" lon="2.69678">
        <ele>1367.8</ele>
        <time>2000-01-01T07:31:45.000Z</time>
      </trkpt>
      <trkpt lat="45.06917" lon="2.69683">
        <ele>1370</ele>
        <time>2000-01-01T07:31:55.000Z</time>
      </trkpt>
      <trkpt lat="45.0691" lon="2.69686">
        <ele>1364.7</ele>
        <time>2000-01-01T07:32:05.000Z</time>
      </trkpt>
      <trkpt lat="45.06891" lon="2.69693">
        <ele>1365</ele>
        <time>2000-01-01T07:32:15.000Z</time>
      </trkpt>
      <trkpt lat="45.06881" lon="2.69697">
        <ele>1362.7</ele>
        <time>2000-01-01T07:32:25.000Z</time>
      </trkpt>
      <trkpt lat="45.06876" lon="2.697">
        <ele>1362.4</ele>
        <time>2000-01-01T07:32:35.000Z</time>
      </trkpt>
      <trkpt lat="45.06873" lon="2.69701">
        <ele>1363</ele>
        <time>2000-01-01T07:32:45.000Z</time>
      </trkpt>
      <trkpt lat="45.06864" lon="2.69703">
        <ele>1361.8</ele>
        <time>2000-01-01T07:32:55.000Z</time>
      </trkpt>
      <trkpt lat="45.06859" lon="2.69705">
        <ele>1361.7</ele>
        <time>2000-01-01T07:33:05.000Z</time>
      </trkpt>
      <trkpt lat="45.06856" lon="2.69616">
        <ele>1362</ele>
        <time>2000-01-01T07:33:15.000Z</time>
      </trkpt>
      <trkpt lat="45.06861" lon="2.69618">
        <ele>1354.8</ele>
        <time>2000-01-01T07:33:25.000Z</time>
      </trkpt>
      <trkpt lat="45.0686" lon="2.69621">
        <ele>1355.3</ele>
        <time>2000-01-01T07:33:35.000Z</time>
      </trkpt>
      <trkpt lat="45.0686" lon="2.69621">
        <ele>1355.3</ele>
        <time>2000-01-01T07:33:45.000Z</time>
      </trkpt>
      <trkpt lat="45.06861" lon="2.69618">
        <ele>1354.8</ele>
        <time>2000-01-01T07:33:55.000Z</time>
      </trkpt>
      <trkpt lat="45.06856" lon="2.69616">
        <ele>1355.8</ele>
        <time>2000-01-01T07:34:05.000Z</time>
      </trkpt>
      <trkpt lat="45.06849" lon="2.69594">
        <ele>1356</ele>
        <time>2000-01-01T07:34:15.000Z</time>
      </trkpt>
      <trkpt lat="45.06843" lon="2.69578">
        <ele>1354.9</ele>
        <time>2000-01-01T07:34:25.000Z</time>
      </trkpt>
      <trkpt lat="45.06837" lon="2.69565">
        <ele>1355</ele>
        <time>2000-01-01T07:34:35.000Z</time>
      </trkpt>
      <trkpt lat="45.06825" lon="2.69541">
        <ele>1354</ele>
        <time>2000-01-01T07:34:45.000Z</time>
      </trkpt>
      <trkpt lat="45.06814" lon="2.69507">
        <ele>1354</ele>
        <time>2000-01-01T07:34:55.000Z</time>
      </trkpt>
      <trkpt lat="45.06798" lon="2.69466">
        <ele>1352</ele>
        <time>2000-01-01T07:35:05.000Z</time>
      </trkpt>
      <trkpt lat="45.06788" lon="2.69445">
        <ele>1349.2</ele>
        <time>2000-01-01T07:35:15.000Z</time>
      </trkpt>
      <trkpt lat="45.06776" lon="2.69429">
        <ele>1350</ele>
        <time>2000-01-01T07:35:25.000Z</time>
      </trkpt>
      <trkpt lat="45.06765" lon="2.69412">
        <ele>1344.5</ele>
        <time>2000-01-01T07:35:35.000Z</time>
      </trkpt>
      <trkpt lat="45.06763" lon="2.69392">
        <ele>1346</ele>
        <time>2000-01-01T07:35:45.000Z</time>
      </trkpt>
      <trkpt lat="45.06761" lon="2.6938">
        <ele>1338.8</ele>
        <time>2000-01-01T07:35:55.000Z</time>
      </trkpt>
      <trkpt lat="45.0676" lon="2.69373">
        <ele>1337.9</ele>
        <time>2000-01-01T07:36:05.000Z</time>
      </trkpt>
      <trkpt lat="45.06758" lon="2.69366">
        <ele>1337.5</ele>
        <time>2000-01-01T07:36:15.000Z</time>
      </trkpt>
      <trkpt lat="45.06753" lon="2.69351">
        <ele>1340</ele>
        <time>2000-01-01T07:36:25.000Z</time>
      </trkpt>
      <trkpt lat="45.06751" lon="2.69342">
        <ele>1334.8</ele>
        <time>2000-01-01T07:36:35.000Z</time>
      </trkpt>
      <trkpt lat="45.06746" lon="2.69325">
        <ele>1335</ele>
        <time>2000-01-01T07:36:45.000Z</time>
      </trkpt>
      <trkpt lat="45.06742" lon="2.69311">
        <ele>1332</ele>
        <time>2000-01-01T07:36:55.000Z</time>
      </trkpt>
      <trkpt lat="45.06736" lon="2.69294">
        <ele>1334</ele>
        <time>2000-01-01T07:37:05.000Z</time>
      </trkpt>
      <trkpt lat="45.06733" lon="2.69286">
        <ele>1329.9</ele>
        <time>2000-01-01T07:37:15.000Z</time>
      </trkpt>
      <trkpt lat="45.06729" lon="2.69277">
        <ele>1329.1</ele>
        <time>2000-01-01T07:37:25.000Z</time>
      </trkpt>
      <trkpt lat="45.06723" lon="2.69265">
        <ele>1330</ele>
        <time>2000-01-01T07:37:35.000Z</time>
      </trkpt>
      <trkpt lat="45.06719" lon="2.69259">
        <ele>1326.9</ele>
        <time>2000-01-01T07:37:45.000Z</time>
      </trkpt>
      <trkpt lat="45.06715" lon="2.69253">
        <ele>1326.1</ele>
        <time>2000-01-01T07:37:55.000Z</time>
      </trkpt>
      <trkpt lat="45.06709" lon="2.69247">
        <ele>1325.8</ele>
        <time>2000-01-01T07:38:05.000Z</time>
      </trkpt>
      <trkpt lat="45.06705" lon="2.6924">
        <ele>1328</ele>
        <time>2000-01-01T07:38:15.000Z</time>
      </trkpt>
      <trkpt lat="45.06696" lon="2.69232">
        <ele>1324.1</ele>
        <time>2000-01-01T07:38:25.000Z</time>
      </trkpt>
      <trkpt lat="45.06688" lon="2.69225">
        <ele>1324</ele>
        <time>2000-01-01T07:38:35.000Z</time>
      </trkpt>
      <trkpt lat="45.06676" lon="2.69216">
        <ele>1321.5</ele>
        <time>2000-01-01T07:38:45.000Z</time>
      </trkpt>
      <trkpt lat="45.06655" lon="2.69197">
        <ele>1322</ele>
        <time>2000-01-01T07:38:55.000Z</time>
      </trkpt>
      <trkpt lat="45.06645" lon="2.69187">
        <ele>1314.3</ele>
        <time>2000-01-01T07:39:05.000Z</time>
      </trkpt>
      <trkpt lat="45.06661" lon="2.69188">
        <ele>1315</ele>
        <time>2000-01-01T07:39:15.000Z</time>
      </trkpt>
      <trkpt lat="45.0666" lon="2.69192">
        <ele>1314.6</ele>
        <time>2000-01-01T07:39:25.000Z</time>
      </trkpt>
      <trkpt lat="45.0666" lon="2.69192">
        <ele>1314.6</ele>
        <time>2000-01-01T07:39:35.000Z</time>
      </trkpt>
      <trkpt lat="45.0666" lon="2.69188">
        <ele>1313.3</ele>
        <time>2000-01-01T07:39:45.000Z</time>
      </trkpt>
      <trkpt lat="45.06669" lon="2.69189">
        <ele>1312.8</ele>
        <time>2000-01-01T07:39:55.000Z</time>
      </trkpt>
      <trkpt lat="45.06694" lon="2.69193">
        <ele>1313</ele>
        <time>2000-01-01T07:40:05.000Z</time>
      </trkpt>
      <trkpt lat="45.06722" lon="2.69201">
        <ele>1311</ele>
        <time>2000-01-01T07:40:15.000Z</time>
      </trkpt>
      <trkpt lat="45.06749" lon="2.69215">
        <ele>1308</ele>
        <time>2000-01-01T07:40:25.000Z</time>
      </trkpt>
      <trkpt lat="45.06757" lon="2.69223">
        <ele>1305.2</ele>
        <time>2000-01-01T07:40:35.000Z</time>
      </trkpt>
      <trkpt lat="45.0677" lon="2.69241">
        <ele>1306</ele>
        <time>2000-01-01T07:40:45.000Z</time>
      </trkpt>
      <trkpt lat="45.06777" lon="2.69251">
        <ele>1302.6</ele>
        <time>2000-01-01T07:40:55.000Z</time>
      </trkpt>
      <trkpt lat="45.0679" lon="2.69259">
        <ele>1303</ele>
        <time>2000-01-01T07:41:05.000Z</time>
      </trkpt>
      <trkpt lat="45.06796" lon="2.69264">
        <ele>1300.6</ele>
        <time>2000-01-01T07:41:15.000Z</time>
      </trkpt>
      <trkpt lat="45.068" lon="2.69271">
        <ele>1300.3</ele>
        <time>2000-01-01T07:41:25.000Z</time>
      </trkpt>
      <trkpt lat="45.06803" lon="2.6928">
        <ele>1301</ele>
        <time>2000-01-01T07:41:35.000Z</time>
      </trkpt>
      <trkpt lat="45.06806" lon="2.69284">
        <ele>1299.9</ele>
        <time>2000-01-01T07:41:45.000Z</time>
      </trkpt>
      <trkpt lat="45.06809" lon="2.69285">
        <ele>1299.9</ele>
        <time>2000-01-01T07:41:55.000Z</time>
      </trkpt>
      <trkpt lat="45.06812" lon="2.69285">
        <ele>1299.7</ele>
        <time>2000-01-01T07:42:05.000Z</time>
      </trkpt>
      <trkpt lat="45.06817" lon="2.69282">
        <ele>1298.9</ele>
        <time>2000-01-01T07:42:15.000Z</time>
      </trkpt>
      <trkpt lat="45.06821" lon="2.69275">
        <ele>1298</ele>
        <time>2000-01-01T07:42:25.000Z</time>
      </trkpt>
      <trkpt lat="45.06832" lon="2.69267">
        <ele>1294.8</ele>
        <time>2000-01-01T07:42:35.000Z</time>
      </trkpt>
      <trkpt lat="45.06849" lon="2.6926">
        <ele>1296</ele>
        <time>2000-01-01T07:42:45.000Z</time>
      </trkpt>
      <trkpt lat="45.06873" lon="2.69246">
        <ele>1292</ele>
        <time>2000-01-01T07:42:55.000Z</time>
      </trkpt>
      <trkpt lat="45.06881" lon="2.69244">
        <ele>1284.2</ele>
        <time>2000-01-01T07:43:05.000Z</time>
      </trkpt>
      <trkpt lat="45.06887" lon="2.69246">
        <ele>1283.9</ele>
        <time>2000-01-01T07:43:15.000Z</time>
      </trkpt>
      <trkpt lat="45.06893" lon="2.69251">
        <ele>1286</ele>
        <time>2000-01-01T07:43:25.000Z</time>
      </trkpt>
      <trkpt lat="45.069" lon="2.69255">
        <ele>1285.4</ele>
        <time>2000-01-01T07:43:35.000Z</time>
      </trkpt>
      <trkpt lat="45.06904" lon="2.69254">
        <ele>1285.1</ele>
        <time>2000-01-01T07:43:45.000Z</time>
      </trkpt>
      <trkpt lat="45.06907" lon="2.69251">
        <ele>1284.5</ele>
        <time>2000-01-01T07:43:55.000Z</time>
      </trkpt>
      <trkpt lat="45.06913" lon="2.69241">
        <ele>1283</ele>
        <time>2000-01-01T07:44:05.000Z</time>
      </trkpt>
      <trkpt lat="45.06917" lon="2.69233">
        <ele>1280.9</ele>
        <time>2000-01-01T07:44:15.000Z</time>
      </trkpt>
      <trkpt lat="45.0692" lon="2.69227">
        <ele>1279.7</ele>
        <time>2000-01-01T07:44:25.000Z</time>
      </trkpt>
      <trkpt lat="45.06924" lon="2.69222">
        <ele>1278.4</ele>
        <time>2000-01-01T07:44:35.000Z</time>
      </trkpt>
      <trkpt lat="45.06931" lon="2.69218">
        <ele>1281</ele>
        <time>2000-01-01T07:44:45.000Z</time>
      </trkpt>
      <trkpt lat="45.06941" lon="2.69214">
        <ele>1276.5</ele>
        <time>2000-01-01T07:44:55.000Z</time>
      </trkpt>
      <trkpt lat="45.06946" lon="2.69208">
        <ele>1276.4</ele>
        <time>2000-01-01T07:45:05.000Z</time>
      </trkpt>
      <trkpt lat="45.06949" lon="2.69197">
        <ele>1277</ele>
        <time>2000-01-01T07:45:15.000Z</time>
      </trkpt>
      <trkpt lat="45.06951" lon="2.69181">
        <ele>1275.5</ele>
        <time>2000-01-01T07:45:25.000Z</time>
      </trkpt>
      <trkpt lat="45.06951" lon="2.6917">
        <ele>1276</ele>
        <time>2000-01-01T07:45:35.000Z</time>
      </trkpt>
      <trkpt lat="45.06956" lon="2.69158">
        <ele>1273</ele>
        <time>2000-01-01T07:45:45.000Z</time>
      </trkpt>
      <trkpt lat="45.06959" lon="2.69148">
        <ele>1271.9</ele>
        <time>2000-01-01T07:45:55.000Z</time>
      </trkpt>
      <trkpt lat="45.06958" lon="2.69135">
        <ele>1274</ele>
        <time>2000-01-01T07:46:05.000Z</time>
      </trkpt>
      <trkpt lat="45.06952" lon="2.69116">
        <ele>1268.3</ele>
        <time>2000-01-01T07:46:15.000Z</time>
      </trkpt>
      <trkpt lat="45.06944" lon="2.69083">
        <ele>1269</ele>
        <time>2000-01-01T07:46:25.000Z</time>
      </trkpt>
      <trkpt lat="45.06937" lon="2.69056">
        <ele>1262</ele>
        <time>2000-01-01T07:46:35.000Z</time>
      </trkpt>
      <trkpt lat="45.06934" lon="2.69006">
        <ele>1260</ele>
        <time>2000-01-01T07:46:45.000Z</time>
      </trkpt>
      <trkpt lat="45.0693" lon="2.68989">
        <ele>1253.6</ele>
        <time>2000-01-01T07:46:55.000Z</time>
      </trkpt>
      <trkpt lat="45.06919" lon="2.68957">
        <ele>1253</ele>
        <time>2000-01-01T07:47:05.000Z</time>
      </trkpt>
      <trkpt lat="45.06912" lon="2.68928">
        <ele>1253</ele>
        <time>2000-01-01T07:47:15.000Z</time>
      </trkpt>
      <trkpt lat="45.06907" lon="2.68882">
        <ele>1252</ele>
        <time>2000-01-01T07:47:25.000Z</time>
      </trkpt>
      <trkpt lat="45.06902" lon="2.68851">
        <ele>1251</ele>
        <time>2000-01-01T07:47:35.000Z</time>
      </trkpt>
      <trkpt lat="45.06896" lon="2.68816">
        <ele>1249</ele>
        <time>2000-01-01T07:47:45.000Z</time>
      </trkpt>
      <trkpt lat="45.06889" lon="2.68779">
        <ele>1242</ele>
        <time>2000-01-01T07:47:55.000Z</time>
      </trkpt>
      <trkpt lat="45.06884" lon="2.68749">
        <ele>1235</ele>
        <time>2000-01-01T07:48:05.000Z</time>
      </trkpt>
      <trkpt lat="45.06878" lon="2.68735">
        <ele>1231.7</ele>
        <time>2000-01-01T07:48:15.000Z</time>
      </trkpt>
      <trkpt lat="45.06876" lon="2.68721">
        <ele>1234</ele>
        <time>2000-01-01T07:48:25.000Z</time>
      </trkpt>
      <trkpt lat="45.06873" lon="2.68681">
        <ele>1233</ele>
        <time>2000-01-01T07:48:35.000Z</time>
      </trkpt>
      <trkpt lat="45.06867" lon="2.68641">
        <ele>1228</ele>
        <time>2000-01-01T07:48:45.000Z</time>
      </trkpt>
      <trkpt lat="45.06866" lon="2.68628">
        <ele>1220.9</ele>
        <time>2000-01-01T07:48:55.000Z</time>
      </trkpt>
      <trkpt lat="45.06861" lon="2.68635">
        <ele>1220.4</ele>
        <time>2000-01-01T07:49:05.000Z</time>
      </trkpt>
      <trkpt lat="45.0686" lon="2.68634">
        <ele>1220</ele>
        <time>2000-01-01T07:49:15.000Z</time>
      </trkpt>
      <trkpt lat="45.0686" lon="2.68634">
        <ele>1220</ele>
        <time>2000-01-01T07:49:25.000Z</time>
      </trkpt>
      <trkpt lat="45.06861" lon="2.68635">
        <ele>1220.4</ele>
        <time>2000-01-01T07:49:35.000Z</time>
      </trkpt>
      <trkpt lat="45.0686" lon="2.68637">
        <ele>1223</ele>
        <time>2000-01-01T07:49:45.000Z</time>
      </trkpt>
      <trkpt lat="45.06855" lon="2.68646">
        <ele>1220</ele>
        <time>2000-01-01T07:49:55.000Z</time>
      </trkpt>
      <trkpt lat="45.06846" lon="2.68664">
        <ele>1220</ele>
        <time>2000-01-01T07:50:05.000Z</time>
      </trkpt>
      <trkpt lat="45.06843" lon="2.68675">
        <ele>1218.6</ele>
        <time>2000-01-01T07:50:15.000Z</time>
      </trkpt>
      <trkpt lat="45.06839" lon="2.68689">
        <ele>1218</ele>
        <time>2000-01-01T07:50:25.000Z</time>
      </trkpt>
      <trkpt lat="45.06837" lon="2.68697">
        <ele>1218.2</ele>
        <time>2000-01-01T07:50:35.000Z</time>
      </trkpt>
      <trkpt lat="45.06835" lon="2.68708">
        <ele>1218</ele>
        <time>2000-01-01T07:50:45.000Z</time>
      </trkpt>
      <trkpt lat="45.06831" lon="2.68732">
        <ele>1218</ele>
        <time>2000-01-01T07:50:55.000Z</time>
      </trkpt>
      <trkpt lat="45.06831" lon="2.68739">
        <ele>1217.4</ele>
        <time>2000-01-01T07:51:05.000Z</time>
      </trkpt>
      <trkpt lat="45.06831" lon="2.68747">
        <ele>1217.3</ele>
        <time>2000-01-01T07:51:15.000Z</time>
      </trkpt>
      <trkpt lat="45.06828" lon="2.68755">
        <ele>1218.4</ele>
        <time>2000-01-01T07:51:25.000Z</time>
      </trkpt>
      <trkpt lat="45.06823" lon="2.68759">
        <ele>1216</ele>
        <time>2000-01-01T07:51:35.000Z</time>
      </trkpt>
      <trkpt lat="45.06823" lon="2.68759">
        <ele>1219.5</ele>
        <time>2000-01-01T07:51:45.000Z</time>
      </trkpt>
      <trkpt lat="45.06816" lon="2.68756">
        <ele>1219.7</ele>
        <time>2000-01-01T07:51:55.000Z</time>
      </trkpt>
      <trkpt lat="45.0681" lon="2.68749">
        <ele>1219.3</ele>
        <time>2000-01-01T07:52:05.000Z</time>
      </trkpt>
      <trkpt lat="45.06787" lon="2.68712">
        <ele>1218</ele>
        <time>2000-01-01T07:52:15.000Z</time>
      </trkpt>
      <trkpt lat="45.06773" lon="2.68685">
        <ele>1220</ele>
        <time>2000-01-01T07:52:25.000Z</time>
      </trkpt>
      <trkpt lat="45.06764" lon="2.68674">
        <ele>1219.2</ele>
        <time>2000-01-01T07:52:35.000Z</time>
      </trkpt>
      <trkpt lat="45.0676" lon="2.6867">
        <ele>1218.9</ele>
        <time>2000-01-01T07:52:45.000Z</time>
      </trkpt>
      <trkpt lat="45.0676" lon="2.68669">
        <ele>1218.7</ele>
        <time>2000-01-01T07:52:55.000Z</time>
      </trkpt>
      <trkpt lat="45.0676" lon="2.68669">
        <ele>1218.7</ele>
        <time>2000-01-01T07:53:05.000Z</time>
      </trkpt>
      <trkpt lat="45.0676" lon="2.68669">
        <ele>1218.7</ele>
        <time>2000-01-01T07:53:15.000Z</time>
      </trkpt>
      <trkpt lat="45.0676" lon="2.68669">
        <ele>1218.7</ele>
        <time>2000-01-01T07:53:25.000Z</time>
      </trkpt>
      <trkpt lat="45.06756" lon="2.68665">
        <ele>1220</ele>
        <time>2000-01-01T07:53:35.000Z</time>
      </trkpt>
      <trkpt lat="45.06754" lon="2.68662">
        <ele>1219.1</ele>
        <time>2000-01-01T07:53:45.000Z</time>
      </trkpt>
      <trkpt lat="45.06754" lon="2.68658">
        <ele>1219.5</ele>
        <time>2000-01-01T07:53:55.000Z</time>
      </trkpt>
      <trkpt lat="45.06753" lon="2.68645">
        <ele>1221.1</ele>
        <time>2000-01-01T07:54:05.000Z</time>
      </trkpt>
      <trkpt lat="45.06753" lon="2.68628">
        <ele>1221</ele>
        <time>2000-01-01T07:54:15.000Z</time>
      </trkpt>
      <trkpt lat="45.06752" lon="2.6861">
        <ele>1222.4</ele>
        <time>2000-01-01T07:54:25.000Z</time>
      </trkpt>
      <trkpt lat="45.06751" lon="2.68597">
        <ele>1222</ele>
        <time>2000-01-01T07:54:35.000Z</time>
      </trkpt>
      <trkpt lat="45.06747" lon="2.68575">
        <ele>1221.9</ele>
        <time>2000-01-01T07:54:45.000Z</time>
      </trkpt>
      <trkpt lat="45.06746" lon="2.68563">
        <ele>1222</ele>
        <time>2000-01-01T07:54:55.000Z</time>
      </trkpt>
      <trkpt lat="45.06744" lon="2.68541">
        <ele>1218.9</ele>
        <time>2000-01-01T07:55:05.000Z</time>
      </trkpt>
      <trkpt lat="45.0674" lon="2.685">
        <ele>1221</ele>
        <time>2000-01-01T07:55:15.000Z</time>
      </trkpt>
      <trkpt lat="45.06738" lon="2.68462">
        <ele>1214</ele>
        <time>2000-01-01T07:55:25.000Z</time>
      </trkpt>
      <trkpt lat="45.06738" lon="2.68418">
        <ele>1212</ele>
        <time>2000-01-01T07:55:35.000Z</time>
      </trkpt>
      <trkpt lat="45.06739" lon="2.68389">
        <ele>1211</ele>
        <time>2000-01-01T07:55:45.000Z</time>
      </trkpt>
      <trkpt lat="45.06738" lon="2.68353">
        <ele>1210.5</ele>
        <time>2000-01-01T07:55:55.000Z</time>
      </trkpt>
      <trkpt lat="45.06737" lon="2.68317">
        <ele>1210</ele>
        <time>2000-01-01T07:56:05.000Z</time>
      </trkpt>
      <trkpt lat="45.06736" lon="2.68306">
        <ele>1206.6</ele>
        <time>2000-01-01T07:56:15.000Z</time>
      </trkpt>
      <trkpt lat="45.06733" lon="2.68299">
        <ele>1207.2</ele>
        <time>2000-01-01T07:56:25.000Z</time>
      </trkpt>
      <trkpt lat="45.0673" lon="2.68293">
        <ele>1207.9</ele>
        <time>2000-01-01T07:56:35.000Z</time>
      </trkpt>
      <trkpt lat="45.0673" lon="2.68282">
        <ele>1207</ele>
        <time>2000-01-01T07:56:45.000Z</time>
      </trkpt>
      <trkpt lat="45.06733" lon="2.68272">
        <ele>1207.8</ele>
        <time>2000-01-01T07:56:55.000Z</time>
      </trkpt>
      <trkpt lat="45.06735" lon="2.68263">
        <ele>1207.5</ele>
        <time>2000-01-01T07:57:05.000Z</time>
      </trkpt>
      <trkpt lat="45.06737" lon="2.68254">
        <ele>1206</ele>
        <time>2000-01-01T07:57:15.000Z</time>
      </trkpt>
      <trkpt lat="45.06739" lon="2.68227">
        <ele>1206</ele>
        <time>2000-01-01T07:57:25.000Z</time>
      </trkpt>
      <trkpt lat="45.06739" lon="2.68215">
        <ele>1205.9</ele>
        <time>2000-01-01T07:57:35.000Z</time>
      </trkpt>
      <trkpt lat="45.06738" lon="2.68206">
        <ele>1207</ele>
        <time>2000-01-01T07:57:45.000Z</time>
      </trkpt>
      <trkpt lat="45.06738" lon="2.68183">
        <ele>1207</ele>
        <time>2000-01-01T07:57:55.000Z</time>
      </trkpt>
      <trkpt lat="45.06737" lon="2.68163">
        <ele>1209.8</ele>
        <time>2000-01-01T07:58:05.000Z</time>
      </trkpt>
      <trkpt lat="45.06738" lon="2.68149">
        <ele>1208</ele>
        <time>2000-01-01T07:58:15.000Z</time>
      </trkpt>
      <trkpt lat="45.06742" lon="2.68122">
        <ele>1207.5</ele>
        <time>2000-01-01T07:58:25.000Z</time>
      </trkpt>
      <trkpt lat="45.06744" lon="2.68099">
        <ele>1208.5</ele>
        <time>2000-01-01T07:58:35.000Z</time>
      </trkpt>
      <trkpt lat="45.06747" lon="2.68087">
        <ele>1207.7</ele>
        <time>2000-01-01T07:58:45.000Z</time>
      </trkpt>
      <trkpt lat="45.06752" lon="2.68078">
        <ele>1208.4</ele>
        <time>2000-01-01T07:58:55.000Z</time>
      </trkpt>
      <trkpt lat="45.06755" lon="2.68076">
        <ele>1208.3</ele>
        <time>2000-01-01T07:59:05.000Z</time>
      </trkpt>
      <trkpt lat="45.06761" lon="2.68074">
        <ele>1207.8</ele>
        <time>2000-01-01T07:59:15.000Z</time>
      </trkpt>
      <trkpt lat="45.06772" lon="2.68068">
        <ele>1206.8</ele>
        <time>2000-01-01T07:59:25.000Z</time>
      </trkpt>
      <trkpt lat="45.06781" lon="2.68065">
        <ele>1206.7</ele>
        <time>2000-01-01T07:59:35.000Z</time>
      </trkpt>
      <trkpt lat="45.06789" lon="2.68066">
        <ele>1205.8</ele>
        <time>2000-01-01T07:59:45.000Z</time>
      </trkpt>
      <trkpt lat="45.06806" lon="2.68079">
        <ele>1206</ele>
        <time>2000-01-01T07:59:55.000Z</time>
      </trkpt>
      <trkpt lat="45.06809" lon="2.68083">
        <ele>1203.3</ele>
        <time>2000-01-01T08:00:05.000Z</time>
      </trkpt>
      <trkpt lat="45.06811" lon="2.68087">
        <ele>1203</ele>
        <time>2000-01-01T08:00:15.000Z</time>
      </trkpt>
      <trkpt lat="45.06812" lon="2.68092">
        <ele>1202.5</ele>
        <time>2000-01-01T08:00:25.000Z</time>
      </trkpt>
      <trkpt lat="45.06813" lon="2.68099">
        <ele>1201.8</ele>
        <time>2000-01-01T08:00:35.000Z</time>
      </trkpt>
      <trkpt lat="45.06814" lon="2.68104">
        <ele>1203</ele>
        <time>2000-01-01T08:00:45.000Z</time>
      </trkpt>
      <trkpt lat="45.06818" lon="2.68111">
        <ele>1200.9</ele>
        <time>2000-01-01T08:00:55.000Z</time>
      </trkpt>
      <trkpt lat="45.06831" lon="2.68125">
        <ele>1202</ele>
        <time>2000-01-01T08:01:05.000Z</time>
      </trkpt>
      <trkpt lat="45.06838" lon="2.68127">
        <ele>1196.5</ele>
        <time>2000-01-01T08:01:15.000Z</time>
      </trkpt>
      <trkpt lat="45.06841" lon="2.68126">
        <ele>1195.8</ele>
        <time>2000-01-01T08:01:25.000Z</time>
      </trkpt>
      <trkpt lat="45.06849" lon="2.68118">
        <ele>1199</ele>
        <time>2000-01-01T08:01:35.000Z</time>
      </trkpt>
      <trkpt lat="45.06868" lon="2.6809">
        <ele>1196</ele>
        <time>2000-01-01T08:01:45.000Z</time>
      </trkpt>
      <trkpt lat="45.0688" lon="2.68067">
        <ele>1190</ele>
        <time>2000-01-01T08:01:55.000Z</time>
      </trkpt>
      <trkpt lat="45.06891" lon="2.68032">
        <ele>1186</ele>
        <time>2000-01-01T08:02:05.000Z</time>
      </trkpt>
      <trkpt lat="45.06898" lon="2.68017">
        <ele>1181.6</ele>
        <time>2000-01-01T08:02:15.000Z</time>
      </trkpt>
      <trkpt lat="45.0691" lon="2.67996">
        <ele>1184</ele>
        <time>2000-01-01T08:02:25.000Z</time>
      </trkpt>
      <trkpt lat="45.06915" lon="2.67989">
        <ele>1179</ele>
        <time>2000-01-01T08:02:35.000Z</time>
      </trkpt>
      <trkpt lat="45.06921" lon="2.67983">
        <ele>1178.1</ele>
        <time>2000-01-01T08:02:45.000Z</time>
      </trkpt>
      <trkpt lat="45.06927" lon="2.67983">
        <ele>1177</ele>
        <time>2000-01-01T08:02:55.000Z</time>
      </trkpt>
      <trkpt lat="45.06934" lon="2.67981">
        <ele>1173.6</ele>
        <time>2000-01-01T08:03:05.000Z</time>
      </trkpt>
      <trkpt lat="45.06938" lon="2.67977">
        <ele>1172.8</ele>
        <time>2000-01-01T08:03:15.000Z</time>
      </trkpt>
      <trkpt lat="45.06943" lon="2.67971">
        <ele>1171.4</ele>
        <time>2000-01-01T08:03:25.000Z</time>
      </trkpt>
      <trkpt lat="45.06944" lon="2.67969">
        <ele>1175</ele>
        <time>2000-01-01T08:03:35.000Z</time>
      </trkpt>
      <trkpt lat="45.06944" lon="2.67965">
        <ele>1170.4</ele>
        <time>2000-01-01T08:03:45.000Z</time>
      </trkpt>
      <trkpt lat="45.06942" lon="2.67958">
        <ele>1170.4</ele>
        <time>2000-01-01T08:03:55.000Z</time>
      </trkpt>
      <trkpt lat="45.06939" lon="2.67953">
        <ele>1171.1</ele>
        <time>2000-01-01T08:04:05.000Z</time>
      </trkpt>
      <trkpt lat="45.06939" lon="2.6795">
        <ele>1170.8</ele>
        <time>2000-01-01T08:04:15.000Z</time>
      </trkpt>
      <trkpt lat="45.0694" lon="2.67947">
        <ele>1170</ele>
        <time>2000-01-01T08:04:25.000Z</time>
      </trkpt>
      <trkpt lat="45.06941" lon="2.67943">
        <ele>1172</ele>
        <time>2000-01-01T08:04:35.000Z</time>
      </trkpt>
      <trkpt lat="45.06943" lon="2.67941">
        <ele>1169.7</ele>
        <time>2000-01-01T08:04:45.000Z</time>
      </trkpt>
      <trkpt lat="45.06947" lon="2.67939">
        <ele>1168.8</ele>
        <time>2000-01-01T08:04:55.000Z</time>
      </trkpt>
      <trkpt lat="45.06951" lon="2.67938">
        <ele>1167.6</ele>
        <time>2000-01-01T08:05:05.000Z</time>
      </trkpt>
      <trkpt lat="45.06964" lon="2.67937">
        <ele>1168</ele>
        <time>2000-01-01T08:05:15.000Z</time>
      </trkpt>
      <trkpt lat="45.06977" lon="2.67928">
        <ele>1160.4</ele>
        <time>2000-01-01T08:05:25.000Z</time>
      </trkpt>
      <trkpt lat="45.06983" lon="2.67922">
        <ele>1164</ele>
        <time>2000-01-01T08:05:35.000Z</time>
      </trkpt>
      <trkpt lat="45.06985" lon="2.67919">
        <ele>1159.4</ele>
        <time>2000-01-01T08:05:45.000Z</time>
      </trkpt>
      <trkpt lat="45.06987" lon="2.67912">
        <ele>1159.1</ele>
        <time>2000-01-01T08:05:55.000Z</time>
      </trkpt>
      <trkpt lat="45.0699" lon="2.67897">
        <ele>1160</ele>
        <time>2000-01-01T08:06:05.000Z</time>
      </trkpt>
      <trkpt lat="45.06992" lon="2.67881">
        <ele>1156.1</ele>
        <time>2000-01-01T08:06:15.000Z</time>
      </trkpt>
      <trkpt lat="45.06994" lon="2.67855">
        <ele>1158</ele>
        <time>2000-01-01T08:06:25.000Z</time>
      </trkpt>
      <trkpt lat="45.06997" lon="2.67814">
        <ele>1152</ele>
        <time>2000-01-01T08:06:35.000Z</time>
      </trkpt>
      <trkpt lat="45.06997" lon="2.67811">
        <ele>1146.8</ele>
        <time>2000-01-01T08:06:45.000Z</time>
      </trkpt>
      <trkpt lat="45.06998" lon="2.67808">
        <ele>1146.1</ele>
        <time>2000-01-01T08:06:55.000Z</time>
      </trkpt>
      <trkpt lat="45.07001" lon="2.67808">
        <ele>1144.9</ele>
        <time>2000-01-01T08:07:05.000Z</time>
      </trkpt>
      <trkpt lat="45.07004" lon="2.67805">
        <ele>1143.8</ele>
        <time>2000-01-01T08:07:15.000Z</time>
      </trkpt>
      <trkpt lat="45.07006" lon="2.67803">
        <ele>1143.3</ele>
        <time>2000-01-01T08:07:25.000Z</time>
      </trkpt>
      <trkpt lat="45.07009" lon="2.67797">
        <ele>1142.7</ele>
        <time>2000-01-01T08:07:35.000Z</time>
      </trkpt>
      <trkpt lat="45.07014" lon="2.67771">
        <ele>1145</ele>
        <time>2000-01-01T08:07:45.000Z</time>
      </trkpt>
      <trkpt lat="45.07016" lon="2.67752">
        <ele>1139.6</ele>
        <time>2000-01-01T08:07:55.000Z</time>
      </trkpt>
      <trkpt lat="45.07016" lon="2.67752">
        <ele>1139.6</ele>
        <time>2000-01-01T08:08:05.000Z</time>
      </trkpt>
      <trkpt lat="45.07018" lon="2.6774">
        <ele>1139</ele>
        <time>2000-01-01T08:08:15.000Z</time>
      </trkpt>
      <trkpt lat="45.07019" lon="2.67726">
        <ele>1137</ele>
        <time>2000-01-01T08:08:25.000Z</time>
      </trkpt>
      <trkpt lat="45.0702" lon="2.67716">
        <ele>1136</ele>
        <time>2000-01-01T08:08:35.000Z</time>
      </trkpt>
      <trkpt lat="45.07019" lon="2.67711">
        <ele>1136</ele>
        <time>2000-01-01T08:08:45.000Z</time>
      </trkpt>
      <trkpt lat="45.07019" lon="2.67704">
        <ele>1135.7</ele>
        <time>2000-01-01T08:08:55.000Z</time>
      </trkpt>
      <trkpt lat="45.0702" lon="2.67698">
        <ele>1135</ele>
        <time>2000-01-01T08:09:05.000Z</time>
      </trkpt>
      <trkpt lat="45.07024" lon="2.67695">
        <ele>1133.4</ele>
        <time>2000-01-01T08:09:15.000Z</time>
      </trkpt>
      <trkpt lat="45.07035" lon="2.67694">
        <ele>1134</ele>
        <time>2000-01-01T08:09:25.000Z</time>
      </trkpt>
      <trkpt lat="45.07042" lon="2.67687">
        <ele>1127.9</ele>
        <time>2000-01-01T08:09:35.000Z</time>
      </trkpt>
      <trkpt lat="45.07043" lon="2.67684">
        <ele>1127.7</ele>
        <time>2000-01-01T08:09:45.000Z</time>
      </trkpt>
      <trkpt lat="45.07044" lon="2.67673">
        <ele>1127.9</ele>
        <time>2000-01-01T08:09:55.000Z</time>
      </trkpt>
      <trkpt lat="45.07046" lon="2.67652">
        <ele>1129</ele>
        <time>2000-01-01T08:10:05.000Z</time>
      </trkpt>
      <trkpt lat="45.07046" lon="2.67647">
        <ele>1127.1</ele>
        <time>2000-01-01T08:10:15.000Z</time>
      </trkpt>
      <trkpt lat="45.0705" lon="2.6764">
        <ele>1125.8</ele>
        <time>2000-01-01T08:10:25.000Z</time>
      </trkpt>
      <trkpt lat="45.07053" lon="2.67638">
        <ele>1125</ele>
        <time>2000-01-01T08:10:35.000Z</time>
      </trkpt>
      <trkpt lat="45.07057" lon="2.67637">
        <ele>1124.2</ele>
        <time>2000-01-01T08:10:45.000Z</time>
      </trkpt>
      <trkpt lat="45.07062" lon="2.67636">
        <ele>1125</ele>
        <time>2000-01-01T08:10:55.000Z</time>
      </trkpt>
      <trkpt lat="45.07068" lon="2.67637">
        <ele>1122.1</ele>
        <time>2000-01-01T08:11:05.000Z</time>
      </trkpt>
      <trkpt lat="45.07075" lon="2.67639">
        <ele>1120.5</ele>
        <time>2000-01-01T08:11:15.000Z</time>
      </trkpt>
      <trkpt lat="45.0708" lon="2.67638">
        <ele>1119.7</ele>
        <time>2000-01-01T08:11:25.000Z</time>
      </trkpt>
      <trkpt lat="45.07086" lon="2.67634">
        <ele>1123</ele>
        <time>2000-01-01T08:11:35.000Z</time>
      </trkpt>
      <trkpt lat="45.07092" lon="2.67626">
        <ele>1117.8</ele>
        <time>2000-01-01T08:11:45.000Z</time>
      </trkpt>
      <trkpt lat="45.07099" lon="2.67615">
        <ele>1116.6</ele>
        <time>2000-01-01T08:11:55.000Z</time>
      </trkpt>
      <trkpt lat="45.07105" lon="2.67601">
        <ele>1117</ele>
        <time>2000-01-01T08:12:05.000Z</time>
      </trkpt>
      <trkpt lat="45.07116" lon="2.67578">
        <ele>1114</ele>
        <time>2000-01-01T08:12:15.000Z</time>
      </trkpt>
      <trkpt lat="45.07122" lon="2.67565">
        <ele>1112.7</ele>
        <time>2000-01-01T08:12:25.000Z</time>
      </trkpt>
      <trkpt lat="45.07135" lon="2.67539">
        <ele>1112</ele>
        <time>2000-01-01T08:12:35.000Z</time>
      </trkpt>
      <trkpt lat="45.0714" lon="2.67522">
        <ele>1107</ele>
        <time>2000-01-01T08:12:45.000Z</time>
      </trkpt>
      <trkpt lat="45.07144" lon="2.67513">
        <ele>1108</ele>
        <time>2000-01-01T08:12:55.000Z</time>
      </trkpt>
      <trkpt lat="45.07146" lon="2.67505">
        <ele>1105.7</ele>
        <time>2000-01-01T08:13:05.000Z</time>
      </trkpt>
      <trkpt lat="45.07149" lon="2.67495">
        <ele>1104.9</ele>
        <time>2000-01-01T08:13:15.000Z</time>
      </trkpt>
      <trkpt lat="45.07155" lon="2.67476">
        <ele>1105</ele>
        <time>2000-01-01T08:13:25.000Z</time>
      </trkpt>
      <trkpt lat="45.0716" lon="2.67461">
        <ele>1099.8</ele>
        <time>2000-01-01T08:13:35.000Z</time>
      </trkpt>
      <trkpt lat="45.07161" lon="2.67455">
        <ele>1099</ele>
        <time>2000-01-01T08:13:45.000Z</time>
      </trkpt>
      <trkpt lat="45.07161" lon="2.67441">
        <ele>1100</ele>
        <time>2000-01-01T08:13:55.000Z</time>
      </trkpt>
      <trkpt lat="45.07162" lon="2.67433">
        <ele>1097.8</ele>
        <time>2000-01-01T08:14:05.000Z</time>
      </trkpt>
      <trkpt lat="45.07164" lon="2.67419">
        <ele>1096.5</ele>
        <time>2000-01-01T08:14:15.000Z</time>
      </trkpt>
      <trkpt lat="45.07175" lon="2.6738">
        <ele>1099</ele>
        <time>2000-01-01T08:14:25.000Z</time>
      </trkpt>
      <trkpt lat="45.0719" lon="2.67326">
        <ele>1098</ele>
        <time>2000-01-01T08:14:35.000Z</time>
      </trkpt>
      <trkpt lat="45.07199" lon="2.67296">
        <ele>1093</ele>
        <time>2000-01-01T08:14:45.000Z</time>
      </trkpt>
      <trkpt lat="45.07207" lon="2.67271">
        <ele>1088.9</ele>
        <time>2000-01-01T08:14:55.000Z</time>
      </trkpt>
      <trkpt lat="45.07213" lon="2.67253">
        <ele>1091</ele>
        <time>2000-01-01T08:15:05.000Z</time>
      </trkpt>
      <trkpt lat="45.07215" lon="2.67239">
        <ele>1083</ele>
        <time>2000-01-01T08:15:15.000Z</time>
      </trkpt>
      <trkpt lat="45.07218" lon="2.67198">
        <ele>1086</ele>
        <time>2000-01-01T08:15:25.000Z</time>
      </trkpt>
      <trkpt lat="45.07219" lon="2.67181">
        <ele>1075</ele>
        <time>2000-01-01T08:15:35.000Z</time>
      </trkpt>
      <trkpt lat="45.07221" lon="2.67162">
        <ele>1076</ele>
        <time>2000-01-01T08:15:45.000Z</time>
      </trkpt>
      <trkpt lat="45.07222" lon="2.67153">
        <ele>1071.1</ele>
        <time>2000-01-01T08:15:55.000Z</time>
      </trkpt>
      <trkpt lat="45.0722" lon="2.67147">
        <ele>1070.4</ele>
        <time>2000-01-01T08:16:05.000Z</time>
      </trkpt>
      <trkpt lat="45.07218" lon="2.67142">
        <ele>1069.8</ele>
        <time>2000-01-01T08:16:15.000Z</time>
      </trkpt>
      <trkpt lat="45.07212" lon="2.67138">
        <ele>1072</ele>
        <time>2000-01-01T08:16:25.000Z</time>
      </trkpt>
      <trkpt lat="45.07205" lon="2.67135">
        <ele>1069.5</ele>
        <time>2000-01-01T08:16:35.000Z</time>
      </trkpt>
      <trkpt lat="45.07202" lon="2.67134">
        <ele>1069.5</ele>
        <time>2000-01-01T08:16:45.000Z</time>
      </trkpt>
      <trkpt lat="45.07201" lon="2.67129">
        <ele>1068.7</ele>
        <time>2000-01-01T08:16:55.000Z</time>
      </trkpt>
      <trkpt lat="45.07202" lon="2.67125">
        <ele>1067.8</ele>
        <time>2000-01-01T08:17:05.000Z</time>
      </trkpt>
      <trkpt lat="45.07207" lon="2.67119">
        <ele>1069</ele>
        <time>2000-01-01T08:17:15.000Z</time>
      </trkpt>
      <trkpt lat="45.07214" lon="2.67112">
        <ele>1064.1</ele>
        <time>2000-01-01T08:17:25.000Z</time>
      </trkpt>
      <trkpt lat="45.07224" lon="2.67108">
        <ele>1062.7</ele>
        <time>2000-01-01T08:17:35.000Z</time>
      </trkpt>
      <trkpt lat="45.07237" lon="2.67108">
        <ele>1064</ele>
        <time>2000-01-01T08:17:45.000Z</time>
      </trkpt>
      <trkpt lat="45.07253" lon="2.67113">
        <ele>1056.6</ele>
        <time>2000-01-01T08:17:55.000Z</time>
      </trkpt>
      <trkpt lat="45.07261" lon="2.67118">
        <ele>1058</ele>
        <time>2000-01-01T08:18:05.000Z</time>
      </trkpt>
      <trkpt lat="45.07267" lon="2.67123">
        <ele>1054.1</ele>
        <time>2000-01-01T08:18:15.000Z</time>
      </trkpt>
      <trkpt lat="45.0727" lon="2.67125">
        <ele>1053.4</ele>
        <time>2000-01-01T08:18:25.000Z</time>
      </trkpt>
      <trkpt lat="45.07274" lon="2.67124">
        <ele>1052.1</ele>
        <time>2000-01-01T08:18:35.000Z</time>
      </trkpt>
      <trkpt lat="45.07277" lon="2.67121">
        <ele>1050.9</ele>
        <time>2000-01-01T08:18:45.000Z</time>
      </trkpt>
      <trkpt lat="45.07278" lon="2.67113">
        <ele>1054</ele>
        <time>2000-01-01T08:18:55.000Z</time>
      </trkpt>
      <trkpt lat="45.07279" lon="2.67103">
        <ele>1048.8</ele>
        <time>2000-01-01T08:19:05.000Z</time>
      </trkpt>
      <trkpt lat="45.07281" lon="2.67094">
        <ele>1047.4</ele>
        <time>2000-01-01T08:19:15.000Z</time>
      </trkpt>
      <trkpt lat="45.07283" lon="2.6708">
        <ele>1050</ele>
        <time>2000-01-01T08:19:25.000Z</time>
      </trkpt>
      <trkpt lat="45.07288" lon="2.67056">
        <ele>1044.5</ele>
        <time>2000-01-01T08:19:35.000Z</time>
      </trkpt>
      <trkpt lat="45.07292" lon="2.67036">
        <ele>1045</ele>
        <time>2000-01-01T08:19:45.000Z</time>
      </trkpt>
      <trkpt lat="45.07301" lon="2.67004">
        <ele>1042</ele>
        <time>2000-01-01T08:19:55.000Z</time>
      </trkpt>
      <trkpt lat="45.07311" lon="2.66969">
        <ele>1040</ele>
        <time>2000-01-01T08:20:05.000Z</time>
      </trkpt>
      <trkpt lat="45.07322" lon="2.66927">
        <ele>1039</ele>
        <time>2000-01-01T08:20:15.000Z</time>
      </trkpt>
      <trkpt lat="45.07321" lon="2.66926">
        <ele>1036.3</ele>
        <time>2000-01-01T08:20:25.000Z</time>
      </trkpt>
      <trkpt lat="45.07321" lon="2.66926">
        <ele>1036.3</ele>
        <time>2000-01-01T08:20:35.000Z</time>
      </trkpt>
      <trkpt lat="45.07322" lon="2.66927">
        <ele>1036.3</ele>
        <time>2000-01-01T08:20:45.000Z</time>
      </trkpt>
      <trkpt lat="45.07325" lon="2.66917">
        <ele>1036.7</ele>
        <time>2000-01-01T08:20:55.000Z</time>
      </trkpt>
      <trkpt lat="45.07325" lon="2.66913">
        <ele>1036.9</ele>
        <time>2000-01-01T08:21:05.000Z</time>
      </trkpt>
      <trkpt lat="45.07325" lon="2.66906">
        <ele>1037.2</ele>
        <time>2000-01-01T08:21:15.000Z</time>
      </trkpt>
      <trkpt lat="45.07324" lon="2.66903">
        <ele>1037</ele>
        <time>2000-01-01T08:21:25.000Z</time>
      </trkpt>
      <trkpt lat="45.07321" lon="2.66897">
        <ele>1037.3</ele>
        <time>2000-01-01T08:21:35.000Z</time>
      </trkpt>
      <trkpt lat="45.07316" lon="2.6689">
        <ele>1037.1</ele>
        <time>2000-01-01T08:21:45.000Z</time>
      </trkpt>
      <trkpt lat="45.07309" lon="2.66884">
        <ele>1037</ele>
        <time>2000-01-01T08:21:55.000Z</time>
      </trkpt>
      <trkpt lat="45.07291" lon="2.66874">
        <ele>1036</ele>
        <time>2000-01-01T08:22:05.000Z</time>
      </trkpt>
      <trkpt lat="45.07279" lon="2.66867">
        <ele>1034.3</ele>
        <time>2000-01-01T08:22:15.000Z</time>
      </trkpt>
      <trkpt lat="45.07276" lon="2.66863">
        <ele>1033.8</ele>
        <time>2000-01-01T08:22:25.000Z</time>
      </trkpt>
      <trkpt lat="45.07271" lon="2.6685">
        <ele>1035</ele>
        <time>2000-01-01T08:22:35.000Z</time>
      </trkpt>
      <trkpt lat="45.07269" lon="2.66841">
        <ele>1032.9</ele>
        <time>2000-01-01T08:22:45.000Z</time>
      </trkpt>
      <trkpt lat="45.07267" lon="2.6683">
        <ele>1032</ele>
        <time>2000-01-01T08:22:55.000Z</time>
      </trkpt>
      <trkpt lat="45.07267" lon="2.66823">
        <ele>1032</ele>
        <time>2000-01-01T08:23:05.000Z</time>
      </trkpt>
      <trkpt lat="45.07267" lon="2.66817">
        <ele>1031</ele>
        <time>2000-01-01T08:23:15.000Z</time>
      </trkpt>
      <trkpt lat="45.07267" lon="2.66809">
        <ele>1030.3</ele>
        <time>2000-01-01T08:23:25.000Z</time>
      </trkpt>
      <trkpt lat="45.07265" lon="2.66796">
        <ele>1031</ele>
        <time>2000-01-01T08:23:35.000Z</time>
      </trkpt>
      <trkpt lat="45.07261" lon="2.66788">
        <ele>1026.2</ele>
        <time>2000-01-01T08:23:45.000Z</time>
      </trkpt>
      <trkpt lat="45.07254" lon="2.66777">
        <ele>1024.7</ele>
        <time>2000-01-01T08:23:55.000Z</time>
      </trkpt>
      <trkpt lat="45.07244" lon="2.66768">
        <ele>1028</ele>
        <time>2000-01-01T08:24:05.000Z</time>
      </trkpt>
      <trkpt lat="45.07235" lon="2.66758">
        <ele>1018.9</ele>
        <time>2000-01-01T08:24:15.000Z</time>
      </trkpt>
      <trkpt lat="45.07231" lon="2.66753">
        <ele>1017.8</ele>
        <time>2000-01-01T08:24:25.000Z</time>
      </trkpt>
      <trkpt lat="45.07224" lon="2.66739">
        <ele>1023</ele>
        <time>2000-01-01T08:24:35.000Z</time>
      </trkpt>
      <trkpt lat="45.07222" lon="2.66733">
        <ele>1013.9</ele>
        <time>2000-01-01T08:24:45.000Z</time>
      </trkpt>
      <trkpt lat="45.0722" lon="2.66724">
        <ele>1012.3</ele>
        <time>2000-01-01T08:24:55.000Z</time>
      </trkpt>
      <trkpt lat="45.07222" lon="2.66712">
        <ele>1015</ele>
        <time>2000-01-01T08:25:05.000Z</time>
      </trkpt>
      <trkpt lat="45.07224" lon="2.66694">
        <ele>1005.8</ele>
        <time>2000-01-01T08:25:15.000Z</time>
      </trkpt>
      <trkpt lat="45.07224" lon="2.66683">
        <ele>1009</ele>
        <time>2000-01-01T08:25:25.000Z</time>
      </trkpt>
      <trkpt lat="45.07221" lon="2.66671">
        <ele>1003.6</ele>
        <time>2000-01-01T08:25:35.000Z</time>
      </trkpt>
      <trkpt lat="45.07214" lon="2.66658">
        <ele>1004</ele>
        <time>2000-01-01T08:25:45.000Z</time>
      </trkpt>
      <trkpt lat="45.07201" lon="2.66642">
        <ele>999.4</ele>
        <time>2000-01-01T08:25:55.000Z</time>
      </trkpt>
      <trkpt lat="45.07196" lon="2.66632">
        <ele>1002</ele>
        <time>2000-01-01T08:26:05.000Z</time>
      </trkpt>
      <trkpt lat="45.0719" lon="2.66625">
        <ele>995.9</ele>
        <time>2000-01-01T08:26:15.000Z</time>
      </trkpt>
      <trkpt lat="45.07188" lon="2.66616">
        <ele>994.8</ele>
        <time>2000-01-01T08:26:25.000Z</time>
      </trkpt>
      <trkpt lat="45.07188" lon="2.66606">
        <ele>996</ele>
        <time>2000-01-01T08:26:35.000Z</time>
      </trkpt>
      <trkpt lat="45.07191" lon="2.66593">
        <ele>990.8</ele>
        <time>2000-01-01T08:26:45.000Z</time>
      </trkpt>
      <trkpt lat="45.07196" lon="2.66577">
        <ele>991</ele>
        <time>2000-01-01T08:26:55.000Z</time>
      </trkpt>
      <trkpt lat="45.07199" lon="2.66566">
        <ele>985.1</ele>
        <time>2000-01-01T08:27:05.000Z</time>
      </trkpt>
      <trkpt lat="45.07198" lon="2.66557">
        <ele>984.4</ele>
        <time>2000-01-01T08:27:15.000Z</time>
      </trkpt>
      <trkpt lat="45.07197" lon="2.66546">
        <ele>987</ele>
        <time>2000-01-01T08:27:25.000Z</time>
      </trkpt>
      <trkpt lat="45.07192" lon="2.6653">
        <ele>984.7</ele>
        <time>2000-01-01T08:27:35.000Z</time>
      </trkpt>
      <trkpt lat="45.07186" lon="2.66517">
        <ele>983</ele>
        <time>2000-01-01T08:27:45.000Z</time>
      </trkpt>
      <trkpt lat="45.07174" lon="2.66499">
        <ele>981.5</ele>
        <time>2000-01-01T08:27:55.000Z</time>
      </trkpt>
      <trkpt lat="45.07164" lon="2.66481">
        <ele>981</ele>
        <time>2000-01-01T08:28:05.000Z</time>
      </trkpt>
      <trkpt lat="45.07152" lon="2.66463">
        <ele>980.7</ele>
        <time>2000-01-01T08:28:15.000Z</time>
      </trkpt>
      <trkpt lat="45.07142" lon="2.66446">
        <ele>979</ele>
        <time>2000-01-01T08:28:25.000Z</time>
      </trkpt>
      <trkpt lat="45.07128" lon="2.66429">
        <ele>972.8</ele>
        <time>2000-01-01T08:28:35.000Z</time>
      </trkpt>
      <trkpt lat="45.0711" lon="2.66404">
        <ele>974</ele>
        <time>2000-01-01T08:28:45.000Z</time>
      </trkpt>
      <trkpt lat="45.07096" lon="2.66389">
        <ele>963.8</ele>
        <time>2000-01-01T08:28:55.000Z</time>
      </trkpt>
      <trkpt lat="45.0708" lon="2.66368">
        <ele>965</ele>
        <time>2000-01-01T08:29:05.000Z</time>
      </trkpt>
      <trkpt lat="45.07075" lon="2.66359">
        <ele>959.4</ele>
        <time>2000-01-01T08:29:15.000Z</time>
      </trkpt>
      <trkpt lat="45.07072" lon="2.6635">
        <ele>958.5</ele>
        <time>2000-01-01T08:29:25.000Z</time>
      </trkpt>
      <trkpt lat="45.07064" lon="2.66323">
        <ele>961</ele>
        <time>2000-01-01T08:29:35.000Z</time>
      </trkpt>
      <trkpt lat="45.07057" lon="2.66303">
        <ele>949.1</ele>
        <time>2000-01-01T08:29:45.000Z</time>
      </trkpt>
      <trkpt lat="45.07044" lon="2.66281">
        <ele>953</ele>
        <time>2000-01-01T08:29:55.000Z</time>
      </trkpt>
      <trkpt lat="45.07033" lon="2.66264">
        <ele>944</ele>
        <time>2000-01-01T08:30:05.000Z</time>
      </trkpt>
      <trkpt lat="45.07026" lon="2.66253">
        <ele>945</ele>
        <time>2000-01-01T08:30:15.000Z</time>
      </trkpt>
      <trkpt lat="45.07021" lon="2.66239">
        <ele>943.2</ele>
        <time>2000-01-01T08:30:25.000Z</time>
      </trkpt>
      <trkpt lat="45.07016" lon="2.66221">
        <ele>942</ele>
        <time>2000-01-01T08:30:35.000Z</time>
      </trkpt>
      <trkpt lat="45.07014" lon="2.66204">
        <ele>943</ele>
        <time>2000-01-01T08:30:45.000Z</time>
      </trkpt>
      <trkpt lat="45.07008" lon="2.66182">
        <ele>941</ele>
        <time>2000-01-01T08:30:55.000Z</time>
      </trkpt>
      <trkpt lat="45.07003" lon="2.6617">
        <ele>940.3</ele>
        <time>2000-01-01T08:31:05.000Z</time>
      </trkpt>
      <trkpt lat="45.07008" lon="2.66164">
        <ele>939</ele>
        <time>2000-01-01T08:31:15.000Z</time>
      </trkpt>
      <trkpt lat="45.07022" lon="2.66146">
        <ele>938</ele>
        <time>2000-01-01T08:31:25.000Z</time>
      </trkpt>
      <trkpt lat="45.07033" lon="2.66133">
        <ele>935.2</ele>
        <time>2000-01-01T08:31:35.000Z</time>
      </trkpt>
      <trkpt lat="45.07045" lon="2.66115">
        <ele>936</ele>
        <time>2000-01-01T08:31:45.000Z</time>
      </trkpt>
      <trkpt lat="45.07042" lon="2.6611">
        <ele>932.9</ele>
        <time>2000-01-01T08:31:55.000Z</time>
      </trkpt>
      <trkpt lat="45.07037" lon="2.66106">
        <ele>932.8</ele>
        <time>2000-01-01T08:32:05.000Z</time>
      </trkpt>
      <trkpt lat="45.07029" lon="2.661">
        <ele>933</ele>
        <time>2000-01-01T08:32:15.000Z</time>
      </trkpt>
      <trkpt lat="45.07022" lon="2.66094">
        <ele>932.6</ele>
        <time>2000-01-01T08:32:25.000Z</time>
      </trkpt>
      <trkpt lat="45.07016" lon="2.66088">
        <ele>932.4</ele>
        <time>2000-01-01T08:32:35.000Z</time>
      </trkpt>
      <trkpt lat="45.07012" lon="2.66083">
        <ele>933</ele>
        <time>2000-01-01T08:32:45.000Z</time>
      </trkpt>
      <trkpt lat="45.07009" lon="2.66079">
        <ele>932.1</ele>
        <time>2000-01-01T08:32:55.000Z</time>
      </trkpt>
      <trkpt lat="45.07007" lon="2.66071">
        <ele>931.9</ele>
        <time>2000-01-01T08:33:05.000Z</time>
      </trkpt>
      <trkpt lat="45.07005" lon="2.6606">
        <ele>931.6</ele>
        <time>2000-01-01T08:33:15.000Z</time>
      </trkpt>
      <trkpt lat="45.07004" lon="2.6605">
        <ele>932</ele>
        <time>2000-01-01T08:33:25.000Z</time>
      </trkpt>
      <trkpt lat="45.07003" lon="2.66039">
        <ele>931</ele>
        <time>2000-01-01T08:33:35.000Z</time>
      </trkpt>
      <trkpt lat="45.07001" lon="2.66032">
        <ele>931</ele>
        <time>2000-01-01T08:33:45.000Z</time>
      </trkpt>
      <trkpt lat="45.06996" lon="2.66015">
        <ele>931</ele>
        <time>2000-01-01T08:33:55.000Z</time>
      </trkpt>
      <trkpt lat="45.06979" lon="2.65975">
        <ele>930</ele>
        <time>2000-01-01T08:34:05.000Z</time>
      </trkpt>
      <trkpt lat="45.06972" lon="2.65952">
        <ele>929.6</ele>
        <time>2000-01-01T08:34:15.000Z</time>
      </trkpt>
      <trkpt lat="45.06967" lon="2.65935">
        <ele>930</ele>
        <time>2000-01-01T08:34:25.000Z</time>
      </trkpt>
      <trkpt lat="45.06964" lon="2.65921">
        <ele>929.3</ele>
        <time>2000-01-01T08:34:35.000Z</time>
      </trkpt>
      <trkpt lat="45.06958" lon="2.65899">
        <ele>930</ele>
        <time>2000-01-01T08:34:45.000Z</time>
      </trkpt>
      <trkpt lat="45.06957" lon="2.65893">
        <ele>929.3</ele>
        <time>2000-01-01T08:34:55.000Z</time>
      </trkpt>
      <trkpt lat="45.0695" lon="2.65871">
        <ele>929</ele>
        <time>2000-01-01T08:35:05.000Z</time>
      </trkpt>
      <trkpt lat="45.06945" lon="2.65859">
        <ele>929.6</ele>
        <time>2000-01-01T08:35:15.000Z</time>
      </trkpt>
      <trkpt lat="45.0694" lon="2.65845">
        <ele>929</ele>
        <time>2000-01-01T08:35:25.000Z</time>
      </trkpt>
      <trkpt lat="45.06932" lon="2.65832">
        <ele>928.1</ele>
        <time>2000-01-01T08:35:35.000Z</time>
      </trkpt>
      <trkpt lat="45.06928" lon="2.65822">
        <ele>928</ele>
        <time>2000-01-01T08:35:45.000Z</time>
      </trkpt>
      <trkpt lat="45.06925" lon="2.65815">
        <ele>928.2</ele>
        <time>2000-01-01T08:35:55.000Z</time>
      </trkpt>
      <trkpt lat="45.06922" lon="2.65803">
        <ele>927.7</ele>
        <time>2000-01-01T08:36:05.000Z</time>
      </trkpt>
      <trkpt lat="45.06919" lon="2.65788">
        <ele>928</ele>
        <time>2000-01-01T08:36:15.000Z</time>
      </trkpt>
      <trkpt lat="45.06916" lon="2.65779">
        <ele>925.2</ele>
        <time>2000-01-01T08:36:25.000Z</time>
      </trkpt>
      <trkpt lat="45.06912" lon="2.65769">
        <ele>924.9</ele>
        <time>2000-01-01T08:36:35.000Z</time>
      </trkpt>
      <trkpt lat="45.06905" lon="2.65759">
        <ele>926</ele>
        <time>2000-01-01T08:36:45.000Z</time>
      </trkpt>
      <trkpt lat="45.06896" lon="2.65747">
        <ele>924.9</ele>
        <time>2000-01-01T08:36:55.000Z</time>
      </trkpt>
      <trkpt lat="45.06887" lon="2.65732">
        <ele>924</ele>
        <time>2000-01-01T08:37:05.000Z</time>
      </trkpt>
      <trkpt lat="45.0687" lon="2.65717">
        <ele>923</ele>
        <time>2000-01-01T08:37:15.000Z</time>
      </trkpt>
      <trkpt lat="45.06857" lon="2.65704">
        <ele>923.8</ele>
        <time>2000-01-01T08:37:25.000Z</time>
      </trkpt>
      <trkpt lat="45.06844" lon="2.65687">
        <ele>923</ele>
        <time>2000-01-01T08:37:35.000Z</time>
      </trkpt>
      <trkpt lat="45.06845" lon="2.65686">
        <ele>923.1</ele>
        <time>2000-01-01T08:37:45.000Z</time>
      </trkpt>
    </trkseg>
  </trk>
</gpx>